<?xml version='1.0' encoding='UTF-8'?><gpx version="1.1" creator="JPX - https://github.com/jenetics/jpx" xmlns="http://www.topografix.com/GPX/1/1"><trk><trkseg><trkpt lat="45.8413636" lon="13.4774058"><ele>14.0</ele><time>2026-04-19T09:57:44.841Z</time></trkpt><trkpt lat="45.8413909" lon="13.4772478"><ele>14.0</ele><time>2026-04-19T09:57:45.841Z</time></trkpt><trkpt lat="45.8414303" lon="13.4770489"><ele>14.0</ele><time>2026-04-19T09:57:46.842Z</time></trkpt><trkpt lat="45.8414894" lon="13.4768183"><ele>14.0</ele><time>2026-04-19T09:57:47.841Z</time></trkpt><trkpt lat="45.841552" lon="13.4765584"><ele>14.0</ele><time>2026-04-19T09:57:48.841Z</time></trkpt><trkpt lat="45.841624" lon="13.4762739"><ele>14.0</ele><time>2026-04-19T09:57:49.842Z</time></trkpt><trkpt lat="45.8417065" lon="13.4759644"><ele>14.0</ele><time>2026-04-19T09:57:50.842Z</time></trkpt><trkpt lat="45.8417925" lon="13.4756385"><ele>13.5</ele><time>2026-04-19T09:57:51.842Z</time></trkpt><trkpt lat="45.8418771" lon="13.4752992"><ele>13.0</ele><time>2026-04-19T09:57:52.842Z</time></trkpt><trkpt lat="45.84195" lon="13.4749526"><ele>13.0</ele><time>2026-04-19T09:57:53.842Z</time></trkpt><trkpt lat="45.8420233" lon="13.4746096"><ele>13.0</ele><time>2026-04-19T09:57:54.842Z</time></trkpt><trkpt lat="45.8420868" lon="13.4742541"><ele>14.0</ele><time>2026-04-19T09:57:55.842Z</time></trkpt><trkpt lat="45.8421452" lon="13.473899"><ele>15.0</ele><time>2026-04-19T09:57:56.841Z</time></trkpt><trkpt lat="45.8422125" lon="13.4735741"><ele>15.0</ele><time>2026-04-19T09:57:57.841Z</time></trkpt><trkpt lat="45.8422732" lon="13.4732643"><ele>15.0</ele><time>2026-04-19T09:57:58.842Z</time></trkpt><trkpt lat="45.8423395" lon="13.4729736"><ele>15.0</ele><time>2026-04-19T09:57:59.842Z</time></trkpt><trkpt lat="45.8423983" lon="13.4727093"><ele>15.0</ele><time>2026-04-19T09:58:00.842Z</time></trkpt><trkpt lat="45.8424461" lon="13.4724528"><ele>15.0</ele><time>2026-04-19T09:58:01.842Z</time></trkpt><trkpt lat="45.8425042" lon="13.4721904"><ele>15.0</ele><time>2026-04-19T09:58:02.842Z</time></trkpt><trkpt lat="45.8425617" lon="13.4719213"><ele>15.0</ele><time>2026-04-19T09:58:03.841Z</time></trkpt><trkpt lat="45.8426267" lon="13.47166"><ele>15.0</ele><time>2026-04-19T09:58:04.841Z</time></trkpt><trkpt lat="45.8426998" lon="13.4713901"><ele>15.0</ele><time>2026-04-19T09:58:05.842Z</time></trkpt><trkpt lat="45.8427902" lon="13.4711223"><ele>15.0</ele><time>2026-04-19T09:58:06.842Z</time></trkpt><trkpt lat="45.8428885" lon="13.4708565"><ele>15.0</ele><time>2026-04-19T09:58:07.842Z</time></trkpt><trkpt lat="45.8429858" lon="13.4705822"><ele>15.0</ele><time>2026-04-19T09:58:08.842Z</time></trkpt><trkpt lat="45.8430851" lon="13.4702961"><ele>15.0</ele><time>2026-04-19T09:58:09.841Z</time></trkpt><trkpt lat="45.8431781" lon="13.4700147"><ele>15.0</ele><time>2026-04-19T09:58:10.842Z</time></trkpt><trkpt lat="45.8432732" lon="13.4697249"><ele>15.0</ele><time>2026-04-19T09:58:11.842Z</time></trkpt><trkpt lat="45.8433727" lon="13.4694529"><ele>15.0</ele><time>2026-04-19T09:58:12.842Z</time></trkpt><trkpt lat="45.8434619" lon="13.4691994"><ele>15.0</ele><time>2026-04-19T09:58:13.842Z</time></trkpt><trkpt lat="45.8435486" lon="13.4689599"><ele>15.0</ele><time>2026-04-19T09:58:14.841Z</time></trkpt><trkpt lat="45.843651" lon="13.4687078"><ele>15.0</ele><time>2026-04-19T09:58:15.842Z</time></trkpt><trkpt lat="45.8437593" lon="13.4684553"><ele>15.0</ele><time>2026-04-19T09:58:16.842Z</time></trkpt><trkpt lat="45.8438719" lon="13.4682063"><ele>15.0</ele><time>2026-04-19T09:58:17.842Z</time></trkpt><trkpt lat="45.8439613" lon="13.4679583"><ele>15.0</ele><time>2026-04-19T09:58:18.842Z</time></trkpt><trkpt lat="45.8440419" lon="13.4677139"><ele>15.0</ele><time>2026-04-19T09:58:19.842Z</time></trkpt><trkpt lat="45.844106" lon="13.4674541"><ele>15.0</ele><time>2026-04-19T09:58:20.841Z</time></trkpt><trkpt lat="45.8441588" lon="13.4672004"><ele>14.75</ele><time>2026-04-19T09:58:21.842Z</time></trkpt><trkpt lat="45.8442063" lon="13.4669779"><ele>14.5</ele><time>2026-04-19T09:58:22.841Z</time></trkpt><trkpt lat="45.8442552" lon="13.4667765"><ele>14.25</ele><time>2026-04-19T09:58:23.842Z</time></trkpt><trkpt lat="45.8443223" lon="13.4666177"><ele>14.0</ele><time>2026-04-19T09:58:24.842Z</time></trkpt><trkpt lat="45.8444007" lon="13.4665276"><ele>14.0</ele><time>2026-04-19T09:58:25.842Z</time></trkpt><trkpt lat="45.8444976" lon="13.4664748"><ele>13.999999999999998</ele><time>2026-04-19T09:58:26.842Z</time></trkpt><trkpt lat="45.8446198" lon="13.4664783"><ele>13.999999999999998</ele><time>2026-04-19T09:58:27.842Z</time></trkpt><trkpt lat="45.8447291" lon="13.4664733"><ele>14.0</ele><time>2026-04-19T09:58:28.842Z</time></trkpt><trkpt lat="45.8448188" lon="13.4664077"><ele>14.0</ele><time>2026-04-19T09:58:29.842Z</time></trkpt><trkpt lat="45.8449055" lon="13.4662759"><ele>14.0</ele><time>2026-04-19T09:58:30.841Z</time></trkpt><trkpt lat="45.8450002" lon="13.4661088"><ele>14.0</ele><time>2026-04-19T09:58:31.841Z</time></trkpt><trkpt lat="45.8450932" lon="13.4659045"><ele>14.0</ele><time>2026-04-19T09:58:32.841Z</time></trkpt><trkpt lat="45.8451661" lon="13.4656872"><ele>13.666666666666668</ele><time>2026-04-19T09:58:33.842Z</time></trkpt><trkpt lat="45.8452156" lon="13.4654368"><ele>13.333333333333332</ele><time>2026-04-19T09:58:34.842Z</time></trkpt><trkpt lat="45.8452562" lon="13.4651444"><ele>13.0</ele><time>2026-04-19T09:58:35.842Z</time></trkpt><trkpt lat="45.8452783" lon="13.4648298"><ele>12.666666666666666</ele><time>2026-04-19T09:58:36.842Z</time></trkpt><trkpt lat="45.8453004" lon="13.4645201"><ele>12.333333333333332</ele><time>2026-04-19T09:58:37.841Z</time></trkpt><trkpt lat="45.8453131" lon="13.4642108"><ele>12.0</ele><time>2026-04-19T09:58:38.841Z</time></trkpt><trkpt lat="45.8453202" lon="13.4638947"><ele>12.666666666666668</ele><time>2026-04-19T09:58:39.842Z</time></trkpt><trkpt lat="45.8453365" lon="13.4635789"><ele>13.333333333333334</ele><time>2026-04-19T09:58:40.842Z</time></trkpt><trkpt lat="45.8453559" lon="13.4632707"><ele>14.0</ele><time>2026-04-19T09:58:41.842Z</time></trkpt><trkpt lat="45.8453673" lon="13.4629882"><ele>14.0</ele><time>2026-04-19T09:58:42.842Z</time></trkpt><trkpt lat="45.8453858" lon="13.4627287"><ele>14.0</ele><time>2026-04-19T09:58:43.841Z</time></trkpt><trkpt lat="45.8454015" lon="13.4625147"><ele>14.0</ele><time>2026-04-19T09:58:44.842Z</time></trkpt><trkpt lat="45.8454136" lon="13.4623538"><ele>14.0</ele><time>2026-04-19T09:58:45.842Z</time></trkpt><trkpt lat="45.8454339" lon="13.462247"><ele>14.000000000000002</ele><time>2026-04-19T09:58:46.842Z</time></trkpt><trkpt lat="45.8454463" lon="13.4620675"><ele>14.0</ele><time>2026-04-19T09:58:48.842Z</time></trkpt><trkpt lat="45.8454284" lon="13.4619595"><ele>14.0</ele><time>2026-04-19T09:58:49.842Z</time></trkpt><trkpt lat="45.845388" lon="13.4618621"><ele>14.0</ele><time>2026-04-19T09:58:50.842Z</time></trkpt><trkpt lat="45.8453428" lon="13.4617981"><ele>14.000000000000002</ele><time>2026-04-19T09:58:51.842Z</time></trkpt><trkpt lat="45.8452909" lon="13.4617464"><ele>14.0</ele><time>2026-04-19T09:58:52.842Z</time></trkpt><trkpt lat="45.8452336" lon="13.4616731"><ele>14.0</ele><time>2026-04-19T09:58:53.842Z</time></trkpt><trkpt lat="45.8451761" lon="13.461577"><ele>14.0</ele><time>2026-04-19T09:58:54.842Z</time></trkpt><trkpt lat="45.8451236" lon="13.4614399"><ele>14.0</ele><time>2026-04-19T09:58:55.841Z</time></trkpt><trkpt lat="45.8450647" lon="13.4612587"><ele>14.0</ele><time>2026-04-19T09:58:56.841Z</time></trkpt><trkpt lat="45.8449976" lon="13.4610344"><ele>14.666666666666668</ele><time>2026-04-19T09:58:57.842Z</time></trkpt><trkpt lat="45.8449123" lon="13.460795"><ele>15.333333333333332</ele><time>2026-04-19T09:58:58.841Z</time></trkpt><trkpt lat="45.8448105" lon="13.4605357"><ele>16.0</ele><time>2026-04-19T09:58:59.842Z</time></trkpt><trkpt lat="45.8446956" lon="13.460269"><ele>16.0</ele><time>2026-04-19T09:59:00.842Z</time></trkpt><trkpt lat="45.8445841" lon="13.4600004"><ele>16.0</ele><time>2026-04-19T09:59:01.842Z</time></trkpt><trkpt lat="45.8444663" lon="13.4597323"><ele>16.0</ele><time>2026-04-19T09:59:02.842Z</time></trkpt><trkpt lat="45.8443575" lon="13.4594717"><ele>16.0</ele><time>2026-04-19T09:59:03.842Z</time></trkpt><trkpt lat="45.8442345" lon="13.4592089"><ele>16.0</ele><time>2026-04-19T09:59:04.841Z</time></trkpt><trkpt lat="45.8440961" lon="13.4589424"><ele>15.0</ele><time>2026-04-19T09:59:05.842Z</time></trkpt><trkpt lat="45.8439482" lon="13.4586908"><ele>14.0</ele><time>2026-04-19T09:59:06.842Z</time></trkpt><trkpt lat="45.8437897" lon="13.458443"><ele>14.0</ele><time>2026-04-19T09:59:07.842Z</time></trkpt><trkpt lat="45.8436266" lon="13.4581958"><ele>14.0</ele><time>2026-04-19T09:59:08.841Z</time></trkpt><trkpt lat="45.8434509" lon="13.4579528"><ele>13.5</ele><time>2026-04-19T09:59:09.842Z</time></trkpt><trkpt lat="45.8432803" lon="13.4577189"><ele>13.0</ele><time>2026-04-19T09:59:10.841Z</time></trkpt><trkpt lat="45.8431011" lon="13.4574831"><ele>13.0</ele><time>2026-04-19T09:59:11.842Z</time></trkpt><trkpt lat="45.8429137" lon="13.4572503"><ele>13.0</ele><time>2026-04-19T09:59:12.842Z</time></trkpt><trkpt lat="45.842728" lon="13.4570153"><ele>12.5</ele><time>2026-04-19T09:59:13.842Z</time></trkpt><trkpt lat="45.84254" lon="13.4567829"><ele>12.0</ele><time>2026-04-19T09:59:14.841Z</time></trkpt><trkpt lat="45.8423491" lon="13.4565514"><ele>12.0</ele><time>2026-04-19T09:59:15.841Z</time></trkpt><trkpt lat="45.8421667" lon="13.4563166"><ele>12.0</ele><time>2026-04-19T09:59:16.842Z</time></trkpt><trkpt lat="45.8419879" lon="13.4560847"><ele>12.0</ele><time>2026-04-19T09:59:17.842Z</time></trkpt><trkpt lat="45.8418097" lon="13.455867"><ele>12.0</ele><time>2026-04-19T09:59:18.841Z</time></trkpt><trkpt lat="45.8416394" lon="13.4556425"><ele>11.0</ele><time>2026-04-19T09:59:19.842Z</time></trkpt><trkpt lat="45.8414617" lon="13.4554188"><ele>10.0</ele><time>2026-04-19T09:59:20.842Z</time></trkpt><trkpt lat="45.8412821" lon="13.4551982"><ele>10.0</ele><time>2026-04-19T09:59:21.842Z</time></trkpt><trkpt lat="45.84111" lon="13.4549667"><ele>10.0</ele><time>2026-04-19T09:59:22.842Z</time></trkpt><trkpt lat="45.8409422" lon="13.454739"><ele>10.0</ele><time>2026-04-19T09:59:23.841Z</time></trkpt><trkpt lat="45.8407739" lon="13.4545146"><ele>10.0</ele><time>2026-04-19T09:59:24.841Z</time></trkpt><trkpt lat="45.8406056" lon="13.4542911"><ele>10.0</ele><time>2026-04-19T09:59:25.842Z</time></trkpt><trkpt lat="45.8404274" lon="13.4540733"><ele>10.0</ele><time>2026-04-19T09:59:26.842Z</time></trkpt><trkpt lat="45.8402545" lon="13.4538521"><ele>11.0</ele><time>2026-04-19T09:59:27.842Z</time></trkpt><trkpt lat="45.8400876" lon="13.4536429"><ele>12.0</ele><time>2026-04-19T09:59:28.842Z</time></trkpt><trkpt lat="45.8399161" lon="13.4534236"><ele>12.0</ele><time>2026-04-19T09:59:29.842Z</time></trkpt><trkpt lat="45.8397434" lon="13.453203"><ele>12.0</ele><time>2026-04-19T09:59:30.842Z</time></trkpt><trkpt lat="45.8395669" lon="13.4529807"><ele>11.5</ele><time>2026-04-19T09:59:31.842Z</time></trkpt><trkpt lat="45.8393949" lon="13.4527512"><ele>11.0</ele><time>2026-04-19T09:59:32.842Z</time></trkpt><trkpt lat="45.8392249" lon="13.4525205"><ele>11.0</ele><time>2026-04-19T09:59:33.842Z</time></trkpt><trkpt lat="45.8390591" lon="13.4522903"><ele>11.0</ele><time>2026-04-19T09:59:34.841Z</time></trkpt><trkpt lat="45.8388896" lon="13.4520601"><ele>10.5</ele><time>2026-04-19T09:59:35.841Z</time></trkpt><trkpt lat="45.8387216" lon="13.4518267"><ele>10.0</ele><time>2026-04-19T09:59:36.842Z</time></trkpt><trkpt lat="45.8385515" lon="13.4515953"><ele>10.0</ele><time>2026-04-19T09:59:37.842Z</time></trkpt><trkpt lat="45.8383834" lon="13.4513632"><ele>10.0</ele><time>2026-04-19T09:59:38.841Z</time></trkpt><trkpt lat="45.8382158" lon="13.4511332"><ele>10.0</ele><time>2026-04-19T09:59:39.841Z</time></trkpt><trkpt lat="45.8380524" lon="13.4508973"><ele>10.0</ele><time>2026-04-19T09:59:40.841Z</time></trkpt><trkpt lat="45.8378845" lon="13.4506557"><ele>9.5</ele><time>2026-04-19T09:59:41.842Z</time></trkpt><trkpt lat="45.8377163" lon="13.4504213"><ele>9.0</ele><time>2026-04-19T09:59:42.842Z</time></trkpt><trkpt lat="45.8375534" lon="13.4501931"><ele>9.0</ele><time>2026-04-19T09:59:43.841Z</time></trkpt><trkpt lat="45.837382" lon="13.4499623"><ele>9.0</ele><time>2026-04-19T09:59:44.842Z</time></trkpt><trkpt lat="45.8372102" lon="13.4497334"><ele>9.5</ele><time>2026-04-19T09:59:45.842Z</time></trkpt><trkpt lat="45.8370355" lon="13.4495102"><ele>10.0</ele><time>2026-04-19T09:59:46.842Z</time></trkpt><trkpt lat="45.8368571" lon="13.4492971"><ele>9.5</ele><time>2026-04-19T09:59:47.842Z</time></trkpt><trkpt lat="45.8366813" lon="13.4490889"><ele>9.0</ele><time>2026-04-19T09:59:48.842Z</time></trkpt><trkpt lat="45.8364969" lon="13.4488875"><ele>9.5</ele><time>2026-04-19T09:59:49.842Z</time></trkpt><trkpt lat="45.8363119" lon="13.4486883"><ele>10.0</ele><time>2026-04-19T09:59:50.842Z</time></trkpt><trkpt lat="45.8361248" lon="13.4484918"><ele>10.5</ele><time>2026-04-19T09:59:51.841Z</time></trkpt><trkpt lat="45.8359397" lon="13.4482995"><ele>11.0</ele><time>2026-04-19T09:59:52.842Z</time></trkpt><trkpt lat="45.8357639" lon="13.4480867"><ele>10.333333333333332</ele><time>2026-04-19T09:59:53.842Z</time></trkpt><trkpt lat="45.8356142" lon="13.4478473"><ele>9.666666666666666</ele><time>2026-04-19T09:59:54.842Z</time></trkpt><trkpt lat="45.8355039" lon="13.447572"><ele>9.0</ele><time>2026-04-19T09:59:55.842Z</time></trkpt><trkpt lat="45.8354165" lon="13.4472785"><ele>9.333333333333334</ele><time>2026-04-19T09:59:56.842Z</time></trkpt><trkpt lat="45.8353475" lon="13.4469782"><ele>9.666666666666668</ele><time>2026-04-19T09:59:57.842Z</time></trkpt><trkpt lat="45.8352815" lon="13.4466742"><ele>10.0</ele><time>2026-04-19T09:59:58.842Z</time></trkpt><trkpt lat="45.835212" lon="13.4463662"><ele>10.0</ele><time>2026-04-19T09:59:59.841Z</time></trkpt><trkpt lat="45.8351426" lon="13.4460604"><ele>10.0</ele><time>2026-04-19T10:00:00.842Z</time></trkpt><trkpt lat="45.8350699" lon="13.4457594"><ele>10.0</ele><time>2026-04-19T10:00:01.841Z</time></trkpt><trkpt lat="45.8349981" lon="13.4454551"><ele>9.5</ele><time>2026-04-19T10:00:02.842Z</time></trkpt><trkpt lat="45.8349187" lon="13.4451487"><ele>9.0</ele><time>2026-04-19T10:00:03.842Z</time></trkpt><trkpt lat="45.8348445" lon="13.4448451"><ele>9.0</ele><time>2026-04-19T10:00:04.842Z</time></trkpt><trkpt lat="45.8347738" lon="13.44454"><ele>9.0</ele><time>2026-04-19T10:00:05.841Z</time></trkpt><trkpt lat="45.8347028" lon="13.4442333"><ele>9.0</ele><time>2026-04-19T10:00:06.842Z</time></trkpt><trkpt lat="45.8346265" lon="13.4439241"><ele>8.666666666666666</ele><time>2026-04-19T10:00:07.841Z</time></trkpt><trkpt lat="45.8345456" lon="13.4436183"><ele>8.333333333333332</ele><time>2026-04-19T10:00:08.841Z</time></trkpt><trkpt lat="45.8344431" lon="13.4433378"><ele>8.0</ele><time>2026-04-19T10:00:09.842Z</time></trkpt><trkpt lat="45.8343166" lon="13.443078"><ele>8.666666666666666</ele><time>2026-04-19T10:00:10.842Z</time></trkpt><trkpt lat="45.8341666" lon="13.442845"><ele>9.333333333333334</ele><time>2026-04-19T10:00:11.841Z</time></trkpt><trkpt lat="45.8340003" lon="13.4426414"><ele>10.0</ele><time>2026-04-19T10:00:12.841Z</time></trkpt><trkpt lat="45.8338165" lon="13.4424657"><ele>10.0</ele><time>2026-04-19T10:00:13.841Z</time></trkpt><trkpt lat="45.8336201" lon="13.4423176"><ele>10.0</ele><time>2026-04-19T10:00:14.842Z</time></trkpt><trkpt lat="45.8334132" lon="13.4421783"><ele>9.0</ele><time>2026-04-19T10:00:15.841Z</time></trkpt><trkpt lat="45.8332044" lon="13.442039"><ele>8.0</ele><time>2026-04-19T10:00:16.842Z</time></trkpt><trkpt lat="45.8329969" lon="13.4419029"><ele>8.0</ele><time>2026-04-19T10:00:17.841Z</time></trkpt><trkpt lat="45.8327921" lon="13.4417629"><ele>8.0</ele><time>2026-04-19T10:00:18.841Z</time></trkpt><trkpt lat="45.8325837" lon="13.4416151"><ele>8.0</ele><time>2026-04-19T10:00:19.841Z</time></trkpt><trkpt lat="45.832377" lon="13.4414744"><ele>8.0</ele><time>2026-04-19T10:00:20.84Z</time></trkpt><trkpt lat="45.8321654" lon="13.4413419"><ele>8.0</ele><time>2026-04-19T10:00:21.841Z</time></trkpt><trkpt lat="45.8319611" lon="13.4411977"><ele>8.0</ele><time>2026-04-19T10:00:22.841Z</time></trkpt><trkpt lat="45.8317501" lon="13.4410525"><ele>9.5</ele><time>2026-04-19T10:00:23.84Z</time></trkpt><trkpt lat="45.8315402" lon="13.4409119"><ele>11.0</ele><time>2026-04-19T10:00:24.84Z</time></trkpt><trkpt lat="45.8313284" lon="13.4407673"><ele>11.0</ele><time>2026-04-19T10:00:25.841Z</time></trkpt><trkpt lat="45.8311201" lon="13.4406269"><ele>11.0</ele><time>2026-04-19T10:00:26.841Z</time></trkpt><trkpt lat="45.8309142" lon="13.4404894"><ele>10.5</ele><time>2026-04-19T10:00:27.84Z</time></trkpt><trkpt lat="45.8307037" lon="13.4403472"><ele>10.0</ele><time>2026-04-19T10:00:28.84Z</time></trkpt><trkpt lat="45.8304966" lon="13.4402027"><ele>10.0</ele><time>2026-04-19T10:00:29.84Z</time></trkpt><trkpt lat="45.83029" lon="13.4400621"><ele>10.0</ele><time>2026-04-19T10:00:30.841Z</time></trkpt><trkpt lat="45.8300876" lon="13.4399263"><ele>10.0</ele><time>2026-04-19T10:00:31.84Z</time></trkpt><trkpt lat="45.829883" lon="13.4397841"><ele>10.0</ele><time>2026-04-19T10:00:32.841Z</time></trkpt><trkpt lat="45.829678" lon="13.4396466"><ele>10.0</ele><time>2026-04-19T10:00:33.841Z</time></trkpt><trkpt lat="45.8294736" lon="13.4395064"><ele>10.0</ele><time>2026-04-19T10:00:34.84Z</time></trkpt><trkpt lat="45.8292684" lon="13.4393671"><ele>10.0</ele><time>2026-04-19T10:00:35.84Z</time></trkpt><trkpt lat="45.8290663" lon="13.4392188"><ele>10.0</ele><time>2026-04-19T10:00:36.841Z</time></trkpt><trkpt lat="45.8288642" lon="13.4390816"><ele>10.0</ele><time>2026-04-19T10:00:37.841Z</time></trkpt><trkpt lat="45.8286613" lon="13.438935"><ele>10.0</ele><time>2026-04-19T10:00:38.841Z</time></trkpt><trkpt lat="45.8284536" lon="13.4387958"><ele>8.5</ele><time>2026-04-19T10:00:39.841Z</time></trkpt><trkpt lat="45.8282427" lon="13.4386559"><ele>7.0</ele><time>2026-04-19T10:00:40.841Z</time></trkpt><trkpt lat="45.8280305" lon="13.4385137"><ele>7.0</ele><time>2026-04-19T10:00:41.84Z</time></trkpt><trkpt lat="45.8278214" lon="13.438362"><ele>7.0</ele><time>2026-04-19T10:00:42.841Z</time></trkpt><trkpt lat="45.827614" lon="13.4382101"><ele>7.0</ele><time>2026-04-19T10:00:43.84Z</time></trkpt><trkpt lat="45.8274032" lon="13.438067"><ele>7.0</ele><time>2026-04-19T10:00:44.84Z</time></trkpt><trkpt lat="45.8271901" lon="13.4379222"><ele>7.5</ele><time>2026-04-19T10:00:45.84Z</time></trkpt><trkpt lat="45.8269709" lon="13.4377812"><ele>8.0</ele><time>2026-04-19T10:00:46.841Z</time></trkpt><trkpt lat="45.8267539" lon="13.4376425"><ele>8.5</ele><time>2026-04-19T10:00:47.841Z</time></trkpt><trkpt lat="45.8265402" lon="13.4375085"><ele>9.0</ele><time>2026-04-19T10:00:48.841Z</time></trkpt><trkpt lat="45.826334" lon="13.4373761"><ele>9.0</ele><time>2026-04-19T10:00:49.84Z</time></trkpt><trkpt lat="45.8261185" lon="13.4372643"><ele>9.0</ele><time>2026-04-19T10:00:50.841Z</time></trkpt><trkpt lat="45.8258999" lon="13.437173"><ele>9.0</ele><time>2026-04-19T10:00:51.841Z</time></trkpt><trkpt lat="45.8256754" lon="13.4370882"><ele>9.0</ele><time>2026-04-19T10:00:52.841Z</time></trkpt><trkpt lat="45.8254548" lon="13.4370192"><ele>9.0</ele><time>2026-04-19T10:00:53.841Z</time></trkpt><trkpt lat="45.8252286" lon="13.4369646"><ele>9.0</ele><time>2026-04-19T10:00:54.84Z</time></trkpt><trkpt lat="45.8250002" lon="13.4369212"><ele>8.5</ele><time>2026-04-19T10:00:55.841Z</time></trkpt><trkpt lat="45.8247671" lon="13.4368973"><ele>8.0</ele><time>2026-04-19T10:00:56.84Z</time></trkpt><trkpt lat="45.8245382" lon="13.4368908"><ele>7.666666666666666</ele><time>2026-04-19T10:00:57.841Z</time></trkpt><trkpt lat="45.8243127" lon="13.4369051"><ele>7.333333333333334</ele><time>2026-04-19T10:00:58.84Z</time></trkpt><trkpt lat="45.8240985" lon="13.4369244"><ele>7.0</ele><time>2026-04-19T10:00:59.84Z</time></trkpt><trkpt lat="45.8238903" lon="13.4369464"><ele>7.0</ele><time>2026-04-19T10:01:00.841Z</time></trkpt><trkpt lat="45.8236926" lon="13.4369695"><ele>7.0</ele><time>2026-04-19T10:01:01.841Z</time></trkpt><trkpt lat="45.8235045" lon="13.4369834"><ele>7.0</ele><time>2026-04-19T10:01:02.84Z</time></trkpt><trkpt lat="45.8233231" lon="13.4369988"><ele>7.0</ele><time>2026-04-19T10:01:03.84Z</time></trkpt><trkpt lat="45.8231473" lon="13.4370181"><ele>7.0</ele><time>2026-04-19T10:01:04.84Z</time></trkpt><trkpt lat="45.8229807" lon="13.4370336"><ele>7.0</ele><time>2026-04-19T10:01:05.841Z</time></trkpt><trkpt lat="45.8228251" lon="13.4370472"><ele>7.0</ele><time>2026-04-19T10:01:06.841Z</time></trkpt><trkpt lat="45.8226744" lon="13.4370548"><ele>7.0</ele><time>2026-04-19T10:01:07.841Z</time></trkpt><trkpt lat="45.8225261" lon="13.437068"><ele>7.0</ele><time>2026-04-19T10:01:08.841Z</time></trkpt><trkpt lat="45.8223785" lon="13.4370804"><ele>7.0</ele><time>2026-04-19T10:01:09.841Z</time></trkpt><trkpt lat="45.8222388" lon="13.4370899"><ele>6.666666666666667</ele><time>2026-04-19T10:01:10.841Z</time></trkpt><trkpt lat="45.8220918" lon="13.4371125"><ele>6.333333333333334</ele><time>2026-04-19T10:01:11.84Z</time></trkpt><trkpt lat="45.8219347" lon="13.4371344"><ele>6.0</ele><time>2026-04-19T10:01:12.841Z</time></trkpt><trkpt lat="45.8217788" lon="13.4371464"><ele>6.0</ele><time>2026-04-19T10:01:13.841Z</time></trkpt><trkpt lat="45.8216193" lon="13.4371603"><ele>6.0</ele><time>2026-04-19T10:01:14.841Z</time></trkpt><trkpt lat="45.8214585" lon="13.4371738"><ele>6.0</ele><time>2026-04-19T10:01:15.84Z</time></trkpt><trkpt lat="45.8212864" lon="13.4371893"><ele>6.0</ele><time>2026-04-19T10:01:16.841Z</time></trkpt><trkpt lat="45.8211102" lon="13.4372088"><ele>6.0</ele><time>2026-04-19T10:01:17.841Z</time></trkpt><trkpt lat="45.8209275" lon="13.4372316"><ele>6.0</ele><time>2026-04-19T10:01:18.841Z</time></trkpt><trkpt lat="45.8207447" lon="13.4372522"><ele>6.666666666666666</ele><time>2026-04-19T10:01:19.84Z</time></trkpt><trkpt lat="45.8205765" lon="13.4372588"><ele>7.333333333333333</ele><time>2026-04-19T10:01:20.841Z</time></trkpt><trkpt lat="45.8204145" lon="13.4372768"><ele>8.0</ele><time>2026-04-19T10:01:21.841Z</time></trkpt><trkpt lat="45.8202449" lon="13.4372997"><ele>8.0</ele><time>2026-04-19T10:01:22.841Z</time></trkpt><trkpt lat="45.8200616" lon="13.4373237"><ele>8.0</ele><time>2026-04-19T10:01:23.841Z</time></trkpt><trkpt lat="45.8198703" lon="13.4373452"><ele>8.0</ele><time>2026-04-19T10:01:24.841Z</time></trkpt><trkpt lat="45.8196756" lon="13.4373613"><ele>8.0</ele><time>2026-04-19T10:01:25.841Z</time></trkpt><trkpt lat="45.8194747" lon="13.4373653"><ele>8.0</ele><time>2026-04-19T10:01:26.841Z</time></trkpt><trkpt lat="45.8192709" lon="13.4373716"><ele>8.0</ele><time>2026-04-19T10:01:27.841Z</time></trkpt><trkpt lat="45.8190632" lon="13.4373951"><ele>8.0</ele><time>2026-04-19T10:01:28.841Z</time></trkpt><trkpt lat="45.8188625" lon="13.4374179"><ele>8.0</ele><time>2026-04-19T10:01:29.841Z</time></trkpt><trkpt lat="45.8186596" lon="13.4374406"><ele>8.0</ele><time>2026-04-19T10:01:30.84Z</time></trkpt><trkpt lat="45.818446" lon="13.4374568"><ele>8.0</ele><time>2026-04-19T10:01:31.841Z</time></trkpt><trkpt lat="45.8182437" lon="13.4374748"><ele>8.0</ele><time>2026-04-19T10:01:32.841Z</time></trkpt><trkpt lat="45.818039" lon="13.4374979"><ele>8.0</ele><time>2026-04-19T10:01:33.841Z</time></trkpt><trkpt lat="45.8178168" lon="13.4375157"><ele>7.333333333333333</ele><time>2026-04-19T10:01:34.84Z</time></trkpt><trkpt lat="45.8175961" lon="13.4375339"><ele>6.666666666666666</ele><time>2026-04-19T10:01:35.84Z</time></trkpt><trkpt lat="45.817373" lon="13.4375551"><ele>6.0</ele><time>2026-04-19T10:01:36.84Z</time></trkpt><trkpt lat="45.817148" lon="13.4375753"><ele>6.0</ele><time>2026-04-19T10:01:37.841Z</time></trkpt><trkpt lat="45.8169258" lon="13.4375981"><ele>6.0</ele><time>2026-04-19T10:01:38.841Z</time></trkpt><trkpt lat="45.8167098" lon="13.43762"><ele>6.0</ele><time>2026-04-19T10:01:39.841Z</time></trkpt><trkpt lat="45.816493" lon="13.4376412"><ele>6.333333333333334</ele><time>2026-04-19T10:01:40.841Z</time></trkpt><trkpt lat="45.8162776" lon="13.4376586"><ele>6.666666666666667</ele><time>2026-04-19T10:01:41.841Z</time></trkpt><trkpt lat="45.8160625" lon="13.4376795"><ele>7.0</ele><time>2026-04-19T10:01:42.84Z</time></trkpt><trkpt lat="45.8158393" lon="13.4376946"><ele>7.666666666666667</ele><time>2026-04-19T10:01:43.84Z</time></trkpt><trkpt lat="45.8156234" lon="13.4377059"><ele>8.333333333333334</ele><time>2026-04-19T10:01:44.841Z</time></trkpt><trkpt lat="45.8154112" lon="13.437731"><ele>9.0</ele><time>2026-04-19T10:01:45.841Z</time></trkpt><trkpt lat="45.8151997" lon="13.4377695"><ele>8.333333333333334</ele><time>2026-04-19T10:01:46.841Z</time></trkpt><trkpt lat="45.8149911" lon="13.4377988"><ele>7.666666666666667</ele><time>2026-04-19T10:01:47.841Z</time></trkpt><trkpt lat="45.8147788" lon="13.4378244"><ele>7.0</ele><time>2026-04-19T10:01:48.84Z</time></trkpt><trkpt lat="45.8145656" lon="13.4378602"><ele>7.0</ele><time>2026-04-19T10:01:49.841Z</time></trkpt><trkpt lat="45.8143553" lon="13.4379088"><ele>7.0</ele><time>2026-04-19T10:01:50.84Z</time></trkpt><trkpt lat="45.8141496" lon="13.4379459"><ele>7.0</ele><time>2026-04-19T10:01:51.84Z</time></trkpt><trkpt lat="45.8139447" lon="13.4379904"><ele>6.666666666666667</ele><time>2026-04-19T10:01:52.841Z</time></trkpt><trkpt lat="45.8137367" lon="13.4380489"><ele>6.333333333333334</ele><time>2026-04-19T10:01:53.84Z</time></trkpt><trkpt lat="45.813539" lon="13.4381051"><ele>6.0</ele><time>2026-04-19T10:01:54.84Z</time></trkpt><trkpt lat="45.8133351" lon="13.4381547"><ele>5.0</ele><time>2026-04-19T10:01:55.84Z</time></trkpt><trkpt lat="45.8131338" lon="13.4382128"><ele>4.0</ele><time>2026-04-19T10:01:56.84Z</time></trkpt><trkpt lat="45.8129323" lon="13.4382705"><ele>3.0</ele><time>2026-04-19T10:01:57.841Z</time></trkpt><trkpt lat="45.8127368" lon="13.4383308"><ele>3.666666666666667</ele><time>2026-04-19T10:01:58.841Z</time></trkpt><trkpt lat="45.8125513" lon="13.4383994"><ele>4.333333333333334</ele><time>2026-04-19T10:01:59.841Z</time></trkpt><trkpt lat="45.8123655" lon="13.4384739"><ele>5.0</ele><time>2026-04-19T10:02:00.841Z</time></trkpt><trkpt lat="45.8121721" lon="13.4385552"><ele>5.0</ele><time>2026-04-19T10:02:01.841Z</time></trkpt><trkpt lat="45.8119744" lon="13.4386228"><ele>5.0</ele><time>2026-04-19T10:02:02.841Z</time></trkpt><trkpt lat="45.8117846" lon="13.4386952"><ele>5.0</ele><time>2026-04-19T10:02:03.84Z</time></trkpt><trkpt lat="45.8115857" lon="13.4387673"><ele>5.333333333333334</ele><time>2026-04-19T10:02:04.84Z</time></trkpt><trkpt lat="45.8113842" lon="13.438839"><ele>5.666666666666667</ele><time>2026-04-19T10:02:05.841Z</time></trkpt><trkpt lat="45.8111777" lon="13.4389166"><ele>6.0</ele><time>2026-04-19T10:02:06.841Z</time></trkpt><trkpt lat="45.8109682" lon="13.4389915"><ele>6.0</ele><time>2026-04-19T10:02:07.841Z</time></trkpt><trkpt lat="45.8107604" lon="13.4390724"><ele>6.0</ele><time>2026-04-19T10:02:08.841Z</time></trkpt><trkpt lat="45.8105441" lon="13.439145"><ele>6.0</ele><time>2026-04-19T10:02:09.84Z</time></trkpt><trkpt lat="45.8103326" lon="13.439224"><ele>5.0</ele><time>2026-04-19T10:02:10.841Z</time></trkpt><trkpt lat="45.8101226" lon="13.4392995"><ele>4.0</ele><time>2026-04-19T10:02:11.841Z</time></trkpt><trkpt lat="45.8099106" lon="13.4393758"><ele>3.0</ele><time>2026-04-19T10:02:12.841Z</time></trkpt><trkpt lat="45.8097023" lon="13.4394564"><ele>3.0</ele><time>2026-04-19T10:02:13.841Z</time></trkpt><trkpt lat="45.8095056" lon="13.4395293"><ele>3.0</ele><time>2026-04-19T10:02:14.841Z</time></trkpt><trkpt lat="45.8093213" lon="13.4396007"><ele>3.0</ele><time>2026-04-19T10:02:15.84Z</time></trkpt><trkpt lat="45.8091377" lon="13.4396676"><ele>2.3333333333333335</ele><time>2026-04-19T10:02:16.84Z</time></trkpt><trkpt lat="45.8089731" lon="13.4397343"><ele>1.6666666666666665</ele><time>2026-04-19T10:02:17.84Z</time></trkpt><trkpt lat="45.8088299" lon="13.4398036"><ele>1.0</ele><time>2026-04-19T10:02:18.841Z</time></trkpt><trkpt lat="45.8087077" lon="13.439861"><ele>0.9999999999999999</ele><time>2026-04-19T10:02:19.841Z</time></trkpt><trkpt lat="45.8086062" lon="13.4399016"><ele>1.0</ele><time>2026-04-19T10:02:20.841Z</time></trkpt><trkpt lat="45.80852" lon="13.4399217"><ele>1.0</ele><time>2026-04-19T10:02:21.84Z</time></trkpt><trkpt lat="45.808445" lon="13.4399341"><ele>1.0</ele><time>2026-04-19T10:02:22.841Z</time></trkpt><trkpt lat="45.8083757" lon="13.4399355"><ele>0.9999999999999999</ele><time>2026-04-19T10:02:23.841Z</time></trkpt><trkpt lat="45.8082812" lon="13.4399386"><ele>1.0</ele><time>2026-04-19T10:02:25.84Z</time></trkpt><trkpt lat="45.8082002" lon="13.4398918"><ele>1.6</ele><time>2026-04-19T10:02:27.841Z</time></trkpt><trkpt lat="45.8081358" lon="13.4397709"><ele>2.2</ele><time>2026-04-19T10:02:29.841Z</time></trkpt><trkpt lat="45.8080819" lon="13.4396545"><ele>2.8000000000000003</ele><time>2026-04-19T10:02:31.84Z</time></trkpt><trkpt lat="45.808044" lon="13.4395593"><ele>3.4000000000000004</ele><time>2026-04-19T10:02:32.84Z</time></trkpt><trkpt lat="45.8080069" lon="13.4394216"><ele>4.0</ele><time>2026-04-19T10:02:33.841Z</time></trkpt><trkpt lat="45.8079794" lon="13.4392453"><ele>4.0</ele><time>2026-04-19T10:02:34.841Z</time></trkpt><trkpt lat="45.8079587" lon="13.4390715"><ele>4.0</ele><time>2026-04-19T10:02:35.841Z</time></trkpt><trkpt lat="45.8079332" lon="13.4389045"><ele>4.0</ele><time>2026-04-19T10:02:36.841Z</time></trkpt><trkpt lat="45.8079014" lon="13.4387229"><ele>4.0</ele><time>2026-04-19T10:02:37.841Z</time></trkpt><trkpt lat="45.8078691" lon="13.4385294"><ele>4.0</ele><time>2026-04-19T10:02:38.841Z</time></trkpt><trkpt lat="45.807838" lon="13.4383591"><ele>4.0</ele><time>2026-04-19T10:02:39.841Z</time></trkpt><trkpt lat="45.8078119" lon="13.438222"><ele>4.0</ele><time>2026-04-19T10:02:40.841Z</time></trkpt><trkpt lat="45.8077901" lon="13.4381154"><ele>4.0</ele><time>2026-04-19T10:02:41.84Z</time></trkpt><trkpt lat="45.8077655" lon="13.4379995"><ele>4.0</ele><time>2026-04-19T10:02:42.841Z</time></trkpt><trkpt lat="45.8077358" lon="13.4378535"><ele>4.0</ele><time>2026-04-19T10:02:43.841Z</time></trkpt><trkpt lat="45.8076989" lon="13.4376584"><ele>4.0</ele><time>2026-04-19T10:02:44.841Z</time></trkpt><trkpt lat="45.8076649" lon="13.4374514"><ele>4.0</ele><time>2026-04-19T10:02:45.841Z</time></trkpt><trkpt lat="45.8076272" lon="13.4372358"><ele>4.0</ele><time>2026-04-19T10:02:46.841Z</time></trkpt><trkpt lat="45.8075774" lon="13.4369965"><ele>4.666666666666666</ele><time>2026-04-19T10:02:47.84Z</time></trkpt><trkpt lat="45.8075388" lon="13.4367468"><ele>5.333333333333333</ele><time>2026-04-19T10:02:48.84Z</time></trkpt><trkpt lat="45.8075024" lon="13.43649"><ele>6.0</ele><time>2026-04-19T10:02:49.84Z</time></trkpt><trkpt lat="45.8074687" lon="13.4362424"><ele>6.333333333333334</ele><time>2026-04-19T10:02:50.84Z</time></trkpt><trkpt lat="45.8074193" lon="13.4360149"><ele>6.666666666666667</ele><time>2026-04-19T10:02:51.841Z</time></trkpt><trkpt lat="45.8073769" lon="13.4357975"><ele>7.0</ele><time>2026-04-19T10:02:52.841Z</time></trkpt><trkpt lat="45.8073367" lon="13.4355668"><ele>7.333333333333334</ele><time>2026-04-19T10:02:53.841Z</time></trkpt><trkpt lat="45.807286" lon="13.4353497"><ele>7.666666666666666</ele><time>2026-04-19T10:02:54.84Z</time></trkpt><trkpt lat="45.8072377" lon="13.4351435"><ele>8.0</ele><time>2026-04-19T10:02:55.84Z</time></trkpt><trkpt lat="45.8071903" lon="13.4349484"><ele>8.0</ele><time>2026-04-19T10:02:56.841Z</time></trkpt><trkpt lat="45.8071395" lon="13.4347382"><ele>8.0</ele><time>2026-04-19T10:02:57.84Z</time></trkpt><trkpt lat="45.8070756" lon="13.4345119"><ele>8.0</ele><time>2026-04-19T10:02:58.84Z</time></trkpt><trkpt lat="45.8069994" lon="13.4342651"><ele>7.666666666666666</ele><time>2026-04-19T10:02:59.84Z</time></trkpt><trkpt lat="45.8069235" lon="13.4339919"><ele>7.333333333333334</ele><time>2026-04-19T10:03:00.841Z</time></trkpt><trkpt lat="45.8068355" lon="13.4337082"><ele>7.0</ele><time>2026-04-19T10:03:01.84Z</time></trkpt><trkpt lat="45.806759" lon="13.4334287"><ele>8.0</ele><time>2026-04-19T10:03:02.841Z</time></trkpt><trkpt lat="45.806692" lon="13.4331545"><ele>9.0</ele><time>2026-04-19T10:03:03.841Z</time></trkpt><trkpt lat="45.8066213" lon="13.4328874"><ele>10.0</ele><time>2026-04-19T10:03:04.841Z</time></trkpt><trkpt lat="45.806545" lon="13.4326266"><ele>10.0</ele><time>2026-04-19T10:03:05.84Z</time></trkpt><trkpt lat="45.8064649" lon="13.4323638"><ele>10.0</ele><time>2026-04-19T10:03:06.841Z</time></trkpt><trkpt lat="45.8063686" lon="13.4320695"><ele>10.0</ele><time>2026-04-19T10:03:07.84Z</time></trkpt><trkpt lat="45.8062626" lon="13.4317632"><ele>7.5</ele><time>2026-04-19T10:03:08.841Z</time></trkpt><trkpt lat="45.8061689" lon="13.4314363"><ele>5.0</ele><time>2026-04-19T10:03:09.84Z</time></trkpt><trkpt lat="45.8060894" lon="13.4311071"><ele>4.666666666666667</ele><time>2026-04-19T10:03:10.841Z</time></trkpt><trkpt lat="45.8060121" lon="13.430802"><ele>4.333333333333333</ele><time>2026-04-19T10:03:11.841Z</time></trkpt><trkpt lat="45.8059284" lon="13.4305081"><ele>4.0</ele><time>2026-04-19T10:03:12.841Z</time></trkpt><trkpt lat="45.805839" lon="13.4302268"><ele>4.0</ele><time>2026-04-19T10:03:13.841Z</time></trkpt><trkpt lat="45.8057635" lon="13.4299449"><ele>4.0</ele><time>2026-04-19T10:03:14.841Z</time></trkpt><trkpt lat="45.8056844" lon="13.4296752"><ele>4.0</ele><time>2026-04-19T10:03:15.841Z</time></trkpt><trkpt lat="45.8056109" lon="13.4294173"><ele>3.6666666666666665</ele><time>2026-04-19T10:03:16.841Z</time></trkpt><trkpt lat="45.8055395" lon="13.4291709"><ele>3.333333333333333</ele><time>2026-04-19T10:03:17.841Z</time></trkpt><trkpt lat="45.8054726" lon="13.4289404"><ele>3.0</ele><time>2026-04-19T10:03:18.841Z</time></trkpt><trkpt lat="45.8054079" lon="13.4287049"><ele>4.666666666666666</ele><time>2026-04-19T10:03:19.84Z</time></trkpt><trkpt lat="45.8053458" lon="13.4284825"><ele>6.333333333333333</ele><time>2026-04-19T10:03:20.841Z</time></trkpt><trkpt lat="45.8052779" lon="13.4282582"><ele>8.0</ele><time>2026-04-19T10:03:21.84Z</time></trkpt><trkpt lat="45.8052148" lon="13.4280471"><ele>8.666666666666666</ele><time>2026-04-19T10:03:22.84Z</time></trkpt><trkpt lat="45.8051604" lon="13.4278356"><ele>9.333333333333334</ele><time>2026-04-19T10:03:23.84Z</time></trkpt><trkpt lat="45.8051032" lon="13.4276342"><ele>10.0</ele><time>2026-04-19T10:03:24.841Z</time></trkpt><trkpt lat="45.8050395" lon="13.4274274"><ele>10.0</ele><time>2026-04-19T10:03:25.841Z</time></trkpt><trkpt lat="45.8049816" lon="13.4272185"><ele>10.0</ele><time>2026-04-19T10:03:26.841Z</time></trkpt><trkpt lat="45.8049317" lon="13.4269942"><ele>10.0</ele><time>2026-04-19T10:03:27.841Z</time></trkpt><trkpt lat="45.8048839" lon="13.4267441"><ele>10.0</ele><time>2026-04-19T10:03:28.84Z</time></trkpt><trkpt lat="45.8048494" lon="13.4264935"><ele>10.0</ele><time>2026-04-19T10:03:29.84Z</time></trkpt><trkpt lat="45.8048208" lon="13.4262539"><ele>10.0</ele><time>2026-04-19T10:03:30.841Z</time></trkpt><trkpt lat="45.8048067" lon="13.4260345"><ele>9.4</ele><time>2026-04-19T10:03:31.84Z</time></trkpt><trkpt lat="45.8048128" lon="13.4258191"><ele>8.8</ele><time>2026-04-19T10:03:32.841Z</time></trkpt><trkpt lat="45.8048309" lon="13.4256433"><ele>8.2</ele><time>2026-04-19T10:03:33.84Z</time></trkpt><trkpt lat="45.8048525" lon="13.4255174"><ele>7.6</ele><time>2026-04-19T10:03:34.84Z</time></trkpt><trkpt lat="45.8048907" lon="13.4254437"><ele>7.0</ele><time>2026-04-19T10:03:35.841Z</time></trkpt><trkpt lat="45.8049604" lon="13.4254242"><ele>6.75</ele><time>2026-04-19T10:03:36.841Z</time></trkpt><trkpt lat="45.8050617" lon="13.4254352"><ele>6.5</ele><time>2026-04-19T10:03:37.84Z</time></trkpt><trkpt lat="45.8051927" lon="13.4254655"><ele>6.25</ele><time>2026-04-19T10:03:38.84Z</time></trkpt><trkpt lat="45.8053405" lon="13.4255137"><ele>6.0</ele><time>2026-04-19T10:03:39.841Z</time></trkpt><trkpt lat="45.8054845" lon="13.4255778"><ele>6.0</ele><time>2026-04-19T10:03:40.841Z</time></trkpt><trkpt lat="45.8055906" lon="13.4256148"><ele>6.0</ele><time>2026-04-19T10:03:41.84Z</time></trkpt><trkpt lat="45.8056757" lon="13.4256211"><ele>6.0</ele><time>2026-04-19T10:03:42.84Z</time></trkpt><trkpt lat="45.8057606" lon="13.425603"><ele>6.0</ele><time>2026-04-19T10:03:43.84Z</time></trkpt><trkpt lat="45.8058612" lon="13.4255345"><ele>6.0</ele><time>2026-04-19T10:03:44.841Z</time></trkpt><trkpt lat="45.8059667" lon="13.4254108"><ele>5.8</ele><time>2026-04-19T10:03:45.84Z</time></trkpt><trkpt lat="45.8060614" lon="13.4252862"><ele>5.6</ele><time>2026-04-19T10:03:46.841Z</time></trkpt><trkpt lat="45.8061293" lon="13.4251936"><ele>5.4</ele><time>2026-04-19T10:03:47.84Z</time></trkpt><trkpt lat="45.8062127" lon="13.4251344"><ele>5.2</ele><time>2026-04-19T10:03:49.841Z</time></trkpt><trkpt lat="45.8062839" lon="13.4252283"><ele>5.0</ele><time>2026-04-19T10:03:51.84Z</time></trkpt><trkpt lat="45.8063253" lon="13.4253384"><ele>5.333333333333334</ele><time>2026-04-19T10:03:52.84Z</time></trkpt><trkpt lat="45.8063847" lon="13.4254839"><ele>5.666666666666667</ele><time>2026-04-19T10:03:53.841Z</time></trkpt><trkpt lat="45.8064767" lon="13.4256681"><ele>6.0</ele><time>2026-04-19T10:03:54.84Z</time></trkpt><trkpt lat="45.8065771" lon="13.4258807"><ele>6.0</ele><time>2026-04-19T10:03:55.84Z</time></trkpt><trkpt lat="45.8066678" lon="13.4260554"><ele>6.0</ele><time>2026-04-19T10:03:56.841Z</time></trkpt><trkpt lat="45.8067357" lon="13.4261791"><ele>6.0</ele><time>2026-04-19T10:03:57.841Z</time></trkpt><trkpt lat="45.8067922" lon="13.4262567"><ele>6.0</ele><time>2026-04-19T10:03:58.841Z</time></trkpt><trkpt lat="45.8068448" lon="13.4263114"><ele>6.0</ele><time>2026-04-19T10:03:59.841Z</time></trkpt><trkpt lat="45.8069776" lon="13.4262866"><ele>6.333333333333334</ele><time>2026-04-19T10:04:01.841Z</time></trkpt><trkpt lat="45.8070803" lon="13.4261928"><ele>6.666666666666667</ele><time>2026-04-19T10:04:02.841Z</time></trkpt><trkpt lat="45.8072136" lon="13.4260678"><ele>7.0</ele><time>2026-04-19T10:04:03.841Z</time></trkpt><trkpt lat="45.8073593" lon="13.4259258"><ele>7.0</ele><time>2026-04-19T10:04:04.841Z</time></trkpt><trkpt lat="45.8075157" lon="13.4257949"><ele>7.0</ele><time>2026-04-19T10:04:05.84Z</time></trkpt><trkpt lat="45.8076619" lon="13.425679"><ele>7.0</ele><time>2026-04-19T10:04:06.84Z</time></trkpt><trkpt lat="45.8077834" lon="13.4255785"><ele>7.0</ele><time>2026-04-19T10:04:07.84Z</time></trkpt><trkpt lat="45.8078808" lon="13.4254993"><ele>6.999999999999999</ele><time>2026-04-19T10:04:08.84Z</time></trkpt><trkpt lat="45.8079592" lon="13.4254472"><ele>6.999999999999999</ele><time>2026-04-19T10:04:09.84Z</time></trkpt><trkpt lat="45.8080412" lon="13.4253259"><ele>7.0</ele><time>2026-04-19T10:04:11.841Z</time></trkpt><trkpt lat="45.8080495" lon="13.425215"><ele>7.0</ele><time>2026-04-19T10:04:12.84Z</time></trkpt><trkpt lat="45.8080426" lon="13.4250747"><ele>7.0</ele><time>2026-04-19T10:04:13.84Z</time></trkpt><trkpt lat="45.8080212" lon="13.4248918"><ele>7.0</ele><time>2026-04-19T10:04:14.841Z</time></trkpt><trkpt lat="45.8079812" lon="13.4246534"><ele>7.0</ele><time>2026-04-19T10:04:15.841Z</time></trkpt><trkpt lat="45.8079541" lon="13.4244297"><ele>7.0</ele><time>2026-04-19T10:04:16.841Z</time></trkpt><trkpt lat="45.8079392" lon="13.4242808"><ele>6.999999999999999</ele><time>2026-04-19T10:04:17.84Z</time></trkpt><trkpt lat="45.8079365" lon="13.4241868"><ele>6.999999999999999</ele><time>2026-04-19T10:04:18.84Z</time></trkpt><trkpt lat="45.8079813" lon="13.4240844"><ele>7.0</ele><time>2026-04-19T10:04:20.841Z</time></trkpt><trkpt lat="45.8081062" lon="13.4240199"><ele>7.0</ele><time>2026-04-19T10:04:22.841Z</time></trkpt><trkpt lat="45.8082388" lon="13.4240144"><ele>7.0</ele><time>2026-04-19T10:04:23.841Z</time></trkpt><trkpt lat="45.8083829" lon="13.4240241"><ele>7.0</ele><time>2026-04-19T10:04:24.841Z</time></trkpt><trkpt lat="45.8085204" lon="13.4240178"><ele>7.0</ele><time>2026-04-19T10:04:25.841Z</time></trkpt><trkpt lat="45.8086387" lon="13.424003"><ele>7.0</ele><time>2026-04-19T10:04:26.841Z</time></trkpt><trkpt lat="45.8087267" lon="13.4239906"><ele>7.166666666666667</ele><time>2026-04-19T10:04:27.84Z</time></trkpt><trkpt lat="45.8088022" lon="13.4239704"><ele>7.333333333333334</ele><time>2026-04-19T10:04:28.84Z</time></trkpt><trkpt lat="45.808868" lon="13.4239602"><ele>7.5</ele><time>2026-04-19T10:04:29.84Z</time></trkpt><trkpt lat="45.8089885" lon="13.4239645"><ele>7.666666666666666</ele><time>2026-04-19T10:04:31.841Z</time></trkpt><trkpt lat="45.809069" lon="13.4239557"><ele>7.833333333333333</ele><time>2026-04-19T10:04:32.841Z</time></trkpt><trkpt lat="45.8091452" lon="13.4239251"><ele>8.0</ele><time>2026-04-19T10:04:33.841Z</time></trkpt><trkpt lat="45.8092072" lon="13.4239024"><ele>8.0</ele><time>2026-04-19T10:04:34.841Z</time></trkpt><trkpt lat="45.8093179" lon="13.4239086"><ele>8.0</ele><time>2026-04-19T10:04:36.84Z</time></trkpt><trkpt lat="45.8093889" lon="13.4239574"><ele>8.0</ele><time>2026-04-19T10:04:37.84Z</time></trkpt><trkpt lat="45.8094923" lon="13.4240297"><ele>8.0</ele><time>2026-04-19T10:04:38.84Z</time></trkpt><trkpt lat="45.8096141" lon="13.424109"><ele>8.0</ele><time>2026-04-19T10:04:39.841Z</time></trkpt><trkpt lat="45.8097205" lon="13.4241765"><ele>8.200000000000001</ele><time>2026-04-19T10:04:40.84Z</time></trkpt><trkpt lat="45.8098134" lon="13.4242271"><ele>8.4</ele><time>2026-04-19T10:04:41.841Z</time></trkpt><trkpt lat="45.8098934" lon="13.4242415"><ele>8.600000000000001</ele><time>2026-04-19T10:04:42.84Z</time></trkpt><trkpt lat="45.8099674" lon="13.4242284"><ele>8.8</ele><time>2026-04-19T10:04:43.841Z</time></trkpt><trkpt lat="45.8100661" lon="13.4241726"><ele>9.0</ele><time>2026-04-19T10:04:44.841Z</time></trkpt><trkpt lat="45.8102118" lon="13.4240865"><ele>8.333333333333334</ele><time>2026-04-19T10:04:45.841Z</time></trkpt><trkpt lat="45.810366" lon="13.4239719"><ele>7.666666666666667</ele><time>2026-04-19T10:04:46.841Z</time></trkpt><trkpt lat="45.8105222" lon="13.4238541"><ele>7.0</ele><time>2026-04-19T10:04:47.841Z</time></trkpt><trkpt lat="45.8106795" lon="13.4237352"><ele>7.0</ele><time>2026-04-19T10:04:48.84Z</time></trkpt><trkpt lat="45.8108398" lon="13.4236198"><ele>7.0</ele><time>2026-04-19T10:04:49.84Z</time></trkpt><trkpt lat="45.8109999" lon="13.4235083"><ele>7.0</ele><time>2026-04-19T10:04:50.841Z</time></trkpt><trkpt lat="45.8111546" lon="13.4233959"><ele>7.0</ele><time>2026-04-19T10:04:51.84Z</time></trkpt><trkpt lat="45.8112988" lon="13.4232771"><ele>7.0</ele><time>2026-04-19T10:04:52.841Z</time></trkpt><trkpt lat="45.8114486" lon="13.4231595"><ele>7.0</ele><time>2026-04-19T10:04:53.84Z</time></trkpt><trkpt lat="45.8116039" lon="13.4230471"><ele>7.0</ele><time>2026-04-19T10:04:54.84Z</time></trkpt><trkpt lat="45.8117486" lon="13.4229343"><ele>7.0</ele><time>2026-04-19T10:04:55.841Z</time></trkpt><trkpt lat="45.8118997" lon="13.4228221"><ele>7.0</ele><time>2026-04-19T10:04:56.84Z</time></trkpt><trkpt lat="45.8120472" lon="13.4227153"><ele>7.0</ele><time>2026-04-19T10:04:57.84Z</time></trkpt><trkpt lat="45.8121966" lon="13.422608"><ele>7.0</ele><time>2026-04-19T10:04:58.841Z</time></trkpt><trkpt lat="45.8123416" lon="13.422489"><ele>7.0</ele><time>2026-04-19T10:04:59.841Z</time></trkpt><trkpt lat="45.8124877" lon="13.4223715"><ele>7.0</ele><time>2026-04-19T10:05:00.841Z</time></trkpt><trkpt lat="45.8126253" lon="13.4222686"><ele>7.0</ele><time>2026-04-19T10:05:01.841Z</time></trkpt><trkpt lat="45.8127754" lon="13.4221571"><ele>7.0</ele><time>2026-04-19T10:05:02.841Z</time></trkpt><trkpt lat="45.8129172" lon="13.4220425"><ele>8.0</ele><time>2026-04-19T10:05:03.841Z</time></trkpt><trkpt lat="45.8130684" lon="13.4219284"><ele>9.0</ele><time>2026-04-19T10:05:04.841Z</time></trkpt><trkpt lat="45.8132116" lon="13.4218199"><ele>10.0</ele><time>2026-04-19T10:05:05.84Z</time></trkpt><trkpt lat="45.8133504" lon="13.4217146"><ele>9.666666666666668</ele><time>2026-04-19T10:05:06.84Z</time></trkpt><trkpt lat="45.8134955" lon="13.4216028"><ele>9.333333333333334</ele><time>2026-04-19T10:05:07.841Z</time></trkpt><trkpt lat="45.8136304" lon="13.4215075"><ele>9.0</ele><time>2026-04-19T10:05:08.84Z</time></trkpt><trkpt lat="45.8137674" lon="13.4214183"><ele>9.0</ele><time>2026-04-19T10:05:09.841Z</time></trkpt><trkpt lat="45.8138987" lon="13.4213285"><ele>9.0</ele><time>2026-04-19T10:05:10.841Z</time></trkpt><trkpt lat="45.8140331" lon="13.4212428"><ele>9.0</ele><time>2026-04-19T10:05:11.84Z</time></trkpt><trkpt lat="45.8141636" lon="13.4211494"><ele>9.0</ele><time>2026-04-19T10:05:12.841Z</time></trkpt><trkpt lat="45.8142904" lon="13.4210594"><ele>9.5</ele><time>2026-04-19T10:05:13.841Z</time></trkpt><trkpt lat="45.8144223" lon="13.4209583"><ele>10.0</ele><time>2026-04-19T10:05:14.84Z</time></trkpt><trkpt lat="45.8145512" lon="13.420859"><ele>10.5</ele><time>2026-04-19T10:05:15.841Z</time></trkpt><trkpt lat="45.8146779" lon="13.4207657"><ele>11.0</ele><time>2026-04-19T10:05:16.841Z</time></trkpt><trkpt lat="45.8147985" lon="13.4206815"><ele>11.0</ele><time>2026-04-19T10:05:17.84Z</time></trkpt><trkpt lat="45.8149107" lon="13.4206015"><ele>11.0</ele><time>2026-04-19T10:05:18.841Z</time></trkpt><trkpt lat="45.8150207" lon="13.4205177"><ele>11.0</ele><time>2026-04-19T10:05:19.841Z</time></trkpt><trkpt lat="45.8151418" lon="13.4204232"><ele>11.0</ele><time>2026-04-19T10:05:20.841Z</time></trkpt><trkpt lat="45.8152574" lon="13.4203354"><ele>10.200000000000001</ele><time>2026-04-19T10:05:21.841Z</time></trkpt><trkpt lat="45.8153613" lon="13.4202523"><ele>9.4</ele><time>2026-04-19T10:05:22.84Z</time></trkpt><trkpt lat="45.8154519" lon="13.4201802"><ele>8.6</ele><time>2026-04-19T10:05:23.841Z</time></trkpt><trkpt lat="45.8155366" lon="13.4201122"><ele>7.8</ele><time>2026-04-19T10:05:24.841Z</time></trkpt><trkpt lat="45.8156195" lon="13.4200598"><ele>7.0</ele><time>2026-04-19T10:05:25.841Z</time></trkpt><trkpt lat="45.8157056" lon="13.4200047"><ele>7.000000000000001</ele><time>2026-04-19T10:05:26.84Z</time></trkpt><trkpt lat="45.8157977" lon="13.4199484"><ele>7.0</ele><time>2026-04-19T10:05:27.84Z</time></trkpt><trkpt lat="45.8158774" lon="13.4198868"><ele>7.0</ele><time>2026-04-19T10:05:28.84Z</time></trkpt><trkpt lat="45.8159478" lon="13.4198396"><ele>7.0</ele><time>2026-04-19T10:05:29.84Z</time></trkpt><trkpt lat="45.8160141" lon="13.4198041"><ele>7.000000000000001</ele><time>2026-04-19T10:05:30.84Z</time></trkpt><trkpt lat="45.8160786" lon="13.4197699"><ele>7.0</ele><time>2026-04-19T10:05:31.841Z</time></trkpt><trkpt lat="45.8161358" lon="13.4197247"><ele>6.833333333333334</ele><time>2026-04-19T10:05:32.84Z</time></trkpt><trkpt lat="45.8161915" lon="13.4196775"><ele>6.666666666666667</ele><time>2026-04-19T10:05:33.841Z</time></trkpt><trkpt lat="45.8162871" lon="13.4195965"><ele>6.5</ele><time>2026-04-19T10:05:35.841Z</time></trkpt><trkpt lat="45.8163707" lon="13.4195349"><ele>6.333333333333334</ele><time>2026-04-19T10:05:37.841Z</time></trkpt><trkpt lat="45.8164407" lon="13.4194847"><ele>6.166666666666667</ele><time>2026-04-19T10:05:39.841Z</time></trkpt><trkpt lat="45.8165064" lon="13.4194285"><ele>6.0</ele><time>2026-04-19T10:05:41.84Z</time></trkpt><trkpt lat="45.8165799" lon="13.4193772"><ele>5.8</ele><time>2026-04-19T10:05:43.841Z</time></trkpt><trkpt lat="45.8166576" lon="13.4193301"><ele>5.6</ele><time>2026-04-19T10:05:45.841Z</time></trkpt><trkpt lat="45.816747" lon="13.4192601"><ele>5.4</ele><time>2026-04-19T10:05:47.841Z</time></trkpt><trkpt lat="45.8168529" lon="13.4191971"><ele>5.2</ele><time>2026-04-19T10:05:49.84Z</time></trkpt><trkpt lat="45.8169615" lon="13.4191178"><ele>5.0</ele><time>2026-04-19T10:05:51.841Z</time></trkpt><trkpt lat="45.8170728" lon="13.4190211"><ele>5.8</ele><time>2026-04-19T10:05:53.841Z</time></trkpt><trkpt lat="45.8171339" lon="13.4189795"><ele>6.6</ele><time>2026-04-19T10:05:54.841Z</time></trkpt><trkpt lat="45.8172473" lon="13.41892"><ele>7.4</ele><time>2026-04-19T10:05:56.841Z</time></trkpt><trkpt lat="45.8173542" lon="13.4188311"><ele>8.2</ele><time>2026-04-19T10:05:58.84Z</time></trkpt><trkpt lat="45.8174147" lon="13.4187767"><ele>9.0</ele><time>2026-04-19T10:05:59.84Z</time></trkpt><trkpt lat="45.8174812" lon="13.418715"><ele>9.0</ele><time>2026-04-19T10:06:00.84Z</time></trkpt><trkpt lat="45.817557" lon="13.4186429"><ele>9.0</ele><time>2026-04-19T10:06:01.84Z</time></trkpt><trkpt lat="45.8176206" lon="13.4185572"><ele>9.0</ele><time>2026-04-19T10:06:02.84Z</time></trkpt><trkpt lat="45.8176799" lon="13.4184722"><ele>9.0</ele><time>2026-04-19T10:06:03.84Z</time></trkpt><trkpt lat="45.8177399" lon="13.4183848"><ele>9.0</ele><time>2026-04-19T10:06:04.841Z</time></trkpt><trkpt lat="45.8178107" lon="13.4183058"><ele>9.0</ele><time>2026-04-19T10:06:05.84Z</time></trkpt><trkpt lat="45.8179185" lon="13.4182145"><ele>8.666666666666666</ele><time>2026-04-19T10:06:06.84Z</time></trkpt><trkpt lat="45.8180784" lon="13.4181227"><ele>8.333333333333332</ele><time>2026-04-19T10:06:07.841Z</time></trkpt><trkpt lat="45.8182756" lon="13.418017"><ele>8.0</ele><time>2026-04-19T10:06:08.84Z</time></trkpt><trkpt lat="45.8184825" lon="13.4179016"><ele>8.0</ele><time>2026-04-19T10:06:09.841Z</time></trkpt><trkpt lat="45.8186953" lon="13.4177832"><ele>8.0</ele><time>2026-04-19T10:06:10.84Z</time></trkpt><trkpt lat="45.818934" lon="13.4176533"><ele>8.0</ele><time>2026-04-19T10:06:11.84Z</time></trkpt><trkpt lat="45.8191799" lon="13.4175163"><ele>8.0</ele><time>2026-04-19T10:06:12.841Z</time></trkpt><trkpt lat="45.8194261" lon="13.4173792"><ele>7.5</ele><time>2026-04-19T10:06:13.84Z</time></trkpt><trkpt lat="45.8196588" lon="13.4172517"><ele>7.0</ele><time>2026-04-19T10:06:14.841Z</time></trkpt><trkpt lat="45.8198796" lon="13.4171283"><ele>7.0</ele><time>2026-04-19T10:06:15.84Z</time></trkpt><trkpt lat="45.8200986" lon="13.4170015"><ele>7.0</ele><time>2026-04-19T10:06:16.841Z</time></trkpt><trkpt lat="45.8203166" lon="13.4168765"><ele>8.0</ele><time>2026-04-19T10:06:17.841Z</time></trkpt><trkpt lat="45.8205259" lon="13.4167606"><ele>9.0</ele><time>2026-04-19T10:06:18.84Z</time></trkpt><trkpt lat="45.8207289" lon="13.4166458"><ele>10.0</ele><time>2026-04-19T10:06:19.841Z</time></trkpt><trkpt lat="45.8209229" lon="13.4165439"><ele>10.0</ele><time>2026-04-19T10:06:20.841Z</time></trkpt><trkpt lat="45.8211164" lon="13.4164473"><ele>10.0</ele><time>2026-04-19T10:06:21.84Z</time></trkpt><trkpt lat="45.8213011" lon="13.4163288"><ele>10.0</ele><time>2026-04-19T10:06:22.84Z</time></trkpt><trkpt lat="45.8214868" lon="13.4162187"><ele>9.666666666666668</ele><time>2026-04-19T10:06:23.84Z</time></trkpt><trkpt lat="45.8216709" lon="13.4161155"><ele>9.333333333333334</ele><time>2026-04-19T10:06:24.84Z</time></trkpt><trkpt lat="45.8218386" lon="13.416028"><ele>9.0</ele><time>2026-04-19T10:06:25.841Z</time></trkpt><trkpt lat="45.8219967" lon="13.4159584"><ele>9.0</ele><time>2026-04-19T10:06:26.84Z</time></trkpt><trkpt lat="45.8221297" lon="13.4158941"><ele>9.0</ele><time>2026-04-19T10:06:27.84Z</time></trkpt><trkpt lat="45.8222504" lon="13.4158286"><ele>9.0</ele><time>2026-04-19T10:06:28.84Z</time></trkpt><trkpt lat="45.8223758" lon="13.4157646"><ele>9.0</ele><time>2026-04-19T10:06:29.84Z</time></trkpt><trkpt lat="45.8225221" lon="13.415673"><ele>8.666666666666666</ele><time>2026-04-19T10:06:30.841Z</time></trkpt><trkpt lat="45.8226798" lon="13.4155772"><ele>8.333333333333332</ele><time>2026-04-19T10:06:31.84Z</time></trkpt><trkpt lat="45.8228341" lon="13.41548"><ele>8.0</ele><time>2026-04-19T10:06:32.841Z</time></trkpt><trkpt lat="45.8229395" lon="13.4154259"><ele>8.0</ele><time>2026-04-19T10:06:33.841Z</time></trkpt><trkpt lat="45.8228141" lon="13.4154656"><ele>8.0</ele><time>2026-04-19T10:11:34.84Z</time></trkpt><trkpt lat="45.8227136" lon="13.415534"><ele>8.0</ele><time>2026-04-19T10:18:21.839Z</time></trkpt><trkpt lat="45.822654" lon="13.4155685"><ele>8.0</ele><time>2026-04-19T10:18:22.838Z</time></trkpt><trkpt lat="45.8225841" lon="13.4156093"><ele>8.0</ele><time>2026-04-19T10:18:23.838Z</time></trkpt><trkpt lat="45.8224981" lon="13.4156656"><ele>8.200000000000001</ele><time>2026-04-19T10:18:24.838Z</time></trkpt><trkpt lat="45.8224089" lon="13.4157196"><ele>8.4</ele><time>2026-04-19T10:18:25.839Z</time></trkpt><trkpt lat="45.8223337" lon="13.4157613"><ele>8.600000000000001</ele><time>2026-04-19T10:18:26.839Z</time></trkpt><trkpt lat="45.8222412" lon="13.4158052"><ele>8.8</ele><time>2026-04-19T10:18:28.839Z</time></trkpt><trkpt lat="45.8223355" lon="13.4157735"><ele>9.0</ele><time>2026-04-19T10:18:36.839Z</time></trkpt><trkpt lat="45.8224125" lon="13.4157177"><ele>9.0</ele><time>2026-04-19T10:18:37.839Z</time></trkpt><trkpt lat="45.8225125" lon="13.4156549"><ele>9.0</ele><time>2026-04-19T10:18:38.838Z</time></trkpt><trkpt lat="45.8226308" lon="13.4155877"><ele>9.0</ele><time>2026-04-19T10:18:39.839Z</time></trkpt><trkpt lat="45.8227658" lon="13.4155249"><ele>9.0</ele><time>2026-04-19T10:18:40.839Z</time></trkpt><trkpt lat="45.8229119" lon="13.415472"><ele>8.666666666666666</ele><time>2026-04-19T10:18:41.839Z</time></trkpt><trkpt lat="45.8230608" lon="13.4154149"><ele>8.333333333333332</ele><time>2026-04-19T10:18:42.839Z</time></trkpt><trkpt lat="45.8232182" lon="13.4153527"><ele>8.0</ele><time>2026-04-19T10:18:43.838Z</time></trkpt><trkpt lat="45.8233747" lon="13.4152925"><ele>8.0</ele><time>2026-04-19T10:18:44.839Z</time></trkpt><trkpt lat="45.8235277" lon="13.4152308"><ele>8.0</ele><time>2026-04-19T10:18:45.838Z</time></trkpt><trkpt lat="45.8236898" lon="13.4151739"><ele>8.0</ele><time>2026-04-19T10:18:46.838Z</time></trkpt><trkpt lat="45.8238532" lon="13.4151192"><ele>8.0</ele><time>2026-04-19T10:18:47.839Z</time></trkpt><trkpt lat="45.824007" lon="13.4150613"><ele>8.0</ele><time>2026-04-19T10:18:48.839Z</time></trkpt><trkpt lat="45.8241619" lon="13.415003"><ele>8.0</ele><time>2026-04-19T10:18:49.839Z</time></trkpt><trkpt lat="45.8243268" lon="13.4149383"><ele>8.333333333333332</ele><time>2026-04-19T10:18:50.838Z</time></trkpt><trkpt lat="45.8244949" lon="13.4148734"><ele>8.666666666666666</ele><time>2026-04-19T10:18:51.839Z</time></trkpt><trkpt lat="45.824679" lon="13.414805"><ele>9.0</ele><time>2026-04-19T10:18:52.839Z</time></trkpt><trkpt lat="45.8248701" lon="13.4147338"><ele>9.0</ele><time>2026-04-19T10:18:53.839Z</time></trkpt><trkpt lat="45.8250658" lon="13.4146628"><ele>9.0</ele><time>2026-04-19T10:18:54.839Z</time></trkpt><trkpt lat="45.8252568" lon="13.4146005"><ele>9.0</ele><time>2026-04-19T10:18:55.839Z</time></trkpt><trkpt lat="45.8254453" lon="13.414536"><ele>8.666666666666666</ele><time>2026-04-19T10:18:56.839Z</time></trkpt><trkpt lat="45.8256353" lon="13.4144688"><ele>8.333333333333332</ele><time>2026-04-19T10:18:57.839Z</time></trkpt><trkpt lat="45.8258303" lon="13.4143975"><ele>8.0</ele><time>2026-04-19T10:18:58.839Z</time></trkpt><trkpt lat="45.8260184" lon="13.41432"><ele>8.0</ele><time>2026-04-19T10:18:59.837Z</time></trkpt><trkpt lat="45.8261982" lon="13.4142516"><ele>8.0</ele><time>2026-04-19T10:19:00.838Z</time></trkpt><trkpt lat="45.8263725" lon="13.4141873"><ele>8.0</ele><time>2026-04-19T10:19:01.838Z</time></trkpt><trkpt lat="45.8265245" lon="13.4141247"><ele>8.0</ele><time>2026-04-19T10:19:02.838Z</time></trkpt><trkpt lat="45.8266531" lon="13.4140802"><ele>8.0</ele><time>2026-04-19T10:19:03.838Z</time></trkpt><trkpt lat="45.8267474" lon="13.4140398"><ele>8.0</ele><time>2026-04-19T10:19:04.838Z</time></trkpt><trkpt lat="45.826806" lon="13.4140059"><ele>8.0</ele><time>2026-04-19T10:19:05.838Z</time></trkpt><trkpt lat="45.8268616" lon="13.413918"><ele>8.0</ele><time>2026-04-19T10:19:07.838Z</time></trkpt><trkpt lat="45.826949" lon="13.4139329"><ele>8.0</ele><time>2026-04-19T10:19:10.838Z</time></trkpt><trkpt lat="45.8270155" lon="13.4139598"><ele>8.0</ele><time>2026-04-19T10:19:11.838Z</time></trkpt><trkpt lat="45.827115" lon="13.4139736"><ele>8.0</ele><time>2026-04-19T10:19:12.838Z</time></trkpt><trkpt lat="45.8272398" lon="13.4139779"><ele>8.0</ele><time>2026-04-19T10:19:13.838Z</time></trkpt><trkpt lat="45.8273886" lon="13.4139763"><ele>8.0</ele><time>2026-04-19T10:19:14.837Z</time></trkpt><trkpt lat="45.8275544" lon="13.4139719"><ele>8.0</ele><time>2026-04-19T10:19:15.838Z</time></trkpt><trkpt lat="45.8277253" lon="13.4139696"><ele>8.0</ele><time>2026-04-19T10:19:16.838Z</time></trkpt><trkpt lat="45.8279071" lon="13.4139749"><ele>8.0</ele><time>2026-04-19T10:19:17.838Z</time></trkpt><trkpt lat="45.8281073" lon="13.4139722"><ele>8.0</ele><time>2026-04-19T10:19:18.838Z</time></trkpt><trkpt lat="45.8283" lon="13.4139696"><ele>8.0</ele><time>2026-04-19T10:19:19.838Z</time></trkpt><trkpt lat="45.8285009" lon="13.4139769"><ele>8.0</ele><time>2026-04-19T10:19:20.838Z</time></trkpt><trkpt lat="45.8287027" lon="13.4139753"><ele>8.333333333333332</ele><time>2026-04-19T10:19:21.838Z</time></trkpt><trkpt lat="45.8288974" lon="13.4139778"><ele>8.666666666666666</ele><time>2026-04-19T10:19:22.838Z</time></trkpt><trkpt lat="45.8290881" lon="13.4139811"><ele>9.0</ele><time>2026-04-19T10:19:23.838Z</time></trkpt><trkpt lat="45.8292805" lon="13.4139738"><ele>8.666666666666666</ele><time>2026-04-19T10:19:24.838Z</time></trkpt><trkpt lat="45.8294674" lon="13.4139832"><ele>8.333333333333332</ele><time>2026-04-19T10:19:25.838Z</time></trkpt><trkpt lat="45.8296499" lon="13.4139854"><ele>8.0</ele><time>2026-04-19T10:19:26.838Z</time></trkpt><trkpt lat="45.8298148" lon="13.4139781"><ele>8.0</ele><time>2026-04-19T10:19:27.838Z</time></trkpt><trkpt lat="45.8299754" lon="13.4139734"><ele>8.0</ele><time>2026-04-19T10:19:28.838Z</time></trkpt><trkpt lat="45.8301332" lon="13.4139727"><ele>8.0</ele><time>2026-04-19T10:19:29.837Z</time></trkpt><trkpt lat="45.8302902" lon="13.4139787"><ele>8.333333333333332</ele><time>2026-04-19T10:19:30.838Z</time></trkpt><trkpt lat="45.8304472" lon="13.413977"><ele>8.666666666666666</ele><time>2026-04-19T10:19:31.837Z</time></trkpt><trkpt lat="45.8306088" lon="13.4139781"><ele>9.0</ele><time>2026-04-19T10:19:32.838Z</time></trkpt><trkpt lat="45.8307718" lon="13.4139748"><ele>9.0</ele><time>2026-04-19T10:19:33.837Z</time></trkpt><trkpt lat="45.8309298" lon="13.4139785"><ele>9.0</ele><time>2026-04-19T10:19:34.838Z</time></trkpt><trkpt lat="45.8310717" lon="13.4139854"><ele>9.0</ele><time>2026-04-19T10:19:35.837Z</time></trkpt><trkpt lat="45.8312147" lon="13.4139913"><ele>9.0</ele><time>2026-04-19T10:19:36.838Z</time></trkpt><trkpt lat="45.831346" lon="13.4140043"><ele>8.75</ele><time>2026-04-19T10:19:37.838Z</time></trkpt><trkpt lat="45.8314769" lon="13.41403"><ele>8.5</ele><time>2026-04-19T10:19:38.838Z</time></trkpt><trkpt lat="45.8316103" lon="13.414061"><ele>8.25</ele><time>2026-04-19T10:19:39.838Z</time></trkpt><trkpt lat="45.8317404" lon="13.4140958"><ele>8.0</ele><time>2026-04-19T10:19:40.837Z</time></trkpt><trkpt lat="45.8318822" lon="13.4141401"><ele>8.0</ele><time>2026-04-19T10:19:41.837Z</time></trkpt><trkpt lat="45.8320305" lon="13.4141958"><ele>8.0</ele><time>2026-04-19T10:19:42.838Z</time></trkpt><trkpt lat="45.8321798" lon="13.4142589"><ele>8.0</ele><time>2026-04-19T10:19:43.838Z</time></trkpt><trkpt lat="45.8323349" lon="13.4143309"><ele>8.0</ele><time>2026-04-19T10:19:44.838Z</time></trkpt><trkpt lat="45.8324989" lon="13.4144001"><ele>8.0</ele><time>2026-04-19T10:19:45.838Z</time></trkpt><trkpt lat="45.8326598" lon="13.4144728"><ele>8.0</ele><time>2026-04-19T10:19:46.838Z</time></trkpt><trkpt lat="45.8328262" lon="13.4145422"><ele>8.0</ele><time>2026-04-19T10:19:47.838Z</time></trkpt><trkpt lat="45.8329966" lon="13.4146054"><ele>8.0</ele><time>2026-04-19T10:19:48.838Z</time></trkpt><trkpt lat="45.8331701" lon="13.414676"><ele>8.0</ele><time>2026-04-19T10:19:49.837Z</time></trkpt><trkpt lat="45.8333452" lon="13.4147483"><ele>8.0</ele><time>2026-04-19T10:19:50.838Z</time></trkpt><trkpt lat="45.8335232" lon="13.414823"><ele>8.0</ele><time>2026-04-19T10:19:51.838Z</time></trkpt><trkpt lat="45.8337061" lon="13.4148945"><ele>8.0</ele><time>2026-04-19T10:19:52.837Z</time></trkpt><trkpt lat="45.8338949" lon="13.4149737"><ele>8.0</ele><time>2026-04-19T10:19:53.837Z</time></trkpt><trkpt lat="45.8340899" lon="13.4150618"><ele>8.0</ele><time>2026-04-19T10:19:54.838Z</time></trkpt><trkpt lat="45.83429" lon="13.4151463"><ele>8.0</ele><time>2026-04-19T10:19:55.838Z</time></trkpt><trkpt lat="45.834485" lon="13.4152322"><ele>8.333333333333332</ele><time>2026-04-19T10:19:56.838Z</time></trkpt><trkpt lat="45.8346724" lon="13.4153158"><ele>8.666666666666666</ele><time>2026-04-19T10:19:57.838Z</time></trkpt><trkpt lat="45.8348512" lon="13.4153931"><ele>9.0</ele><time>2026-04-19T10:19:58.838Z</time></trkpt><trkpt lat="45.8350208" lon="13.4154635"><ele>9.0</ele><time>2026-04-19T10:19:59.838Z</time></trkpt><trkpt lat="45.8351886" lon="13.4155382"><ele>9.0</ele><time>2026-04-19T10:20:00.838Z</time></trkpt><trkpt lat="45.8353436" lon="13.4156129"><ele>9.0</ele><time>2026-04-19T10:20:01.838Z</time></trkpt><trkpt lat="45.8354981" lon="13.4156766"><ele>9.0</ele><time>2026-04-19T10:20:02.838Z</time></trkpt><trkpt lat="45.8356371" lon="13.4157349"><ele>9.0</ele><time>2026-04-19T10:20:03.838Z</time></trkpt><trkpt lat="45.835761" lon="13.4157959"><ele>9.0</ele><time>2026-04-19T10:20:04.838Z</time></trkpt><trkpt lat="45.8358903" lon="13.4158665"><ele>9.0</ele><time>2026-04-19T10:20:05.837Z</time></trkpt><trkpt lat="45.8360164" lon="13.4159499"><ele>9.2</ele><time>2026-04-19T10:20:06.837Z</time></trkpt><trkpt lat="45.8361244" lon="13.4160317"><ele>9.4</ele><time>2026-04-19T10:20:07.837Z</time></trkpt><trkpt lat="45.836222" lon="13.4161135"><ele>9.6</ele><time>2026-04-19T10:20:08.837Z</time></trkpt><trkpt lat="45.8363006" lon="13.4161781"><ele>9.8</ele><time>2026-04-19T10:20:09.838Z</time></trkpt><trkpt lat="45.836363" lon="13.4162157"><ele>10.0</ele><time>2026-04-19T10:20:10.837Z</time></trkpt><trkpt lat="45.8364565" lon="13.4162236"><ele>10.0</ele><time>2026-04-19T10:20:12.837Z</time></trkpt><trkpt lat="45.8365034" lon="13.4163549"><ele>10.0</ele><time>2026-04-19T10:20:15.837Z</time></trkpt><trkpt lat="45.8365394" lon="13.4164328"><ele>10.0</ele><time>2026-04-19T10:20:16.838Z</time></trkpt><trkpt lat="45.8365904" lon="13.4165246"><ele>10.0</ele><time>2026-04-19T10:20:17.838Z</time></trkpt><trkpt lat="45.8366744" lon="13.4166098"><ele>10.0</ele><time>2026-04-19T10:20:18.838Z</time></trkpt><trkpt lat="45.8367833" lon="13.4167059"><ele>10.0</ele><time>2026-04-19T10:20:19.838Z</time></trkpt><trkpt lat="45.8369055" lon="13.4168216"><ele>10.0</ele><time>2026-04-19T10:20:20.838Z</time></trkpt><trkpt lat="45.8370337" lon="13.4169482"><ele>10.0</ele><time>2026-04-19T10:20:21.838Z</time></trkpt><trkpt lat="45.8371668" lon="13.4170769"><ele>10.0</ele><time>2026-04-19T10:20:22.838Z</time></trkpt><trkpt lat="45.8373011" lon="13.4172076"><ele>10.0</ele><time>2026-04-19T10:20:23.838Z</time></trkpt><trkpt lat="45.8374394" lon="13.4173447"><ele>10.0</ele><time>2026-04-19T10:20:24.838Z</time></trkpt><trkpt lat="45.8375785" lon="13.4174899"><ele>9.666666666666668</ele><time>2026-04-19T10:20:25.837Z</time></trkpt><trkpt lat="45.8377185" lon="13.4176401"><ele>9.333333333333334</ele><time>2026-04-19T10:20:26.838Z</time></trkpt><trkpt lat="45.8378639" lon="13.4177978"><ele>9.0</ele><time>2026-04-19T10:20:27.838Z</time></trkpt><trkpt lat="45.8380143" lon="13.41795"><ele>9.0</ele><time>2026-04-19T10:20:28.838Z</time></trkpt><trkpt lat="45.8381638" lon="13.4180982"><ele>9.0</ele><time>2026-04-19T10:20:29.838Z</time></trkpt><trkpt lat="45.8383122" lon="13.418257"><ele>9.0</ele><time>2026-04-19T10:20:30.838Z</time></trkpt><trkpt lat="45.8384636" lon="13.4184129"><ele>9.0</ele><time>2026-04-19T10:20:31.838Z</time></trkpt><trkpt lat="45.8386156" lon="13.4185811"><ele>9.0</ele><time>2026-04-19T10:20:32.838Z</time></trkpt><trkpt lat="45.8387771" lon="13.4187503"><ele>9.0</ele><time>2026-04-19T10:20:33.838Z</time></trkpt><trkpt lat="45.8389373" lon="13.4189075"><ele>9.0</ele><time>2026-04-19T10:20:34.838Z</time></trkpt><trkpt lat="45.8391023" lon="13.4190739"><ele>9.0</ele><time>2026-04-19T10:20:35.838Z</time></trkpt><trkpt lat="45.8392604" lon="13.4192392"><ele>9.0</ele><time>2026-04-19T10:20:36.838Z</time></trkpt><trkpt lat="45.839427" lon="13.4193985"><ele>9.0</ele><time>2026-04-19T10:20:37.838Z</time></trkpt><trkpt lat="45.8395898" lon="13.4195643"><ele>9.0</ele><time>2026-04-19T10:20:38.837Z</time></trkpt><trkpt lat="45.8397547" lon="13.4197312"><ele>9.0</ele><time>2026-04-19T10:20:39.837Z</time></trkpt><trkpt lat="45.8399123" lon="13.4198984"><ele>8.666666666666666</ele><time>2026-04-19T10:20:40.838Z</time></trkpt><trkpt lat="45.8400733" lon="13.4200586"><ele>8.333333333333332</ele><time>2026-04-19T10:20:41.837Z</time></trkpt><trkpt lat="45.8402406" lon="13.4202244"><ele>8.0</ele><time>2026-04-19T10:20:42.837Z</time></trkpt><trkpt lat="45.8404146" lon="13.4203911"><ele>8.0</ele><time>2026-04-19T10:20:43.838Z</time></trkpt><trkpt lat="45.8405795" lon="13.4205534"><ele>8.0</ele><time>2026-04-19T10:20:44.838Z</time></trkpt><trkpt lat="45.8407462" lon="13.4207118"><ele>8.0</ele><time>2026-04-19T10:20:45.838Z</time></trkpt><trkpt lat="45.840913" lon="13.4208787"><ele>8.0</ele><time>2026-04-19T10:20:46.838Z</time></trkpt><trkpt lat="45.8410688" lon="13.4210374"><ele>8.0</ele><time>2026-04-19T10:20:47.838Z</time></trkpt><trkpt lat="45.8412204" lon="13.4211917"><ele>8.0</ele><time>2026-04-19T10:20:48.837Z</time></trkpt><trkpt lat="45.8413639" lon="13.4213464"><ele>8.666666666666666</ele><time>2026-04-19T10:20:49.838Z</time></trkpt><trkpt lat="45.8415071" lon="13.4214983"><ele>9.333333333333334</ele><time>2026-04-19T10:20:50.838Z</time></trkpt><trkpt lat="45.8416436" lon="13.4216395"><ele>10.0</ele><time>2026-04-19T10:20:51.838Z</time></trkpt><trkpt lat="45.8417676" lon="13.4217677"><ele>10.0</ele><time>2026-04-19T10:20:52.837Z</time></trkpt><trkpt lat="45.8418831" lon="13.4218867"><ele>10.0</ele><time>2026-04-19T10:20:53.838Z</time></trkpt><trkpt lat="45.8419824" lon="13.4219914"><ele>10.0</ele><time>2026-04-19T10:20:54.838Z</time></trkpt><trkpt lat="45.8420588" lon="13.4220555"><ele>10.0</ele><time>2026-04-19T10:20:55.838Z</time></trkpt><trkpt lat="45.8421254" lon="13.42209"><ele>10.0</ele><time>2026-04-19T10:20:56.837Z</time></trkpt><trkpt lat="45.8422305" lon="13.4220986"><ele>10.0</ele><time>2026-04-19T10:20:58.837Z</time></trkpt><trkpt lat="45.8423031" lon="13.4221464"><ele>10.0</ele><time>2026-04-19T10:21:01.837Z</time></trkpt><trkpt lat="45.8423342" lon="13.422271"><ele>10.0</ele><time>2026-04-19T10:21:03.838Z</time></trkpt><trkpt lat="45.842376" lon="13.4223669"><ele>10.0</ele><time>2026-04-19T10:21:04.838Z</time></trkpt><trkpt lat="45.8424535" lon="13.4224774"><ele>10.0</ele><time>2026-04-19T10:21:05.837Z</time></trkpt><trkpt lat="45.8425731" lon="13.4225976"><ele>10.333333333333334</ele><time>2026-04-19T10:21:06.837Z</time></trkpt><trkpt lat="45.8427062" lon="13.4227302"><ele>10.666666666666666</ele><time>2026-04-19T10:21:07.838Z</time></trkpt><trkpt lat="45.8428508" lon="13.422873"><ele>11.0</ele><time>2026-04-19T10:21:08.837Z</time></trkpt><trkpt lat="45.8430018" lon="13.4230229"><ele>11.0</ele><time>2026-04-19T10:21:09.838Z</time></trkpt><trkpt lat="45.8431574" lon="13.4231825"><ele>11.0</ele><time>2026-04-19T10:21:10.838Z</time></trkpt><trkpt lat="45.8433049" lon="13.4233351"><ele>11.0</ele><time>2026-04-19T10:21:11.838Z</time></trkpt><trkpt lat="45.8434422" lon="13.4234745"><ele>11.0</ele><time>2026-04-19T10:21:12.838Z</time></trkpt><trkpt lat="45.8435917" lon="13.4236017"><ele>11.0</ele><time>2026-04-19T10:21:13.838Z</time></trkpt><trkpt lat="45.843746" lon="13.4237125"><ele>11.0</ele><time>2026-04-19T10:21:14.837Z</time></trkpt><trkpt lat="45.8439088" lon="13.4238203"><ele>11.0</ele><time>2026-04-19T10:21:15.837Z</time></trkpt><trkpt lat="45.8440802" lon="13.4239023"><ele>11.0</ele><time>2026-04-19T10:21:16.838Z</time></trkpt><trkpt lat="45.8442567" lon="13.4239632"><ele>11.0</ele><time>2026-04-19T10:21:17.837Z</time></trkpt><trkpt lat="45.844437" lon="13.4240124"><ele>11.666666666666666</ele><time>2026-04-19T10:21:18.837Z</time></trkpt><trkpt lat="45.844625" lon="13.4240498"><ele>12.333333333333332</ele><time>2026-04-19T10:21:19.838Z</time></trkpt><trkpt lat="45.8448208" lon="13.4240706"><ele>13.0</ele><time>2026-04-19T10:21:20.837Z</time></trkpt><trkpt lat="45.8450268" lon="13.4240652"><ele>12.333333333333332</ele><time>2026-04-19T10:21:21.838Z</time></trkpt><trkpt lat="45.8452374" lon="13.4240316"><ele>11.666666666666666</ele><time>2026-04-19T10:21:22.838Z</time></trkpt><trkpt lat="45.8454462" lon="13.4239442"><ele>11.0</ele><time>2026-04-19T10:21:23.838Z</time></trkpt><trkpt lat="45.8456494" lon="13.423838"><ele>11.0</ele><time>2026-04-19T10:21:24.838Z</time></trkpt><trkpt lat="45.8458479" lon="13.4237118"><ele>11.0</ele><time>2026-04-19T10:21:25.838Z</time></trkpt><trkpt lat="45.8460343" lon="13.4235637"><ele>11.0</ele><time>2026-04-19T10:21:26.837Z</time></trkpt><trkpt lat="45.8462227" lon="13.4233982"><ele>11.0</ele><time>2026-04-19T10:21:27.837Z</time></trkpt><trkpt lat="45.8464012" lon="13.4231988"><ele>11.0</ele><time>2026-04-19T10:21:28.837Z</time></trkpt><trkpt lat="45.8465638" lon="13.4229673"><ele>10.5</ele><time>2026-04-19T10:21:29.838Z</time></trkpt><trkpt lat="45.8467226" lon="13.4227135"><ele>10.0</ele><time>2026-04-19T10:21:30.837Z</time></trkpt><trkpt lat="45.846866" lon="13.4224275"><ele>10.0</ele><time>2026-04-19T10:21:31.838Z</time></trkpt><trkpt lat="45.8469885" lon="13.4221253"><ele>10.0</ele><time>2026-04-19T10:21:32.838Z</time></trkpt><trkpt lat="45.8471013" lon="13.4218143"><ele>10.0</ele><time>2026-04-19T10:21:33.838Z</time></trkpt><trkpt lat="45.8472135" lon="13.4215175"><ele>10.0</ele><time>2026-04-19T10:21:34.837Z</time></trkpt><trkpt lat="45.8473322" lon="13.4212222"><ele>11.5</ele><time>2026-04-19T10:21:35.838Z</time></trkpt><trkpt lat="45.8474439" lon="13.4209339"><ele>13.0</ele><time>2026-04-19T10:21:36.837Z</time></trkpt><trkpt lat="45.8475609" lon="13.4206589"><ele>12.666666666666666</ele><time>2026-04-19T10:21:37.838Z</time></trkpt><trkpt lat="45.8476758" lon="13.4203906"><ele>12.333333333333332</ele><time>2026-04-19T10:21:38.838Z</time></trkpt><trkpt lat="45.8477911" lon="13.4201201"><ele>12.0</ele><time>2026-04-19T10:21:39.837Z</time></trkpt><trkpt lat="45.8479089" lon="13.4198418"><ele>12.0</ele><time>2026-04-19T10:21:40.837Z</time></trkpt><trkpt lat="45.8480228" lon="13.4195707"><ele>12.0</ele><time>2026-04-19T10:21:41.838Z</time></trkpt><trkpt lat="45.8481418" lon="13.4192979"><ele>12.0</ele><time>2026-04-19T10:21:42.838Z</time></trkpt><trkpt lat="45.8482533" lon="13.4190228"><ele>12.333333333333332</ele><time>2026-04-19T10:21:43.838Z</time></trkpt><trkpt lat="45.8483619" lon="13.4187472"><ele>12.666666666666666</ele><time>2026-04-19T10:21:44.838Z</time></trkpt><trkpt lat="45.8484734" lon="13.4184698"><ele>13.0</ele><time>2026-04-19T10:21:45.838Z</time></trkpt><trkpt lat="45.8485756" lon="13.418211"><ele>13.333333333333332</ele><time>2026-04-19T10:21:46.838Z</time></trkpt><trkpt lat="45.8486735" lon="13.4179734"><ele>13.666666666666668</ele><time>2026-04-19T10:21:47.838Z</time></trkpt><trkpt lat="45.848759" lon="13.4177558"><ele>14.0</ele><time>2026-04-19T10:21:48.838Z</time></trkpt><trkpt lat="45.8488427" lon="13.4175539"><ele>14.0</ele><time>2026-04-19T10:21:49.837Z</time></trkpt><trkpt lat="45.8489136" lon="13.4173741"><ele>14.0</ele><time>2026-04-19T10:21:50.837Z</time></trkpt><trkpt lat="45.8489771" lon="13.4172199"><ele>14.0</ele><time>2026-04-19T10:21:51.837Z</time></trkpt><trkpt lat="45.8490296" lon="13.417092"><ele>14.0</ele><time>2026-04-19T10:21:52.838Z</time></trkpt><trkpt lat="45.8490716" lon="13.4169711"><ele>13.799999999999999</ele><time>2026-04-19T10:21:53.838Z</time></trkpt><trkpt lat="45.8491184" lon="13.4168618"><ele>13.599999999999998</ele><time>2026-04-19T10:21:54.838Z</time></trkpt><trkpt lat="45.8491547" lon="13.4167801"><ele>13.4</ele><time>2026-04-19T10:21:55.838Z</time></trkpt><trkpt lat="45.8492016" lon="13.4166873"><ele>13.2</ele><time>2026-04-19T10:21:57.838Z</time></trkpt><trkpt lat="45.8492755" lon="13.4165165"><ele>13.0</ele><time>2026-04-19T10:22:11.838Z</time></trkpt><trkpt lat="45.8493369" lon="13.4163832"><ele>13.666666666666666</ele><time>2026-04-19T10:22:12.838Z</time></trkpt><trkpt lat="45.8494197" lon="13.4162082"><ele>14.333333333333332</ele><time>2026-04-19T10:22:13.837Z</time></trkpt><trkpt lat="45.8495184" lon="13.4160043"><ele>15.0</ele><time>2026-04-19T10:22:14.837Z</time></trkpt><trkpt lat="45.849623" lon="13.4157895"><ele>15.0</ele><time>2026-04-19T10:22:15.838Z</time></trkpt><trkpt lat="45.8497361" lon="13.4155786"><ele>15.0</ele><time>2026-04-19T10:22:16.838Z</time></trkpt><trkpt lat="45.8498559" lon="13.4153722"><ele>15.0</ele><time>2026-04-19T10:22:17.837Z</time></trkpt><trkpt lat="45.8499848" lon="13.4151726"><ele>14.0</ele><time>2026-04-19T10:22:18.837Z</time></trkpt><trkpt lat="45.8501314" lon="13.4149696"><ele>13.0</ele><time>2026-04-19T10:22:19.838Z</time></trkpt><trkpt lat="45.8502914" lon="13.4147737"><ele>12.0</ele><time>2026-04-19T10:22:20.837Z</time></trkpt><trkpt lat="45.8504506" lon="13.4145807"><ele>12.0</ele><time>2026-04-19T10:22:21.837Z</time></trkpt><trkpt lat="45.8505989" lon="13.4143808"><ele>12.0</ele><time>2026-04-19T10:22:22.837Z</time></trkpt><trkpt lat="45.8507315" lon="13.4142058"><ele>12.0</ele><time>2026-04-19T10:22:23.838Z</time></trkpt><trkpt lat="45.8508591" lon="13.4140439"><ele>12.0</ele><time>2026-04-19T10:22:24.837Z</time></trkpt><trkpt lat="45.8509864" lon="13.4139022"><ele>12.0</ele><time>2026-04-19T10:22:25.838Z</time></trkpt><trkpt lat="45.8511022" lon="13.4137761"><ele>12.0</ele><time>2026-04-19T10:22:26.838Z</time></trkpt><trkpt lat="45.8512123" lon="13.4136299"><ele>12.333333333333332</ele><time>2026-04-19T10:22:27.837Z</time></trkpt><trkpt lat="45.8513307" lon="13.4134593"><ele>12.666666666666666</ele><time>2026-04-19T10:22:28.838Z</time></trkpt><trkpt lat="45.8514686" lon="13.413273"><ele>13.0</ele><time>2026-04-19T10:22:29.838Z</time></trkpt><trkpt lat="45.8516148" lon="13.4130779"><ele>13.0</ele><time>2026-04-19T10:22:30.837Z</time></trkpt><trkpt lat="45.8517638" lon="13.4128839"><ele>13.0</ele><time>2026-04-19T10:22:31.838Z</time></trkpt><trkpt lat="45.8519129" lon="13.4126934"><ele>13.0</ele><time>2026-04-19T10:22:32.837Z</time></trkpt><trkpt lat="45.8520617" lon="13.4125016"><ele>13.0</ele><time>2026-04-19T10:22:33.838Z</time></trkpt><trkpt lat="45.8522071" lon="13.4123242"><ele>13.0</ele><time>2026-04-19T10:22:34.838Z</time></trkpt><trkpt lat="45.8523479" lon="13.4121497"><ele>13.0</ele><time>2026-04-19T10:22:35.838Z</time></trkpt><trkpt lat="45.8524801" lon="13.4119788"><ele>13.0</ele><time>2026-04-19T10:22:36.838Z</time></trkpt><trkpt lat="45.8526104" lon="13.4118087"><ele>13.0</ele><time>2026-04-19T10:22:37.838Z</time></trkpt><trkpt lat="45.8527327" lon="13.4116467"><ele>13.0</ele><time>2026-04-19T10:22:38.838Z</time></trkpt><trkpt lat="45.8528491" lon="13.4114976"><ele>13.0</ele><time>2026-04-19T10:22:39.837Z</time></trkpt><trkpt lat="45.8529632" lon="13.4113614"><ele>13.0</ele><time>2026-04-19T10:22:40.837Z</time></trkpt><trkpt lat="45.8530792" lon="13.4112387"><ele>13.0</ele><time>2026-04-19T10:22:41.838Z</time></trkpt><trkpt lat="45.853207" lon="13.4111308"><ele>13.0</ele><time>2026-04-19T10:22:42.838Z</time></trkpt><trkpt lat="45.8533491" lon="13.4110349"><ele>12.666666666666666</ele><time>2026-04-19T10:22:43.838Z</time></trkpt><trkpt lat="45.8534906" lon="13.4109645"><ele>12.333333333333332</ele><time>2026-04-19T10:22:44.837Z</time></trkpt><trkpt lat="45.8536328" lon="13.4108981"><ele>12.0</ele><time>2026-04-19T10:22:45.838Z</time></trkpt><trkpt lat="45.8537882" lon="13.4108545"><ele>12.0</ele><time>2026-04-19T10:22:46.838Z</time></trkpt><trkpt lat="45.853953" lon="13.4108243"><ele>12.0</ele><time>2026-04-19T10:22:47.838Z</time></trkpt><trkpt lat="45.8541207" lon="13.410812"><ele>12.0</ele><time>2026-04-19T10:22:48.838Z</time></trkpt><trkpt lat="45.8542978" lon="13.4108196"><ele>11.666666666666666</ele><time>2026-04-19T10:22:49.838Z</time></trkpt><trkpt lat="45.8544682" lon="13.4108235"><ele>11.333333333333332</ele><time>2026-04-19T10:22:50.838Z</time></trkpt><trkpt lat="45.8546297" lon="13.4108262"><ele>11.0</ele><time>2026-04-19T10:22:51.838Z</time></trkpt><trkpt lat="45.8548114" lon="13.4108196"><ele>11.0</ele><time>2026-04-19T10:22:52.837Z</time></trkpt><trkpt lat="45.8549878" lon="13.4108192"><ele>11.0</ele><time>2026-04-19T10:22:53.837Z</time></trkpt><trkpt lat="45.8551636" lon="13.4108122"><ele>11.0</ele><time>2026-04-19T10:22:54.838Z</time></trkpt><trkpt lat="45.8553306" lon="13.4108027"><ele>11.666666666666666</ele><time>2026-04-19T10:22:55.837Z</time></trkpt><trkpt lat="45.8554988" lon="13.4107872"><ele>12.333333333333332</ele><time>2026-04-19T10:22:56.838Z</time></trkpt><trkpt lat="45.8556762" lon="13.4107699"><ele>13.0</ele><time>2026-04-19T10:22:57.838Z</time></trkpt><trkpt lat="45.8558547" lon="13.4107658"><ele>12.666666666666666</ele><time>2026-04-19T10:22:58.838Z</time></trkpt><trkpt lat="45.8560374" lon="13.4107581"><ele>12.333333333333332</ele><time>2026-04-19T10:22:59.838Z</time></trkpt><trkpt lat="45.8562168" lon="13.4107568"><ele>12.0</ele><time>2026-04-19T10:23:00.838Z</time></trkpt><trkpt lat="45.8563964" lon="13.4107539"><ele>12.0</ele><time>2026-04-19T10:23:01.838Z</time></trkpt><trkpt lat="45.8565809" lon="13.4107492"><ele>12.0</ele><time>2026-04-19T10:23:02.838Z</time></trkpt><trkpt lat="45.8567713" lon="13.4107442"><ele>12.0</ele><time>2026-04-19T10:23:03.837Z</time></trkpt><trkpt lat="45.856962" lon="13.4107384"><ele>12.666666666666668</ele><time>2026-04-19T10:23:04.838Z</time></trkpt><trkpt lat="45.8571643" lon="13.4107368"><ele>13.333333333333334</ele><time>2026-04-19T10:23:05.838Z</time></trkpt><trkpt lat="45.8573544" lon="13.4107253"><ele>14.0</ele><time>2026-04-19T10:23:06.837Z</time></trkpt><trkpt lat="45.8575265" lon="13.4107187"><ele>14.5</ele><time>2026-04-19T10:23:07.838Z</time></trkpt><trkpt lat="45.8576695" lon="13.4107137"><ele>15.0</ele><time>2026-04-19T10:23:08.837Z</time></trkpt><trkpt lat="45.8577903" lon="13.4107068"><ele>15.5</ele><time>2026-04-19T10:23:09.838Z</time></trkpt><trkpt lat="45.8578955" lon="13.4107128"><ele>16.0</ele><time>2026-04-19T10:23:10.838Z</time></trkpt><trkpt lat="45.8580036" lon="13.4107132"><ele>16.0</ele><time>2026-04-19T10:23:11.838Z</time></trkpt><trkpt lat="45.8581135" lon="13.4107143"><ele>16.0</ele><time>2026-04-19T10:23:12.837Z</time></trkpt><trkpt lat="45.8582283" lon="13.4107125"><ele>16.0</ele><time>2026-04-19T10:23:13.838Z</time></trkpt><trkpt lat="45.8583518" lon="13.4107019"><ele>16.0</ele><time>2026-04-19T10:23:14.837Z</time></trkpt><trkpt lat="45.8584609" lon="13.4106995"><ele>15.25</ele><time>2026-04-19T10:23:15.838Z</time></trkpt><trkpt lat="45.8585678" lon="13.4106922"><ele>14.5</ele><time>2026-04-19T10:23:16.837Z</time></trkpt><trkpt lat="45.8586845" lon="13.4106839"><ele>13.75</ele><time>2026-04-19T10:23:17.837Z</time></trkpt><trkpt lat="45.8588226" lon="13.4106768"><ele>13.0</ele><time>2026-04-19T10:23:18.838Z</time></trkpt><trkpt lat="45.8589783" lon="13.4106657"><ele>13.0</ele><time>2026-04-19T10:23:19.837Z</time></trkpt><trkpt lat="45.8591552" lon="13.4106498"><ele>13.0</ele><time>2026-04-19T10:23:20.838Z</time></trkpt><trkpt lat="45.8593368" lon="13.4106402"><ele>13.0</ele><time>2026-04-19T10:23:21.838Z</time></trkpt><trkpt lat="45.8595268" lon="13.4106309"><ele>13.333333333333332</ele><time>2026-04-19T10:23:22.838Z</time></trkpt><trkpt lat="45.8597251" lon="13.4106266"><ele>13.666666666666668</ele><time>2026-04-19T10:23:23.838Z</time></trkpt><trkpt lat="45.8599178" lon="13.4106181"><ele>14.0</ele><time>2026-04-19T10:23:24.837Z</time></trkpt><trkpt lat="45.8601014" lon="13.4106154"><ele>14.0</ele><time>2026-04-19T10:23:25.838Z</time></trkpt><trkpt lat="45.8602835" lon="13.4106066"><ele>14.0</ele><time>2026-04-19T10:23:26.837Z</time></trkpt><trkpt lat="45.8604577" lon="13.4105968"><ele>14.0</ele><time>2026-04-19T10:23:27.837Z</time></trkpt><trkpt lat="45.8606338" lon="13.4105869"><ele>14.0</ele><time>2026-04-19T10:23:28.837Z</time></trkpt><trkpt lat="45.8608066" lon="13.4105832"><ele>14.0</ele><time>2026-04-19T10:23:29.838Z</time></trkpt><trkpt lat="45.8609831" lon="13.4105798"><ele>14.0</ele><time>2026-04-19T10:23:30.838Z</time></trkpt><trkpt lat="45.8611623" lon="13.4105772"><ele>13.666666666666668</ele><time>2026-04-19T10:23:31.838Z</time></trkpt><trkpt lat="45.8613394" lon="13.4105712"><ele>13.333333333333332</ele><time>2026-04-19T10:23:32.838Z</time></trkpt><trkpt lat="45.8615153" lon="13.4105646"><ele>13.0</ele><time>2026-04-19T10:23:33.837Z</time></trkpt><trkpt lat="45.8616889" lon="13.4105565"><ele>13.25</ele><time>2026-04-19T10:23:34.838Z</time></trkpt><trkpt lat="45.8618492" lon="13.4105469"><ele>13.5</ele><time>2026-04-19T10:23:35.838Z</time></trkpt><trkpt lat="45.8619974" lon="13.4105461"><ele>13.75</ele><time>2026-04-19T10:23:36.838Z</time></trkpt><trkpt lat="45.8621232" lon="13.4105419"><ele>14.0</ele><time>2026-04-19T10:23:37.838Z</time></trkpt><trkpt lat="45.8622359" lon="13.4105483"><ele>14.0</ele><time>2026-04-19T10:23:38.838Z</time></trkpt><trkpt lat="45.8623348" lon="13.4105594"><ele>14.0</ele><time>2026-04-19T10:23:39.838Z</time></trkpt><trkpt lat="45.8624349" lon="13.4105593"><ele>14.0</ele><time>2026-04-19T10:23:40.838Z</time></trkpt><trkpt lat="45.862553" lon="13.4105349"><ele>14.0</ele><time>2026-04-19T10:23:41.837Z</time></trkpt><trkpt lat="45.8626909" lon="13.4105077"><ele>14.25</ele><time>2026-04-19T10:23:42.838Z</time></trkpt><trkpt lat="45.8628353" lon="13.4105051"><ele>14.5</ele><time>2026-04-19T10:23:43.837Z</time></trkpt><trkpt lat="45.8629698" lon="13.4105114"><ele>14.75</ele><time>2026-04-19T10:23:44.837Z</time></trkpt><trkpt lat="45.8630866" lon="13.4105206"><ele>15.0</ele><time>2026-04-19T10:23:45.837Z</time></trkpt><trkpt lat="45.8631921" lon="13.4105219"><ele>15.0</ele><time>2026-04-19T10:23:46.837Z</time></trkpt><trkpt lat="45.8633107" lon="13.4105184"><ele>15.0</ele><time>2026-04-19T10:23:47.838Z</time></trkpt><trkpt lat="45.863446" lon="13.4105065"><ele>15.0</ele><time>2026-04-19T10:23:48.838Z</time></trkpt><trkpt lat="45.8636068" lon="13.4104922"><ele>15.0</ele><time>2026-04-19T10:23:49.838Z</time></trkpt><trkpt lat="45.8637744" lon="13.4104792"><ele>15.333333333333332</ele><time>2026-04-19T10:23:50.838Z</time></trkpt><trkpt lat="45.8639496" lon="13.4104673"><ele>15.666666666666666</ele><time>2026-04-19T10:23:51.838Z</time></trkpt><trkpt lat="45.8641307" lon="13.4104548"><ele>16.0</ele><time>2026-04-19T10:23:52.837Z</time></trkpt><trkpt lat="45.8643175" lon="13.4104444"><ele>15.333333333333332</ele><time>2026-04-19T10:23:53.837Z</time></trkpt><trkpt lat="45.8644858" lon="13.4104401"><ele>14.666666666666668</ele><time>2026-04-19T10:23:54.838Z</time></trkpt><trkpt lat="45.8646359" lon="13.4104354"><ele>14.0</ele><time>2026-04-19T10:23:55.837Z</time></trkpt><trkpt lat="45.8647817" lon="13.4104353"><ele>14.0</ele><time>2026-04-19T10:23:56.838Z</time></trkpt><trkpt lat="45.8649212" lon="13.4104378"><ele>14.0</ele><time>2026-04-19T10:23:57.837Z</time></trkpt><trkpt lat="45.8650529" lon="13.4104444"><ele>14.0</ele><time>2026-04-19T10:23:58.838Z</time></trkpt><trkpt lat="45.8651749" lon="13.4104629"><ele>14.0</ele><time>2026-04-19T10:23:59.838Z</time></trkpt><trkpt lat="45.8652862" lon="13.4104979"><ele>14.799999999999999</ele><time>2026-04-19T10:24:00.838Z</time></trkpt><trkpt lat="45.8653857" lon="13.4105285"><ele>15.599999999999998</ele><time>2026-04-19T10:24:01.837Z</time></trkpt><trkpt lat="45.8654772" lon="13.4105681"><ele>16.4</ele><time>2026-04-19T10:24:02.838Z</time></trkpt><trkpt lat="45.8655603" lon="13.4106256"><ele>17.2</ele><time>2026-04-19T10:24:03.838Z</time></trkpt><trkpt lat="45.8656382" lon="13.4106921"><ele>18.0</ele><time>2026-04-19T10:24:04.837Z</time></trkpt><trkpt lat="45.8657053" lon="13.4107689"><ele>18.0</ele><time>2026-04-19T10:24:05.838Z</time></trkpt><trkpt lat="45.8657736" lon="13.4108234"><ele>18.0</ele><time>2026-04-19T10:24:06.838Z</time></trkpt><trkpt lat="45.8658808" lon="13.4108899"><ele>18.0</ele><time>2026-04-19T10:24:08.837Z</time></trkpt><trkpt lat="45.8659732" lon="13.411005"><ele>18.0</ele><time>2026-04-19T10:24:10.837Z</time></trkpt><trkpt lat="45.8660523" lon="13.4111093"><ele>18.0</ele><time>2026-04-19T10:24:11.838Z</time></trkpt><trkpt lat="45.8661536" lon="13.4112412"><ele>17.0</ele><time>2026-04-19T10:24:12.837Z</time></trkpt><trkpt lat="45.8662657" lon="13.4114071"><ele>16.0</ele><time>2026-04-19T10:24:13.837Z</time></trkpt><trkpt lat="45.866388" lon="13.4116052"><ele>15.0</ele><time>2026-04-19T10:24:14.838Z</time></trkpt><trkpt lat="45.866509" lon="13.4118269"><ele>15.0</ele><time>2026-04-19T10:24:15.838Z</time></trkpt><trkpt lat="45.8666427" lon="13.412054"><ele>15.0</ele><time>2026-04-19T10:24:16.838Z</time></trkpt><trkpt lat="45.8667516" lon="13.4122714"><ele>15.0</ele><time>2026-04-19T10:24:17.838Z</time></trkpt><trkpt lat="45.8668477" lon="13.412475"><ele>14.75</ele><time>2026-04-19T10:24:18.838Z</time></trkpt><trkpt lat="45.8669372" lon="13.4126397"><ele>14.5</ele><time>2026-04-19T10:24:19.837Z</time></trkpt><trkpt lat="45.8670211" lon="13.412772"><ele>14.25</ele><time>2026-04-19T10:24:20.838Z</time></trkpt><trkpt lat="45.8671093" lon="13.4129217"><ele>14.0</ele><time>2026-04-19T10:24:21.837Z</time></trkpt><trkpt lat="45.8672119" lon="13.4131031"><ele>14.666666666666668</ele><time>2026-04-19T10:24:22.838Z</time></trkpt><trkpt lat="45.8673219" lon="13.4132937"><ele>15.333333333333332</ele><time>2026-04-19T10:24:23.838Z</time></trkpt><trkpt lat="45.8674342" lon="13.4134924"><ele>16.0</ele><time>2026-04-19T10:24:24.837Z</time></trkpt><trkpt lat="45.8675354" lon="13.4136973"><ele>16.0</ele><time>2026-04-19T10:24:25.837Z</time></trkpt><trkpt lat="45.8676011" lon="13.4138712"><ele>16.0</ele><time>2026-04-19T10:24:26.838Z</time></trkpt><trkpt lat="45.8676792" lon="13.4140063"><ele>16.0</ele><time>2026-04-19T10:24:27.838Z</time></trkpt><trkpt lat="45.8677737" lon="13.414143"><ele>16.0</ele><time>2026-04-19T10:24:28.838Z</time></trkpt><trkpt lat="45.8678804" lon="13.414306"><ele>16.0</ele><time>2026-04-19T10:24:29.838Z</time></trkpt><trkpt lat="45.8679915" lon="13.4144752"><ele>16.0</ele><time>2026-04-19T10:24:30.838Z</time></trkpt><trkpt lat="45.8680939" lon="13.4146551"><ele>16.0</ele><time>2026-04-19T10:24:31.838Z</time></trkpt><trkpt lat="45.868188" lon="13.4148435"><ele>15.666666666666666</ele><time>2026-04-19T10:24:32.838Z</time></trkpt><trkpt lat="45.8682818" lon="13.4150521"><ele>15.333333333333332</ele><time>2026-04-19T10:24:33.837Z</time></trkpt><trkpt lat="45.8683706" lon="13.4152537"><ele>15.0</ele><time>2026-04-19T10:24:34.837Z</time></trkpt><trkpt lat="45.8684439" lon="13.4154572"><ele>14.666666666666668</ele><time>2026-04-19T10:24:35.838Z</time></trkpt><trkpt lat="45.868505" lon="13.415661"><ele>14.333333333333334</ele><time>2026-04-19T10:24:36.837Z</time></trkpt><trkpt lat="45.8685525" lon="13.4158724"><ele>14.0</ele><time>2026-04-19T10:24:37.838Z</time></trkpt><trkpt lat="45.8686025" lon="13.416098"><ele>14.0</ele><time>2026-04-19T10:24:38.838Z</time></trkpt><trkpt lat="45.8686532" lon="13.4163214"><ele>14.0</ele><time>2026-04-19T10:24:39.837Z</time></trkpt><trkpt lat="45.8687099" lon="13.4165347"><ele>14.0</ele><time>2026-04-19T10:24:40.838Z</time></trkpt><trkpt lat="45.8687509" lon="13.4167271"><ele>14.0</ele><time>2026-04-19T10:24:41.838Z</time></trkpt><trkpt lat="45.8687858" lon="13.4169217"><ele>14.0</ele><time>2026-04-19T10:24:42.838Z</time></trkpt><trkpt lat="45.8688061" lon="13.4170948"><ele>14.0</ele><time>2026-04-19T10:24:43.837Z</time></trkpt><trkpt lat="45.8688329" lon="13.4172501"><ele>14.0</ele><time>2026-04-19T10:24:44.838Z</time></trkpt><trkpt lat="45.8688532" lon="13.417393"><ele>14.333333333333334</ele><time>2026-04-19T10:24:45.837Z</time></trkpt><trkpt lat="45.8688785" lon="13.4175081"><ele>14.666666666666668</ele><time>2026-04-19T10:24:46.838Z</time></trkpt><trkpt lat="45.8689189" lon="13.417591"><ele>15.0</ele><time>2026-04-19T10:24:47.837Z</time></trkpt><trkpt lat="45.8689723" lon="13.4176443"><ele>15.333333333333332</ele><time>2026-04-19T10:24:48.837Z</time></trkpt><trkpt lat="45.8690436" lon="13.4176574"><ele>15.666666666666666</ele><time>2026-04-19T10:24:49.838Z</time></trkpt><trkpt lat="45.8691441" lon="13.4176319"><ele>16.0</ele><time>2026-04-19T10:24:50.838Z</time></trkpt><trkpt lat="45.869276" lon="13.4175717"><ele>16.0</ele><time>2026-04-19T10:24:51.838Z</time></trkpt><trkpt lat="45.8694494" lon="13.4174811"><ele>16.0</ele><time>2026-04-19T10:24:52.838Z</time></trkpt><trkpt lat="45.8696306" lon="13.417373"><ele>16.0</ele><time>2026-04-19T10:24:53.838Z</time></trkpt><trkpt lat="45.8698165" lon="13.4172618"><ele>15.666666666666666</ele><time>2026-04-19T10:24:54.838Z</time></trkpt><trkpt lat="45.870003" lon="13.4171339"><ele>15.333333333333332</ele><time>2026-04-19T10:24:55.838Z</time></trkpt><trkpt lat="45.8701714" lon="13.4170041"><ele>15.0</ele><time>2026-04-19T10:24:56.838Z</time></trkpt><trkpt lat="45.87032" lon="13.4168874"><ele>15.5</ele><time>2026-04-19T10:24:57.838Z</time></trkpt><trkpt lat="45.8704408" lon="13.4167738"><ele>16.0</ele><time>2026-04-19T10:24:58.837Z</time></trkpt><trkpt lat="45.8705644" lon="13.4166896"><ele>16.5</ele><time>2026-04-19T10:24:59.837Z</time></trkpt><trkpt lat="45.8706667" lon="13.4166503"><ele>17.0</ele><time>2026-04-19T10:25:00.837Z</time></trkpt><trkpt lat="45.870739" lon="13.4166403"><ele>17.0</ele><time>2026-04-19T10:25:01.837Z</time></trkpt><trkpt lat="45.8708455" lon="13.4165765"><ele>17.0</ele><time>2026-04-19T10:25:03.838Z</time></trkpt><trkpt lat="45.8709263" lon="13.416511"><ele>17.0</ele><time>2026-04-19T10:25:04.838Z</time></trkpt><trkpt lat="45.8710344" lon="13.4164262"><ele>17.0</ele><time>2026-04-19T10:25:05.838Z</time></trkpt><trkpt lat="45.8711655" lon="13.4163292"><ele>16.666666666666668</ele><time>2026-04-19T10:25:06.838Z</time></trkpt><trkpt lat="45.8713084" lon="13.4162187"><ele>16.333333333333332</ele><time>2026-04-19T10:25:07.838Z</time></trkpt><trkpt lat="45.8714508" lon="13.4160937"><ele>16.0</ele><time>2026-04-19T10:25:08.838Z</time></trkpt><trkpt lat="45.8715993" lon="13.4159776"><ele>16.0</ele><time>2026-04-19T10:25:09.837Z</time></trkpt><trkpt lat="45.8717547" lon="13.4158618"><ele>16.0</ele><time>2026-04-19T10:25:10.837Z</time></trkpt><trkpt lat="45.8718993" lon="13.4157474"><ele>16.0</ele><time>2026-04-19T10:25:11.837Z</time></trkpt><trkpt lat="45.8720518" lon="13.4156427"><ele>16.0</ele><time>2026-04-19T10:25:12.838Z</time></trkpt><trkpt lat="45.8722113" lon="13.4155256"><ele>16.0</ele><time>2026-04-19T10:25:13.838Z</time></trkpt><trkpt lat="45.8723587" lon="13.4154236"><ele>16.0</ele><time>2026-04-19T10:25:14.837Z</time></trkpt><trkpt lat="45.8725071" lon="13.4153214"><ele>17.0</ele><time>2026-04-19T10:25:15.838Z</time></trkpt><trkpt lat="45.8726554" lon="13.4152197"><ele>18.0</ele><time>2026-04-19T10:25:16.837Z</time></trkpt><trkpt lat="45.8728065" lon="13.4151179"><ele>19.0</ele><time>2026-04-19T10:25:17.838Z</time></trkpt><trkpt lat="45.8729585" lon="13.415009"><ele>19.0</ele><time>2026-04-19T10:25:18.838Z</time></trkpt><trkpt lat="45.8731015" lon="13.4148987"><ele>19.0</ele><time>2026-04-19T10:25:19.837Z</time></trkpt><trkpt lat="45.8732436" lon="13.4147884"><ele>19.0</ele><time>2026-04-19T10:25:20.838Z</time></trkpt><trkpt lat="45.873396" lon="13.4146785"><ele>19.0</ele><time>2026-04-19T10:25:21.838Z</time></trkpt><trkpt lat="45.8735408" lon="13.4145769"><ele>19.0</ele><time>2026-04-19T10:25:22.837Z</time></trkpt><trkpt lat="45.8736886" lon="13.4144739"><ele>19.0</ele><time>2026-04-19T10:25:23.838Z</time></trkpt><trkpt lat="45.8738426" lon="13.4143627"><ele>19.0</ele><time>2026-04-19T10:25:24.838Z</time></trkpt><trkpt lat="45.8740007" lon="13.4142502"><ele>19.0</ele><time>2026-04-19T10:25:25.837Z</time></trkpt><trkpt lat="45.8741606" lon="13.414141"><ele>19.0</ele><time>2026-04-19T10:25:26.838Z</time></trkpt><trkpt lat="45.8743089" lon="13.4140343"><ele>19.25</ele><time>2026-04-19T10:25:27.837Z</time></trkpt><trkpt lat="45.8744431" lon="13.4139357"><ele>19.5</ele><time>2026-04-19T10:25:28.837Z</time></trkpt><trkpt lat="45.8745561" lon="13.4138388"><ele>19.75</ele><time>2026-04-19T10:25:29.838Z</time></trkpt><trkpt lat="45.8746653" lon="13.4137453"><ele>20.0</ele><time>2026-04-19T10:25:30.838Z</time></trkpt><trkpt lat="45.8747651" lon="13.4136317"><ele>20.0</ele><time>2026-04-19T10:25:31.837Z</time></trkpt><trkpt lat="45.8748872" lon="13.4135006"><ele>20.0</ele><time>2026-04-19T10:25:32.837Z</time></trkpt><trkpt lat="45.8750403" lon="13.4133796"><ele>20.0</ele><time>2026-04-19T10:25:33.838Z</time></trkpt><trkpt lat="45.8752186" lon="13.4132558"><ele>19.666666666666668</ele><time>2026-04-19T10:25:34.838Z</time></trkpt><trkpt lat="45.8754023" lon="13.4131461"><ele>19.333333333333332</ele><time>2026-04-19T10:25:35.837Z</time></trkpt><trkpt lat="45.875574" lon="13.4130261"><ele>19.0</ele><time>2026-04-19T10:25:36.837Z</time></trkpt><trkpt lat="45.8757263" lon="13.412919"><ele>19.0</ele><time>2026-04-19T10:25:37.837Z</time></trkpt><trkpt lat="45.875872" lon="13.4128304"><ele>19.0</ele><time>2026-04-19T10:25:38.836Z</time></trkpt><trkpt lat="45.8760281" lon="13.4127529"><ele>19.0</ele><time>2026-04-19T10:25:39.836Z</time></trkpt><trkpt lat="45.8762043" lon="13.4126929"><ele>18.0</ele><time>2026-04-19T10:25:40.837Z</time></trkpt><trkpt lat="45.8763942" lon="13.4126605"><ele>17.0</ele><time>2026-04-19T10:25:41.837Z</time></trkpt><trkpt lat="45.876608" lon="13.4126241"><ele>16.0</ele><time>2026-04-19T10:25:42.837Z</time></trkpt><trkpt lat="45.8768245" lon="13.4125807"><ele>16.0</ele><time>2026-04-19T10:25:43.837Z</time></trkpt><trkpt lat="45.8770414" lon="13.412528"><ele>16.0</ele><time>2026-04-19T10:25:44.837Z</time></trkpt><trkpt lat="45.8772676" lon="13.4124694"><ele>16.0</ele><time>2026-04-19T10:25:45.836Z</time></trkpt><trkpt lat="45.8775067" lon="13.4124087"><ele>16.0</ele><time>2026-04-19T10:25:46.837Z</time></trkpt><trkpt lat="45.8777446" lon="13.4123513"><ele>16.5</ele><time>2026-04-19T10:25:47.836Z</time></trkpt><trkpt lat="45.8779826" lon="13.4123076"><ele>17.0</ele><time>2026-04-19T10:25:48.836Z</time></trkpt><trkpt lat="45.8782186" lon="13.4122763"><ele>17.0</ele><time>2026-04-19T10:25:49.837Z</time></trkpt><trkpt lat="45.8784641" lon="13.4122334"><ele>17.0</ele><time>2026-04-19T10:25:50.836Z</time></trkpt><trkpt lat="45.8787003" lon="13.4121851"><ele>17.5</ele><time>2026-04-19T10:25:51.837Z</time></trkpt><trkpt lat="45.878941" lon="13.4121326"><ele>18.0</ele><time>2026-04-19T10:25:52.837Z</time></trkpt><trkpt lat="45.8791829" lon="13.4120567"><ele>17.5</ele><time>2026-04-19T10:25:53.837Z</time></trkpt><trkpt lat="45.8794253" lon="13.4119789"><ele>17.0</ele><time>2026-04-19T10:25:54.837Z</time></trkpt><trkpt lat="45.8796727" lon="13.4118969"><ele>17.0</ele><time>2026-04-19T10:25:55.837Z</time></trkpt><trkpt lat="45.8799212" lon="13.4118123"><ele>17.0</ele><time>2026-04-19T10:25:56.837Z</time></trkpt><trkpt lat="45.88017" lon="13.4117327"><ele>19.0</ele><time>2026-04-19T10:25:57.837Z</time></trkpt><trkpt lat="45.8804145" lon="13.4116461"><ele>21.0</ele><time>2026-04-19T10:25:58.837Z</time></trkpt><trkpt lat="45.8806447" lon="13.4115596"><ele>21.0</ele><time>2026-04-19T10:25:59.836Z</time></trkpt><trkpt lat="45.8808691" lon="13.4114745"><ele>21.0</ele><time>2026-04-19T10:26:00.837Z</time></trkpt><trkpt lat="45.8810982" lon="13.4113796"><ele>19.5</ele><time>2026-04-19T10:26:01.837Z</time></trkpt><trkpt lat="45.8813324" lon="13.4112634"><ele>18.0</ele><time>2026-04-19T10:26:02.837Z</time></trkpt><trkpt lat="45.8815632" lon="13.4111377"><ele>18.0</ele><time>2026-04-19T10:26:03.837Z</time></trkpt><trkpt lat="45.8817969" lon="13.4109902"><ele>18.0</ele><time>2026-04-19T10:26:04.837Z</time></trkpt><trkpt lat="45.8820382" lon="13.4108277"><ele>18.0</ele><time>2026-04-19T10:26:05.837Z</time></trkpt><trkpt lat="45.8822691" lon="13.4106577"><ele>18.0</ele><time>2026-04-19T10:26:06.836Z</time></trkpt><trkpt lat="45.8824914" lon="13.410498"><ele>18.5</ele><time>2026-04-19T10:26:07.837Z</time></trkpt><trkpt lat="45.8827137" lon="13.4103252"><ele>19.0</ele><time>2026-04-19T10:26:08.837Z</time></trkpt><trkpt lat="45.8829375" lon="13.4101529"><ele>19.0</ele><time>2026-04-19T10:26:09.837Z</time></trkpt><trkpt lat="45.8831582" lon="13.4099884"><ele>19.0</ele><time>2026-04-19T10:26:10.836Z</time></trkpt><trkpt lat="45.8833333" lon="13.4098503"><ele>19.0</ele><time>2026-04-19T10:26:11.836Z</time></trkpt><trkpt lat="45.8834751" lon="13.4097387"><ele>19.25</ele><time>2026-04-19T10:26:12.837Z</time></trkpt><trkpt lat="45.8835997" lon="13.40964"><ele>19.5</ele><time>2026-04-19T10:26:13.836Z</time></trkpt><trkpt lat="45.8837094" lon="13.4095623"><ele>19.75</ele><time>2026-04-19T10:26:14.837Z</time></trkpt><trkpt lat="45.8838092" lon="13.4094963"><ele>20.0</ele><time>2026-04-19T10:26:15.836Z</time></trkpt><trkpt lat="45.8839085" lon="13.4094232"><ele>20.0</ele><time>2026-04-19T10:26:16.836Z</time></trkpt><trkpt lat="45.8840233" lon="13.4093239"><ele>20.0</ele><time>2026-04-19T10:26:17.837Z</time></trkpt><trkpt lat="45.884151" lon="13.4092012"><ele>20.0</ele><time>2026-04-19T10:26:18.837Z</time></trkpt><trkpt lat="45.8843052" lon="13.4090509"><ele>19.666666666666668</ele><time>2026-04-19T10:26:19.837Z</time></trkpt><trkpt lat="45.8844734" lon="13.4088946"><ele>19.333333333333332</ele><time>2026-04-19T10:26:20.837Z</time></trkpt><trkpt lat="45.8846418" lon="13.408741"><ele>19.0</ele><time>2026-04-19T10:26:21.836Z</time></trkpt><trkpt lat="45.8848059" lon="13.4085984"><ele>18.666666666666664</ele><time>2026-04-19T10:26:22.836Z</time></trkpt><trkpt lat="45.8849587" lon="13.4084652"><ele>18.333333333333332</ele><time>2026-04-19T10:26:23.837Z</time></trkpt><trkpt lat="45.8850949" lon="13.408347"><ele>18.0</ele><time>2026-04-19T10:26:24.836Z</time></trkpt><trkpt lat="45.8852227" lon="13.408248"><ele>18.0</ele><time>2026-04-19T10:26:25.836Z</time></trkpt><trkpt lat="45.8853508" lon="13.408188"><ele>18.0</ele><time>2026-04-19T10:26:26.836Z</time></trkpt><trkpt lat="45.8854884" lon="13.4081603"><ele>18.0</ele><time>2026-04-19T10:26:27.837Z</time></trkpt><trkpt lat="45.8856282" lon="13.4081773"><ele>18.0</ele><time>2026-04-19T10:26:28.837Z</time></trkpt><trkpt lat="45.8857856" lon="13.408238"><ele>18.666666666666668</ele><time>2026-04-19T10:26:29.837Z</time></trkpt><trkpt lat="45.8859533" lon="13.408337"><ele>19.333333333333336</ele><time>2026-04-19T10:26:30.837Z</time></trkpt><trkpt lat="45.8861261" lon="13.4084557"><ele>20.0</ele><time>2026-04-19T10:26:31.836Z</time></trkpt><trkpt lat="45.8863039" lon="13.4085632"><ele>20.0</ele><time>2026-04-19T10:26:32.837Z</time></trkpt><trkpt lat="45.8864868" lon="13.4086338"><ele>20.0</ele><time>2026-04-19T10:26:33.837Z</time></trkpt><trkpt lat="45.8866739" lon="13.4086702"><ele>20.0</ele><time>2026-04-19T10:26:34.836Z</time></trkpt><trkpt lat="45.8868622" lon="13.408663"><ele>20.333333333333336</ele><time>2026-04-19T10:26:35.836Z</time></trkpt><trkpt lat="45.8870501" lon="13.4086153"><ele>20.666666666666668</ele><time>2026-04-19T10:26:36.837Z</time></trkpt><trkpt lat="45.887239" lon="13.4085382"><ele>21.0</ele><time>2026-04-19T10:26:37.837Z</time></trkpt><trkpt lat="45.8874528" lon="13.4084337"><ele>21.5</ele><time>2026-04-19T10:26:38.837Z</time></trkpt><trkpt lat="45.8876804" lon="13.4083329"><ele>22.0</ele><time>2026-04-19T10:26:39.837Z</time></trkpt><trkpt lat="45.887904" lon="13.4082375"><ele>22.0</ele><time>2026-04-19T10:26:40.836Z</time></trkpt><trkpt lat="45.8881414" lon="13.4081324"><ele>22.0</ele><time>2026-04-19T10:26:41.837Z</time></trkpt><trkpt lat="45.8883832" lon="13.4080326"><ele>22.0</ele><time>2026-04-19T10:26:42.837Z</time></trkpt><trkpt lat="45.8886116" lon="13.4079367"><ele>22.0</ele><time>2026-04-19T10:26:43.837Z</time></trkpt><trkpt lat="45.8888139" lon="13.4078531"><ele>22.0</ele><time>2026-04-19T10:26:44.837Z</time></trkpt><trkpt lat="45.8889997" lon="13.4077747"><ele>22.0</ele><time>2026-04-19T10:26:45.836Z</time></trkpt><trkpt lat="45.8891645" lon="13.4077056"><ele>22.0</ele><time>2026-04-19T10:26:46.836Z</time></trkpt><trkpt lat="45.8893096" lon="13.4076461"><ele>22.0</ele><time>2026-04-19T10:26:47.837Z</time></trkpt><trkpt lat="45.8894408" lon="13.4075928"><ele>22.0</ele><time>2026-04-19T10:26:48.837Z</time></trkpt><trkpt lat="45.8895611" lon="13.4075458"><ele>22.0</ele><time>2026-04-19T10:26:49.836Z</time></trkpt><trkpt lat="45.8896695" lon="13.407504"><ele>22.0</ele><time>2026-04-19T10:26:50.837Z</time></trkpt><trkpt lat="45.889775" lon="13.4074611"><ele>22.0</ele><time>2026-04-19T10:26:51.836Z</time></trkpt><trkpt lat="45.8898692" lon="13.407421"><ele>22.0</ele><time>2026-04-19T10:26:52.837Z</time></trkpt><trkpt lat="45.8899482" lon="13.4073825"><ele>22.0</ele><time>2026-04-19T10:26:53.837Z</time></trkpt><trkpt lat="45.8900196" lon="13.4073479"><ele>22.0</ele><time>2026-04-19T10:26:54.836Z</time></trkpt><trkpt lat="45.890132" lon="13.4072893"><ele>22.0</ele><time>2026-04-19T10:26:56.836Z</time></trkpt><trkpt lat="45.8902235" lon="13.4072278"><ele>22.0</ele><time>2026-04-19T10:26:58.836Z</time></trkpt><trkpt lat="45.8903035" lon="13.4071751"><ele>22.0</ele><time>2026-04-19T10:27:00.837Z</time></trkpt><trkpt lat="45.8903735" lon="13.4071285"><ele>22.6</ele><time>2026-04-19T10:27:02.837Z</time></trkpt><trkpt lat="45.890433" lon="13.4070781"><ele>23.200000000000003</ele><time>2026-04-19T10:27:04.836Z</time></trkpt><trkpt lat="45.8904964" lon="13.4070363"><ele>23.8</ele><time>2026-04-19T10:27:06.836Z</time></trkpt><trkpt lat="45.8905926" lon="13.4069934"><ele>24.4</ele><time>2026-04-19T10:27:08.836Z</time></trkpt><trkpt lat="45.8907223" lon="13.4069277"><ele>25.0</ele><time>2026-04-19T10:27:10.837Z</time></trkpt><trkpt lat="45.8908123" lon="13.4068624"><ele>25.0</ele><time>2026-04-19T10:27:11.837Z</time></trkpt><trkpt lat="45.8909179" lon="13.4067915"><ele>25.0</ele><time>2026-04-19T10:27:12.837Z</time></trkpt><trkpt lat="45.8910267" lon="13.4067197"><ele>25.0</ele><time>2026-04-19T10:27:13.837Z</time></trkpt><trkpt lat="45.8911385" lon="13.4066378"><ele>25.0</ele><time>2026-04-19T10:27:14.837Z</time></trkpt><trkpt lat="45.8912412" lon="13.4065795"><ele>25.000000000000004</ele><time>2026-04-19T10:27:15.837Z</time></trkpt><trkpt lat="45.8913286" lon="13.4065377"><ele>25.0</ele><time>2026-04-19T10:27:16.837Z</time></trkpt><trkpt lat="45.8913992" lon="13.4065232"><ele>25.0</ele><time>2026-04-19T10:27:17.837Z</time></trkpt><trkpt lat="45.8914699" lon="13.4065083"><ele>25.0</ele><time>2026-04-19T10:27:19.837Z</time></trkpt><trkpt lat="45.8915416" lon="13.4064243"><ele>25.000000000000004</ele><time>2026-04-19T10:27:22.837Z</time></trkpt><trkpt lat="45.8915703" lon="13.4063387"><ele>25.0</ele><time>2026-04-19T10:27:23.836Z</time></trkpt><trkpt lat="45.8916058" lon="13.406228"><ele>24.833333333333336</ele><time>2026-04-19T10:27:24.837Z</time></trkpt><trkpt lat="45.891647" lon="13.4061176"><ele>24.666666666666668</ele><time>2026-04-19T10:27:25.837Z</time></trkpt><trkpt lat="45.8916896" lon="13.4060283"><ele>24.5</ele><time>2026-04-19T10:27:26.836Z</time></trkpt><trkpt lat="45.8917438" lon="13.4059624"><ele>24.333333333333336</ele><time>2026-04-19T10:27:27.836Z</time></trkpt><trkpt lat="45.8918047" lon="13.4059073"><ele>24.166666666666668</ele><time>2026-04-19T10:27:28.837Z</time></trkpt><trkpt lat="45.8918891" lon="13.4058331"><ele>24.0</ele><time>2026-04-19T10:27:30.837Z</time></trkpt><trkpt lat="45.8919047" lon="13.4057175"><ele>24.0</ele><time>2026-04-19T10:27:32.837Z</time></trkpt><trkpt lat="45.8918696" lon="13.4055385"><ele>24.0</ele><time>2026-04-19T10:27:34.836Z</time></trkpt><trkpt lat="45.8918508" lon="13.4054295"><ele>24.0</ele><time>2026-04-19T10:27:35.837Z</time></trkpt><trkpt lat="45.8918611" lon="13.4053106"><ele>24.0</ele><time>2026-04-19T10:27:36.837Z</time></trkpt><trkpt lat="45.8918861" lon="13.4051828"><ele>24.0</ele><time>2026-04-19T10:27:37.837Z</time></trkpt><trkpt lat="45.8919079" lon="13.4050372"><ele>24.0</ele><time>2026-04-19T10:27:38.836Z</time></trkpt><trkpt lat="45.891933" lon="13.4048833"><ele>24.0</ele><time>2026-04-19T10:27:39.836Z</time></trkpt><trkpt lat="45.8919624" lon="13.4047386"><ele>24.0</ele><time>2026-04-19T10:27:40.836Z</time></trkpt><trkpt lat="45.8919939" lon="13.4046001"><ele>24.0</ele><time>2026-04-19T10:27:41.837Z</time></trkpt><trkpt lat="45.8920214" lon="13.4044642"><ele>24.0</ele><time>2026-04-19T10:27:42.836Z</time></trkpt><trkpt lat="45.8920511" lon="13.4043219"><ele>23.799999999999997</ele><time>2026-04-19T10:27:43.837Z</time></trkpt><trkpt lat="45.8920808" lon="13.4041754"><ele>23.599999999999998</ele><time>2026-04-19T10:27:44.837Z</time></trkpt><trkpt lat="45.8921137" lon="13.4040339"><ele>23.4</ele><time>2026-04-19T10:27:45.837Z</time></trkpt><trkpt lat="45.8921403" lon="13.4038959"><ele>23.2</ele><time>2026-04-19T10:27:46.837Z</time></trkpt><trkpt lat="45.8921641" lon="13.4037522"><ele>23.0</ele><time>2026-04-19T10:27:47.837Z</time></trkpt><trkpt lat="45.8921883" lon="13.4036119"><ele>23.0</ele><time>2026-04-19T10:27:48.836Z</time></trkpt><trkpt lat="45.892212" lon="13.4034764"><ele>23.0</ele><time>2026-04-19T10:27:49.836Z</time></trkpt><trkpt lat="45.8922409" lon="13.4033394"><ele>23.0</ele><time>2026-04-19T10:27:50.836Z</time></trkpt><trkpt lat="45.8922679" lon="13.4032079"><ele>23.0</ele><time>2026-04-19T10:27:51.837Z</time></trkpt><trkpt lat="45.8922959" lon="13.40307"><ele>23.0</ele><time>2026-04-19T10:27:52.836Z</time></trkpt><trkpt lat="45.8923215" lon="13.4029301"><ele>23.2</ele><time>2026-04-19T10:27:53.837Z</time></trkpt><trkpt lat="45.8923478" lon="13.4027891"><ele>23.4</ele><time>2026-04-19T10:27:54.837Z</time></trkpt><trkpt lat="45.8923732" lon="13.4026424"><ele>23.599999999999998</ele><time>2026-04-19T10:27:55.836Z</time></trkpt><trkpt lat="45.8923985" lon="13.4025071"><ele>23.799999999999997</ele><time>2026-04-19T10:27:56.837Z</time></trkpt><trkpt lat="45.8924247" lon="13.4023635"><ele>24.0</ele><time>2026-04-19T10:27:57.837Z</time></trkpt><trkpt lat="45.8924471" lon="13.4022258"><ele>24.0</ele><time>2026-04-19T10:27:58.837Z</time></trkpt><trkpt lat="45.8924734" lon="13.402086"><ele>24.0</ele><time>2026-04-19T10:27:59.836Z</time></trkpt><trkpt lat="45.8925" lon="13.4019418"><ele>24.0</ele><time>2026-04-19T10:28:00.836Z</time></trkpt><trkpt lat="45.8925254" lon="13.4017978"><ele>24.0</ele><time>2026-04-19T10:28:01.837Z</time></trkpt><trkpt lat="45.8925558" lon="13.4016525"><ele>24.0</ele><time>2026-04-19T10:28:02.837Z</time></trkpt><trkpt lat="45.8925878" lon="13.4015064"><ele>24.0</ele><time>2026-04-19T10:28:03.837Z</time></trkpt><trkpt lat="45.8926238" lon="13.4013737"><ele>24.0</ele><time>2026-04-19T10:28:04.837Z</time></trkpt><trkpt lat="45.8926575" lon="13.4012377"><ele>24.0</ele><time>2026-04-19T10:28:05.836Z</time></trkpt><trkpt lat="45.8926874" lon="13.4011217"><ele>24.0</ele><time>2026-04-19T10:28:06.837Z</time></trkpt><trkpt lat="45.8927132" lon="13.4010175"><ele>24.0</ele><time>2026-04-19T10:28:07.837Z</time></trkpt><trkpt lat="45.8927476" lon="13.4009303"><ele>24.0</ele><time>2026-04-19T10:28:08.837Z</time></trkpt><trkpt lat="45.8927895" lon="13.4008564"><ele>24.0</ele><time>2026-04-19T10:28:09.837Z</time></trkpt><trkpt lat="45.8928463" lon="13.4007832"><ele>24.0</ele><time>2026-04-19T10:28:10.837Z</time></trkpt><trkpt lat="45.8929258" lon="13.400713"><ele>24.0</ele><time>2026-04-19T10:28:11.837Z</time></trkpt><trkpt lat="45.893025" lon="13.4006483"><ele>24.0</ele><time>2026-04-19T10:28:12.837Z</time></trkpt><trkpt lat="45.8931378" lon="13.4005595"><ele>24.0</ele><time>2026-04-19T10:28:13.836Z</time></trkpt><trkpt lat="45.8932693" lon="13.4004431"><ele>23.666666666666668</ele><time>2026-04-19T10:28:14.837Z</time></trkpt><trkpt lat="45.8934338" lon="13.4003077"><ele>23.333333333333336</ele><time>2026-04-19T10:28:15.837Z</time></trkpt><trkpt lat="45.8936172" lon="13.400158"><ele>23.0</ele><time>2026-04-19T10:28:16.837Z</time></trkpt><trkpt lat="45.8938148" lon="13.4000061"><ele>23.0</ele><time>2026-04-19T10:28:17.836Z</time></trkpt><trkpt lat="45.894006" lon="13.3998595"><ele>23.0</ele><time>2026-04-19T10:28:18.836Z</time></trkpt><trkpt lat="45.8941706" lon="13.3997226"><ele>23.0</ele><time>2026-04-19T10:28:19.837Z</time></trkpt><trkpt lat="45.8943062" lon="13.3996091"><ele>23.0</ele><time>2026-04-19T10:28:20.837Z</time></trkpt><trkpt lat="45.8944411" lon="13.3995072"><ele>23.0</ele><time>2026-04-19T10:28:21.837Z</time></trkpt><trkpt lat="45.8945476" lon="13.3994236"><ele>23.0</ele><time>2026-04-19T10:28:22.837Z</time></trkpt><trkpt lat="45.8946591" lon="13.3993635"><ele>23.0</ele><time>2026-04-19T10:28:23.837Z</time></trkpt><trkpt lat="45.8948038" lon="13.3993159"><ele>23.0</ele><time>2026-04-19T10:28:24.836Z</time></trkpt><trkpt lat="45.8949652" lon="13.3992622"><ele>23.0</ele><time>2026-04-19T10:28:25.836Z</time></trkpt><trkpt lat="45.895129" lon="13.3991926"><ele>23.0</ele><time>2026-04-19T10:28:26.836Z</time></trkpt><trkpt lat="45.8952821" lon="13.3991382"><ele>23.2</ele><time>2026-04-19T10:28:27.837Z</time></trkpt><trkpt lat="45.8954085" lon="13.3991034"><ele>23.4</ele><time>2026-04-19T10:28:28.837Z</time></trkpt><trkpt lat="45.8955147" lon="13.3990707"><ele>23.599999999999998</ele><time>2026-04-19T10:28:29.837Z</time></trkpt><trkpt lat="45.8955913" lon="13.3990296"><ele>23.799999999999997</ele><time>2026-04-19T10:28:30.837Z</time></trkpt><trkpt lat="45.8956535" lon="13.3989706"><ele>24.0</ele><time>2026-04-19T10:28:31.837Z</time></trkpt><trkpt lat="45.8956882" lon="13.3988881"><ele>24.166666666666668</ele><time>2026-04-19T10:28:32.837Z</time></trkpt><trkpt lat="45.8957047" lon="13.3987898"><ele>24.333333333333336</ele><time>2026-04-19T10:28:33.836Z</time></trkpt><trkpt lat="45.8956986" lon="13.3986877"><ele>24.5</ele><time>2026-04-19T10:28:34.836Z</time></trkpt><trkpt lat="45.8956639" lon="13.3986007"><ele>24.666666666666668</ele><time>2026-04-19T10:28:35.836Z</time></trkpt><trkpt lat="45.8956452" lon="13.3984901"><ele>24.833333333333336</ele><time>2026-04-19T10:28:37.837Z</time></trkpt><trkpt lat="45.8957238" lon="13.3983399"><ele>25.0</ele><time>2026-04-19T10:28:39.837Z</time></trkpt><trkpt lat="45.8958101" lon="13.3982559"><ele>25.0</ele><time>2026-04-19T10:28:40.837Z</time></trkpt><trkpt lat="45.8959335" lon="13.3981532"><ele>25.0</ele><time>2026-04-19T10:28:41.836Z</time></trkpt><trkpt lat="45.8961008" lon="13.3980284"><ele>25.0</ele><time>2026-04-19T10:28:42.836Z</time></trkpt><trkpt lat="45.8963046" lon="13.397891"><ele>25.0</ele><time>2026-04-19T10:28:43.837Z</time></trkpt><trkpt lat="45.8965141" lon="13.3977403"><ele>25.0</ele><time>2026-04-19T10:28:44.837Z</time></trkpt><trkpt lat="45.8967169" lon="13.3975908"><ele>25.333333333333336</ele><time>2026-04-19T10:28:45.837Z</time></trkpt><trkpt lat="45.8969133" lon="13.3974541"><ele>25.666666666666664</ele><time>2026-04-19T10:28:46.837Z</time></trkpt><trkpt lat="45.8970908" lon="13.3973165"><ele>26.0</ele><time>2026-04-19T10:28:47.836Z</time></trkpt><trkpt lat="45.897252" lon="13.3971875"><ele>26.0</ele><time>2026-04-19T10:28:48.836Z</time></trkpt><trkpt lat="45.8973954" lon="13.3970769"><ele>26.0</ele><time>2026-04-19T10:28:49.836Z</time></trkpt><trkpt lat="45.8975374" lon="13.396977"><ele>26.0</ele><time>2026-04-19T10:28:50.837Z</time></trkpt><trkpt lat="45.8976719" lon="13.396895"><ele>26.5</ele><time>2026-04-19T10:28:51.837Z</time></trkpt><trkpt lat="45.8977917" lon="13.3968211"><ele>27.0</ele><time>2026-04-19T10:28:52.837Z</time></trkpt><trkpt lat="45.8979109" lon="13.3967197"><ele>27.5</ele><time>2026-04-19T10:28:53.837Z</time></trkpt><trkpt lat="45.8980529" lon="13.3965885"><ele>28.0</ele><time>2026-04-19T10:28:54.837Z</time></trkpt><trkpt lat="45.8982158" lon="13.3964614"><ele>27.666666666666668</ele><time>2026-04-19T10:28:55.837Z</time></trkpt><trkpt lat="45.8983871" lon="13.39633"><ele>27.333333333333336</ele><time>2026-04-19T10:28:56.837Z</time></trkpt><trkpt lat="45.8985628" lon="13.3961847"><ele>27.0</ele><time>2026-04-19T10:28:57.836Z</time></trkpt><trkpt lat="45.8987348" lon="13.396047"><ele>27.0</ele><time>2026-04-19T10:28:58.836Z</time></trkpt><trkpt lat="45.8989124" lon="13.3959178"><ele>27.0</ele><time>2026-04-19T10:28:59.837Z</time></trkpt><trkpt lat="45.8990906" lon="13.3957972"><ele>27.0</ele><time>2026-04-19T10:29:00.836Z</time></trkpt><trkpt lat="45.8992671" lon="13.3956564"><ele>28.0</ele><time>2026-04-19T10:29:01.837Z</time></trkpt><trkpt lat="45.8994315" lon="13.3955274"><ele>29.0</ele><time>2026-04-19T10:29:02.837Z</time></trkpt><trkpt lat="45.8995993" lon="13.3954065"><ele>30.0</ele><time>2026-04-19T10:29:03.837Z</time></trkpt><trkpt lat="45.8997649" lon="13.3952871"><ele>30.0</ele><time>2026-04-19T10:29:04.836Z</time></trkpt><trkpt lat="45.8999228" lon="13.3951516"><ele>30.0</ele><time>2026-04-19T10:29:05.837Z</time></trkpt><trkpt lat="45.9000769" lon="13.3950089"><ele>30.0</ele><time>2026-04-19T10:29:06.836Z</time></trkpt><trkpt lat="45.9002252" lon="13.3948586"><ele>29.333333333333336</ele><time>2026-04-19T10:29:07.837Z</time></trkpt><trkpt lat="45.9003661" lon="13.3946708"><ele>28.666666666666668</ele><time>2026-04-19T10:29:08.836Z</time></trkpt><trkpt lat="45.9005213" lon="13.3944281"><ele>28.0</ele><time>2026-04-19T10:29:09.837Z</time></trkpt><trkpt lat="45.9006718" lon="13.3941767"><ele>28.0</ele><time>2026-04-19T10:29:10.836Z</time></trkpt><trkpt lat="45.9008233" lon="13.3939419"><ele>28.0</ele><time>2026-04-19T10:29:11.837Z</time></trkpt><trkpt lat="45.9009627" lon="13.3937269"><ele>28.0</ele><time>2026-04-19T10:29:12.837Z</time></trkpt><trkpt lat="45.9010944" lon="13.3935178"><ele>28.0</ele><time>2026-04-19T10:29:13.837Z</time></trkpt><trkpt lat="45.9012393" lon="13.3933111"><ele>28.0</ele><time>2026-04-19T10:29:14.837Z</time></trkpt><trkpt lat="45.9014022" lon="13.3931009"><ele>28.0</ele><time>2026-04-19T10:29:15.837Z</time></trkpt><trkpt lat="45.9015777" lon="13.3928914"><ele>27.5</ele><time>2026-04-19T10:29:16.837Z</time></trkpt><trkpt lat="45.9017699" lon="13.392672"><ele>27.0</ele><time>2026-04-19T10:29:17.836Z</time></trkpt><trkpt lat="45.9019563" lon="13.3924443"><ele>27.0</ele><time>2026-04-19T10:29:18.837Z</time></trkpt><trkpt lat="45.9021407" lon="13.3922154"><ele>27.0</ele><time>2026-04-19T10:29:19.836Z</time></trkpt><trkpt lat="45.9023211" lon="13.3919944"><ele>26.0</ele><time>2026-04-19T10:29:20.836Z</time></trkpt><trkpt lat="45.9024904" lon="13.3917719"><ele>25.0</ele><time>2026-04-19T10:29:21.836Z</time></trkpt><trkpt lat="45.9026511" lon="13.3915483"><ele>26.0</ele><time>2026-04-19T10:29:22.836Z</time></trkpt><trkpt lat="45.9028165" lon="13.3912962"><ele>27.0</ele><time>2026-04-19T10:29:23.837Z</time></trkpt><trkpt lat="45.9029735" lon="13.3910196"><ele>27.0</ele><time>2026-04-19T10:29:24.837Z</time></trkpt><trkpt lat="45.9031392" lon="13.3907462"><ele>27.0</ele><time>2026-04-19T10:29:25.837Z</time></trkpt><trkpt lat="45.9033093" lon="13.3904716"><ele>26.5</ele><time>2026-04-19T10:29:26.837Z</time></trkpt><trkpt lat="45.9034797" lon="13.3901946"><ele>26.0</ele><time>2026-04-19T10:29:27.836Z</time></trkpt><trkpt lat="45.9036483" lon="13.3899024"><ele>26.5</ele><time>2026-04-19T10:29:28.837Z</time></trkpt><trkpt lat="45.9038228" lon="13.3896183"><ele>27.0</ele><time>2026-04-19T10:29:29.837Z</time></trkpt><trkpt lat="45.9039999" lon="13.3893473"><ele>27.0</ele><time>2026-04-19T10:29:30.837Z</time></trkpt><trkpt lat="45.9041729" lon="13.3890663"><ele>27.0</ele><time>2026-04-19T10:29:31.836Z</time></trkpt><trkpt lat="45.9043447" lon="13.3887878"><ele>26.5</ele><time>2026-04-19T10:29:32.836Z</time></trkpt><trkpt lat="45.9045194" lon="13.3885091"><ele>26.0</ele><time>2026-04-19T10:29:33.837Z</time></trkpt><trkpt lat="45.9046904" lon="13.3882332"><ele>26.0</ele><time>2026-04-19T10:29:34.836Z</time></trkpt><trkpt lat="45.9048617" lon="13.3879528"><ele>26.0</ele><time>2026-04-19T10:29:35.836Z</time></trkpt><trkpt lat="45.9050258" lon="13.3876847"><ele>26.666666666666664</ele><time>2026-04-19T10:29:36.836Z</time></trkpt><trkpt lat="45.9051775" lon="13.3874421"><ele>27.333333333333336</ele><time>2026-04-19T10:29:37.837Z</time></trkpt><trkpt lat="45.9053121" lon="13.3872185"><ele>28.0</ele><time>2026-04-19T10:29:38.836Z</time></trkpt><trkpt lat="45.9054348" lon="13.3870338"><ele>28.0</ele><time>2026-04-19T10:29:39.836Z</time></trkpt><trkpt lat="45.9055552" lon="13.386865"><ele>28.0</ele><time>2026-04-19T10:29:40.837Z</time></trkpt><trkpt lat="45.9056973" lon="13.3866954"><ele>28.0</ele><time>2026-04-19T10:29:41.837Z</time></trkpt><trkpt lat="45.9058381" lon="13.3865546"><ele>28.666666666666668</ele><time>2026-04-19T10:29:42.837Z</time></trkpt><trkpt lat="45.9059852" lon="13.3864307"><ele>29.333333333333336</ele><time>2026-04-19T10:29:43.837Z</time></trkpt><trkpt lat="45.9061373" lon="13.3863228"><ele>30.0</ele><time>2026-04-19T10:29:44.837Z</time></trkpt><trkpt lat="45.9062729" lon="13.386231"><ele>30.0</ele><time>2026-04-19T10:29:45.837Z</time></trkpt><trkpt lat="45.9063881" lon="13.3861591"><ele>30.0</ele><time>2026-04-19T10:29:46.837Z</time></trkpt><trkpt lat="45.9064903" lon="13.3860856"><ele>30.0</ele><time>2026-04-19T10:29:47.836Z</time></trkpt><trkpt lat="45.9065793" lon="13.3860336"><ele>30.0</ele><time>2026-04-19T10:29:48.836Z</time></trkpt><trkpt lat="45.9066702" lon="13.3860207"><ele>30.0</ele><time>2026-04-19T10:29:50.837Z</time></trkpt><trkpt lat="45.9067226" lon="13.3861044"><ele>30.0</ele><time>2026-04-19T10:29:52.836Z</time></trkpt><trkpt lat="45.9067385" lon="13.3862039"><ele>30.0</ele><time>2026-04-19T10:29:53.836Z</time></trkpt><trkpt lat="45.9067368" lon="13.3863265"><ele>30.0</ele><time>2026-04-19T10:29:54.837Z</time></trkpt><trkpt lat="45.9067355" lon="13.3864364"><ele>30.0</ele><time>2026-04-19T10:29:55.837Z</time></trkpt><trkpt lat="45.9067551" lon="13.3865361"><ele>30.0</ele><time>2026-04-19T10:29:57.837Z</time></trkpt><trkpt lat="45.90682" lon="13.3865104"><ele>30.0</ele><time>2026-04-19T10:29:59.836Z</time></trkpt><trkpt lat="45.9068841" lon="13.3864644"><ele>30.0</ele><time>2026-04-19T10:30:00.837Z</time></trkpt><trkpt lat="45.9069837" lon="13.3864082"><ele>30.333333333333336</ele><time>2026-04-19T10:30:01.837Z</time></trkpt><trkpt lat="45.9071123" lon="13.3863404"><ele>30.666666666666668</ele><time>2026-04-19T10:30:02.837Z</time></trkpt><trkpt lat="45.9072756" lon="13.38624"><ele>31.0</ele><time>2026-04-19T10:30:03.836Z</time></trkpt><trkpt lat="45.907455" lon="13.3861024"><ele>31.0</ele><time>2026-04-19T10:30:04.837Z</time></trkpt><trkpt lat="45.9076213" lon="13.3859663"><ele>31.0</ele><time>2026-04-19T10:30:05.837Z</time></trkpt><trkpt lat="45.9077798" lon="13.3858511"><ele>31.0</ele><time>2026-04-19T10:30:06.837Z</time></trkpt><trkpt lat="45.9079297" lon="13.3857503"><ele>31.0</ele><time>2026-04-19T10:30:07.836Z</time></trkpt><trkpt lat="45.9080674" lon="13.3856488"><ele>31.0</ele><time>2026-04-19T10:30:08.837Z</time></trkpt><trkpt lat="45.9082084" lon="13.3855514"><ele>31.0</ele><time>2026-04-19T10:30:09.837Z</time></trkpt><trkpt lat="45.9083532" lon="13.3854564"><ele>30.666666666666668</ele><time>2026-04-19T10:30:10.837Z</time></trkpt><trkpt lat="45.9085032" lon="13.3853538"><ele>30.333333333333336</ele><time>2026-04-19T10:30:11.836Z</time></trkpt><trkpt lat="45.9086648" lon="13.3852593"><ele>30.0</ele><time>2026-04-19T10:30:12.836Z</time></trkpt><trkpt lat="45.9088352" lon="13.385172"><ele>30.0</ele><time>2026-04-19T10:30:13.836Z</time></trkpt><trkpt lat="45.9090058" lon="13.385087"><ele>30.0</ele><time>2026-04-19T10:30:14.837Z</time></trkpt><trkpt lat="45.9091845" lon="13.3849781"><ele>30.0</ele><time>2026-04-19T10:30:15.836Z</time></trkpt><trkpt lat="45.9093649" lon="13.3848679"><ele>30.0</ele><time>2026-04-19T10:30:16.837Z</time></trkpt><trkpt lat="45.9095491" lon="13.3847612"><ele>30.0</ele><time>2026-04-19T10:30:17.837Z</time></trkpt><trkpt lat="45.9097402" lon="13.3846536"><ele>30.0</ele><time>2026-04-19T10:30:18.837Z</time></trkpt><trkpt lat="45.9099259" lon="13.3845475"><ele>30.0</ele><time>2026-04-19T10:30:19.837Z</time></trkpt><trkpt lat="45.9101127" lon="13.384445"><ele>30.0</ele><time>2026-04-19T10:30:20.837Z</time></trkpt><trkpt lat="45.9102926" lon="13.3843467"><ele>30.0</ele><time>2026-04-19T10:30:21.836Z</time></trkpt><trkpt lat="45.9104701" lon="13.3842397"><ele>30.0</ele><time>2026-04-19T10:30:22.837Z</time></trkpt><trkpt lat="45.9106471" lon="13.3841317"><ele>30.0</ele><time>2026-04-19T10:30:23.836Z</time></trkpt><trkpt lat="45.9108144" lon="13.3840308"><ele>30.0</ele><time>2026-04-19T10:30:24.836Z</time></trkpt><trkpt lat="45.9109872" lon="13.3839298"><ele>30.333333333333336</ele><time>2026-04-19T10:30:25.836Z</time></trkpt><trkpt lat="45.9111659" lon="13.3838191"><ele>30.666666666666668</ele><time>2026-04-19T10:30:26.836Z</time></trkpt><trkpt lat="45.9113397" lon="13.3837149"><ele>31.0</ele><time>2026-04-19T10:30:27.836Z</time></trkpt><trkpt lat="45.9115219" lon="13.3836133"><ele>31.0</ele><time>2026-04-19T10:30:28.836Z</time></trkpt><trkpt lat="45.9117014" lon="13.3835142"><ele>31.0</ele><time>2026-04-19T10:30:29.837Z</time></trkpt><trkpt lat="45.9118674" lon="13.3833931"><ele>31.0</ele><time>2026-04-19T10:30:30.837Z</time></trkpt><trkpt lat="45.9120363" lon="13.3832539"><ele>31.666666666666668</ele><time>2026-04-19T10:30:31.837Z</time></trkpt><trkpt lat="45.9122089" lon="13.3831016"><ele>32.333333333333336</ele><time>2026-04-19T10:30:32.836Z</time></trkpt><trkpt lat="45.9123785" lon="13.3829473"><ele>33.0</ele><time>2026-04-19T10:30:33.836Z</time></trkpt><trkpt lat="45.9125458" lon="13.3827755"><ele>33.333333333333336</ele><time>2026-04-19T10:30:34.837Z</time></trkpt><trkpt lat="45.912721" lon="13.3825999"><ele>33.66666666666667</ele><time>2026-04-19T10:30:35.836Z</time></trkpt><trkpt lat="45.9128902" lon="13.3824241"><ele>34.0</ele><time>2026-04-19T10:30:36.837Z</time></trkpt><trkpt lat="45.9130658" lon="13.3822466"><ele>34.0</ele><time>2026-04-19T10:30:37.836Z</time></trkpt><trkpt lat="45.9132426" lon="13.3820704"><ele>34.0</ele><time>2026-04-19T10:30:38.836Z</time></trkpt><trkpt lat="45.9134163" lon="13.3819057"><ele>34.0</ele><time>2026-04-19T10:30:39.836Z</time></trkpt><trkpt lat="45.913594" lon="13.3817332"><ele>34.0</ele><time>2026-04-19T10:30:40.836Z</time></trkpt><trkpt lat="45.9137726" lon="13.381561"><ele>34.0</ele><time>2026-04-19T10:30:41.837Z</time></trkpt><trkpt lat="45.913949" lon="13.3813867"><ele>34.0</ele><time>2026-04-19T10:30:42.837Z</time></trkpt><trkpt lat="45.9141063" lon="13.3812131"><ele>33.25</ele><time>2026-04-19T10:30:43.837Z</time></trkpt><trkpt lat="45.9142355" lon="13.3810778"><ele>32.5</ele><time>2026-04-19T10:30:44.836Z</time></trkpt><trkpt lat="45.9143424" lon="13.3809757"><ele>31.75</ele><time>2026-04-19T10:30:45.836Z</time></trkpt><trkpt lat="45.9144224" lon="13.3809036"><ele>31.0</ele><time>2026-04-19T10:30:46.837Z</time></trkpt><trkpt lat="45.914481" lon="13.3808454"><ele>31.0</ele><time>2026-04-19T10:30:47.837Z</time></trkpt><trkpt lat="45.9145613" lon="13.3807501"><ele>31.0</ele><time>2026-04-19T10:30:49.836Z</time></trkpt><trkpt lat="45.9146302" lon="13.3806894"><ele>31.0</ele><time>2026-04-19T10:30:51.837Z</time></trkpt><trkpt lat="45.9146872" lon="13.3805863"><ele>31.0</ele><time>2026-04-19T10:30:54.837Z</time></trkpt><trkpt lat="45.9147269" lon="13.3805096"><ele>31.0</ele><time>2026-04-19T10:30:57.837Z</time></trkpt><trkpt lat="45.9148355" lon="13.3804721"><ele>31.0</ele><time>2026-04-19T10:31:22.836Z</time></trkpt><trkpt lat="45.9149366" lon="13.3804302"><ele>31.0</ele><time>2026-04-19T10:31:24.837Z</time></trkpt><trkpt lat="45.9150009" lon="13.3804016"><ele>31.0</ele><time>2026-04-19T10:31:25.837Z</time></trkpt><trkpt lat="45.9150867" lon="13.3803483"><ele>31.0</ele><time>2026-04-19T10:31:26.837Z</time></trkpt><trkpt lat="45.9151806" lon="13.3802717"><ele>31.0</ele><time>2026-04-19T10:31:27.836Z</time></trkpt><trkpt lat="45.9152919" lon="13.3801887"><ele>31.0</ele><time>2026-04-19T10:31:28.837Z</time></trkpt><trkpt lat="45.9154153" lon="13.3800936"><ele>31.0</ele><time>2026-04-19T10:31:29.837Z</time></trkpt><trkpt lat="45.9155495" lon="13.3800006"><ele>31.0</ele><time>2026-04-19T10:31:30.837Z</time></trkpt><trkpt lat="45.9156826" lon="13.3799142"><ele>31.0</ele><time>2026-04-19T10:31:31.837Z</time></trkpt><trkpt lat="45.9158105" lon="13.3798322"><ele>31.25</ele><time>2026-04-19T10:31:32.836Z</time></trkpt><trkpt lat="45.9159325" lon="13.3797614"><ele>31.5</ele><time>2026-04-19T10:31:33.837Z</time></trkpt><trkpt lat="45.9160486" lon="13.3796938"><ele>31.75</ele><time>2026-04-19T10:31:34.837Z</time></trkpt><trkpt lat="45.9161665" lon="13.379635"><ele>32.0</ele><time>2026-04-19T10:31:35.837Z</time></trkpt><trkpt lat="45.9162908" lon="13.3795769"><ele>32.0</ele><time>2026-04-19T10:31:36.837Z</time></trkpt><trkpt lat="45.9164225" lon="13.3795323"><ele>32.0</ele><time>2026-04-19T10:31:37.837Z</time></trkpt><trkpt lat="45.9165657" lon="13.3794675"><ele>32.0</ele><time>2026-04-19T10:31:38.837Z</time></trkpt><trkpt lat="45.9167145" lon="13.3793963"><ele>32.0</ele><time>2026-04-19T10:31:39.837Z</time></trkpt><trkpt lat="45.9168704" lon="13.379331"><ele>31.666666666666664</ele><time>2026-04-19T10:31:40.836Z</time></trkpt><trkpt lat="45.9170229" lon="13.3792643"><ele>31.333333333333336</ele><time>2026-04-19T10:31:41.837Z</time></trkpt><trkpt lat="45.91718" lon="13.379195"><ele>31.0</ele><time>2026-04-19T10:31:42.837Z</time></trkpt><trkpt lat="45.9173405" lon="13.3791232"><ele>31.0</ele><time>2026-04-19T10:31:43.837Z</time></trkpt><trkpt lat="45.9174957" lon="13.3790575"><ele>31.0</ele><time>2026-04-19T10:31:44.837Z</time></trkpt><trkpt lat="45.9176633" lon="13.3789953"><ele>31.0</ele><time>2026-04-19T10:31:45.837Z</time></trkpt><trkpt lat="45.9178162" lon="13.3789411"><ele>31.0</ele><time>2026-04-19T10:31:46.836Z</time></trkpt><trkpt lat="45.9179585" lon="13.3788951"><ele>31.0</ele><time>2026-04-19T10:31:47.836Z</time></trkpt><trkpt lat="45.918103" lon="13.3788304"><ele>31.0</ele><time>2026-04-19T10:31:48.836Z</time></trkpt><trkpt lat="45.9182515" lon="13.3787575"><ele>30.333333333333336</ele><time>2026-04-19T10:31:49.836Z</time></trkpt><trkpt lat="45.9184034" lon="13.3786922"><ele>29.666666666666664</ele><time>2026-04-19T10:31:50.837Z</time></trkpt><trkpt lat="45.9185654" lon="13.3786122"><ele>29.0</ele><time>2026-04-19T10:31:51.836Z</time></trkpt><trkpt lat="45.9187224" lon="13.3785402"><ele>29.0</ele><time>2026-04-19T10:31:52.837Z</time></trkpt><trkpt lat="45.9188867" lon="13.3784711"><ele>29.0</ele><time>2026-04-19T10:31:53.837Z</time></trkpt><trkpt lat="45.9190594" lon="13.3784022"><ele>29.0</ele><time>2026-04-19T10:31:54.837Z</time></trkpt><trkpt lat="45.9192355" lon="13.3783353"><ele>30.0</ele><time>2026-04-19T10:31:55.836Z</time></trkpt><trkpt lat="45.9194024" lon="13.3782677"><ele>31.0</ele><time>2026-04-19T10:31:56.837Z</time></trkpt><trkpt lat="45.919576" lon="13.3782017"><ele>32.0</ele><time>2026-04-19T10:31:57.836Z</time></trkpt><trkpt lat="45.9197439" lon="13.3781322"><ele>32.0</ele><time>2026-04-19T10:31:58.836Z</time></trkpt><trkpt lat="45.9199162" lon="13.3780568"><ele>32.0</ele><time>2026-04-19T10:31:59.836Z</time></trkpt><trkpt lat="45.9200923" lon="13.3779859"><ele>32.0</ele><time>2026-04-19T10:32:00.837Z</time></trkpt><trkpt lat="45.9202605" lon="13.3779116"><ele>32.0</ele><time>2026-04-19T10:32:01.837Z</time></trkpt><trkpt lat="45.9204334" lon="13.3778407"><ele>32.0</ele><time>2026-04-19T10:32:02.837Z</time></trkpt><trkpt lat="45.9206105" lon="13.3777665"><ele>32.0</ele><time>2026-04-19T10:32:03.837Z</time></trkpt><trkpt lat="45.9207745" lon="13.3777001"><ele>31.666666666666664</ele><time>2026-04-19T10:32:04.837Z</time></trkpt><trkpt lat="45.9209467" lon="13.3776277"><ele>31.333333333333336</ele><time>2026-04-19T10:32:05.836Z</time></trkpt><trkpt lat="45.921129" lon="13.3775443"><ele>31.0</ele><time>2026-04-19T10:32:06.836Z</time></trkpt><trkpt lat="45.9213097" lon="13.3774629"><ele>31.0</ele><time>2026-04-19T10:32:07.837Z</time></trkpt><trkpt lat="45.9214969" lon="13.3773792"><ele>31.0</ele><time>2026-04-19T10:32:08.837Z</time></trkpt><trkpt lat="45.9216713" lon="13.3773069"><ele>31.0</ele><time>2026-04-19T10:32:09.837Z</time></trkpt><trkpt lat="45.921841" lon="13.3772342"><ele>31.0</ele><time>2026-04-19T10:32:10.836Z</time></trkpt><trkpt lat="45.9220112" lon="13.3771692"><ele>31.0</ele><time>2026-04-19T10:32:11.837Z</time></trkpt><trkpt lat="45.9221799" lon="13.377095"><ele>31.0</ele><time>2026-04-19T10:32:12.837Z</time></trkpt><trkpt lat="45.9223373" lon="13.3770074"><ele>31.0</ele><time>2026-04-19T10:32:13.837Z</time></trkpt><trkpt lat="45.9224752" lon="13.3769202"><ele>31.0</ele><time>2026-04-19T10:32:14.836Z</time></trkpt><trkpt lat="45.9225837" lon="13.3768447"><ele>31.0</ele><time>2026-04-19T10:32:15.837Z</time></trkpt><trkpt lat="45.9226755" lon="13.3767735"><ele>31.0</ele><time>2026-04-19T10:32:16.837Z</time></trkpt><trkpt lat="45.9227441" lon="13.3767071"><ele>31.500000000000004</ele><time>2026-04-19T10:32:17.836Z</time></trkpt><trkpt lat="45.922811" lon="13.3766594"><ele>32.0</ele><time>2026-04-19T10:32:18.836Z</time></trkpt><trkpt lat="45.9228923" lon="13.3766045"><ele>32.5</ele><time>2026-04-19T10:32:19.837Z</time></trkpt><trkpt lat="45.9229862" lon="13.3765529"><ele>33.0</ele><time>2026-04-19T10:32:20.836Z</time></trkpt><trkpt lat="45.9230632" lon="13.3764951"><ele>33.5</ele><time>2026-04-19T10:32:21.836Z</time></trkpt><trkpt lat="45.923128" lon="13.3764404"><ele>34.0</ele><time>2026-04-19T10:32:22.837Z</time></trkpt><trkpt lat="45.9231909" lon="13.3763876"><ele>34.0</ele><time>2026-04-19T10:32:23.836Z</time></trkpt><trkpt lat="45.9232423" lon="13.3763273"><ele>34.0</ele><time>2026-04-19T10:32:24.837Z</time></trkpt><trkpt lat="45.9233033" lon="13.3762558"><ele>34.0</ele><time>2026-04-19T10:32:25.837Z</time></trkpt><trkpt lat="45.9233632" lon="13.3761766"><ele>34.0</ele><time>2026-04-19T10:32:26.837Z</time></trkpt><trkpt lat="45.9234089" lon="13.3761123"><ele>34.0</ele><time>2026-04-19T10:32:27.837Z</time></trkpt><trkpt lat="45.9234665" lon="13.3760128"><ele>34.0</ele><time>2026-04-19T10:32:29.836Z</time></trkpt><trkpt lat="45.9234891" lon="13.3759166"><ele>34.5</ele><time>2026-04-19T10:32:38.837Z</time></trkpt><trkpt lat="45.9235262" lon="13.375832"><ele>35.0</ele><time>2026-04-19T10:32:39.836Z</time></trkpt><trkpt lat="45.9235664" lon="13.3757191"><ele>35.5</ele><time>2026-04-19T10:32:40.837Z</time></trkpt><trkpt lat="45.9236113" lon="13.375594"><ele>36.0</ele><time>2026-04-19T10:32:41.837Z</time></trkpt><trkpt lat="45.9236508" lon="13.3754763"><ele>36.5</ele><time>2026-04-19T10:32:42.836Z</time></trkpt><trkpt lat="45.9236971" lon="13.3753683"><ele>37.0</ele><time>2026-04-19T10:32:43.837Z</time></trkpt><trkpt lat="45.9237355" lon="13.3752623"><ele>37.16666666666667</ele><time>2026-04-19T10:32:44.837Z</time></trkpt><trkpt lat="45.9237463" lon="13.3751643"><ele>37.333333333333336</ele><time>2026-04-19T10:32:45.836Z</time></trkpt><trkpt lat="45.9237528" lon="13.3750662"><ele>37.5</ele><time>2026-04-19T10:32:46.836Z</time></trkpt><trkpt lat="45.9237689" lon="13.3749594"><ele>37.666666666666664</ele><time>2026-04-19T10:32:47.837Z</time></trkpt><trkpt lat="45.9237927" lon="13.3748495"><ele>37.83333333333333</ele><time>2026-04-19T10:32:48.836Z</time></trkpt><trkpt lat="45.9238209" lon="13.374742"><ele>38.0</ele><time>2026-04-19T10:32:49.837Z</time></trkpt><trkpt lat="45.9238537" lon="13.3746241"><ele>38.0</ele><time>2026-04-19T10:32:50.836Z</time></trkpt><trkpt lat="45.9238909" lon="13.3745049"><ele>38.0</ele><time>2026-04-19T10:32:51.837Z</time></trkpt><trkpt lat="45.923934" lon="13.3743928"><ele>38.0</ele><time>2026-04-19T10:32:52.836Z</time></trkpt><trkpt lat="45.9239808" lon="13.3742848"><ele>38.0</ele><time>2026-04-19T10:32:53.836Z</time></trkpt><trkpt lat="45.9240294" lon="13.3741717"><ele>38.0</ele><time>2026-04-19T10:32:54.837Z</time></trkpt><trkpt lat="45.9240796" lon="13.3740546"><ele>38.0</ele><time>2026-04-19T10:32:55.837Z</time></trkpt><trkpt lat="45.9241322" lon="13.3739411"><ele>38.0</ele><time>2026-04-19T10:32:56.837Z</time></trkpt><trkpt lat="45.9241856" lon="13.3738275"><ele>38.0</ele><time>2026-04-19T10:32:57.837Z</time></trkpt><trkpt lat="45.9242471" lon="13.3737122"><ele>38.0</ele><time>2026-04-19T10:32:58.836Z</time></trkpt><trkpt lat="45.9243225" lon="13.3735963"><ele>38.0</ele><time>2026-04-19T10:32:59.837Z</time></trkpt><trkpt lat="45.9244044" lon="13.3734691"><ele>37.6</ele><time>2026-04-19T10:33:00.837Z</time></trkpt><trkpt lat="45.9244949" lon="13.3733435"><ele>37.199999999999996</ele><time>2026-04-19T10:33:01.837Z</time></trkpt><trkpt lat="45.9245836" lon="13.373238"><ele>36.8</ele><time>2026-04-19T10:33:02.836Z</time></trkpt><trkpt lat="45.9246599" lon="13.3731535"><ele>36.4</ele><time>2026-04-19T10:33:03.837Z</time></trkpt><trkpt lat="45.924742" lon="13.373081"><ele>36.0</ele><time>2026-04-19T10:33:04.836Z</time></trkpt><trkpt lat="45.9248338" lon="13.3730045"><ele>36.0</ele><time>2026-04-19T10:33:05.836Z</time></trkpt><trkpt lat="45.9249457" lon="13.3729144"><ele>36.0</ele><time>2026-04-19T10:33:06.837Z</time></trkpt><trkpt lat="45.9250685" lon="13.3728052"><ele>36.0</ele><time>2026-04-19T10:33:07.837Z</time></trkpt><trkpt lat="45.9251956" lon="13.3726847"><ele>36.0</ele><time>2026-04-19T10:33:08.836Z</time></trkpt><trkpt lat="45.9253072" lon="13.3725853"><ele>36.0</ele><time>2026-04-19T10:33:09.837Z</time></trkpt><trkpt lat="45.9254071" lon="13.3724929"><ele>36.0</ele><time>2026-04-19T10:33:10.836Z</time></trkpt><trkpt lat="45.9255029" lon="13.37241"><ele>36.0</ele><time>2026-04-19T10:33:11.837Z</time></trkpt><trkpt lat="45.9256099" lon="13.3722971"><ele>36.0</ele><time>2026-04-19T10:33:12.836Z</time></trkpt><trkpt lat="45.9257191" lon="13.3721903"><ele>36.25</ele><time>2026-04-19T10:33:13.836Z</time></trkpt><trkpt lat="45.9258322" lon="13.3720916"><ele>36.5</ele><time>2026-04-19T10:33:14.836Z</time></trkpt><trkpt lat="45.9259372" lon="13.3719937"><ele>36.75</ele><time>2026-04-19T10:33:15.836Z</time></trkpt><trkpt lat="45.9260355" lon="13.3719055"><ele>37.0</ele><time>2026-04-19T10:33:16.836Z</time></trkpt><trkpt lat="45.9261249" lon="13.3718241"><ele>37.0</ele><time>2026-04-19T10:33:17.837Z</time></trkpt><trkpt lat="45.9262191" lon="13.3717406"><ele>37.0</ele><time>2026-04-19T10:33:18.837Z</time></trkpt><trkpt lat="45.9263192" lon="13.3716624"><ele>37.0</ele><time>2026-04-19T10:33:19.837Z</time></trkpt><trkpt lat="45.9264285" lon="13.3715759"><ele>37.0</ele><time>2026-04-19T10:33:20.837Z</time></trkpt><trkpt lat="45.9265424" lon="13.3714811"><ele>37.0</ele><time>2026-04-19T10:33:21.836Z</time></trkpt><trkpt lat="45.926668" lon="13.3713643"><ele>37.0</ele><time>2026-04-19T10:33:22.836Z</time></trkpt><trkpt lat="45.9267854" lon="13.3712413"><ele>37.0</ele><time>2026-04-19T10:33:23.837Z</time></trkpt><trkpt lat="45.9269232" lon="13.3711223"><ele>36.66666666666667</ele><time>2026-04-19T10:33:24.837Z</time></trkpt><trkpt lat="45.9270609" lon="13.3709905"><ele>36.333333333333336</ele><time>2026-04-19T10:33:25.837Z</time></trkpt><trkpt lat="45.9272137" lon="13.3708512"><ele>36.0</ele><time>2026-04-19T10:33:26.836Z</time></trkpt><trkpt lat="45.9273674" lon="13.3707137"><ele>36.0</ele><time>2026-04-19T10:33:27.837Z</time></trkpt><trkpt lat="45.9275145" lon="13.3705897"><ele>36.0</ele><time>2026-04-19T10:33:28.836Z</time></trkpt><trkpt lat="45.9276543" lon="13.3704576"><ele>36.0</ele><time>2026-04-19T10:33:29.837Z</time></trkpt><trkpt lat="45.9278058" lon="13.3703159"><ele>35.666666666666664</ele><time>2026-04-19T10:33:30.837Z</time></trkpt><trkpt lat="45.9279456" lon="13.3701776"><ele>35.33333333333333</ele><time>2026-04-19T10:33:31.836Z</time></trkpt><trkpt lat="45.9281018" lon="13.3700399"><ele>35.0</ele><time>2026-04-19T10:33:32.836Z</time></trkpt><trkpt lat="45.928245" lon="13.3699009"><ele>35.0</ele><time>2026-04-19T10:33:33.837Z</time></trkpt><trkpt lat="45.9283863" lon="13.369763"><ele>35.0</ele><time>2026-04-19T10:33:34.837Z</time></trkpt><trkpt lat="45.9285243" lon="13.369629"><ele>35.0</ele><time>2026-04-19T10:33:35.837Z</time></trkpt><trkpt lat="45.9286659" lon="13.3694889"><ele>35.0</ele><time>2026-04-19T10:33:36.837Z</time></trkpt><trkpt lat="45.9288191" lon="13.3693422"><ele>35.0</ele><time>2026-04-19T10:33:37.836Z</time></trkpt><trkpt lat="45.9289736" lon="13.3692106"><ele>35.0</ele><time>2026-04-19T10:33:38.837Z</time></trkpt><trkpt lat="45.929122" lon="13.3690791"><ele>35.33333333333333</ele><time>2026-04-19T10:33:39.837Z</time></trkpt><trkpt lat="45.9292776" lon="13.3689368"><ele>35.666666666666664</ele><time>2026-04-19T10:33:40.836Z</time></trkpt><trkpt lat="45.9294266" lon="13.3688031"><ele>36.0</ele><time>2026-04-19T10:33:41.837Z</time></trkpt><trkpt lat="45.9295751" lon="13.3686612"><ele>36.0</ele><time>2026-04-19T10:33:42.837Z</time></trkpt><trkpt lat="45.9297298" lon="13.3685123"><ele>36.0</ele><time>2026-04-19T10:33:43.837Z</time></trkpt><trkpt lat="45.9298884" lon="13.3683602"><ele>36.0</ele><time>2026-04-19T10:33:44.837Z</time></trkpt><trkpt lat="45.9300482" lon="13.3682099"><ele>36.0</ele><time>2026-04-19T10:33:45.836Z</time></trkpt><trkpt lat="45.9302055" lon="13.3680605"><ele>36.0</ele><time>2026-04-19T10:33:46.836Z</time></trkpt><trkpt lat="45.9303552" lon="13.3679149"><ele>36.0</ele><time>2026-04-19T10:33:47.836Z</time></trkpt><trkpt lat="45.9305141" lon="13.3677729"><ele>36.0</ele><time>2026-04-19T10:33:48.837Z</time></trkpt><trkpt lat="45.9306696" lon="13.3676348"><ele>36.0</ele><time>2026-04-19T10:33:49.837Z</time></trkpt><trkpt lat="45.9308237" lon="13.3674912"><ele>36.0</ele><time>2026-04-19T10:33:50.836Z</time></trkpt><trkpt lat="45.9309833" lon="13.3673417"><ele>36.333333333333336</ele><time>2026-04-19T10:33:51.837Z</time></trkpt><trkpt lat="45.9311336" lon="13.3672078"><ele>36.66666666666667</ele><time>2026-04-19T10:33:52.836Z</time></trkpt><trkpt lat="45.9312829" lon="13.3670771"><ele>37.0</ele><time>2026-04-19T10:33:53.837Z</time></trkpt><trkpt lat="45.931427" lon="13.3669521"><ele>37.0</ele><time>2026-04-19T10:33:54.836Z</time></trkpt><trkpt lat="45.931572" lon="13.3668183"><ele>37.0</ele><time>2026-04-19T10:33:55.837Z</time></trkpt><trkpt lat="45.9317177" lon="13.36668"><ele>37.0</ele><time>2026-04-19T10:33:56.837Z</time></trkpt><trkpt lat="45.9318562" lon="13.3665492"><ele>37.0</ele><time>2026-04-19T10:33:57.836Z</time></trkpt><trkpt lat="45.9319916" lon="13.3664256"><ele>37.0</ele><time>2026-04-19T10:33:58.837Z</time></trkpt><trkpt lat="45.9321077" lon="13.366321"><ele>37.0</ele><time>2026-04-19T10:33:59.836Z</time></trkpt><trkpt lat="45.9322165" lon="13.3662312"><ele>37.0</ele><time>2026-04-19T10:34:00.837Z</time></trkpt><trkpt lat="45.9323211" lon="13.3661476"><ele>37.0</ele><time>2026-04-19T10:34:01.837Z</time></trkpt><trkpt lat="45.9324226" lon="13.3660826"><ele>37.0</ele><time>2026-04-19T10:34:02.836Z</time></trkpt><trkpt lat="45.9325398" lon="13.366021"><ele>37.0</ele><time>2026-04-19T10:34:03.836Z</time></trkpt><trkpt lat="45.9326748" lon="13.3659495"><ele>37.0</ele><time>2026-04-19T10:34:04.836Z</time></trkpt><trkpt lat="45.9328241" lon="13.3658728"><ele>37.0</ele><time>2026-04-19T10:34:05.836Z</time></trkpt><trkpt lat="45.9329872" lon="13.3657866"><ele>37.0</ele><time>2026-04-19T10:34:06.837Z</time></trkpt><trkpt lat="45.9331611" lon="13.365711"><ele>37.0</ele><time>2026-04-19T10:34:07.837Z</time></trkpt><trkpt lat="45.9333484" lon="13.3656326"><ele>37.0</ele><time>2026-04-19T10:34:08.836Z</time></trkpt><trkpt lat="45.9335449" lon="13.3655743"><ele>37.0</ele><time>2026-04-19T10:34:09.837Z</time></trkpt><trkpt lat="45.9337373" lon="13.365528"><ele>37.0</ele><time>2026-04-19T10:34:10.836Z</time></trkpt><trkpt lat="45.93392" lon="13.3654894"><ele>37.0</ele><time>2026-04-19T10:34:11.837Z</time></trkpt><trkpt lat="45.9340989" lon="13.3654638"><ele>37.0</ele><time>2026-04-19T10:34:12.836Z</time></trkpt><trkpt lat="45.934272" lon="13.3654438"><ele>37.0</ele><time>2026-04-19T10:34:13.837Z</time></trkpt><trkpt lat="45.9344545" lon="13.3654167"><ele>37.0</ele><time>2026-04-19T10:34:14.837Z</time></trkpt><trkpt lat="45.9346385" lon="13.3653884"><ele>37.0</ele><time>2026-04-19T10:34:15.836Z</time></trkpt><trkpt lat="45.9348263" lon="13.3653501"><ele>37.0</ele><time>2026-04-19T10:34:16.837Z</time></trkpt><trkpt lat="45.9350026" lon="13.3653155"><ele>36.66666666666667</ele><time>2026-04-19T10:34:17.836Z</time></trkpt><trkpt lat="45.9351681" lon="13.3652797"><ele>36.333333333333336</ele><time>2026-04-19T10:34:18.837Z</time></trkpt><trkpt lat="45.9353286" lon="13.365252"><ele>36.0</ele><time>2026-04-19T10:34:19.837Z</time></trkpt><trkpt lat="45.9354814" lon="13.3652304"><ele>36.0</ele><time>2026-04-19T10:34:20.836Z</time></trkpt><trkpt lat="45.9356106" lon="13.3652141"><ele>36.0</ele><time>2026-04-19T10:34:21.837Z</time></trkpt><trkpt lat="45.9357204" lon="13.3652008"><ele>36.0</ele><time>2026-04-19T10:34:22.837Z</time></trkpt><trkpt lat="45.9358162" lon="13.3651953"><ele>36.0</ele><time>2026-04-19T10:34:23.836Z</time></trkpt><trkpt lat="45.9358874" lon="13.365201"><ele>36.0</ele><time>2026-04-19T10:34:24.837Z</time></trkpt><trkpt lat="45.9359586" lon="13.3651937"><ele>36.5</ele><time>2026-04-19T10:34:25.837Z</time></trkpt><trkpt lat="45.9360428" lon="13.3651648"><ele>37.0</ele><time>2026-04-19T10:34:26.836Z</time></trkpt><trkpt lat="45.9361505" lon="13.3651112"><ele>37.5</ele><time>2026-04-19T10:34:27.837Z</time></trkpt><trkpt lat="45.936283" lon="13.3650644"><ele>38.0</ele><time>2026-04-19T10:34:28.836Z</time></trkpt><trkpt lat="45.9364413" lon="13.3650343"><ele>38.0</ele><time>2026-04-19T10:34:29.837Z</time></trkpt><trkpt lat="45.9366066" lon="13.3650143"><ele>38.0</ele><time>2026-04-19T10:34:30.837Z</time></trkpt><trkpt lat="45.9367677" lon="13.3649975"><ele>38.0</ele><time>2026-04-19T10:34:31.836Z</time></trkpt><trkpt lat="45.9369143" lon="13.3649727"><ele>39.0</ele><time>2026-04-19T10:34:32.837Z</time></trkpt><trkpt lat="45.9370414" lon="13.364946"><ele>40.0</ele><time>2026-04-19T10:34:33.837Z</time></trkpt><trkpt lat="45.9371523" lon="13.3649202"><ele>41.0</ele><time>2026-04-19T10:34:34.837Z</time></trkpt><trkpt lat="45.9372546" lon="13.3648951"><ele>42.0</ele><time>2026-04-19T10:34:35.836Z</time></trkpt><trkpt lat="45.9373463" lon="13.3648788"><ele>43.0</ele><time>2026-04-19T10:34:36.836Z</time></trkpt><trkpt lat="45.9374147" lon="13.3648614"><ele>43.0</ele><time>2026-04-19T10:34:37.837Z</time></trkpt><trkpt lat="45.937479" lon="13.3648356"><ele>43.0</ele><time>2026-04-19T10:34:38.836Z</time></trkpt><trkpt lat="45.9375363" lon="13.364772"><ele>43.0</ele><time>2026-04-19T10:34:40.837Z</time></trkpt><trkpt lat="45.9375753" lon="13.3646505"><ele>43.0</ele><time>2026-04-19T10:34:43.836Z</time></trkpt><trkpt lat="45.9376473" lon="13.3645086"><ele>43.0</ele><time>2026-04-19T10:34:45.837Z</time></trkpt><trkpt lat="45.9377108" lon="13.3644029"><ele>43.66666666666667</ele><time>2026-04-19T10:34:46.836Z</time></trkpt><trkpt lat="45.9377961" lon="13.3642742"><ele>44.333333333333336</ele><time>2026-04-19T10:34:47.836Z</time></trkpt><trkpt lat="45.9379073" lon="13.3641046"><ele>45.0</ele><time>2026-04-19T10:34:48.836Z</time></trkpt><trkpt lat="45.9380308" lon="13.3639347"><ele>44.75</ele><time>2026-04-19T10:34:49.836Z</time></trkpt><trkpt lat="45.9381491" lon="13.3637985"><ele>44.5</ele><time>2026-04-19T10:34:50.836Z</time></trkpt><trkpt lat="45.9382609" lon="13.363655"><ele>44.25</ele><time>2026-04-19T10:34:51.836Z</time></trkpt><trkpt lat="45.9383628" lon="13.3635365"><ele>44.0</ele><time>2026-04-19T10:34:52.836Z</time></trkpt><trkpt lat="45.9384654" lon="13.3634322"><ele>44.0</ele><time>2026-04-19T10:34:53.837Z</time></trkpt><trkpt lat="45.9385728" lon="13.3633444"><ele>44.0</ele><time>2026-04-19T10:34:54.837Z</time></trkpt><trkpt lat="45.9386782" lon="13.363279"><ele>44.0</ele><time>2026-04-19T10:34:55.837Z</time></trkpt><trkpt lat="45.9387908" lon="13.3632118"><ele>44.0</ele><time>2026-04-19T10:34:56.837Z</time></trkpt><trkpt lat="45.938901" lon="13.3631358"><ele>44.0</ele><time>2026-04-19T10:34:57.836Z</time></trkpt><trkpt lat="45.9390185" lon="13.3630755"><ele>44.0</ele><time>2026-04-19T10:34:58.836Z</time></trkpt><trkpt lat="45.9391387" lon="13.3630205"><ele>44.0</ele><time>2026-04-19T10:34:59.837Z</time></trkpt><trkpt lat="45.9392771" lon="13.3629604"><ele>44.0</ele><time>2026-04-19T10:35:00.837Z</time></trkpt><trkpt lat="45.9394131" lon="13.3629102"><ele>43.75</ele><time>2026-04-19T10:35:01.837Z</time></trkpt><trkpt lat="45.9395472" lon="13.3628617"><ele>43.5</ele><time>2026-04-19T10:35:02.837Z</time></trkpt><trkpt lat="45.9396735" lon="13.3628163"><ele>43.25</ele><time>2026-04-19T10:35:03.836Z</time></trkpt><trkpt lat="45.9397968" lon="13.3627576"><ele>43.0</ele><time>2026-04-19T10:35:04.836Z</time></trkpt><trkpt lat="45.9399117" lon="13.3626997"><ele>43.0</ele><time>2026-04-19T10:35:05.837Z</time></trkpt><trkpt lat="45.9400221" lon="13.3626735"><ele>43.0</ele><time>2026-04-19T10:35:06.836Z</time></trkpt><trkpt lat="45.9401249" lon="13.3626502"><ele>43.0</ele><time>2026-04-19T10:35:07.836Z</time></trkpt><trkpt lat="45.9402244" lon="13.3626232"><ele>43.0</ele><time>2026-04-19T10:35:08.837Z</time></trkpt><trkpt lat="45.940325" lon="13.3625954"><ele>43.0</ele><time>2026-04-19T10:35:09.836Z</time></trkpt><trkpt lat="45.940411" lon="13.3625865"><ele>42.66666666666667</ele><time>2026-04-19T10:35:10.836Z</time></trkpt><trkpt lat="45.9404805" lon="13.3625837"><ele>42.333333333333336</ele><time>2026-04-19T10:35:11.837Z</time></trkpt><trkpt lat="45.9405582" lon="13.3625527"><ele>42.0</ele><time>2026-04-19T10:35:12.836Z</time></trkpt><trkpt lat="45.940635" lon="13.3625156"><ele>41.666666666666664</ele><time>2026-04-19T10:35:13.836Z</time></trkpt><trkpt lat="45.9406978" lon="13.3624893"><ele>41.33333333333333</ele><time>2026-04-19T10:35:14.837Z</time></trkpt><trkpt lat="45.9407876" lon="13.36247"><ele>41.0</ele><time>2026-04-19T10:35:16.837Z</time></trkpt><trkpt lat="45.9408457" lon="13.3623829"><ele>41.0</ele><time>2026-04-19T10:35:20.836Z</time></trkpt><trkpt lat="45.9408675" lon="13.3622923"><ele>41.0</ele><time>2026-04-19T10:35:22.836Z</time></trkpt><trkpt lat="45.9408677" lon="13.3621586"><ele>41.0</ele><time>2026-04-19T10:35:24.836Z</time></trkpt><trkpt lat="45.9408389" lon="13.3619658"><ele>41.0</ele><time>2026-04-19T10:35:26.836Z</time></trkpt><trkpt lat="45.9408178" lon="13.3618534"><ele>41.0</ele><time>2026-04-19T10:35:27.836Z</time></trkpt><trkpt lat="45.9408008" lon="13.3617581"><ele>41.0</ele><time>2026-04-19T10:35:28.836Z</time></trkpt><trkpt lat="45.9407847" lon="13.3616326"><ele>41.0</ele><time>2026-04-19T10:35:30.835Z</time></trkpt><trkpt lat="45.9408147" lon="13.3615527"><ele>41.0</ele><time>2026-04-19T10:35:32.836Z</time></trkpt><trkpt lat="45.9409272" lon="13.3614144"><ele>41.0</ele><time>2026-04-19T10:35:34.835Z</time></trkpt><trkpt lat="45.9410127" lon="13.3613244"><ele>41.0</ele><time>2026-04-19T10:35:35.836Z</time></trkpt><trkpt lat="45.9411031" lon="13.361244"><ele>41.0</ele><time>2026-04-19T10:35:36.836Z</time></trkpt><trkpt lat="45.9411858" lon="13.3611822"><ele>41.0</ele><time>2026-04-19T10:35:37.836Z</time></trkpt><trkpt lat="45.9412523" lon="13.3611361"><ele>41.0</ele><time>2026-04-19T10:35:38.836Z</time></trkpt><trkpt lat="45.9413571" lon="13.3610543"><ele>41.0</ele><time>2026-04-19T10:35:40.836Z</time></trkpt><trkpt lat="45.9414509" lon="13.3610672"><ele>41.0</ele><time>2026-04-19T10:35:42.836Z</time></trkpt><trkpt lat="45.9415097" lon="13.3612439"><ele>41.0</ele><time>2026-04-19T10:35:44.835Z</time></trkpt><trkpt lat="45.9415143" lon="13.3614117"><ele>41.0</ele><time>2026-04-19T10:35:45.836Z</time></trkpt><trkpt lat="45.9415226" lon="13.3615922"><ele>41.0</ele><time>2026-04-19T10:35:46.835Z</time></trkpt><trkpt lat="45.9415376" lon="13.3617516"><ele>41.0</ele><time>2026-04-19T10:35:47.835Z</time></trkpt><trkpt lat="45.9415523" lon="13.3618591"><ele>41.0</ele><time>2026-04-19T10:35:48.836Z</time></trkpt><trkpt lat="45.9416026" lon="13.3619522"><ele>41.0</ele><time>2026-04-19T10:35:50.836Z</time></trkpt><trkpt lat="45.9417259" lon="13.3618964"><ele>41.0</ele><time>2026-04-19T10:35:52.836Z</time></trkpt><trkpt lat="45.9418124" lon="13.3618007"><ele>41.0</ele><time>2026-04-19T10:35:53.835Z</time></trkpt><trkpt lat="45.9419154" lon="13.3616633"><ele>41.0</ele><time>2026-04-19T10:35:54.836Z</time></trkpt><trkpt lat="45.9420418" lon="13.361474"><ele>41.0</ele><time>2026-04-19T10:35:55.836Z</time></trkpt><trkpt lat="45.9421738" lon="13.3612514"><ele>41.0</ele><time>2026-04-19T10:35:56.836Z</time></trkpt><trkpt lat="45.9423139" lon="13.361038"><ele>41.0</ele><time>2026-04-19T10:35:57.835Z</time></trkpt><trkpt lat="45.9424531" lon="13.3608244"><ele>41.0</ele><time>2026-04-19T10:35:58.835Z</time></trkpt><trkpt lat="45.9425861" lon="13.3606069"><ele>41.0</ele><time>2026-04-19T10:35:59.836Z</time></trkpt><trkpt lat="45.9427163" lon="13.3603936"><ele>41.0</ele><time>2026-04-19T10:36:00.836Z</time></trkpt><trkpt lat="45.9428423" lon="13.3601896"><ele>41.0</ele><time>2026-04-19T10:36:01.836Z</time></trkpt><trkpt lat="45.9429559" lon="13.3600075"><ele>41.0</ele><time>2026-04-19T10:36:02.835Z</time></trkpt><trkpt lat="45.9430614" lon="13.3598407"><ele>41.0</ele><time>2026-04-19T10:36:03.835Z</time></trkpt><trkpt lat="45.9431629" lon="13.35968"><ele>41.0</ele><time>2026-04-19T10:36:04.836Z</time></trkpt><trkpt lat="45.943254" lon="13.3595379"><ele>41.0</ele><time>2026-04-19T10:36:05.836Z</time></trkpt><trkpt lat="45.9433365" lon="13.3594193"><ele>40.8</ele><time>2026-04-19T10:36:06.835Z</time></trkpt><trkpt lat="45.943418" lon="13.3593142"><ele>40.599999999999994</ele><time>2026-04-19T10:36:07.836Z</time></trkpt><trkpt lat="45.9434947" lon="13.3592174"><ele>40.4</ele><time>2026-04-19T10:36:08.836Z</time></trkpt><trkpt lat="45.9435755" lon="13.3591276"><ele>40.2</ele><time>2026-04-19T10:36:09.836Z</time></trkpt><trkpt lat="45.9436646" lon="13.359014"><ele>40.0</ele><time>2026-04-19T10:36:10.836Z</time></trkpt><trkpt lat="45.9437586" lon="13.3588923"><ele>40.25</ele><time>2026-04-19T10:36:11.836Z</time></trkpt><trkpt lat="45.9438564" lon="13.3587564"><ele>40.5</ele><time>2026-04-19T10:36:12.835Z</time></trkpt><trkpt lat="45.9439642" lon="13.3585962"><ele>40.75</ele><time>2026-04-19T10:36:13.836Z</time></trkpt><trkpt lat="45.9440691" lon="13.3584269"><ele>41.0</ele><time>2026-04-19T10:36:14.836Z</time></trkpt><trkpt lat="45.9441782" lon="13.3582469"><ele>41.0</ele><time>2026-04-19T10:36:15.836Z</time></trkpt><trkpt lat="45.9442839" lon="13.3580539"><ele>41.0</ele><time>2026-04-19T10:36:16.836Z</time></trkpt><trkpt lat="45.9443881" lon="13.357858"><ele>41.0</ele><time>2026-04-19T10:36:17.835Z</time></trkpt><trkpt lat="45.9444954" lon="13.3576587"><ele>41.0</ele><time>2026-04-19T10:36:18.836Z</time></trkpt><trkpt lat="45.9446038" lon="13.3574864"><ele>41.0</ele><time>2026-04-19T10:36:19.836Z</time></trkpt><trkpt lat="45.94471" lon="13.3573069"><ele>41.0</ele><time>2026-04-19T10:36:20.835Z</time></trkpt><trkpt lat="45.9448348" lon="13.3571502"><ele>41.0</ele><time>2026-04-19T10:36:21.835Z</time></trkpt><trkpt lat="45.9449521" lon="13.357012"><ele>41.0</ele><time>2026-04-19T10:36:22.835Z</time></trkpt><trkpt lat="45.9450565" lon="13.3568874"><ele>41.0</ele><time>2026-04-19T10:36:23.836Z</time></trkpt><trkpt lat="45.9451591" lon="13.3567679"><ele>41.0</ele><time>2026-04-19T10:36:24.835Z</time></trkpt><trkpt lat="45.9452504" lon="13.3566552"><ele>41.0</ele><time>2026-04-19T10:36:25.835Z</time></trkpt><trkpt lat="45.9453379" lon="13.3565514"><ele>41.0</ele><time>2026-04-19T10:36:26.836Z</time></trkpt><trkpt lat="45.9454376" lon="13.3564559"><ele>41.0</ele><time>2026-04-19T10:36:27.836Z</time></trkpt><trkpt lat="45.9455408" lon="13.3563484"><ele>41.0</ele><time>2026-04-19T10:36:28.836Z</time></trkpt><trkpt lat="45.9456667" lon="13.3562267"><ele>41.0</ele><time>2026-04-19T10:36:29.836Z</time></trkpt><trkpt lat="45.9457973" lon="13.3561002"><ele>41.0</ele><time>2026-04-19T10:36:30.836Z</time></trkpt><trkpt lat="45.9459149" lon="13.3559845"><ele>41.0</ele><time>2026-04-19T10:36:31.835Z</time></trkpt><trkpt lat="45.9460421" lon="13.3558646"><ele>40.666666666666664</ele><time>2026-04-19T10:36:32.836Z</time></trkpt><trkpt lat="45.9461712" lon="13.3557354"><ele>40.333333333333336</ele><time>2026-04-19T10:36:33.836Z</time></trkpt><trkpt lat="45.9462966" lon="13.3556191"><ele>40.0</ele><time>2026-04-19T10:36:34.836Z</time></trkpt><trkpt lat="45.94642" lon="13.3555042"><ele>40.0</ele><time>2026-04-19T10:36:35.835Z</time></trkpt><trkpt lat="45.9465444" lon="13.355386"><ele>40.0</ele><time>2026-04-19T10:36:36.836Z</time></trkpt><trkpt lat="45.9466659" lon="13.355264"><ele>40.0</ele><time>2026-04-19T10:36:37.836Z</time></trkpt><trkpt lat="45.9467874" lon="13.3551558"><ele>40.0</ele><time>2026-04-19T10:36:38.835Z</time></trkpt><trkpt lat="45.9469095" lon="13.3550596"><ele>40.25</ele><time>2026-04-19T10:36:39.836Z</time></trkpt><trkpt lat="45.9470311" lon="13.3549526"><ele>40.5</ele><time>2026-04-19T10:36:40.835Z</time></trkpt><trkpt lat="45.9471545" lon="13.3548408"><ele>40.75</ele><time>2026-04-19T10:36:41.835Z</time></trkpt><trkpt lat="45.9472825" lon="13.3547174"><ele>41.0</ele><time>2026-04-19T10:36:42.836Z</time></trkpt><trkpt lat="45.9474067" lon="13.3545931"><ele>41.0</ele><time>2026-04-19T10:36:43.836Z</time></trkpt><trkpt lat="45.9475365" lon="13.3544663"><ele>41.0</ele><time>2026-04-19T10:36:44.836Z</time></trkpt><trkpt lat="45.9476702" lon="13.3543365"><ele>41.0</ele><time>2026-04-19T10:36:45.836Z</time></trkpt><trkpt lat="45.9477952" lon="13.3542092"><ele>41.25</ele><time>2026-04-19T10:36:46.836Z</time></trkpt><trkpt lat="45.9479091" lon="13.3540943"><ele>41.5</ele><time>2026-04-19T10:36:47.836Z</time></trkpt><trkpt lat="45.9480188" lon="13.353969"><ele>41.75</ele><time>2026-04-19T10:36:48.836Z</time></trkpt><trkpt lat="45.9481391" lon="13.3538414"><ele>42.0</ele><time>2026-04-19T10:36:49.836Z</time></trkpt><trkpt lat="45.948268" lon="13.3537076"><ele>42.666666666666664</ele><time>2026-04-19T10:36:50.836Z</time></trkpt><trkpt lat="45.9483909" lon="13.3535705"><ele>43.33333333333333</ele><time>2026-04-19T10:36:51.836Z</time></trkpt><trkpt lat="45.9485158" lon="13.3534242"><ele>44.0</ele><time>2026-04-19T10:36:52.835Z</time></trkpt><trkpt lat="45.9486461" lon="13.3532581"><ele>44.0</ele><time>2026-04-19T10:36:53.835Z</time></trkpt><trkpt lat="45.9487719" lon="13.3530849"><ele>44.0</ele><time>2026-04-19T10:36:54.836Z</time></trkpt><trkpt lat="45.9488994" lon="13.352914"><ele>44.0</ele><time>2026-04-19T10:36:55.835Z</time></trkpt><trkpt lat="45.9490196" lon="13.3527644"><ele>43.75</ele><time>2026-04-19T10:36:56.835Z</time></trkpt><trkpt lat="45.9491342" lon="13.3526216"><ele>43.5</ele><time>2026-04-19T10:36:57.836Z</time></trkpt><trkpt lat="45.949228" lon="13.3524908"><ele>43.25</ele><time>2026-04-19T10:36:58.836Z</time></trkpt><trkpt lat="45.9493053" lon="13.3523698"><ele>43.0</ele><time>2026-04-19T10:36:59.836Z</time></trkpt><trkpt lat="45.9493714" lon="13.35227"><ele>43.0</ele><time>2026-04-19T10:37:00.835Z</time></trkpt><trkpt lat="45.9494393" lon="13.3521809"><ele>43.0</ele><time>2026-04-19T10:37:01.836Z</time></trkpt><trkpt lat="45.9495007" lon="13.3521116"><ele>43.0</ele><time>2026-04-19T10:37:02.836Z</time></trkpt><trkpt lat="45.9495655" lon="13.3520458"><ele>43.0</ele><time>2026-04-19T10:37:03.835Z</time></trkpt><trkpt lat="45.9496492" lon="13.3519656"><ele>43.0</ele><time>2026-04-19T10:37:04.835Z</time></trkpt><trkpt lat="45.9497519" lon="13.3518525"><ele>43.0</ele><time>2026-04-19T10:37:05.835Z</time></trkpt><trkpt lat="45.9498771" lon="13.3517298"><ele>43.0</ele><time>2026-04-19T10:37:06.836Z</time></trkpt><trkpt lat="45.9500069" lon="13.3516087"><ele>43.0</ele><time>2026-04-19T10:37:07.836Z</time></trkpt><trkpt lat="45.950149" lon="13.3514851"><ele>43.0</ele><time>2026-04-19T10:37:08.836Z</time></trkpt><trkpt lat="45.9502881" lon="13.3513537"><ele>43.0</ele><time>2026-04-19T10:37:09.836Z</time></trkpt><trkpt lat="45.950406" lon="13.3512292"><ele>43.0</ele><time>2026-04-19T10:37:10.835Z</time></trkpt><trkpt lat="45.9505209" lon="13.351105"><ele>43.0</ele><time>2026-04-19T10:37:11.836Z</time></trkpt><trkpt lat="45.9506395" lon="13.3509912"><ele>43.0</ele><time>2026-04-19T10:37:12.835Z</time></trkpt><trkpt lat="45.9507437" lon="13.3508973"><ele>43.0</ele><time>2026-04-19T10:37:13.836Z</time></trkpt><trkpt lat="45.9508239" lon="13.3508285"><ele>43.0</ele><time>2026-04-19T10:37:14.835Z</time></trkpt><trkpt lat="45.9508924" lon="13.3507667"><ele>43.0</ele><time>2026-04-19T10:37:15.835Z</time></trkpt><trkpt lat="45.950946" lon="13.3506926"><ele>43.0</ele><time>2026-04-19T10:37:16.836Z</time></trkpt><trkpt lat="45.9509996" lon="13.3506085"><ele>43.0</ele><time>2026-04-19T10:37:17.835Z</time></trkpt><trkpt lat="45.9510614" lon="13.3505198"><ele>43.0</ele><time>2026-04-19T10:37:18.835Z</time></trkpt><trkpt lat="45.9511299" lon="13.3504345"><ele>43.0</ele><time>2026-04-19T10:37:19.835Z</time></trkpt><trkpt lat="45.951212" lon="13.3503527"><ele>43.0</ele><time>2026-04-19T10:37:20.836Z</time></trkpt><trkpt lat="45.9513079" lon="13.3502579"><ele>43.25</ele><time>2026-04-19T10:37:21.836Z</time></trkpt><trkpt lat="45.9514092" lon="13.3501591"><ele>43.5</ele><time>2026-04-19T10:37:22.835Z</time></trkpt><trkpt lat="45.9515238" lon="13.3500464"><ele>43.75</ele><time>2026-04-19T10:37:23.836Z</time></trkpt><trkpt lat="45.9516477" lon="13.3499264"><ele>44.0</ele><time>2026-04-19T10:37:24.835Z</time></trkpt><trkpt lat="45.9517747" lon="13.3498127"><ele>44.33333333333333</ele><time>2026-04-19T10:37:25.836Z</time></trkpt><trkpt lat="45.9519096" lon="13.3496961"><ele>44.666666666666664</ele><time>2026-04-19T10:37:26.836Z</time></trkpt><trkpt lat="45.9520363" lon="13.3495716"><ele>45.0</ele><time>2026-04-19T10:37:27.835Z</time></trkpt><trkpt lat="45.9521634" lon="13.3494461"><ele>45.0</ele><time>2026-04-19T10:37:28.836Z</time></trkpt><trkpt lat="45.9522855" lon="13.3493117"><ele>45.0</ele><time>2026-04-19T10:37:29.835Z</time></trkpt><trkpt lat="45.9524026" lon="13.3491871"><ele>45.0</ele><time>2026-04-19T10:37:30.836Z</time></trkpt><trkpt lat="45.9525152" lon="13.3490803"><ele>45.0</ele><time>2026-04-19T10:37:31.836Z</time></trkpt><trkpt lat="45.9526129" lon="13.3489911"><ele>45.4</ele><time>2026-04-19T10:37:32.836Z</time></trkpt><trkpt lat="45.952704" lon="13.348904"><ele>45.8</ele><time>2026-04-19T10:37:33.836Z</time></trkpt><trkpt lat="45.9527771" lon="13.3488306"><ele>46.2</ele><time>2026-04-19T10:37:34.835Z</time></trkpt><trkpt lat="45.9528397" lon="13.3487736"><ele>46.6</ele><time>2026-04-19T10:37:35.836Z</time></trkpt><trkpt lat="45.9528951" lon="13.3486668"><ele>47.0</ele><time>2026-04-19T10:37:37.836Z</time></trkpt><trkpt lat="45.9528579" lon="13.3485252"><ele>47.166666666666664</ele><time>2026-04-19T10:37:39.836Z</time></trkpt><trkpt lat="45.9528257" lon="13.3484246"><ele>47.33333333333333</ele><time>2026-04-19T10:37:40.836Z</time></trkpt><trkpt lat="45.9528128" lon="13.3483044"><ele>47.5</ele><time>2026-04-19T10:37:41.836Z</time></trkpt><trkpt lat="45.9528305" lon="13.3481787"><ele>47.666666666666664</ele><time>2026-04-19T10:37:42.836Z</time></trkpt><trkpt lat="45.9528664" lon="13.3480557"><ele>47.833333333333336</ele><time>2026-04-19T10:37:43.836Z</time></trkpt><trkpt lat="45.9529213" lon="13.3479647"><ele>48.0</ele><time>2026-04-19T10:37:44.836Z</time></trkpt><trkpt lat="45.9530085" lon="13.3478937"><ele>47.666666666666664</ele><time>2026-04-19T10:37:45.836Z</time></trkpt><trkpt lat="45.9531328" lon="13.3478219"><ele>47.33333333333333</ele><time>2026-04-19T10:37:46.836Z</time></trkpt><trkpt lat="45.9532904" lon="13.3477483"><ele>47.0</ele><time>2026-04-19T10:37:47.836Z</time></trkpt><trkpt lat="45.9534641" lon="13.3476692"><ele>47.0</ele><time>2026-04-19T10:37:48.835Z</time></trkpt><trkpt lat="45.9536516" lon="13.34759"><ele>47.0</ele><time>2026-04-19T10:37:49.836Z</time></trkpt><trkpt lat="45.9538434" lon="13.3475206"><ele>47.0</ele><time>2026-04-19T10:37:50.836Z</time></trkpt><trkpt lat="45.9540524" lon="13.3474274"><ele>47.0</ele><time>2026-04-19T10:37:51.835Z</time></trkpt><trkpt lat="45.9542681" lon="13.3473353"><ele>47.0</ele><time>2026-04-19T10:37:52.835Z</time></trkpt><trkpt lat="45.9544871" lon="13.3472473"><ele>46.666666666666664</ele><time>2026-04-19T10:37:53.835Z</time></trkpt><trkpt lat="45.9546948" lon="13.3471654"><ele>46.333333333333336</ele><time>2026-04-19T10:37:54.835Z</time></trkpt><trkpt lat="45.9548885" lon="13.3470901"><ele>46.0</ele><time>2026-04-19T10:37:55.836Z</time></trkpt><trkpt lat="45.9550796" lon="13.3470112"><ele>46.66666666666667</ele><time>2026-04-19T10:37:56.836Z</time></trkpt><trkpt lat="45.9552748" lon="13.3469215"><ele>47.333333333333336</ele><time>2026-04-19T10:37:57.835Z</time></trkpt><trkpt lat="45.9554756" lon="13.3468329"><ele>48.0</ele><time>2026-04-19T10:37:58.836Z</time></trkpt><trkpt lat="45.9556762" lon="13.3467373"><ele>47.333333333333336</ele><time>2026-04-19T10:37:59.835Z</time></trkpt><trkpt lat="45.9558819" lon="13.3466515"><ele>46.66666666666667</ele><time>2026-04-19T10:38:00.835Z</time></trkpt><trkpt lat="45.9560863" lon="13.3465739"><ele>46.0</ele><time>2026-04-19T10:38:01.836Z</time></trkpt><trkpt lat="45.956297" lon="13.3464849"><ele>46.0</ele><time>2026-04-19T10:38:02.835Z</time></trkpt><trkpt lat="45.9565047" lon="13.3464"><ele>46.0</ele><time>2026-04-19T10:38:03.835Z</time></trkpt><trkpt lat="45.9567027" lon="13.3463179"><ele>46.0</ele><time>2026-04-19T10:38:04.836Z</time></trkpt><trkpt lat="45.9568928" lon="13.3462452"><ele>47.0</ele><time>2026-04-19T10:38:05.836Z</time></trkpt><trkpt lat="45.9570777" lon="13.3461695"><ele>48.0</ele><time>2026-04-19T10:38:06.835Z</time></trkpt><trkpt lat="45.9572711" lon="13.3460936"><ele>49.0</ele><time>2026-04-19T10:38:07.836Z</time></trkpt><trkpt lat="45.9574681" lon="13.3460068"><ele>48.666666666666664</ele><time>2026-04-19T10:38:08.835Z</time></trkpt><trkpt lat="45.9576619" lon="13.3459294"><ele>48.33333333333333</ele><time>2026-04-19T10:38:09.836Z</time></trkpt><trkpt lat="45.9578519" lon="13.3458515"><ele>48.0</ele><time>2026-04-19T10:38:10.836Z</time></trkpt><trkpt lat="45.9580237" lon="13.3457886"><ele>48.0</ele><time>2026-04-19T10:38:11.835Z</time></trkpt><trkpt lat="45.9581911" lon="13.3457259"><ele>48.0</ele><time>2026-04-19T10:38:12.835Z</time></trkpt><trkpt lat="45.958357" lon="13.3456609"><ele>48.0</ele><time>2026-04-19T10:38:13.836Z</time></trkpt><trkpt lat="45.9585291" lon="13.3455875"><ele>48.0</ele><time>2026-04-19T10:38:14.835Z</time></trkpt><trkpt lat="45.9586945" lon="13.3455179"><ele>48.0</ele><time>2026-04-19T10:38:15.835Z</time></trkpt><trkpt lat="45.9588432" lon="13.345461"><ele>48.0</ele><time>2026-04-19T10:38:16.836Z</time></trkpt><trkpt lat="45.9589887" lon="13.3453861"><ele>48.0</ele><time>2026-04-19T10:38:17.836Z</time></trkpt><trkpt lat="45.9591391" lon="13.3453092"><ele>48.0</ele><time>2026-04-19T10:38:18.836Z</time></trkpt><trkpt lat="45.9592956" lon="13.3452252"><ele>48.0</ele><time>2026-04-19T10:38:19.835Z</time></trkpt><trkpt lat="45.9594375" lon="13.3451498"><ele>47.599999999999994</ele><time>2026-04-19T10:38:20.835Z</time></trkpt><trkpt lat="45.9595692" lon="13.3450777"><ele>47.199999999999996</ele><time>2026-04-19T10:38:21.836Z</time></trkpt><trkpt lat="45.9596742" lon="13.3449983"><ele>46.8</ele><time>2026-04-19T10:38:22.836Z</time></trkpt><trkpt lat="45.9597496" lon="13.3449345"><ele>46.4</ele><time>2026-04-19T10:38:23.835Z</time></trkpt><trkpt lat="45.959841" lon="13.3449093"><ele>46.0</ele><time>2026-04-19T10:38:25.836Z</time></trkpt><trkpt lat="45.9598708" lon="13.3449991"><ele>46.0</ele><time>2026-04-19T10:38:27.836Z</time></trkpt><trkpt lat="45.9598754" lon="13.3451158"><ele>46.0</ele><time>2026-04-19T10:38:29.836Z</time></trkpt><trkpt lat="45.9599545" lon="13.3452176"><ele>46.0</ele><time>2026-04-19T10:38:31.836Z</time></trkpt><trkpt lat="45.9600212" lon="13.3452357"><ele>46.0</ele><time>2026-04-19T10:38:32.836Z</time></trkpt><trkpt lat="45.9600901" lon="13.3452226"><ele>46.0</ele><time>2026-04-19T10:38:33.836Z</time></trkpt><trkpt lat="45.9601686" lon="13.3451683"><ele>46.0</ele><time>2026-04-19T10:38:34.835Z</time></trkpt><trkpt lat="45.9602749" lon="13.3450609"><ele>46.333333333333336</ele><time>2026-04-19T10:38:35.836Z</time></trkpt><trkpt lat="45.9603934" lon="13.3449126"><ele>46.666666666666664</ele><time>2026-04-19T10:38:36.836Z</time></trkpt><trkpt lat="45.9605153" lon="13.3447526"><ele>47.0</ele><time>2026-04-19T10:38:37.835Z</time></trkpt><trkpt lat="45.960644" lon="13.3445787"><ele>47.33333333333333</ele><time>2026-04-19T10:38:38.835Z</time></trkpt><trkpt lat="45.9607787" lon="13.3443912"><ele>47.666666666666664</ele><time>2026-04-19T10:38:39.835Z</time></trkpt><trkpt lat="45.9609186" lon="13.3441861"><ele>48.0</ele><time>2026-04-19T10:38:40.836Z</time></trkpt><trkpt lat="45.961065" lon="13.3439704"><ele>47.666666666666664</ele><time>2026-04-19T10:38:41.836Z</time></trkpt><trkpt lat="45.9612225" lon="13.3437425"><ele>47.33333333333333</ele><time>2026-04-19T10:38:42.836Z</time></trkpt><trkpt lat="45.9613838" lon="13.3435225"><ele>47.0</ele><time>2026-04-19T10:38:43.835Z</time></trkpt><trkpt lat="45.9615475" lon="13.3432988"><ele>47.0</ele><time>2026-04-19T10:38:44.835Z</time></trkpt><trkpt lat="45.961696" lon="13.3430949"><ele>47.0</ele><time>2026-04-19T10:38:45.835Z</time></trkpt><trkpt lat="45.9618281" lon="13.3429032"><ele>47.0</ele><time>2026-04-19T10:38:46.835Z</time></trkpt><trkpt lat="45.9619482" lon="13.3427381"><ele>47.25</ele><time>2026-04-19T10:38:47.835Z</time></trkpt><trkpt lat="45.9620626" lon="13.3425752"><ele>47.5</ele><time>2026-04-19T10:38:48.835Z</time></trkpt><trkpt lat="45.9621633" lon="13.3424303"><ele>47.75</ele><time>2026-04-19T10:38:49.835Z</time></trkpt><trkpt lat="45.9622539" lon="13.3422958"><ele>48.0</ele><time>2026-04-19T10:38:50.835Z</time></trkpt><trkpt lat="45.9623404" lon="13.3421873"><ele>48.0</ele><time>2026-04-19T10:38:51.836Z</time></trkpt><trkpt lat="45.9624168" lon="13.3421043"><ele>48.0</ele><time>2026-04-19T10:38:52.836Z</time></trkpt><trkpt lat="45.9624932" lon="13.342064"><ele>48.0</ele><time>2026-04-19T10:38:53.836Z</time></trkpt><trkpt lat="45.9625906" lon="13.3420004"><ele>48.0</ele><time>2026-04-19T10:38:55.835Z</time></trkpt><trkpt lat="45.9626655" lon="13.3418985"><ele>48.0</ele><time>2026-04-19T10:38:57.836Z</time></trkpt><trkpt lat="45.9627405" lon="13.3417948"><ele>48.2</ele><time>2026-04-19T10:38:59.835Z</time></trkpt><trkpt lat="45.9628463" lon="13.3417386"><ele>48.4</ele><time>2026-04-19T10:39:01.836Z</time></trkpt><trkpt lat="45.9629533" lon="13.3416615"><ele>48.6</ele><time>2026-04-19T10:39:03.836Z</time></trkpt><trkpt lat="45.9630196" lon="13.3415764"><ele>48.800000000000004</ele><time>2026-04-19T10:39:04.835Z</time></trkpt><trkpt lat="45.9631169" lon="13.3414676"><ele>49.0</ele><time>2026-04-19T10:39:05.835Z</time></trkpt><trkpt lat="45.9632336" lon="13.3413535"><ele>49.666666666666664</ele><time>2026-04-19T10:39:06.836Z</time></trkpt><trkpt lat="45.9633715" lon="13.3412334"><ele>50.33333333333333</ele><time>2026-04-19T10:39:07.835Z</time></trkpt><trkpt lat="45.9635109" lon="13.3411216"><ele>51.0</ele><time>2026-04-19T10:39:08.836Z</time></trkpt><trkpt lat="45.9636496" lon="13.3410216"><ele>51.0</ele><time>2026-04-19T10:39:09.836Z</time></trkpt><trkpt lat="45.9637779" lon="13.3409229"><ele>51.0</ele><time>2026-04-19T10:39:10.836Z</time></trkpt><trkpt lat="45.96388" lon="13.3408329"><ele>51.0</ele><time>2026-04-19T10:39:11.836Z</time></trkpt><trkpt lat="45.9639758" lon="13.3407557"><ele>51.0</ele><time>2026-04-19T10:39:12.836Z</time></trkpt><trkpt lat="45.9640755" lon="13.3406857"><ele>51.0</ele><time>2026-04-19T10:39:13.836Z</time></trkpt><trkpt lat="45.9641747" lon="13.3406171"><ele>51.0</ele><time>2026-04-19T10:39:14.835Z</time></trkpt><trkpt lat="45.9642686" lon="13.340534"><ele>51.0</ele><time>2026-04-19T10:39:15.836Z</time></trkpt><trkpt lat="45.9643569" lon="13.3404454"><ele>51.0</ele><time>2026-04-19T10:39:16.836Z</time></trkpt><trkpt lat="45.9644505" lon="13.340363"><ele>51.0</ele><time>2026-04-19T10:39:17.836Z</time></trkpt><trkpt lat="45.9645593" lon="13.3402875"><ele>51.0</ele><time>2026-04-19T10:39:18.836Z</time></trkpt><trkpt lat="45.9646807" lon="13.3402093"><ele>51.0</ele><time>2026-04-19T10:39:19.835Z</time></trkpt><trkpt lat="45.9648081" lon="13.3401233"><ele>51.0</ele><time>2026-04-19T10:39:20.836Z</time></trkpt><trkpt lat="45.9649417" lon="13.3400385"><ele>51.0</ele><time>2026-04-19T10:39:21.836Z</time></trkpt><trkpt lat="45.9650729" lon="13.3399437"><ele>51.0</ele><time>2026-04-19T10:39:22.835Z</time></trkpt><trkpt lat="45.9652176" lon="13.3398422"><ele>51.0</ele><time>2026-04-19T10:39:23.835Z</time></trkpt><trkpt lat="45.9653703" lon="13.3397358"><ele>51.0</ele><time>2026-04-19T10:39:24.836Z</time></trkpt><trkpt lat="45.9655255" lon="13.339633"><ele>51.0</ele><time>2026-04-19T10:39:25.836Z</time></trkpt><trkpt lat="45.9656735" lon="13.3395312"><ele>51.0</ele><time>2026-04-19T10:39:26.836Z</time></trkpt><trkpt lat="45.9658246" lon="13.3394309"><ele>51.0</ele><time>2026-04-19T10:39:27.836Z</time></trkpt><trkpt lat="45.9659615" lon="13.3393404"><ele>52.0</ele><time>2026-04-19T10:39:28.836Z</time></trkpt><trkpt lat="45.9660975" lon="13.3392484"><ele>53.0</ele><time>2026-04-19T10:39:29.835Z</time></trkpt><trkpt lat="45.9662399" lon="13.3391499"><ele>54.0</ele><time>2026-04-19T10:39:30.835Z</time></trkpt><trkpt lat="45.9663788" lon="13.3390543"><ele>54.0</ele><time>2026-04-19T10:39:31.836Z</time></trkpt><trkpt lat="45.9665177" lon="13.3389607"><ele>54.0</ele><time>2026-04-19T10:39:32.836Z</time></trkpt><trkpt lat="45.9666559" lon="13.3388589"><ele>54.0</ele><time>2026-04-19T10:39:33.836Z</time></trkpt><trkpt lat="45.9667959" lon="13.3387585"><ele>53.0</ele><time>2026-04-19T10:39:34.836Z</time></trkpt><trkpt lat="45.9669318" lon="13.3386548"><ele>52.0</ele><time>2026-04-19T10:39:35.835Z</time></trkpt><trkpt lat="45.96708" lon="13.3385616"><ele>51.0</ele><time>2026-04-19T10:39:36.835Z</time></trkpt><trkpt lat="45.967223" lon="13.338459"><ele>51.0</ele><time>2026-04-19T10:39:37.836Z</time></trkpt><trkpt lat="45.9673657" lon="13.3383566"><ele>51.0</ele><time>2026-04-19T10:39:38.836Z</time></trkpt><trkpt lat="45.9675118" lon="13.3382563"><ele>51.0</ele><time>2026-04-19T10:39:39.836Z</time></trkpt><trkpt lat="45.9676632" lon="13.338162"><ele>51.33333333333333</ele><time>2026-04-19T10:39:40.836Z</time></trkpt><trkpt lat="45.9678108" lon="13.3380536"><ele>51.666666666666664</ele><time>2026-04-19T10:39:41.836Z</time></trkpt><trkpt lat="45.9679693" lon="13.3379436"><ele>52.0</ele><time>2026-04-19T10:39:42.836Z</time></trkpt><trkpt lat="45.9681337" lon="13.3378369"><ele>52.33333333333333</ele><time>2026-04-19T10:39:43.835Z</time></trkpt><trkpt lat="45.9683007" lon="13.337732"><ele>52.66666666666667</ele><time>2026-04-19T10:39:44.835Z</time></trkpt><trkpt lat="45.9684721" lon="13.3376294"><ele>53.0</ele><time>2026-04-19T10:39:45.836Z</time></trkpt><trkpt lat="45.9686383" lon="13.3375345"><ele>53.0</ele><time>2026-04-19T10:39:46.836Z</time></trkpt><trkpt lat="45.9688105" lon="13.3374283"><ele>53.0</ele><time>2026-04-19T10:39:47.836Z</time></trkpt><trkpt lat="45.9689797" lon="13.3373266"><ele>53.0</ele><time>2026-04-19T10:39:48.836Z</time></trkpt><trkpt lat="45.9691522" lon="13.3372292"><ele>52.66666666666667</ele><time>2026-04-19T10:39:49.836Z</time></trkpt><trkpt lat="45.9693215" lon="13.3371309"><ele>52.33333333333333</ele><time>2026-04-19T10:39:50.836Z</time></trkpt><trkpt lat="45.9694878" lon="13.3370302"><ele>52.0</ele><time>2026-04-19T10:39:51.835Z</time></trkpt><trkpt lat="45.9696486" lon="13.3369358"><ele>52.0</ele><time>2026-04-19T10:39:52.835Z</time></trkpt><trkpt lat="45.9697986" lon="13.3368376"><ele>52.0</ele><time>2026-04-19T10:39:53.836Z</time></trkpt><trkpt lat="45.9699517" lon="13.3367392"><ele>52.0</ele><time>2026-04-19T10:39:54.836Z</time></trkpt><trkpt lat="45.9701036" lon="13.3366521"><ele>52.666666666666664</ele><time>2026-04-19T10:39:55.836Z</time></trkpt><trkpt lat="45.9702629" lon="13.3365538"><ele>53.33333333333333</ele><time>2026-04-19T10:39:56.835Z</time></trkpt><trkpt lat="45.9704365" lon="13.336459"><ele>54.0</ele><time>2026-04-19T10:39:57.835Z</time></trkpt><trkpt lat="45.9706048" lon="13.3363637"><ele>54.33333333333333</ele><time>2026-04-19T10:39:58.835Z</time></trkpt><trkpt lat="45.9707622" lon="13.3362708"><ele>54.666666666666664</ele><time>2026-04-19T10:39:59.836Z</time></trkpt><trkpt lat="45.9709054" lon="13.3361822"><ele>55.0</ele><time>2026-04-19T10:40:00.836Z</time></trkpt><trkpt lat="45.9710398" lon="13.336095"><ele>55.25</ele><time>2026-04-19T10:40:01.836Z</time></trkpt><trkpt lat="45.9711768" lon="13.3360102"><ele>55.5</ele><time>2026-04-19T10:40:02.836Z</time></trkpt><trkpt lat="45.971302" lon="13.3359326"><ele>55.75</ele><time>2026-04-19T10:40:03.836Z</time></trkpt><trkpt lat="45.9714224" lon="13.3358589"><ele>56.0</ele><time>2026-04-19T10:40:04.836Z</time></trkpt><trkpt lat="45.9715398" lon="13.3357706"><ele>56.0</ele><time>2026-04-19T10:40:05.836Z</time></trkpt><trkpt lat="45.9716668" lon="13.3356604"><ele>56.0</ele><time>2026-04-19T10:40:06.836Z</time></trkpt><trkpt lat="45.9718038" lon="13.3355313"><ele>56.0</ele><time>2026-04-19T10:40:07.835Z</time></trkpt><trkpt lat="45.971934" lon="13.3354044"><ele>56.25</ele><time>2026-04-19T10:40:08.835Z</time></trkpt><trkpt lat="45.9720614" lon="13.3352874"><ele>56.5</ele><time>2026-04-19T10:40:09.835Z</time></trkpt><trkpt lat="45.9721732" lon="13.3351786"><ele>56.75</ele><time>2026-04-19T10:40:10.835Z</time></trkpt><trkpt lat="45.9722747" lon="13.3350873"><ele>57.0</ele><time>2026-04-19T10:40:11.835Z</time></trkpt><trkpt lat="45.9723677" lon="13.3349995"><ele>57.0</ele><time>2026-04-19T10:40:12.835Z</time></trkpt><trkpt lat="45.9724413" lon="13.3349229"><ele>57.0</ele><time>2026-04-19T10:40:13.836Z</time></trkpt><trkpt lat="45.9725048" lon="13.3348484"><ele>57.0</ele><time>2026-04-19T10:40:14.835Z</time></trkpt><trkpt lat="45.972577" lon="13.3347547"><ele>57.0</ele><time>2026-04-19T10:40:16.836Z</time></trkpt><trkpt lat="45.9726478" lon="13.3346707"><ele>57.0</ele><time>2026-04-19T10:40:18.836Z</time></trkpt><trkpt lat="45.9727187" lon="13.334584"><ele>56.8</ele><time>2026-04-19T10:40:20.836Z</time></trkpt><trkpt lat="45.9727975" lon="13.334502"><ele>56.6</ele><time>2026-04-19T10:40:22.836Z</time></trkpt><trkpt lat="45.9728949" lon="13.3344019"><ele>56.39999999999999</ele><time>2026-04-19T10:40:24.836Z</time></trkpt><trkpt lat="45.9729552" lon="13.3343422"><ele>56.199999999999996</ele><time>2026-04-19T10:40:25.835Z</time></trkpt><trkpt lat="45.9730274" lon="13.3342689"><ele>56.0</ele><time>2026-04-19T10:40:26.835Z</time></trkpt><trkpt lat="45.9731043" lon="13.3341902"><ele>56.0</ele><time>2026-04-19T10:40:27.835Z</time></trkpt><trkpt lat="45.9731808" lon="13.3341123"><ele>55.99999999999999</ele><time>2026-04-19T10:40:28.836Z</time></trkpt><trkpt lat="45.9732625" lon="13.3340311"><ele>55.99999999999999</ele><time>2026-04-19T10:40:29.836Z</time></trkpt><trkpt lat="45.973346" lon="13.333944"><ele>56.0</ele><time>2026-04-19T10:40:30.836Z</time></trkpt><trkpt lat="45.9734306" lon="13.3338494"><ele>56.0</ele><time>2026-04-19T10:40:31.836Z</time></trkpt><trkpt lat="45.9735133" lon="13.3337561"><ele>56.333333333333336</ele><time>2026-04-19T10:40:32.836Z</time></trkpt><trkpt lat="45.9735921" lon="13.3336646"><ele>56.66666666666667</ele><time>2026-04-19T10:40:33.836Z</time></trkpt><trkpt lat="45.9736591" lon="13.3335769"><ele>57.0</ele><time>2026-04-19T10:40:34.836Z</time></trkpt><trkpt lat="45.9737079" lon="13.333478"><ele>57.33333333333333</ele><time>2026-04-19T10:40:35.836Z</time></trkpt><trkpt lat="45.9737399" lon="13.3333802"><ele>57.666666666666664</ele><time>2026-04-19T10:40:36.835Z</time></trkpt><trkpt lat="45.9737593" lon="13.3332419"><ele>58.0</ele><time>2026-04-19T10:40:38.836Z</time></trkpt><trkpt lat="45.973807" lon="13.3333236"><ele>58.0</ele><time>2026-04-19T10:40:42.835Z</time></trkpt><trkpt lat="45.9738118" lon="13.3334283"><ele>58.0</ele><time>2026-04-19T10:40:44.835Z</time></trkpt><trkpt lat="45.9738865" lon="13.3334566"><ele>58.0</ele><time>2026-04-19T10:40:46.836Z</time></trkpt><trkpt lat="45.9740087" lon="13.3333363"><ele>58.0</ele><time>2026-04-19T10:40:48.836Z</time></trkpt><trkpt lat="45.9740892" lon="13.3332428"><ele>58.0</ele><time>2026-04-19T10:40:49.836Z</time></trkpt><trkpt lat="45.974183" lon="13.3331345"><ele>57.5</ele><time>2026-04-19T10:40:50.836Z</time></trkpt><trkpt lat="45.9742887" lon="13.3330157"><ele>57.0</ele><time>2026-04-19T10:40:51.836Z</time></trkpt><trkpt lat="45.9744043" lon="13.3328874"><ele>56.5</ele><time>2026-04-19T10:40:52.836Z</time></trkpt><trkpt lat="45.9745281" lon="13.3327558"><ele>56.0</ele><time>2026-04-19T10:40:53.835Z</time></trkpt><trkpt lat="45.9746556" lon="13.3326206"><ele>56.0</ele><time>2026-04-19T10:40:54.835Z</time></trkpt><trkpt lat="45.9747845" lon="13.3324714"><ele>56.0</ele><time>2026-04-19T10:40:55.836Z</time></trkpt><trkpt lat="45.9749107" lon="13.3323166"><ele>56.0</ele><time>2026-04-19T10:40:56.836Z</time></trkpt><trkpt lat="45.9750334" lon="13.3321733"><ele>56.0</ele><time>2026-04-19T10:40:57.835Z</time></trkpt><trkpt lat="45.9751521" lon="13.3320494"><ele>56.0</ele><time>2026-04-19T10:40:58.836Z</time></trkpt><trkpt lat="45.9752619" lon="13.331932"><ele>56.0</ele><time>2026-04-19T10:40:59.836Z</time></trkpt><trkpt lat="45.9753668" lon="13.3318246"><ele>56.0</ele><time>2026-04-19T10:41:00.836Z</time></trkpt><trkpt lat="45.975459" lon="13.3317188"><ele>56.0</ele><time>2026-04-19T10:41:01.836Z</time></trkpt><trkpt lat="45.9755481" lon="13.3316228"><ele>55.99999999999999</ele><time>2026-04-19T10:41:02.836Z</time></trkpt><trkpt lat="45.9756296" lon="13.3315342"><ele>55.99999999999999</ele><time>2026-04-19T10:41:03.835Z</time></trkpt><trkpt lat="45.9756974" lon="13.331459"><ele>56.0</ele><time>2026-04-19T10:41:04.835Z</time></trkpt><trkpt lat="45.9757569" lon="13.3313955"><ele>56.0</ele><time>2026-04-19T10:41:05.836Z</time></trkpt><trkpt lat="45.9758317" lon="13.3313158"><ele>56.66666666666667</ele><time>2026-04-19T10:41:07.836Z</time></trkpt><trkpt lat="45.9758842" lon="13.3312279"><ele>57.333333333333336</ele><time>2026-04-19T10:41:12.836Z</time></trkpt><trkpt lat="45.9759539" lon="13.3311618"><ele>58.0</ele><time>2026-04-19T10:41:15.836Z</time></trkpt><trkpt lat="45.9760099" lon="13.331071"><ele>58.66666666666667</ele><time>2026-04-19T10:41:18.836Z</time></trkpt><trkpt lat="45.9760688" lon="13.3310036"><ele>59.333333333333336</ele><time>2026-04-19T10:41:21.836Z</time></trkpt><trkpt lat="45.9761601" lon="13.3309208"><ele>60.0</ele><time>2026-04-19T10:41:25.835Z</time></trkpt><trkpt lat="45.9762178" lon="13.3308561"><ele>60.0</ele><time>2026-04-19T10:41:26.835Z</time></trkpt><trkpt lat="45.9762938" lon="13.3307759"><ele>60.0</ele><time>2026-04-19T10:41:27.835Z</time></trkpt><trkpt lat="45.9763763" lon="13.3306906"><ele>60.0</ele><time>2026-04-19T10:41:28.835Z</time></trkpt><trkpt lat="45.9764719" lon="13.3305882"><ele>60.0</ele><time>2026-04-19T10:41:29.836Z</time></trkpt><trkpt lat="45.9765524" lon="13.3305094"><ele>60.0</ele><time>2026-04-19T10:41:30.836Z</time></trkpt><trkpt lat="45.9766141" lon="13.3304392"><ele>59.8</ele><time>2026-04-19T10:41:31.835Z</time></trkpt><trkpt lat="45.976689" lon="13.3303204"><ele>59.6</ele><time>2026-04-19T10:41:33.835Z</time></trkpt><trkpt lat="45.9767521" lon="13.3302418"><ele>59.400000000000006</ele><time>2026-04-19T10:41:35.836Z</time></trkpt><trkpt lat="45.9768722" lon="13.3301526"><ele>59.2</ele><time>2026-04-19T10:41:37.836Z</time></trkpt><trkpt lat="45.9769638" lon="13.3300808"><ele>59.0</ele><time>2026-04-19T10:41:38.836Z</time></trkpt><trkpt lat="45.9770561" lon="13.3299541"><ele>59.0</ele><time>2026-04-19T10:41:39.836Z</time></trkpt><trkpt lat="45.9771686" lon="13.3297662"><ele>59.0</ele><time>2026-04-19T10:41:40.835Z</time></trkpt><trkpt lat="45.9772976" lon="13.3295553"><ele>59.0</ele><time>2026-04-19T10:41:41.836Z</time></trkpt><trkpt lat="45.9774363" lon="13.329358"><ele>58.66666666666667</ele><time>2026-04-19T10:41:42.836Z</time></trkpt><trkpt lat="45.9775699" lon="13.3291553"><ele>58.33333333333333</ele><time>2026-04-19T10:41:43.836Z</time></trkpt><trkpt lat="45.9777081" lon="13.3289372"><ele>58.0</ele><time>2026-04-19T10:41:44.835Z</time></trkpt><trkpt lat="45.9778576" lon="13.328732"><ele>57.0</ele><time>2026-04-19T10:41:45.835Z</time></trkpt><trkpt lat="45.9779971" lon="13.3285254"><ele>56.0</ele><time>2026-04-19T10:41:46.835Z</time></trkpt><trkpt lat="45.9781544" lon="13.3283498"><ele>55.0</ele><time>2026-04-19T10:41:47.835Z</time></trkpt><trkpt lat="45.9783102" lon="13.3281572"><ele>55.666666666666664</ele><time>2026-04-19T10:41:48.836Z</time></trkpt><trkpt lat="45.9784699" lon="13.3279484"><ele>56.33333333333333</ele><time>2026-04-19T10:41:49.836Z</time></trkpt><trkpt lat="45.9786239" lon="13.3277308"><ele>57.0</ele><time>2026-04-19T10:41:50.835Z</time></trkpt><trkpt lat="45.9787688" lon="13.3275102"><ele>57.0</ele><time>2026-04-19T10:41:51.836Z</time></trkpt><trkpt lat="45.9789152" lon="13.3272887"><ele>57.0</ele><time>2026-04-19T10:41:52.836Z</time></trkpt><trkpt lat="45.9790728" lon="13.3270702"><ele>57.0</ele><time>2026-04-19T10:41:53.836Z</time></trkpt><trkpt lat="45.9792211" lon="13.3268591"><ele>58.0</ele><time>2026-04-19T10:41:54.836Z</time></trkpt><trkpt lat="45.9793639" lon="13.3266529"><ele>59.0</ele><time>2026-04-19T10:41:55.836Z</time></trkpt><trkpt lat="45.9794991" lon="13.3264467"><ele>60.0</ele><time>2026-04-19T10:41:56.836Z</time></trkpt><trkpt lat="45.9796321" lon="13.3262455"><ele>60.0</ele><time>2026-04-19T10:41:57.836Z</time></trkpt><trkpt lat="45.9797833" lon="13.3260401"><ele>60.0</ele><time>2026-04-19T10:41:58.835Z</time></trkpt><trkpt lat="45.9799251" lon="13.3258463"><ele>60.0</ele><time>2026-04-19T10:41:59.836Z</time></trkpt><trkpt lat="45.9800636" lon="13.3256382"><ele>60.0</ele><time>2026-04-19T10:42:00.836Z</time></trkpt><trkpt lat="45.9801947" lon="13.3254457"><ele>60.0</ele><time>2026-04-19T10:42:01.835Z</time></trkpt><trkpt lat="45.9803184" lon="13.3252647"><ele>60.0</ele><time>2026-04-19T10:42:02.835Z</time></trkpt><trkpt lat="45.9804426" lon="13.3250977"><ele>60.0</ele><time>2026-04-19T10:42:03.836Z</time></trkpt><trkpt lat="45.9805585" lon="13.3249275"><ele>60.0</ele><time>2026-04-19T10:42:04.835Z</time></trkpt><trkpt lat="45.9806672" lon="13.3247771"><ele>60.0</ele><time>2026-04-19T10:42:05.835Z</time></trkpt><trkpt lat="45.9807719" lon="13.3246404"><ele>59.8</ele><time>2026-04-19T10:42:06.836Z</time></trkpt><trkpt lat="45.9808647" lon="13.3245354"><ele>59.6</ele><time>2026-04-19T10:42:07.836Z</time></trkpt><trkpt lat="45.9809454" lon="13.3244632"><ele>59.400000000000006</ele><time>2026-04-19T10:42:08.836Z</time></trkpt><trkpt lat="45.9810221" lon="13.3244142"><ele>59.2</ele><time>2026-04-19T10:42:09.835Z</time></trkpt><trkpt lat="45.981094" lon="13.3243511"><ele>59.0</ele><time>2026-04-19T10:42:10.835Z</time></trkpt><trkpt lat="45.9811458" lon="13.3242643"><ele>59.0</ele><time>2026-04-19T10:42:11.836Z</time></trkpt><trkpt lat="45.9811978" lon="13.3241501"><ele>59.0</ele><time>2026-04-19T10:42:12.836Z</time></trkpt><trkpt lat="45.9812609" lon="13.3240195"><ele>59.0</ele><time>2026-04-19T10:42:13.835Z</time></trkpt><trkpt lat="45.9813457" lon="13.3238911"><ele>59.0</ele><time>2026-04-19T10:42:14.835Z</time></trkpt><trkpt lat="45.9814423" lon="13.323755"><ele>59.0</ele><time>2026-04-19T10:42:15.836Z</time></trkpt><trkpt lat="45.9815408" lon="13.3236167"><ele>59.0</ele><time>2026-04-19T10:42:16.836Z</time></trkpt><trkpt lat="45.9816479" lon="13.3234658"><ele>59.0</ele><time>2026-04-19T10:42:17.836Z</time></trkpt><trkpt lat="45.98176" lon="13.3233084"><ele>59.0</ele><time>2026-04-19T10:42:18.836Z</time></trkpt><trkpt lat="45.9818762" lon="13.3231368"><ele>59.25</ele><time>2026-04-19T10:42:19.835Z</time></trkpt><trkpt lat="45.9819867" lon="13.3229736"><ele>59.5</ele><time>2026-04-19T10:42:20.835Z</time></trkpt><trkpt lat="45.9820875" lon="13.3228197"><ele>59.75</ele><time>2026-04-19T10:42:21.836Z</time></trkpt><trkpt lat="45.9821892" lon="13.3226904"><ele>60.0</ele><time>2026-04-19T10:42:22.836Z</time></trkpt><trkpt lat="45.9822882" lon="13.3225731"><ele>60.0</ele><time>2026-04-19T10:42:23.836Z</time></trkpt><trkpt lat="45.9824078" lon="13.3224255"><ele>60.0</ele><time>2026-04-19T10:42:24.836Z</time></trkpt><trkpt lat="45.9825191" lon="13.3222704"><ele>60.0</ele><time>2026-04-19T10:42:25.835Z</time></trkpt><trkpt lat="45.9826314" lon="13.3221053"><ele>60.25</ele><time>2026-04-19T10:42:26.835Z</time></trkpt><trkpt lat="45.9827369" lon="13.3219448"><ele>60.5</ele><time>2026-04-19T10:42:27.835Z</time></trkpt><trkpt lat="45.9828457" lon="13.3218061"><ele>60.75</ele><time>2026-04-19T10:42:28.836Z</time></trkpt><trkpt lat="45.9829502" lon="13.3216716"><ele>61.0</ele><time>2026-04-19T10:42:29.835Z</time></trkpt><trkpt lat="45.9830553" lon="13.3215316"><ele>61.0</ele><time>2026-04-19T10:42:30.836Z</time></trkpt><trkpt lat="45.9831389" lon="13.3214012"><ele>61.0</ele><time>2026-04-19T10:42:31.835Z</time></trkpt><trkpt lat="45.9832218" lon="13.3212902"><ele>61.0</ele><time>2026-04-19T10:42:32.835Z</time></trkpt><trkpt lat="45.9833158" lon="13.3211836"><ele>61.0</ele><time>2026-04-19T10:42:33.836Z</time></trkpt><trkpt lat="45.9833828" lon="13.3210743"><ele>61.199999999999996</ele><time>2026-04-19T10:42:34.835Z</time></trkpt><trkpt lat="45.9834697" lon="13.3209803"><ele>61.39999999999999</ele><time>2026-04-19T10:42:35.835Z</time></trkpt><trkpt lat="45.9835474" lon="13.3208954"><ele>61.6</ele><time>2026-04-19T10:42:36.836Z</time></trkpt><trkpt lat="45.9836139" lon="13.320835"><ele>61.8</ele><time>2026-04-19T10:42:37.836Z</time></trkpt><trkpt lat="45.9836775" lon="13.3207592"><ele>62.0</ele><time>2026-04-19T10:42:39.835Z</time></trkpt><trkpt lat="45.9836975" lon="13.3206321"><ele>62.0</ele><time>2026-04-19T10:42:41.836Z</time></trkpt><trkpt lat="45.9837293" lon="13.3205205"><ele>62.0</ele><time>2026-04-19T10:42:42.836Z</time></trkpt><trkpt lat="45.9837901" lon="13.320416"><ele>62.0</ele><time>2026-04-19T10:42:43.836Z</time></trkpt><trkpt lat="45.9838781" lon="13.3203186"><ele>62.0</ele><time>2026-04-19T10:42:44.835Z</time></trkpt><trkpt lat="45.9839893" lon="13.3202146"><ele>62.0</ele><time>2026-04-19T10:42:45.835Z</time></trkpt><trkpt lat="45.9841141" lon="13.3200984"><ele>62.333333333333336</ele><time>2026-04-19T10:42:46.836Z</time></trkpt><trkpt lat="45.9842444" lon="13.3199694"><ele>62.66666666666667</ele><time>2026-04-19T10:42:47.835Z</time></trkpt><trkpt lat="45.984389" lon="13.3198356"><ele>63.0</ele><time>2026-04-19T10:42:48.835Z</time></trkpt><trkpt lat="45.9845537" lon="13.3197038"><ele>63.0</ele><time>2026-04-19T10:42:49.836Z</time></trkpt><trkpt lat="45.984714" lon="13.3195747"><ele>63.0</ele><time>2026-04-19T10:42:50.836Z</time></trkpt><trkpt lat="45.9848735" lon="13.3194484"><ele>63.0</ele><time>2026-04-19T10:42:51.836Z</time></trkpt><trkpt lat="45.9850432" lon="13.3193243"><ele>63.0</ele><time>2026-04-19T10:42:52.836Z</time></trkpt><trkpt lat="45.9852124" lon="13.3191831"><ele>63.0</ele><time>2026-04-19T10:42:53.836Z</time></trkpt><trkpt lat="45.9853844" lon="13.3190325"><ele>63.0</ele><time>2026-04-19T10:42:54.836Z</time></trkpt><trkpt lat="45.9855573" lon="13.3188817"><ele>63.0</ele><time>2026-04-19T10:42:55.835Z</time></trkpt><trkpt lat="45.985727" lon="13.3187362"><ele>63.0</ele><time>2026-04-19T10:42:56.836Z</time></trkpt><trkpt lat="45.9859086" lon="13.3185836"><ele>63.0</ele><time>2026-04-19T10:42:57.835Z</time></trkpt><trkpt lat="45.9860835" lon="13.3184345"><ele>62.66666666666667</ele><time>2026-04-19T10:42:58.836Z</time></trkpt><trkpt lat="45.9862554" lon="13.3182839"><ele>62.333333333333336</ele><time>2026-04-19T10:42:59.836Z</time></trkpt><trkpt lat="45.9864296" lon="13.3181326"><ele>62.0</ele><time>2026-04-19T10:43:00.835Z</time></trkpt><trkpt lat="45.9866035" lon="13.3179802"><ele>62.0</ele><time>2026-04-19T10:43:01.835Z</time></trkpt><trkpt lat="45.9867902" lon="13.3178266"><ele>62.0</ele><time>2026-04-19T10:43:02.836Z</time></trkpt><trkpt lat="45.986977" lon="13.317673"><ele>62.0</ele><time>2026-04-19T10:43:03.836Z</time></trkpt><trkpt lat="45.9871561" lon="13.3175217"><ele>62.0</ele><time>2026-04-19T10:43:04.836Z</time></trkpt><trkpt lat="45.9873432" lon="13.3173628"><ele>62.0</ele><time>2026-04-19T10:43:05.836Z</time></trkpt><trkpt lat="45.9875364" lon="13.3171939"><ele>62.0</ele><time>2026-04-19T10:43:06.836Z</time></trkpt><trkpt lat="45.9877351" lon="13.3170177"><ele>62.0</ele><time>2026-04-19T10:43:07.836Z</time></trkpt><trkpt lat="45.987937" lon="13.3168499"><ele>62.0</ele><time>2026-04-19T10:43:08.836Z</time></trkpt><trkpt lat="45.9881334" lon="13.3166803"><ele>62.0</ele><time>2026-04-19T10:43:09.835Z</time></trkpt><trkpt lat="45.9883407" lon="13.3164984"><ele>62.0</ele><time>2026-04-19T10:43:10.836Z</time></trkpt><trkpt lat="45.988551" lon="13.3163118"><ele>62.5</ele><time>2026-04-19T10:43:11.835Z</time></trkpt><trkpt lat="45.9887603" lon="13.3161302"><ele>63.0</ele><time>2026-04-19T10:43:12.835Z</time></trkpt><trkpt lat="45.9889549" lon="13.3159524"><ele>63.0</ele><time>2026-04-19T10:43:13.836Z</time></trkpt><trkpt lat="45.9891368" lon="13.3157852"><ele>63.0</ele><time>2026-04-19T10:43:14.836Z</time></trkpt><trkpt lat="45.9893047" lon="13.3156353"><ele>63.0</ele><time>2026-04-19T10:43:15.836Z</time></trkpt><trkpt lat="45.9894638" lon="13.315497"><ele>63.0</ele><time>2026-04-19T10:43:16.836Z</time></trkpt><trkpt lat="45.9896158" lon="13.3153762"><ele>63.0</ele><time>2026-04-19T10:43:17.835Z</time></trkpt><trkpt lat="45.9897505" lon="13.3152744"><ele>63.0</ele><time>2026-04-19T10:43:18.835Z</time></trkpt><trkpt lat="45.9898638" lon="13.3151862"><ele>63.0</ele><time>2026-04-19T10:43:19.836Z</time></trkpt><trkpt lat="45.9899607" lon="13.3151172"><ele>63.0</ele><time>2026-04-19T10:43:20.835Z</time></trkpt><trkpt lat="45.9900348" lon="13.3150739"><ele>63.0</ele><time>2026-04-19T10:43:21.835Z</time></trkpt><trkpt lat="45.9901033" lon="13.3150467"><ele>63.0</ele><time>2026-04-19T10:43:22.835Z</time></trkpt><trkpt lat="45.9901948" lon="13.3149803"><ele>63.0</ele><time>2026-04-19T10:43:24.835Z</time></trkpt><trkpt lat="45.9902622" lon="13.3148994"><ele>63.0</ele><time>2026-04-19T10:43:26.835Z</time></trkpt><trkpt lat="45.9903307" lon="13.3148177"><ele>63.2</ele><time>2026-04-19T10:43:28.836Z</time></trkpt><trkpt lat="45.9903646" lon="13.3147293"><ele>63.4</ele><time>2026-04-19T10:43:30.836Z</time></trkpt><trkpt lat="45.9904212" lon="13.3146122"><ele>63.60000000000001</ele><time>2026-04-19T10:43:32.836Z</time></trkpt><trkpt lat="45.9904826" lon="13.3145557"><ele>63.800000000000004</ele><time>2026-04-19T10:43:33.835Z</time></trkpt><trkpt lat="45.990569" lon="13.3144833"><ele>64.0</ele><time>2026-04-19T10:43:34.835Z</time></trkpt><trkpt lat="45.9906717" lon="13.314403"><ele>64.0</ele><time>2026-04-19T10:43:35.836Z</time></trkpt><trkpt lat="45.9907712" lon="13.3143196"><ele>64.0</ele><time>2026-04-19T10:43:36.836Z</time></trkpt><trkpt lat="45.990857" lon="13.3142388"><ele>64.0</ele><time>2026-04-19T10:43:37.836Z</time></trkpt><trkpt lat="45.9909424" lon="13.3141622"><ele>64.0</ele><time>2026-04-19T10:43:38.835Z</time></trkpt><trkpt lat="45.9910341" lon="13.314083"><ele>64.0</ele><time>2026-04-19T10:43:39.836Z</time></trkpt><trkpt lat="45.9911186" lon="13.3140261"><ele>64.0</ele><time>2026-04-19T10:43:40.835Z</time></trkpt><trkpt lat="45.9911975" lon="13.3139934"><ele>64.0</ele><time>2026-04-19T10:43:41.835Z</time></trkpt><trkpt lat="45.9912831" lon="13.3139748"><ele>64.0</ele><time>2026-04-19T10:43:42.836Z</time></trkpt><trkpt lat="45.9913593" lon="13.3139296"><ele>64.0</ele><time>2026-04-19T10:43:43.836Z</time></trkpt><trkpt lat="45.9914547" lon="13.3138483"><ele>64.0</ele><time>2026-04-19T10:43:44.836Z</time></trkpt><trkpt lat="45.991581" lon="13.3137369"><ele>64.0</ele><time>2026-04-19T10:43:45.835Z</time></trkpt><trkpt lat="45.9917211" lon="13.313618"><ele>64.0</ele><time>2026-04-19T10:43:46.836Z</time></trkpt><trkpt lat="45.9918642" lon="13.3134861"><ele>64.0</ele><time>2026-04-19T10:43:47.836Z</time></trkpt><trkpt lat="45.992012" lon="13.3133487"><ele>64.0</ele><time>2026-04-19T10:43:48.835Z</time></trkpt><trkpt lat="45.9921733" lon="13.3132033"><ele>64.0</ele><time>2026-04-19T10:43:49.836Z</time></trkpt><trkpt lat="45.9923551" lon="13.3130573"><ele>64.0</ele><time>2026-04-19T10:43:50.836Z</time></trkpt><trkpt lat="45.9925225" lon="13.3129086"><ele>64.33333333333333</ele><time>2026-04-19T10:43:51.836Z</time></trkpt><trkpt lat="45.9926725" lon="13.3127756"><ele>64.66666666666667</ele><time>2026-04-19T10:43:52.836Z</time></trkpt><trkpt lat="45.9928122" lon="13.3126608"><ele>65.0</ele><time>2026-04-19T10:43:53.836Z</time></trkpt><trkpt lat="45.9929191" lon="13.3125674"><ele>65.0</ele><time>2026-04-19T10:43:54.836Z</time></trkpt><trkpt lat="45.9930047" lon="13.3124982"><ele>65.0</ele><time>2026-04-19T10:43:55.835Z</time></trkpt><trkpt lat="45.9930761" lon="13.3124322"><ele>65.0</ele><time>2026-04-19T10:43:56.835Z</time></trkpt><trkpt lat="45.9931301" lon="13.3123723"><ele>65.0</ele><time>2026-04-19T10:43:57.836Z</time></trkpt><trkpt lat="45.9931746" lon="13.312252"><ele>65.0</ele><time>2026-04-19T10:43:59.835Z</time></trkpt><trkpt lat="45.9932448" lon="13.3121938"><ele>65.0</ele><time>2026-04-19T10:44:13.836Z</time></trkpt><trkpt lat="45.9933162" lon="13.3121148"><ele>64.83333333333334</ele><time>2026-04-19T10:44:16.836Z</time></trkpt><trkpt lat="45.9933821" lon="13.3120766"><ele>64.66666666666667</ele><time>2026-04-19T10:44:28.836Z</time></trkpt><trkpt lat="45.9934645" lon="13.3119759"><ele>64.5</ele><time>2026-04-19T10:44:30.835Z</time></trkpt><trkpt lat="45.9935024" lon="13.3119002"><ele>64.33333333333333</ele><time>2026-04-19T10:44:31.836Z</time></trkpt><trkpt lat="45.9935369" lon="13.3117852"><ele>64.16666666666666</ele><time>2026-04-19T10:44:32.836Z</time></trkpt><trkpt lat="45.9935584" lon="13.311643"><ele>64.0</ele><time>2026-04-19T10:44:33.834Z</time></trkpt><trkpt lat="45.9935746" lon="13.3114816"><ele>64.25</ele><time>2026-04-19T10:44:34.834Z</time></trkpt><trkpt lat="45.9935929" lon="13.3113182"><ele>64.5</ele><time>2026-04-19T10:44:35.834Z</time></trkpt><trkpt lat="45.9935999" lon="13.3111443"><ele>64.75</ele><time>2026-04-19T10:44:36.835Z</time></trkpt><trkpt lat="45.9936086" lon="13.3109679"><ele>65.0</ele><time>2026-04-19T10:44:37.835Z</time></trkpt><trkpt lat="45.9936272" lon="13.3107966"><ele>65.0</ele><time>2026-04-19T10:44:38.835Z</time></trkpt><trkpt lat="45.9936462" lon="13.3106371"><ele>65.0</ele><time>2026-04-19T10:44:39.835Z</time></trkpt><trkpt lat="45.9936618" lon="13.3104994"><ele>65.0</ele><time>2026-04-19T10:44:40.835Z</time></trkpt><trkpt lat="45.9936705" lon="13.3103789"><ele>65.0</ele><time>2026-04-19T10:44:41.835Z</time></trkpt><trkpt lat="45.9936816" lon="13.3102731"><ele>65.0</ele><time>2026-04-19T10:44:42.835Z</time></trkpt><trkpt lat="45.993692" lon="13.3101802"><ele>65.0</ele><time>2026-04-19T10:44:43.834Z</time></trkpt><trkpt lat="45.9937294" lon="13.3100412"><ele>65.0</ele><time>2026-04-19T10:44:45.835Z</time></trkpt><trkpt lat="45.9938378" lon="13.3099394"><ele>65.0</ele><time>2026-04-19T10:44:47.834Z</time></trkpt><trkpt lat="45.9939185" lon="13.3098752"><ele>65.0</ele><time>2026-04-19T10:44:48.835Z</time></trkpt><trkpt lat="45.9940122" lon="13.3097994"><ele>65.0</ele><time>2026-04-19T10:44:49.834Z</time></trkpt><trkpt lat="45.9941161" lon="13.3097451"><ele>65.0</ele><time>2026-04-19T10:44:50.835Z</time></trkpt><trkpt lat="45.9942326" lon="13.3097304"><ele>66.0</ele><time>2026-04-19T10:44:51.834Z</time></trkpt><trkpt lat="45.9943786" lon="13.309734"><ele>67.0</ele><time>2026-04-19T10:44:52.834Z</time></trkpt><trkpt lat="45.9945382" lon="13.3097597"><ele>68.0</ele><time>2026-04-19T10:44:53.835Z</time></trkpt><trkpt lat="45.9946912" lon="13.3097785"><ele>68.0</ele><time>2026-04-19T10:44:54.835Z</time></trkpt><trkpt lat="45.9948511" lon="13.3097921"><ele>68.0</ele><time>2026-04-19T10:44:55.835Z</time></trkpt><trkpt lat="45.9950013" lon="13.3098014"><ele>68.0</ele><time>2026-04-19T10:44:56.834Z</time></trkpt><trkpt lat="45.9951479" lon="13.3098208"><ele>67.75</ele><time>2026-04-19T10:44:57.834Z</time></trkpt><trkpt lat="45.9952935" lon="13.3098487"><ele>67.5</ele><time>2026-04-19T10:44:58.835Z</time></trkpt><trkpt lat="45.9954286" lon="13.3098746"><ele>67.25</ele><time>2026-04-19T10:44:59.834Z</time></trkpt><trkpt lat="45.9955652" lon="13.3098813"><ele>67.0</ele><time>2026-04-19T10:45:00.835Z</time></trkpt><trkpt lat="45.9957051" lon="13.3098746"><ele>67.25</ele><time>2026-04-19T10:45:01.834Z</time></trkpt><trkpt lat="45.9958478" lon="13.3098531"><ele>67.5</ele><time>2026-04-19T10:45:02.835Z</time></trkpt><trkpt lat="45.9959856" lon="13.3098097"><ele>67.75</ele><time>2026-04-19T10:45:03.834Z</time></trkpt><trkpt lat="45.9961296" lon="13.3097451"><ele>68.0</ele><time>2026-04-19T10:45:04.835Z</time></trkpt><trkpt lat="45.9962707" lon="13.3096726"><ele>68.0</ele><time>2026-04-19T10:45:05.834Z</time></trkpt><trkpt lat="45.9964136" lon="13.3095911"><ele>68.0</ele><time>2026-04-19T10:45:06.834Z</time></trkpt><trkpt lat="45.9965577" lon="13.3094944"><ele>68.0</ele><time>2026-04-19T10:45:07.835Z</time></trkpt><trkpt lat="45.996687" lon="13.3093909"><ele>67.66666666666667</ele><time>2026-04-19T10:45:08.834Z</time></trkpt><trkpt lat="45.9968124" lon="13.3092601"><ele>67.33333333333333</ele><time>2026-04-19T10:45:09.835Z</time></trkpt><trkpt lat="45.9969092" lon="13.3090907"><ele>67.0</ele><time>2026-04-19T10:45:10.834Z</time></trkpt><trkpt lat="45.9969934" lon="13.3089058"><ele>67.0</ele><time>2026-04-19T10:45:11.835Z</time></trkpt><trkpt lat="45.9970776" lon="13.3087589"><ele>67.0</ele><time>2026-04-19T10:45:12.835Z</time></trkpt><trkpt lat="45.9971864" lon="13.308645"><ele>67.0</ele><time>2026-04-19T10:45:13.834Z</time></trkpt><trkpt lat="45.997319" lon="13.3085739"><ele>67.0</ele><time>2026-04-19T10:45:14.835Z</time></trkpt><trkpt lat="45.9974487" lon="13.3085382"><ele>66.2</ele><time>2026-04-19T10:45:15.835Z</time></trkpt><trkpt lat="45.9975628" lon="13.308526"><ele>65.4</ele><time>2026-04-19T10:45:16.835Z</time></trkpt><trkpt lat="45.997672" lon="13.3085109"><ele>64.6</ele><time>2026-04-19T10:45:17.835Z</time></trkpt><trkpt lat="45.9977797" lon="13.308496"><ele>63.8</ele><time>2026-04-19T10:45:18.834Z</time></trkpt><trkpt lat="45.9978676" lon="13.3084805"><ele>63.0</ele><time>2026-04-19T10:45:19.834Z</time></trkpt><trkpt lat="45.9979354" lon="13.3084746"><ele>63.0</ele><time>2026-04-19T10:45:20.835Z</time></trkpt><trkpt lat="45.998048" lon="13.308565"><ele>63.0</ele><time>2026-04-19T10:45:22.835Z</time></trkpt><trkpt lat="45.99812" lon="13.3086434"><ele>63.0</ele><time>2026-04-19T10:45:23.835Z</time></trkpt><trkpt lat="45.9982046" lon="13.3087257"><ele>63.0</ele><time>2026-04-19T10:45:24.835Z</time></trkpt><trkpt lat="45.9983107" lon="13.3088041"><ele>63.0</ele><time>2026-04-19T10:45:25.834Z</time></trkpt><trkpt lat="45.9984365" lon="13.3088751"><ele>63.75</ele><time>2026-04-19T10:45:26.835Z</time></trkpt><trkpt lat="45.9985683" lon="13.30895"><ele>64.5</ele><time>2026-04-19T10:45:27.835Z</time></trkpt><trkpt lat="45.9986859" lon="13.3090253"><ele>65.25</ele><time>2026-04-19T10:45:28.835Z</time></trkpt><trkpt lat="45.9987892" lon="13.3090954"><ele>66.0</ele><time>2026-04-19T10:45:29.835Z</time></trkpt><trkpt lat="45.9988768" lon="13.3091606"><ele>66.0</ele><time>2026-04-19T10:45:30.835Z</time></trkpt><trkpt lat="45.9989691" lon="13.3092355"><ele>66.0</ele><time>2026-04-19T10:45:31.835Z</time></trkpt><trkpt lat="45.9990403" lon="13.3093075"><ele>66.0</ele><time>2026-04-19T10:45:32.835Z</time></trkpt><trkpt lat="45.9990954" lon="13.3093895"><ele>66.0</ele><time>2026-04-19T10:45:33.835Z</time></trkpt><trkpt lat="45.9991548" lon="13.3094963"><ele>66.0</ele><time>2026-04-19T10:45:34.835Z</time></trkpt><trkpt lat="45.9992219" lon="13.3096234"><ele>66.0</ele><time>2026-04-19T10:45:35.835Z</time></trkpt><trkpt lat="45.9992907" lon="13.3097822"><ele>66.0</ele><time>2026-04-19T10:45:36.835Z</time></trkpt><trkpt lat="45.999362" lon="13.3099487"><ele>66.0</ele><time>2026-04-19T10:45:37.834Z</time></trkpt><trkpt lat="45.9994402" lon="13.3101364"><ele>66.0</ele><time>2026-04-19T10:45:38.835Z</time></trkpt><trkpt lat="45.9995322" lon="13.3103217"><ele>66.0</ele><time>2026-04-19T10:45:39.834Z</time></trkpt><trkpt lat="45.9996334" lon="13.310515"><ele>66.0</ele><time>2026-04-19T10:45:40.835Z</time></trkpt><trkpt lat="45.9997297" lon="13.3107141"><ele>66.0</ele><time>2026-04-19T10:45:41.834Z</time></trkpt><trkpt lat="45.9998162" lon="13.31089"><ele>66.6</ele><time>2026-04-19T10:45:42.835Z</time></trkpt><trkpt lat="45.9998821" lon="13.3110314"><ele>67.19999999999999</ele><time>2026-04-19T10:45:43.835Z</time></trkpt><trkpt lat="45.9999329" lon="13.3111513"><ele>67.80000000000001</ele><time>2026-04-19T10:45:44.835Z</time></trkpt><trkpt lat="45.9999855" lon="13.3112327"><ele>68.4</ele><time>2026-04-19T10:45:45.834Z</time></trkpt><trkpt lat="46.0000436" lon="13.3112794"><ele>69.0</ele><time>2026-04-19T10:45:46.835Z</time></trkpt><trkpt lat="46.0001821" lon="13.3112948"><ele>69.0</ele><time>2026-04-19T10:45:48.835Z</time></trkpt><trkpt lat="46.0002912" lon="13.311296"><ele>69.0</ele><time>2026-04-19T10:45:49.835Z</time></trkpt><trkpt lat="46.0004239" lon="13.3112989"><ele>69.0</ele><time>2026-04-19T10:45:50.835Z</time></trkpt><trkpt lat="46.0005713" lon="13.311312"><ele>69.0</ele><time>2026-04-19T10:45:51.834Z</time></trkpt><trkpt lat="46.0007263" lon="13.3113223"><ele>68.75</ele><time>2026-04-19T10:45:52.835Z</time></trkpt><trkpt lat="46.0008786" lon="13.3113386"><ele>68.5</ele><time>2026-04-19T10:45:53.835Z</time></trkpt><trkpt lat="46.0010372" lon="13.311345"><ele>68.25</ele><time>2026-04-19T10:45:54.834Z</time></trkpt><trkpt lat="46.0011733" lon="13.311345"><ele>68.0</ele><time>2026-04-19T10:45:55.834Z</time></trkpt><trkpt lat="46.0013048" lon="13.3113465"><ele>68.0</ele><time>2026-04-19T10:45:56.835Z</time></trkpt><trkpt lat="46.0014285" lon="13.3113716"><ele>68.0</ele><time>2026-04-19T10:45:57.835Z</time></trkpt><trkpt lat="46.0015394" lon="13.3114131"><ele>68.0</ele><time>2026-04-19T10:45:58.835Z</time></trkpt><trkpt lat="46.0016495" lon="13.311439"><ele>68.0</ele><time>2026-04-19T10:45:59.835Z</time></trkpt><trkpt lat="46.0017598" lon="13.3114422"><ele>68.5</ele><time>2026-04-19T10:46:00.835Z</time></trkpt><trkpt lat="46.0018677" lon="13.3114524"><ele>69.0</ele><time>2026-04-19T10:46:01.835Z</time></trkpt><trkpt lat="46.0019847" lon="13.311456"><ele>69.5</ele><time>2026-04-19T10:46:02.835Z</time></trkpt><trkpt lat="46.0021045" lon="13.3114542"><ele>70.0</ele><time>2026-04-19T10:46:03.835Z</time></trkpt><trkpt lat="46.0022141" lon="13.311461"><ele>70.0</ele><time>2026-04-19T10:46:04.835Z</time></trkpt><trkpt lat="46.0023203" lon="13.311468"><ele>70.0</ele><time>2026-04-19T10:46:05.835Z</time></trkpt><trkpt lat="46.002423" lon="13.3114775"><ele>70.0</ele><time>2026-04-19T10:46:06.835Z</time></trkpt><trkpt lat="46.0025265" lon="13.3114819"><ele>70.0</ele><time>2026-04-19T10:46:07.835Z</time></trkpt><trkpt lat="46.0026277" lon="13.3114859"><ele>70.0</ele><time>2026-04-19T10:46:08.835Z</time></trkpt><trkpt lat="46.0027216" lon="13.3114932"><ele>69.4</ele><time>2026-04-19T10:46:09.834Z</time></trkpt><trkpt lat="46.002818" lon="13.3114931"><ele>68.8</ele><time>2026-04-19T10:46:10.834Z</time></trkpt><trkpt lat="46.0029072" lon="13.3114954"><ele>68.2</ele><time>2026-04-19T10:46:11.835Z</time></trkpt><trkpt lat="46.0029949" lon="13.3114958"><ele>67.6</ele><time>2026-04-19T10:46:12.835Z</time></trkpt><trkpt lat="46.0030903" lon="13.311485"><ele>67.0</ele><time>2026-04-19T10:46:13.834Z</time></trkpt><trkpt lat="46.003181" lon="13.3114763"><ele>67.0</ele><time>2026-04-19T10:46:14.835Z</time></trkpt><trkpt lat="46.0032778" lon="13.3114699"><ele>67.0</ele><time>2026-04-19T10:46:15.834Z</time></trkpt><trkpt lat="46.0033675" lon="13.3114661"><ele>67.0</ele><time>2026-04-19T10:46:16.835Z</time></trkpt><trkpt lat="46.0034551" lon="13.3114623"><ele>67.0</ele><time>2026-04-19T10:46:17.835Z</time></trkpt><trkpt lat="46.0035449" lon="13.3114442"><ele>67.0</ele><time>2026-04-19T10:46:18.835Z</time></trkpt><trkpt lat="46.0036367" lon="13.3114237"><ele>67.0</ele><time>2026-04-19T10:46:19.835Z</time></trkpt><trkpt lat="46.0037354" lon="13.3114004"><ele>67.0</ele><time>2026-04-19T10:46:20.835Z</time></trkpt><trkpt lat="46.0038386" lon="13.3113798"><ele>67.0</ele><time>2026-04-19T10:46:21.835Z</time></trkpt><trkpt lat="46.0039463" lon="13.3113472"><ele>67.0</ele><time>2026-04-19T10:46:22.835Z</time></trkpt><trkpt lat="46.0040608" lon="13.3113059"><ele>67.0</ele><time>2026-04-19T10:46:23.835Z</time></trkpt><trkpt lat="46.0041801" lon="13.3112671"><ele>67.0</ele><time>2026-04-19T10:46:24.834Z</time></trkpt><trkpt lat="46.0042888" lon="13.3112253"><ele>67.0</ele><time>2026-04-19T10:46:25.834Z</time></trkpt><trkpt lat="46.0044024" lon="13.3111796"><ele>67.0</ele><time>2026-04-19T10:46:26.835Z</time></trkpt><trkpt lat="46.0045248" lon="13.3111239"><ele>67.0</ele><time>2026-04-19T10:46:27.835Z</time></trkpt><trkpt lat="46.004645" lon="13.3110694"><ele>67.0</ele><time>2026-04-19T10:46:28.835Z</time></trkpt><trkpt lat="46.0047586" lon="13.311017"><ele>67.0</ele><time>2026-04-19T10:46:29.835Z</time></trkpt><trkpt lat="46.0048724" lon="13.3109651"><ele>67.0</ele><time>2026-04-19T10:46:30.835Z</time></trkpt><trkpt lat="46.0049802" lon="13.310921"><ele>67.0</ele><time>2026-04-19T10:46:31.834Z</time></trkpt><trkpt lat="46.0050909" lon="13.3108796"><ele>67.4</ele><time>2026-04-19T10:46:32.835Z</time></trkpt><trkpt lat="46.0051919" lon="13.3108322"><ele>67.80000000000001</ele><time>2026-04-19T10:46:33.835Z</time></trkpt><trkpt lat="46.0052883" lon="13.3107942"><ele>68.2</ele><time>2026-04-19T10:46:34.835Z</time></trkpt><trkpt lat="46.0053864" lon="13.3107503"><ele>68.60000000000001</ele><time>2026-04-19T10:46:35.834Z</time></trkpt><trkpt lat="46.0054835" lon="13.3107081"><ele>69.0</ele><time>2026-04-19T10:46:36.834Z</time></trkpt><trkpt lat="46.0055849" lon="13.3106676"><ele>69.0</ele><time>2026-04-19T10:46:37.834Z</time></trkpt><trkpt lat="46.005694" lon="13.3106245"><ele>69.0</ele><time>2026-04-19T10:46:38.834Z</time></trkpt><trkpt lat="46.0058" lon="13.3105755"><ele>69.0</ele><time>2026-04-19T10:46:39.834Z</time></trkpt><trkpt lat="46.0059079" lon="13.3105313"><ele>69.0</ele><time>2026-04-19T10:46:40.835Z</time></trkpt><trkpt lat="46.0060144" lon="13.3104912"><ele>69.0</ele><time>2026-04-19T10:46:41.835Z</time></trkpt><trkpt lat="46.0061152" lon="13.3104494"><ele>68.83333333333333</ele><time>2026-04-19T10:46:42.835Z</time></trkpt><trkpt lat="46.0062074" lon="13.3104152"><ele>68.66666666666667</ele><time>2026-04-19T10:46:43.835Z</time></trkpt><trkpt lat="46.0062927" lon="13.3103778"><ele>68.5</ele><time>2026-04-19T10:46:44.835Z</time></trkpt><trkpt lat="46.0063788" lon="13.3103402"><ele>68.33333333333334</ele><time>2026-04-19T10:46:45.834Z</time></trkpt><trkpt lat="46.0064593" lon="13.3103077"><ele>68.16666666666667</ele><time>2026-04-19T10:46:46.834Z</time></trkpt><trkpt lat="46.0065465" lon="13.310272"><ele>68.0</ele><time>2026-04-19T10:46:47.835Z</time></trkpt><trkpt lat="46.006623" lon="13.310241"><ele>68.33333333333334</ele><time>2026-04-19T10:46:48.835Z</time></trkpt><trkpt lat="46.0066879" lon="13.3102148"><ele>68.66666666666667</ele><time>2026-04-19T10:46:49.835Z</time></trkpt><trkpt lat="46.006769" lon="13.3101754"><ele>69.0</ele><time>2026-04-19T10:46:51.834Z</time></trkpt><trkpt lat="46.0067658" lon="13.3100114"><ele>69.33333333333333</ele><time>2026-04-19T10:46:54.834Z</time></trkpt><trkpt lat="46.0067497" lon="13.3099083"><ele>69.66666666666666</ele><time>2026-04-19T10:46:55.834Z</time></trkpt><trkpt lat="46.0067276" lon="13.3098109"><ele>70.0</ele><time>2026-04-19T10:46:56.835Z</time></trkpt><trkpt lat="46.006729" lon="13.3096962"><ele>70.2</ele><time>2026-04-19T10:46:58.834Z</time></trkpt><trkpt lat="46.0068296" lon="13.309661"><ele>70.4</ele><time>2026-04-19T10:47:00.834Z</time></trkpt><trkpt lat="46.0069123" lon="13.3096608"><ele>70.6</ele><time>2026-04-19T10:47:01.834Z</time></trkpt><trkpt lat="46.0070172" lon="13.3096621"><ele>70.8</ele><time>2026-04-19T10:47:02.835Z</time></trkpt><trkpt lat="46.0071467" lon="13.3096673"><ele>71.0</ele><time>2026-04-19T10:47:03.834Z</time></trkpt><trkpt lat="46.0072944" lon="13.3096757"><ele>71.0</ele><time>2026-04-19T10:47:04.835Z</time></trkpt><trkpt lat="46.0074467" lon="13.3096628"><ele>71.0</ele><time>2026-04-19T10:47:05.835Z</time></trkpt><trkpt lat="46.0076099" lon="13.3096378"><ele>71.0</ele><time>2026-04-19T10:47:06.835Z</time></trkpt><trkpt lat="46.0077808" lon="13.3096034"><ele>71.0</ele><time>2026-04-19T10:47:07.834Z</time></trkpt><trkpt lat="46.0079369" lon="13.3095717"><ele>71.0</ele><time>2026-04-19T10:47:08.835Z</time></trkpt><trkpt lat="46.0080791" lon="13.3095279"><ele>71.0</ele><time>2026-04-19T10:47:09.835Z</time></trkpt><trkpt lat="46.0082143" lon="13.3094636"><ele>71.0</ele><time>2026-04-19T10:47:10.834Z</time></trkpt><trkpt lat="46.0083515" lon="13.3093828"><ele>71.0</ele><time>2026-04-19T10:47:11.835Z</time></trkpt><trkpt lat="46.0084921" lon="13.3092842"><ele>71.0</ele><time>2026-04-19T10:47:12.835Z</time></trkpt><trkpt lat="46.0086329" lon="13.3091972"><ele>71.0</ele><time>2026-04-19T10:47:13.835Z</time></trkpt><trkpt lat="46.0087624" lon="13.3091396"><ele>71.0</ele><time>2026-04-19T10:47:14.834Z</time></trkpt><trkpt lat="46.0088844" lon="13.3091131"><ele>71.0</ele><time>2026-04-19T10:47:15.835Z</time></trkpt><trkpt lat="46.0090018" lon="13.3091227"><ele>71.0</ele><time>2026-04-19T10:47:16.835Z</time></trkpt><trkpt lat="46.0091101" lon="13.3091557"><ele>71.0</ele><time>2026-04-19T10:47:17.834Z</time></trkpt><trkpt lat="46.0092213" lon="13.3091927"><ele>71.0</ele><time>2026-04-19T10:47:18.835Z</time></trkpt><trkpt lat="46.0093409" lon="13.3092184"><ele>71.0</ele><time>2026-04-19T10:47:19.834Z</time></trkpt><trkpt lat="46.0094675" lon="13.3092391"><ele>71.0</ele><time>2026-04-19T10:47:20.834Z</time></trkpt><trkpt lat="46.0096103" lon="13.3092632"><ele>71.0</ele><time>2026-04-19T10:47:21.835Z</time></trkpt><trkpt lat="46.0097695" lon="13.3092851"><ele>71.0</ele><time>2026-04-19T10:47:22.835Z</time></trkpt><trkpt lat="46.0099425" lon="13.3092994"><ele>70.66666666666667</ele><time>2026-04-19T10:47:23.834Z</time></trkpt><trkpt lat="46.0101251" lon="13.3093258"><ele>70.33333333333333</ele><time>2026-04-19T10:47:24.834Z</time></trkpt><trkpt lat="46.0103121" lon="13.3093476"><ele>70.0</ele><time>2026-04-19T10:47:25.834Z</time></trkpt><trkpt lat="46.010516" lon="13.309366"><ele>70.0</ele><time>2026-04-19T10:47:26.834Z</time></trkpt><trkpt lat="46.0107117" lon="13.3093808"><ele>70.0</ele><time>2026-04-19T10:47:27.834Z</time></trkpt><trkpt lat="46.0109239" lon="13.3093745"><ele>70.0</ele><time>2026-04-19T10:47:28.834Z</time></trkpt><trkpt lat="46.0111373" lon="13.3093583"><ele>71.5</ele><time>2026-04-19T10:47:29.834Z</time></trkpt><trkpt lat="46.0113871" lon="13.3093253"><ele>73.0</ele><time>2026-04-19T10:47:30.834Z</time></trkpt><trkpt lat="46.0116349" lon="13.309295"><ele>72.0</ele><time>2026-04-19T10:47:31.835Z</time></trkpt><trkpt lat="46.0119033" lon="13.3092578"><ele>71.0</ele><time>2026-04-19T10:47:32.834Z</time></trkpt><trkpt lat="46.0121809" lon="13.3092154"><ele>71.0</ele><time>2026-04-19T10:47:33.834Z</time></trkpt><trkpt lat="46.0124639" lon="13.3091778"><ele>71.0</ele><time>2026-04-19T10:47:34.834Z</time></trkpt><trkpt lat="46.0127553" lon="13.309163"><ele>71.0</ele><time>2026-04-19T10:47:35.834Z</time></trkpt><trkpt lat="46.0130426" lon="13.3091226"><ele>71.0</ele><time>2026-04-19T10:47:36.834Z</time></trkpt><trkpt lat="46.0133105" lon="13.3090912"><ele>71.5</ele><time>2026-04-19T10:47:37.835Z</time></trkpt><trkpt lat="46.0135514" lon="13.3090739"><ele>72.0</ele><time>2026-04-19T10:47:38.835Z</time></trkpt><trkpt lat="46.0138002" lon="13.3090366"><ele>72.0</ele><time>2026-04-19T10:47:39.835Z</time></trkpt><trkpt lat="46.0140419" lon="13.3089906"><ele>72.0</ele><time>2026-04-19T10:47:40.835Z</time></trkpt><trkpt lat="46.0142773" lon="13.3089296"><ele>72.0</ele><time>2026-04-19T10:47:41.835Z</time></trkpt><trkpt lat="46.0145019" lon="13.308855"><ele>72.0</ele><time>2026-04-19T10:47:42.835Z</time></trkpt><trkpt lat="46.0146959" lon="13.3087764"><ele>72.0</ele><time>2026-04-19T10:47:43.835Z</time></trkpt><trkpt lat="46.0148679" lon="13.3087103"><ele>71.33333333333333</ele><time>2026-04-19T10:47:44.834Z</time></trkpt><trkpt lat="46.0150325" lon="13.3086581"><ele>70.66666666666666</ele><time>2026-04-19T10:47:45.834Z</time></trkpt><trkpt lat="46.0152118" lon="13.3086164"><ele>70.0</ele><time>2026-04-19T10:47:46.834Z</time></trkpt><trkpt lat="46.0153967" lon="13.3086002"><ele>70.0</ele><time>2026-04-19T10:47:47.835Z</time></trkpt><trkpt lat="46.0155981" lon="13.3086091"><ele>70.0</ele><time>2026-04-19T10:47:48.835Z</time></trkpt><trkpt lat="46.0157891" lon="13.3086446"><ele>70.0</ele><time>2026-04-19T10:47:49.834Z</time></trkpt><trkpt lat="46.015968" lon="13.3086789"><ele>71.0</ele><time>2026-04-19T10:47:50.835Z</time></trkpt><trkpt lat="46.0161293" lon="13.3087016"><ele>72.0</ele><time>2026-04-19T10:47:51.835Z</time></trkpt><trkpt lat="46.0162757" lon="13.3087176"><ele>73.0</ele><time>2026-04-19T10:47:52.835Z</time></trkpt><trkpt lat="46.0164082" lon="13.3087264"><ele>74.0</ele><time>2026-04-19T10:47:53.835Z</time></trkpt><trkpt lat="46.0165308" lon="13.3087324"><ele>74.0</ele><time>2026-04-19T10:47:54.835Z</time></trkpt><trkpt lat="46.0166288" lon="13.3087365"><ele>74.0</ele><time>2026-04-19T10:47:55.835Z</time></trkpt><trkpt lat="46.0167089" lon="13.3087416"><ele>74.0</ele><time>2026-04-19T10:47:56.834Z</time></trkpt><trkpt lat="46.0167719" lon="13.3087565"><ele>74.0</ele><time>2026-04-19T10:47:57.834Z</time></trkpt><trkpt lat="46.016846" lon="13.3088359"><ele>74.0</ele><time>2026-04-19T10:47:59.835Z</time></trkpt><trkpt lat="46.0168577" lon="13.3090043"><ele>74.0</ele><time>2026-04-19T10:48:01.835Z</time></trkpt><trkpt lat="46.0168297" lon="13.3091235"><ele>74.0</ele><time>2026-04-19T10:48:02.835Z</time></trkpt><trkpt lat="46.0167809" lon="13.3092831"><ele>74.0</ele><time>2026-04-19T10:48:03.835Z</time></trkpt><trkpt lat="46.0167365" lon="13.3094483"><ele>74.0</ele><time>2026-04-19T10:48:04.835Z</time></trkpt><trkpt lat="46.0166954" lon="13.3095856"><ele>74.0</ele><time>2026-04-19T10:48:05.834Z</time></trkpt><trkpt lat="46.0166553" lon="13.3096802"><ele>73.85714285714286</ele><time>2026-04-19T10:48:06.835Z</time></trkpt><trkpt lat="46.0166043" lon="13.3097343"><ele>73.71428571428571</ele><time>2026-04-19T10:48:07.835Z</time></trkpt><trkpt lat="46.0165346" lon="13.3097592"><ele>73.57142857142857</ele><time>2026-04-19T10:48:08.835Z</time></trkpt><trkpt lat="46.0164588" lon="13.3097679"><ele>73.42857142857143</ele><time>2026-04-19T10:48:09.834Z</time></trkpt><trkpt lat="46.0163957" lon="13.3097924"><ele>73.28571428571429</ele><time>2026-04-19T10:48:10.835Z</time></trkpt><trkpt lat="46.0163425" lon="13.3098514"><ele>73.14285714285714</ele><time>2026-04-19T10:48:11.834Z</time></trkpt><trkpt lat="46.0163012" lon="13.3099575"><ele>73.0</ele><time>2026-04-19T10:48:12.835Z</time></trkpt><trkpt lat="46.0162735" lon="13.3100847"><ele>72.8</ele><time>2026-04-19T10:48:13.835Z</time></trkpt><trkpt lat="46.0162693" lon="13.3102067"><ele>72.6</ele><time>2026-04-19T10:48:14.834Z</time></trkpt><trkpt lat="46.016292" lon="13.3103125"><ele>72.4</ele><time>2026-04-19T10:48:15.835Z</time></trkpt><trkpt lat="46.016343" lon="13.3104228"><ele>72.2</ele><time>2026-04-19T10:48:16.834Z</time></trkpt><trkpt lat="46.0164102" lon="13.3105336"><ele>72.0</ele><time>2026-04-19T10:48:17.835Z</time></trkpt><trkpt lat="46.0164872" lon="13.310637"><ele>72.2</ele><time>2026-04-19T10:48:18.835Z</time></trkpt><trkpt lat="46.0165645" lon="13.310732"><ele>72.4</ele><time>2026-04-19T10:48:19.835Z</time></trkpt><trkpt lat="46.0166348" lon="13.3108077"><ele>72.6</ele><time>2026-04-19T10:48:20.835Z</time></trkpt><trkpt lat="46.0166986" lon="13.3108759"><ele>72.8</ele><time>2026-04-19T10:48:21.834Z</time></trkpt><trkpt lat="46.0167908" lon="13.3109177"><ele>73.0</ele><time>2026-04-19T10:48:22.835Z</time></trkpt><trkpt lat="46.0169022" lon="13.310933"><ele>73.0</ele><time>2026-04-19T10:48:23.835Z</time></trkpt><trkpt lat="46.0170249" lon="13.3109556"><ele>73.0</ele><time>2026-04-19T10:48:24.835Z</time></trkpt><trkpt lat="46.0171522" lon="13.310975"><ele>73.0</ele><time>2026-04-19T10:48:25.835Z</time></trkpt><trkpt lat="46.0172842" lon="13.3109848"><ele>73.0</ele><time>2026-04-19T10:48:26.835Z</time></trkpt><trkpt lat="46.0174197" lon="13.3110029"><ele>72.33333333333333</ele><time>2026-04-19T10:48:27.834Z</time></trkpt><trkpt lat="46.0175654" lon="13.3110264"><ele>71.66666666666667</ele><time>2026-04-19T10:48:28.835Z</time></trkpt><trkpt lat="46.0177221" lon="13.311062"><ele>71.0</ele><time>2026-04-19T10:48:29.835Z</time></trkpt><trkpt lat="46.0178758" lon="13.3111008"><ele>71.0</ele><time>2026-04-19T10:48:30.835Z</time></trkpt><trkpt lat="46.018041" lon="13.3111511"><ele>71.0</ele><time>2026-04-19T10:48:31.834Z</time></trkpt><trkpt lat="46.0182187" lon="13.3111855"><ele>71.0</ele><time>2026-04-19T10:48:32.835Z</time></trkpt><trkpt lat="46.0183895" lon="13.3112248"><ele>72.0</ele><time>2026-04-19T10:48:33.835Z</time></trkpt><trkpt lat="46.0185608" lon="13.3112622"><ele>73.0</ele><time>2026-04-19T10:48:34.835Z</time></trkpt><trkpt lat="46.0187263" lon="13.311287"><ele>74.0</ele><time>2026-04-19T10:48:35.834Z</time></trkpt><trkpt lat="46.0188763" lon="13.3113025"><ele>74.0</ele><time>2026-04-19T10:48:36.835Z</time></trkpt><trkpt lat="46.0190054" lon="13.3113324"><ele>74.0</ele><time>2026-04-19T10:48:37.834Z</time></trkpt><trkpt lat="46.0191066" lon="13.3113449"><ele>74.0</ele><time>2026-04-19T10:48:38.834Z</time></trkpt><trkpt lat="46.0191852" lon="13.311348"><ele>74.0</ele><time>2026-04-19T10:48:39.835Z</time></trkpt><trkpt lat="46.0192567" lon="13.3113325"><ele>74.0</ele><time>2026-04-19T10:48:40.834Z</time></trkpt><trkpt lat="46.0193443" lon="13.3112392"><ele>74.4</ele><time>2026-04-19T10:48:42.834Z</time></trkpt><trkpt lat="46.0194039" lon="13.3110884"><ele>74.80000000000001</ele><time>2026-04-19T10:48:44.834Z</time></trkpt><trkpt lat="46.0194859" lon="13.31101"><ele>75.19999999999999</ele><time>2026-04-19T10:48:46.834Z</time></trkpt><trkpt lat="46.0195578" lon="13.310986"><ele>75.6</ele><time>2026-04-19T10:48:47.835Z</time></trkpt><trkpt lat="46.0196455" lon="13.3109706"><ele>76.0</ele><time>2026-04-19T10:48:48.834Z</time></trkpt><trkpt lat="46.0197355" lon="13.3109391"><ele>76.0</ele><time>2026-04-19T10:48:49.835Z</time></trkpt><trkpt lat="46.0198162" lon="13.3109043"><ele>76.0</ele><time>2026-04-19T10:48:50.834Z</time></trkpt><trkpt lat="46.0198925" lon="13.3108695"><ele>76.0</ele><time>2026-04-19T10:48:51.834Z</time></trkpt><trkpt lat="46.0199806" lon="13.3108452"><ele>76.0</ele><time>2026-04-19T10:48:52.834Z</time></trkpt><trkpt lat="46.0200807" lon="13.3108381"><ele>76.0</ele><time>2026-04-19T10:48:53.834Z</time></trkpt><trkpt lat="46.0202156" lon="13.3108497"><ele>76.66666666666666</ele><time>2026-04-19T10:48:54.834Z</time></trkpt><trkpt lat="46.0203701" lon="13.3108795"><ele>77.33333333333333</ele><time>2026-04-19T10:48:55.835Z</time></trkpt><trkpt lat="46.0205502" lon="13.3109013"><ele>78.0</ele><time>2026-04-19T10:48:56.835Z</time></trkpt><trkpt lat="46.0207328" lon="13.3109253"><ele>77.33333333333333</ele><time>2026-04-19T10:48:57.835Z</time></trkpt><trkpt lat="46.0209312" lon="13.310949"><ele>76.66666666666666</ele><time>2026-04-19T10:48:58.835Z</time></trkpt><trkpt lat="46.0211318" lon="13.3109783"><ele>76.0</ele><time>2026-04-19T10:48:59.835Z</time></trkpt><trkpt lat="46.0213346" lon="13.3110025"><ele>76.0</ele><time>2026-04-19T10:49:00.835Z</time></trkpt><trkpt lat="46.0215314" lon="13.311021"><ele>76.0</ele><time>2026-04-19T10:49:01.834Z</time></trkpt><trkpt lat="46.0217218" lon="13.3110471"><ele>76.0</ele><time>2026-04-19T10:49:02.834Z</time></trkpt><trkpt lat="46.0218896" lon="13.311074"><ele>75.66666666666666</ele><time>2026-04-19T10:49:03.834Z</time></trkpt><trkpt lat="46.0220434" lon="13.3111097"><ele>75.33333333333333</ele><time>2026-04-19T10:49:04.834Z</time></trkpt><trkpt lat="46.0221915" lon="13.3111708"><ele>75.0</ele><time>2026-04-19T10:49:05.834Z</time></trkpt><trkpt lat="46.0223389" lon="13.3112452"><ele>75.0</ele><time>2026-04-19T10:49:06.834Z</time></trkpt><trkpt lat="46.0224801" lon="13.3113241"><ele>75.0</ele><time>2026-04-19T10:49:07.835Z</time></trkpt><trkpt lat="46.0226241" lon="13.3113814"><ele>75.0</ele><time>2026-04-19T10:49:08.835Z</time></trkpt><trkpt lat="46.0228052" lon="13.3114038"><ele>74.66666666666667</ele><time>2026-04-19T10:49:09.835Z</time></trkpt><trkpt lat="46.0229994" lon="13.3114077"><ele>74.33333333333334</ele><time>2026-04-19T10:49:10.835Z</time></trkpt><trkpt lat="46.0231985" lon="13.3113942"><ele>74.0</ele><time>2026-04-19T10:49:11.834Z</time></trkpt><trkpt lat="46.0234169" lon="13.3113713"><ele>75.33333333333334</ele><time>2026-04-19T10:49:12.835Z</time></trkpt><trkpt lat="46.0236228" lon="13.3113613"><ele>76.66666666666667</ele><time>2026-04-19T10:49:13.835Z</time></trkpt><trkpt lat="46.0238215" lon="13.3113687"><ele>78.0</ele><time>2026-04-19T10:49:14.835Z</time></trkpt><trkpt lat="46.0240407" lon="13.3113714"><ele>77.33333333333333</ele><time>2026-04-19T10:49:15.835Z</time></trkpt><trkpt lat="46.0242517" lon="13.3113744"><ele>76.66666666666666</ele><time>2026-04-19T10:49:16.835Z</time></trkpt><trkpt lat="46.0244655" lon="13.3113861"><ele>76.0</ele><time>2026-04-19T10:49:17.835Z</time></trkpt><trkpt lat="46.0246697" lon="13.3113952"><ele>76.0</ele><time>2026-04-19T10:49:18.834Z</time></trkpt><trkpt lat="46.0248737" lon="13.3114015"><ele>76.0</ele><time>2026-04-19T10:49:19.834Z</time></trkpt><trkpt lat="46.0250795" lon="13.3114002"><ele>76.0</ele><time>2026-04-19T10:49:20.835Z</time></trkpt><trkpt lat="46.0252762" lon="13.3113936"><ele>76.33333333333333</ele><time>2026-04-19T10:49:21.835Z</time></trkpt><trkpt lat="46.0254785" lon="13.3113875"><ele>76.66666666666667</ele><time>2026-04-19T10:49:22.835Z</time></trkpt><trkpt lat="46.0256824" lon="13.3113703"><ele>77.0</ele><time>2026-04-19T10:49:23.834Z</time></trkpt><trkpt lat="46.0258756" lon="13.3113465"><ele>77.33333333333334</ele><time>2026-04-19T10:49:24.834Z</time></trkpt><trkpt lat="46.0260488" lon="13.3113395"><ele>77.66666666666667</ele><time>2026-04-19T10:49:25.835Z</time></trkpt><trkpt lat="46.0262043" lon="13.3113477"><ele>78.0</ele><time>2026-04-19T10:49:26.835Z</time></trkpt><trkpt lat="46.0263477" lon="13.3113448"><ele>78.0</ele><time>2026-04-19T10:49:27.834Z</time></trkpt><trkpt lat="46.0264744" lon="13.3113321"><ele>78.0</ele><time>2026-04-19T10:49:28.834Z</time></trkpt><trkpt lat="46.026572" lon="13.3113308"><ele>78.0</ele><time>2026-04-19T10:49:29.834Z</time></trkpt><trkpt lat="46.0266407" lon="13.3113073"><ele>78.0</ele><time>2026-04-19T10:49:30.835Z</time></trkpt><trkpt lat="46.0267079" lon="13.3112051"><ele>78.0</ele><time>2026-04-19T10:49:32.835Z</time></trkpt><trkpt lat="46.0267359" lon="13.3111125"><ele>77.8</ele><time>2026-04-19T10:49:33.835Z</time></trkpt><trkpt lat="46.0267782" lon="13.3110085"><ele>77.6</ele><time>2026-04-19T10:49:34.834Z</time></trkpt><trkpt lat="46.026836" lon="13.3109184"><ele>77.4</ele><time>2026-04-19T10:49:35.835Z</time></trkpt><trkpt lat="46.0269144" lon="13.3108465"><ele>77.2</ele><time>2026-04-19T10:49:36.834Z</time></trkpt><trkpt lat="46.0270172" lon="13.3107756"><ele>77.0</ele><time>2026-04-19T10:49:37.835Z</time></trkpt><trkpt lat="46.0271431" lon="13.3106799"><ele>77.0</ele><time>2026-04-19T10:49:38.835Z</time></trkpt><trkpt lat="46.0272944" lon="13.3105694"><ele>77.0</ele><time>2026-04-19T10:49:39.835Z</time></trkpt><trkpt lat="46.0274554" lon="13.3104483"><ele>77.0</ele><time>2026-04-19T10:49:40.835Z</time></trkpt><trkpt lat="46.0276102" lon="13.3103366"><ele>77.0</ele><time>2026-04-19T10:49:41.834Z</time></trkpt><trkpt lat="46.0277637" lon="13.3102527"><ele>77.0</ele><time>2026-04-19T10:49:42.834Z</time></trkpt><trkpt lat="46.0279114" lon="13.3101975"><ele>77.0</ele><time>2026-04-19T10:49:43.835Z</time></trkpt><trkpt lat="46.0280519" lon="13.3101655"><ele>77.0</ele><time>2026-04-19T10:49:44.835Z</time></trkpt><trkpt lat="46.0281864" lon="13.3101311"><ele>77.0</ele><time>2026-04-19T10:49:45.835Z</time></trkpt><trkpt lat="46.0283256" lon="13.3100815"><ele>77.0</ele><time>2026-04-19T10:49:46.834Z</time></trkpt><trkpt lat="46.0284705" lon="13.3100517"><ele>77.0</ele><time>2026-04-19T10:49:47.834Z</time></trkpt><trkpt lat="46.0286437" lon="13.3100354"><ele>78.66666666666667</ele><time>2026-04-19T10:49:48.835Z</time></trkpt><trkpt lat="46.0288161" lon="13.3100498"><ele>80.33333333333333</ele><time>2026-04-19T10:49:49.835Z</time></trkpt><trkpt lat="46.0289706" lon="13.3100527"><ele>82.0</ele><time>2026-04-19T10:49:50.834Z</time></trkpt><trkpt lat="46.0291416" lon="13.3100219"><ele>82.0</ele><time>2026-04-19T10:49:51.835Z</time></trkpt><trkpt lat="46.0293129" lon="13.3099862"><ele>82.0</ele><time>2026-04-19T10:49:52.835Z</time></trkpt><trkpt lat="46.0294656" lon="13.3099543"><ele>82.0</ele><time>2026-04-19T10:49:53.834Z</time></trkpt><trkpt lat="46.0296032" lon="13.309925"><ele>82.0</ele><time>2026-04-19T10:49:54.835Z</time></trkpt><trkpt lat="46.0297327" lon="13.3098996"><ele>82.0</ele><time>2026-04-19T10:49:55.834Z</time></trkpt><trkpt lat="46.0298422" lon="13.3098787"><ele>82.0</ele><time>2026-04-19T10:49:56.835Z</time></trkpt><trkpt lat="46.0299337" lon="13.3098617"><ele>82.0</ele><time>2026-04-19T10:49:57.834Z</time></trkpt><trkpt lat="46.0300176" lon="13.309849"><ele>82.0</ele><time>2026-04-19T10:49:58.834Z</time></trkpt><trkpt lat="46.0301158" lon="13.3098412"><ele>82.0</ele><time>2026-04-19T10:50:00.835Z</time></trkpt><trkpt lat="46.0301782" lon="13.3098801"><ele>82.0</ele><time>2026-04-19T10:50:02.835Z</time></trkpt><trkpt lat="46.0302414" lon="13.309938"><ele>82.0</ele><time>2026-04-19T10:50:03.835Z</time></trkpt><trkpt lat="46.0303394" lon="13.3100071"><ele>82.0</ele><time>2026-04-19T10:50:04.835Z</time></trkpt><trkpt lat="46.0304665" lon="13.3100634"><ele>82.0</ele><time>2026-04-19T10:50:05.835Z</time></trkpt><trkpt lat="46.0306148" lon="13.3101308"><ele>82.0</ele><time>2026-04-19T10:50:06.835Z</time></trkpt><trkpt lat="46.0307936" lon="13.3101961"><ele>82.0</ele><time>2026-04-19T10:50:07.835Z</time></trkpt><trkpt lat="46.0309672" lon="13.3102645"><ele>82.0</ele><time>2026-04-19T10:50:08.835Z</time></trkpt><trkpt lat="46.031135" lon="13.3103314"><ele>81.66666666666666</ele><time>2026-04-19T10:50:09.835Z</time></trkpt><trkpt lat="46.0312953" lon="13.310397"><ele>81.33333333333333</ele><time>2026-04-19T10:50:10.835Z</time></trkpt><trkpt lat="46.03145" lon="13.3104608"><ele>81.0</ele><time>2026-04-19T10:50:11.835Z</time></trkpt><trkpt lat="46.031604" lon="13.310528"><ele>81.25</ele><time>2026-04-19T10:50:12.835Z</time></trkpt><trkpt lat="46.0317456" lon="13.3105937"><ele>81.5</ele><time>2026-04-19T10:50:13.835Z</time></trkpt><trkpt lat="46.0318888" lon="13.3106583"><ele>81.75</ele><time>2026-04-19T10:50:14.834Z</time></trkpt><trkpt lat="46.0320307" lon="13.3107149"><ele>82.0</ele><time>2026-04-19T10:50:15.834Z</time></trkpt><trkpt lat="46.0321715" lon="13.3107678"><ele>82.0</ele><time>2026-04-19T10:50:16.835Z</time></trkpt><trkpt lat="46.0323094" lon="13.3108233"><ele>82.0</ele><time>2026-04-19T10:50:17.835Z</time></trkpt><trkpt lat="46.0324407" lon="13.3108819"><ele>82.0</ele><time>2026-04-19T10:50:18.835Z</time></trkpt><trkpt lat="46.0325566" lon="13.3109325"><ele>82.0</ele><time>2026-04-19T10:50:19.835Z</time></trkpt><trkpt lat="46.0326553" lon="13.310967"><ele>82.39999999999999</ele><time>2026-04-19T10:50:20.835Z</time></trkpt><trkpt lat="46.0327522" lon="13.3109759"><ele>82.8</ele><time>2026-04-19T10:50:21.835Z</time></trkpt><trkpt lat="46.0328479" lon="13.3109801"><ele>83.2</ele><time>2026-04-19T10:50:22.835Z</time></trkpt><trkpt lat="46.0329327" lon="13.311011"><ele>83.6</ele><time>2026-04-19T10:50:23.834Z</time></trkpt><trkpt lat="46.0330271" lon="13.3110622"><ele>84.0</ele><time>2026-04-19T10:50:24.834Z</time></trkpt><trkpt lat="46.033131" lon="13.3111104"><ele>84.0</ele><time>2026-04-19T10:50:25.835Z</time></trkpt><trkpt lat="46.0332348" lon="13.3111583"><ele>84.0</ele><time>2026-04-19T10:50:26.835Z</time></trkpt><trkpt lat="46.0333397" lon="13.3111936"><ele>84.0</ele><time>2026-04-19T10:50:27.835Z</time></trkpt><trkpt lat="46.0334368" lon="13.311232"><ele>84.0</ele><time>2026-04-19T10:50:28.835Z</time></trkpt><trkpt lat="46.0335286" lon="13.3112567"><ele>84.0</ele><time>2026-04-19T10:50:29.834Z</time></trkpt><trkpt lat="46.0336203" lon="13.3112731"><ele>84.0</ele><time>2026-04-19T10:50:30.834Z</time></trkpt><trkpt lat="46.033732" lon="13.3112967"><ele>84.0</ele><time>2026-04-19T10:50:31.835Z</time></trkpt><trkpt lat="46.0338761" lon="13.3113433"><ele>84.0</ele><time>2026-04-19T10:50:32.834Z</time></trkpt><trkpt lat="46.0340458" lon="13.311406"><ele>84.0</ele><time>2026-04-19T10:50:33.835Z</time></trkpt><trkpt lat="46.034217" lon="13.3114776"><ele>84.0</ele><time>2026-04-19T10:50:34.834Z</time></trkpt><trkpt lat="46.0344046" lon="13.3115592"><ele>84.0</ele><time>2026-04-19T10:50:35.834Z</time></trkpt><trkpt lat="46.0345958" lon="13.31164"><ele>84.0</ele><time>2026-04-19T10:50:36.835Z</time></trkpt><trkpt lat="46.0347836" lon="13.3117183"><ele>84.0</ele><time>2026-04-19T10:50:37.834Z</time></trkpt><trkpt lat="46.0349575" lon="13.3117889"><ele>84.0</ele><time>2026-04-19T10:50:38.834Z</time></trkpt><trkpt lat="46.0351157" lon="13.3118635"><ele>84.0</ele><time>2026-04-19T10:50:39.835Z</time></trkpt><trkpt lat="46.0352667" lon="13.3119328"><ele>83.66666666666667</ele><time>2026-04-19T10:50:40.835Z</time></trkpt><trkpt lat="46.03542" lon="13.3119888"><ele>83.33333333333334</ele><time>2026-04-19T10:50:41.835Z</time></trkpt><trkpt lat="46.0355807" lon="13.3120393"><ele>83.0</ele><time>2026-04-19T10:50:42.835Z</time></trkpt><trkpt lat="46.0357407" lon="13.3120734"><ele>83.0</ele><time>2026-04-19T10:50:43.835Z</time></trkpt><trkpt lat="46.0358971" lon="13.3121009"><ele>83.0</ele><time>2026-04-19T10:50:44.834Z</time></trkpt><trkpt lat="46.0360539" lon="13.3121314"><ele>83.0</ele><time>2026-04-19T10:50:45.835Z</time></trkpt><trkpt lat="46.0362262" lon="13.3121273"><ele>83.0</ele><time>2026-04-19T10:50:46.834Z</time></trkpt><trkpt lat="46.0363984" lon="13.3121058"><ele>83.0</ele><time>2026-04-19T10:50:47.835Z</time></trkpt><trkpt lat="46.0365601" lon="13.3120919"><ele>83.0</ele><time>2026-04-19T10:50:48.835Z</time></trkpt><trkpt lat="46.0367172" lon="13.312062"><ele>83.66666666666667</ele><time>2026-04-19T10:50:49.835Z</time></trkpt><trkpt lat="46.0368843" lon="13.3119906"><ele>84.33333333333333</ele><time>2026-04-19T10:50:50.834Z</time></trkpt><trkpt lat="46.0370545" lon="13.3118999"><ele>85.0</ele><time>2026-04-19T10:50:51.834Z</time></trkpt><trkpt lat="46.0372377" lon="13.3117981"><ele>85.0</ele><time>2026-04-19T10:50:52.835Z</time></trkpt><trkpt lat="46.0374129" lon="13.3116998"><ele>85.0</ele><time>2026-04-19T10:50:53.835Z</time></trkpt><trkpt lat="46.0375902" lon="13.3116066"><ele>85.0</ele><time>2026-04-19T10:50:54.834Z</time></trkpt><trkpt lat="46.037776" lon="13.311506"><ele>84.66666666666666</ele><time>2026-04-19T10:50:55.835Z</time></trkpt><trkpt lat="46.0379541" lon="13.3114092"><ele>84.33333333333333</ele><time>2026-04-19T10:50:56.835Z</time></trkpt><trkpt lat="46.0381424" lon="13.3113161"><ele>84.0</ele><time>2026-04-19T10:50:57.835Z</time></trkpt><trkpt lat="46.0383266" lon="13.311213"><ele>83.66666666666667</ele><time>2026-04-19T10:50:58.835Z</time></trkpt><trkpt lat="46.0385154" lon="13.3111118"><ele>83.33333333333334</ele><time>2026-04-19T10:50:59.835Z</time></trkpt><trkpt lat="46.0386945" lon="13.3110113"><ele>83.0</ele><time>2026-04-19T10:51:00.835Z</time></trkpt><trkpt lat="46.0388765" lon="13.3109116"><ele>83.0</ele><time>2026-04-19T10:51:01.834Z</time></trkpt><trkpt lat="46.0390649" lon="13.3108069"><ele>83.0</ele><time>2026-04-19T10:51:02.835Z</time></trkpt><trkpt lat="46.0392527" lon="13.3107106"><ele>83.0</ele><time>2026-04-19T10:51:03.835Z</time></trkpt><trkpt lat="46.0394417" lon="13.3106172"><ele>83.33333333333334</ele><time>2026-04-19T10:51:04.835Z</time></trkpt><trkpt lat="46.0396269" lon="13.3105256"><ele>83.66666666666667</ele><time>2026-04-19T10:51:05.835Z</time></trkpt><trkpt lat="46.0398147" lon="13.3104353"><ele>84.0</ele><time>2026-04-19T10:51:06.835Z</time></trkpt><trkpt lat="46.04001" lon="13.3103382"><ele>85.0</ele><time>2026-04-19T10:51:07.835Z</time></trkpt><trkpt lat="46.040191" lon="13.3102415"><ele>86.0</ele><time>2026-04-19T10:51:08.835Z</time></trkpt><trkpt lat="46.0403516" lon="13.3101603"><ele>87.0</ele><time>2026-04-19T10:51:09.834Z</time></trkpt><trkpt lat="46.0404992" lon="13.3100919"><ele>87.0</ele><time>2026-04-19T10:51:10.834Z</time></trkpt><trkpt lat="46.0406248" lon="13.3100271"><ele>87.0</ele><time>2026-04-19T10:51:11.834Z</time></trkpt><trkpt lat="46.0407318" lon="13.3099666"><ele>87.0</ele><time>2026-04-19T10:51:12.834Z</time></trkpt><trkpt lat="46.0408306" lon="13.3099152"><ele>87.0</ele><time>2026-04-19T10:51:13.834Z</time></trkpt><trkpt lat="46.040898" lon="13.3098705"><ele>87.0</ele><time>2026-04-19T10:51:14.834Z</time></trkpt><trkpt lat="46.0409761" lon="13.3098006"><ele>87.19999999999999</ele><time>2026-04-19T10:51:16.834Z</time></trkpt><trkpt lat="46.0409964" lon="13.3096895"><ele>87.4</ele><time>2026-04-19T10:51:18.835Z</time></trkpt><trkpt lat="46.040988" lon="13.3095882"><ele>87.6</ele><time>2026-04-19T10:51:19.835Z</time></trkpt><trkpt lat="46.0409759" lon="13.309455"><ele>87.80000000000001</ele><time>2026-04-19T10:51:20.835Z</time></trkpt><trkpt lat="46.0409722" lon="13.309306"><ele>88.0</ele><time>2026-04-19T10:51:21.835Z</time></trkpt><trkpt lat="46.0409706" lon="13.3091447"><ele>88.0</ele><time>2026-04-19T10:51:22.835Z</time></trkpt><trkpt lat="46.0409756" lon="13.3089998"><ele>88.0</ele><time>2026-04-19T10:51:23.835Z</time></trkpt><trkpt lat="46.0409867" lon="13.3088803"><ele>88.0</ele><time>2026-04-19T10:51:24.835Z</time></trkpt><trkpt lat="46.0409986" lon="13.308781"><ele>88.0</ele><time>2026-04-19T10:51:25.835Z</time></trkpt><trkpt lat="46.0410415" lon="13.308692"><ele>88.0</ele><time>2026-04-19T10:51:27.834Z</time></trkpt><trkpt lat="46.0410697" lon="13.3085503"><ele>88.0</ele><time>2026-04-19T10:51:33.834Z</time></trkpt><trkpt lat="46.0411557" lon="13.3084455"><ele>88.25</ele><time>2026-04-19T10:51:35.834Z</time></trkpt><trkpt lat="46.0412337" lon="13.3084255"><ele>88.5</ele><time>2026-04-19T10:51:36.835Z</time></trkpt><trkpt lat="46.0413423" lon="13.3084294"><ele>88.75</ele><time>2026-04-19T10:51:37.834Z</time></trkpt><trkpt lat="46.0414765" lon="13.3084453"><ele>89.0</ele><time>2026-04-19T10:51:38.835Z</time></trkpt><trkpt lat="46.0416138" lon="13.3084399"><ele>88.75</ele><time>2026-04-19T10:51:39.834Z</time></trkpt><trkpt lat="46.0417329" lon="13.3083927"><ele>88.5</ele><time>2026-04-19T10:51:40.835Z</time></trkpt><trkpt lat="46.041846" lon="13.3083046"><ele>88.25</ele><time>2026-04-19T10:51:41.834Z</time></trkpt><trkpt lat="46.0419547" lon="13.3081728"><ele>88.0</ele><time>2026-04-19T10:51:42.834Z</time></trkpt><trkpt lat="46.0420664" lon="13.3080054"><ele>87.33333333333333</ele><time>2026-04-19T10:51:43.835Z</time></trkpt><trkpt lat="46.0421861" lon="13.3078139"><ele>86.66666666666667</ele><time>2026-04-19T10:51:44.835Z</time></trkpt><trkpt lat="46.0423137" lon="13.3076131"><ele>86.0</ele><time>2026-04-19T10:51:45.834Z</time></trkpt><trkpt lat="46.0424513" lon="13.3074153"><ele>87.0</ele><time>2026-04-19T10:51:46.835Z</time></trkpt><trkpt lat="46.0425924" lon="13.3072035"><ele>88.0</ele><time>2026-04-19T10:51:47.835Z</time></trkpt><trkpt lat="46.0427336" lon="13.3069833"><ele>89.0</ele><time>2026-04-19T10:51:48.834Z</time></trkpt><trkpt lat="46.0428745" lon="13.3067617"><ele>89.0</ele><time>2026-04-19T10:51:49.835Z</time></trkpt><trkpt lat="46.0430222" lon="13.306535"><ele>89.0</ele><time>2026-04-19T10:51:50.835Z</time></trkpt><trkpt lat="46.0431741" lon="13.3063042"><ele>89.0</ele><time>2026-04-19T10:51:51.835Z</time></trkpt><trkpt lat="46.0433148" lon="13.30609"><ele>89.0</ele><time>2026-04-19T10:51:52.835Z</time></trkpt><trkpt lat="46.043441" lon="13.3058994"><ele>89.0</ele><time>2026-04-19T10:51:53.835Z</time></trkpt><trkpt lat="46.0435646" lon="13.3057159"><ele>89.0</ele><time>2026-04-19T10:51:54.835Z</time></trkpt><trkpt lat="46.0436834" lon="13.3055331"><ele>89.0</ele><time>2026-04-19T10:51:55.835Z</time></trkpt><trkpt lat="46.0438083" lon="13.3053343"><ele>89.0</ele><time>2026-04-19T10:51:56.835Z</time></trkpt><trkpt lat="46.0439369" lon="13.3051296"><ele>89.0</ele><time>2026-04-19T10:51:57.835Z</time></trkpt><trkpt lat="46.0440688" lon="13.3049176"><ele>89.0</ele><time>2026-04-19T10:51:58.834Z</time></trkpt><trkpt lat="46.0441951" lon="13.3047205"><ele>89.0</ele><time>2026-04-19T10:51:59.835Z</time></trkpt><trkpt lat="46.044316" lon="13.3045392"><ele>89.0</ele><time>2026-04-19T10:52:00.835Z</time></trkpt><trkpt lat="46.0444291" lon="13.3043718"><ele>89.0</ele><time>2026-04-19T10:52:01.834Z</time></trkpt><trkpt lat="46.0445376" lon="13.3042079"><ele>89.0</ele><time>2026-04-19T10:52:02.835Z</time></trkpt><trkpt lat="46.0446324" lon="13.304058"><ele>89.0</ele><time>2026-04-19T10:52:03.834Z</time></trkpt><trkpt lat="46.044735" lon="13.303892"><ele>88.66666666666667</ele><time>2026-04-19T10:52:04.835Z</time></trkpt><trkpt lat="46.0448528" lon="13.3037231"><ele>88.33333333333333</ele><time>2026-04-19T10:52:05.834Z</time></trkpt><trkpt lat="46.0449682" lon="13.3035506"><ele>88.0</ele><time>2026-04-19T10:52:06.835Z</time></trkpt><trkpt lat="46.0450781" lon="13.3033818"><ele>88.0</ele><time>2026-04-19T10:52:07.834Z</time></trkpt><trkpt lat="46.0451838" lon="13.3032191"><ele>88.0</ele><time>2026-04-19T10:52:08.835Z</time></trkpt><trkpt lat="46.045288" lon="13.3030648"><ele>88.0</ele><time>2026-04-19T10:52:09.834Z</time></trkpt><trkpt lat="46.0453797" lon="13.3029223"><ele>88.0</ele><time>2026-04-19T10:52:10.835Z</time></trkpt><trkpt lat="46.0454776" lon="13.3027744"><ele>88.0</ele><time>2026-04-19T10:52:11.835Z</time></trkpt><trkpt lat="46.0455792" lon="13.3026199"><ele>88.0</ele><time>2026-04-19T10:52:12.835Z</time></trkpt><trkpt lat="46.0456913" lon="13.3024675"><ele>88.0</ele><time>2026-04-19T10:52:13.834Z</time></trkpt><trkpt lat="46.0457964" lon="13.3023111"><ele>88.80000000000001</ele><time>2026-04-19T10:52:14.834Z</time></trkpt><trkpt lat="46.0458904" lon="13.3021631"><ele>89.6</ele><time>2026-04-19T10:52:15.835Z</time></trkpt><trkpt lat="46.0459674" lon="13.3020333"><ele>90.4</ele><time>2026-04-19T10:52:16.835Z</time></trkpt><trkpt lat="46.046032" lon="13.3019196"><ele>91.19999999999999</ele><time>2026-04-19T10:52:17.834Z</time></trkpt><trkpt lat="46.0460773" lon="13.3018136"><ele>92.0</ele><time>2026-04-19T10:52:18.835Z</time></trkpt><trkpt lat="46.0460979" lon="13.3017088"><ele>92.0</ele><time>2026-04-19T10:52:19.834Z</time></trkpt><trkpt lat="46.0460982" lon="13.3016072"><ele>92.0</ele><time>2026-04-19T10:52:20.835Z</time></trkpt><trkpt lat="46.046113" lon="13.3015172"><ele>92.0</ele><time>2026-04-19T10:52:21.835Z</time></trkpt><trkpt lat="46.0462021" lon="13.3014225"><ele>92.0</ele><time>2026-04-19T10:52:23.835Z</time></trkpt><trkpt lat="46.0462838" lon="13.301408"><ele>92.0</ele><time>2026-04-19T10:52:24.835Z</time></trkpt><trkpt lat="46.0463768" lon="13.3013629"><ele>92.0</ele><time>2026-04-19T10:52:25.835Z</time></trkpt><trkpt lat="46.0464743" lon="13.3012746"><ele>91.66666666666667</ele><time>2026-04-19T10:52:26.835Z</time></trkpt><trkpt lat="46.0465698" lon="13.3011278"><ele>91.33333333333333</ele><time>2026-04-19T10:52:27.835Z</time></trkpt><trkpt lat="46.0466908" lon="13.3009253"><ele>91.0</ele><time>2026-04-19T10:52:28.835Z</time></trkpt><trkpt lat="46.0468148" lon="13.3007199"><ele>90.75</ele><time>2026-04-19T10:52:29.835Z</time></trkpt><trkpt lat="46.0469329" lon="13.3005458"><ele>90.5</ele><time>2026-04-19T10:52:30.834Z</time></trkpt><trkpt lat="46.0470385" lon="13.30039"><ele>90.25</ele><time>2026-04-19T10:52:31.834Z</time></trkpt><trkpt lat="46.0471193" lon="13.3002617"><ele>90.0</ele><time>2026-04-19T10:52:32.834Z</time></trkpt><trkpt lat="46.0471693" lon="13.3001321"><ele>90.0</ele><time>2026-04-19T10:52:33.834Z</time></trkpt><trkpt lat="46.0471962" lon="13.2999661"><ele>90.0</ele><time>2026-04-19T10:52:34.835Z</time></trkpt><trkpt lat="46.0472035" lon="13.2998023"><ele>90.0</ele><time>2026-04-19T10:52:35.835Z</time></trkpt><trkpt lat="46.0472198" lon="13.2996523"><ele>90.0</ele><time>2026-04-19T10:52:36.835Z</time></trkpt><trkpt lat="46.0472679" lon="13.2995024"><ele>90.0</ele><time>2026-04-19T10:52:37.835Z</time></trkpt><trkpt lat="46.0473423" lon="13.2993468"><ele>90.0</ele><time>2026-04-19T10:52:38.834Z</time></trkpt><trkpt lat="46.0474354" lon="13.2991783"><ele>90.0</ele><time>2026-04-19T10:52:39.835Z</time></trkpt><trkpt lat="46.0475352" lon="13.2990169"><ele>90.0</ele><time>2026-04-19T10:52:40.835Z</time></trkpt><trkpt lat="46.0476214" lon="13.2988697"><ele>90.75</ele><time>2026-04-19T10:52:41.834Z</time></trkpt><trkpt lat="46.0476856" lon="13.298745"><ele>91.5</ele><time>2026-04-19T10:52:42.835Z</time></trkpt><trkpt lat="46.0477298" lon="13.2986134"><ele>92.25</ele><time>2026-04-19T10:52:43.835Z</time></trkpt><trkpt lat="46.0477501" lon="13.2984502"><ele>93.0</ele><time>2026-04-19T10:52:44.834Z</time></trkpt><trkpt lat="46.0477583" lon="13.2982541"><ele>92.75</ele><time>2026-04-19T10:52:45.835Z</time></trkpt><trkpt lat="46.0477741" lon="13.298046"><ele>92.5</ele><time>2026-04-19T10:52:46.834Z</time></trkpt><trkpt lat="46.0477798" lon="13.297855"><ele>92.25</ele><time>2026-04-19T10:52:47.835Z</time></trkpt><trkpt lat="46.0477844" lon="13.2976855"><ele>92.0</ele><time>2026-04-19T10:52:48.835Z</time></trkpt><trkpt lat="46.0477979" lon="13.2975339"><ele>92.0</ele><time>2026-04-19T10:52:49.834Z</time></trkpt><trkpt lat="46.0478263" lon="13.2973987"><ele>92.0</ele><time>2026-04-19T10:52:50.835Z</time></trkpt><trkpt lat="46.0478771" lon="13.2972846"><ele>92.0</ele><time>2026-04-19T10:52:51.835Z</time></trkpt><trkpt lat="46.0479625" lon="13.2971864"><ele>92.0</ele><time>2026-04-19T10:52:52.835Z</time></trkpt><trkpt lat="46.0480707" lon="13.2970966"><ele>92.0</ele><time>2026-04-19T10:52:53.835Z</time></trkpt><trkpt lat="46.0482067" lon="13.2969941"><ele>92.66666666666667</ele><time>2026-04-19T10:52:54.834Z</time></trkpt><trkpt lat="46.0483659" lon="13.2968814"><ele>93.33333333333333</ele><time>2026-04-19T10:52:55.835Z</time></trkpt><trkpt lat="46.048542" lon="13.2967536"><ele>94.0</ele><time>2026-04-19T10:52:56.834Z</time></trkpt><trkpt lat="46.0487249" lon="13.2966094"><ele>94.0</ele><time>2026-04-19T10:52:57.835Z</time></trkpt><trkpt lat="46.0489121" lon="13.2964542"><ele>94.0</ele><time>2026-04-19T10:52:58.835Z</time></trkpt><trkpt lat="46.0490945" lon="13.2963036"><ele>94.0</ele><time>2026-04-19T10:52:59.834Z</time></trkpt><trkpt lat="46.0492605" lon="13.2961656"><ele>93.66666666666666</ele><time>2026-04-19T10:53:00.835Z</time></trkpt><trkpt lat="46.0494105" lon="13.296044"><ele>93.33333333333333</ele><time>2026-04-19T10:53:01.835Z</time></trkpt><trkpt lat="46.0495426" lon="13.2959335"><ele>93.0</ele><time>2026-04-19T10:53:02.834Z</time></trkpt><trkpt lat="46.0496779" lon="13.2958212"><ele>93.0</ele><time>2026-04-19T10:53:03.835Z</time></trkpt><trkpt lat="46.0498036" lon="13.2957123"><ele>93.0</ele><time>2026-04-19T10:53:04.835Z</time></trkpt><trkpt lat="46.0499163" lon="13.295621"><ele>93.0</ele><time>2026-04-19T10:53:05.834Z</time></trkpt><trkpt lat="46.050038" lon="13.2955362"><ele>93.0</ele><time>2026-04-19T10:53:06.834Z</time></trkpt><trkpt lat="46.0501571" lon="13.2954481"><ele>93.33333333333333</ele><time>2026-04-19T10:53:07.835Z</time></trkpt><trkpt lat="46.0502849" lon="13.295363"><ele>93.66666666666666</ele><time>2026-04-19T10:53:08.834Z</time></trkpt><trkpt lat="46.0504261" lon="13.2952689"><ele>94.0</ele><time>2026-04-19T10:53:09.835Z</time></trkpt><trkpt lat="46.050571" lon="13.2951636"><ele>94.0</ele><time>2026-04-19T10:53:10.835Z</time></trkpt><trkpt lat="46.0507302" lon="13.2950448"><ele>94.0</ele><time>2026-04-19T10:53:11.835Z</time></trkpt><trkpt lat="46.0508945" lon="13.2949145"><ele>94.0</ele><time>2026-04-19T10:53:12.835Z</time></trkpt><trkpt lat="46.0510588" lon="13.2947872"><ele>94.0</ele><time>2026-04-19T10:53:13.835Z</time></trkpt><trkpt lat="46.0512226" lon="13.2946599"><ele>94.0</ele><time>2026-04-19T10:53:14.834Z</time></trkpt><trkpt lat="46.0513987" lon="13.2945273"><ele>94.0</ele><time>2026-04-19T10:53:15.834Z</time></trkpt><trkpt lat="46.0515882" lon="13.2943914"><ele>94.5</ele><time>2026-04-19T10:53:16.835Z</time></trkpt><trkpt lat="46.0517895" lon="13.2942518"><ele>95.0</ele><time>2026-04-19T10:53:17.835Z</time></trkpt><trkpt lat="46.0519983" lon="13.2941075"><ele>95.0</ele><time>2026-04-19T10:53:18.835Z</time></trkpt><trkpt lat="46.0522092" lon="13.293974"><ele>95.0</ele><time>2026-04-19T10:53:19.834Z</time></trkpt><trkpt lat="46.0524187" lon="13.2938397"><ele>95.0</ele><time>2026-04-19T10:53:20.835Z</time></trkpt><trkpt lat="46.0526355" lon="13.2937012"><ele>95.0</ele><time>2026-04-19T10:53:21.835Z</time></trkpt><trkpt lat="46.0528493" lon="13.2935425"><ele>95.0</ele><time>2026-04-19T10:53:22.835Z</time></trkpt><trkpt lat="46.0530587" lon="13.2933663"><ele>95.0</ele><time>2026-04-19T10:53:23.835Z</time></trkpt><trkpt lat="46.0532834" lon="13.293181"><ele>94.5</ele><time>2026-04-19T10:53:24.834Z</time></trkpt><trkpt lat="46.0535102" lon="13.2929779"><ele>94.0</ele><time>2026-04-19T10:53:25.835Z</time></trkpt><trkpt lat="46.0537392" lon="13.2927668"><ele>94.0</ele><time>2026-04-19T10:53:26.835Z</time></trkpt><trkpt lat="46.0539507" lon="13.2925638"><ele>94.0</ele><time>2026-04-19T10:53:27.835Z</time></trkpt><trkpt lat="46.0541399" lon="13.2923813"><ele>94.66666666666666</ele><time>2026-04-19T10:53:28.835Z</time></trkpt><trkpt lat="46.0543223" lon="13.2922083"><ele>95.33333333333333</ele><time>2026-04-19T10:53:29.835Z</time></trkpt><trkpt lat="46.0544982" lon="13.2920506"><ele>96.0</ele><time>2026-04-19T10:53:30.835Z</time></trkpt><trkpt lat="46.0546718" lon="13.2918844"><ele>96.0</ele><time>2026-04-19T10:53:31.835Z</time></trkpt><trkpt lat="46.0548567" lon="13.2917199"><ele>96.0</ele><time>2026-04-19T10:53:32.834Z</time></trkpt><trkpt lat="46.0550351" lon="13.2915776"><ele>96.0</ele><time>2026-04-19T10:53:33.835Z</time></trkpt><trkpt lat="46.0552187" lon="13.291442"><ele>96.0</ele><time>2026-04-19T10:53:34.834Z</time></trkpt><trkpt lat="46.0554065" lon="13.2912971"><ele>96.0</ele><time>2026-04-19T10:53:35.834Z</time></trkpt><trkpt lat="46.0555855" lon="13.2911615"><ele>96.0</ele><time>2026-04-19T10:53:36.835Z</time></trkpt><trkpt lat="46.0557641" lon="13.2910359"><ele>96.0</ele><time>2026-04-19T10:53:37.835Z</time></trkpt><trkpt lat="46.055941" lon="13.290914"><ele>96.0</ele><time>2026-04-19T10:53:38.835Z</time></trkpt><trkpt lat="46.056121" lon="13.2908035"><ele>96.0</ele><time>2026-04-19T10:53:39.835Z</time></trkpt><trkpt lat="46.0562935" lon="13.2907016"><ele>96.0</ele><time>2026-04-19T10:53:40.835Z</time></trkpt><trkpt lat="46.0564586" lon="13.2906203"><ele>96.0</ele><time>2026-04-19T10:53:41.835Z</time></trkpt><trkpt lat="46.0566097" lon="13.2905487"><ele>96.0</ele><time>2026-04-19T10:53:42.834Z</time></trkpt><trkpt lat="46.0567467" lon="13.2904717"><ele>96.0</ele><time>2026-04-19T10:53:43.835Z</time></trkpt><trkpt lat="46.0568763" lon="13.2904036"><ele>96.0</ele><time>2026-04-19T10:53:44.835Z</time></trkpt><trkpt lat="46.0569976" lon="13.2903258"><ele>96.0</ele><time>2026-04-19T10:53:45.835Z</time></trkpt><trkpt lat="46.0571036" lon="13.2902373"><ele>96.0</ele><time>2026-04-19T10:53:46.834Z</time></trkpt><trkpt lat="46.0571991" lon="13.2901392"><ele>96.0</ele><time>2026-04-19T10:53:47.834Z</time></trkpt><trkpt lat="46.0572867" lon="13.2900263"><ele>96.0</ele><time>2026-04-19T10:53:48.834Z</time></trkpt><trkpt lat="46.057374" lon="13.2899172"><ele>96.0</ele><time>2026-04-19T10:53:49.833Z</time></trkpt><trkpt lat="46.0574559" lon="13.2898228"><ele>96.0</ele><time>2026-04-19T10:53:50.834Z</time></trkpt><trkpt lat="46.0575254" lon="13.28973"><ele>96.0</ele><time>2026-04-19T10:53:51.834Z</time></trkpt><trkpt lat="46.0575893" lon="13.2896442"><ele>96.0</ele><time>2026-04-19T10:53:52.833Z</time></trkpt><trkpt lat="46.0576479" lon="13.2895689"><ele>96.0</ele><time>2026-04-19T10:53:53.834Z</time></trkpt><trkpt lat="46.0577053" lon="13.2894965"><ele>96.0</ele><time>2026-04-19T10:53:54.833Z</time></trkpt><trkpt lat="46.0577684" lon="13.2894333"><ele>96.0</ele><time>2026-04-19T10:53:55.833Z</time></trkpt><trkpt lat="46.0578333" lon="13.2893689"><ele>96.0</ele><time>2026-04-19T10:53:56.834Z</time></trkpt><trkpt lat="46.0579096" lon="13.289318"><ele>96.0</ele><time>2026-04-19T10:53:57.833Z</time></trkpt><trkpt lat="46.0579838" lon="13.2892633"><ele>96.0</ele><time>2026-04-19T10:53:58.834Z</time></trkpt><trkpt lat="46.058058" lon="13.2891852"><ele>96.0</ele><time>2026-04-19T10:53:59.834Z</time></trkpt><trkpt lat="46.0581299" lon="13.2890834"><ele>96.0</ele><time>2026-04-19T10:54:00.834Z</time></trkpt><trkpt lat="46.0582082" lon="13.2889663"><ele>96.0</ele><time>2026-04-19T10:54:01.834Z</time></trkpt><trkpt lat="46.0582895" lon="13.2888491"><ele>96.0</ele><time>2026-04-19T10:54:02.833Z</time></trkpt><trkpt lat="46.0583758" lon="13.2887359"><ele>96.6</ele><time>2026-04-19T10:54:03.834Z</time></trkpt><trkpt lat="46.0584576" lon="13.2886337"><ele>97.19999999999999</ele><time>2026-04-19T10:54:04.833Z</time></trkpt><trkpt lat="46.0585414" lon="13.2885449"><ele>97.80000000000001</ele><time>2026-04-19T10:54:05.834Z</time></trkpt><trkpt lat="46.058619" lon="13.2884652"><ele>98.4</ele><time>2026-04-19T10:54:06.834Z</time></trkpt><trkpt lat="46.0586974" lon="13.2883841"><ele>99.0</ele><time>2026-04-19T10:54:07.833Z</time></trkpt><trkpt lat="46.0587867" lon="13.288299"><ele>99.0</ele><time>2026-04-19T10:54:08.834Z</time></trkpt><trkpt lat="46.0588838" lon="13.288236"><ele>99.0</ele><time>2026-04-19T10:54:09.833Z</time></trkpt><trkpt lat="46.0589938" lon="13.288191"><ele>99.0</ele><time>2026-04-19T10:54:10.833Z</time></trkpt><trkpt lat="46.0591123" lon="13.2881646"><ele>99.0</ele><time>2026-04-19T10:54:11.834Z</time></trkpt><trkpt lat="46.0592316" lon="13.2881471"><ele>99.0</ele><time>2026-04-19T10:54:12.834Z</time></trkpt><trkpt lat="46.0593492" lon="13.2881295"><ele>99.0</ele><time>2026-04-19T10:54:13.833Z</time></trkpt><trkpt lat="46.0594787" lon="13.2881007"><ele>99.0</ele><time>2026-04-19T10:54:14.833Z</time></trkpt><trkpt lat="46.0596084" lon="13.2880729"><ele>99.0</ele><time>2026-04-19T10:54:15.834Z</time></trkpt><trkpt lat="46.0597297" lon="13.288063"><ele>99.0</ele><time>2026-04-19T10:54:16.833Z</time></trkpt><trkpt lat="46.0598372" lon="13.2880553"><ele>99.0</ele><time>2026-04-19T10:54:17.834Z</time></trkpt><trkpt lat="46.0599478" lon="13.2880542"><ele>99.0</ele><time>2026-04-19T10:54:18.833Z</time></trkpt><trkpt lat="46.0600504" lon="13.2880536"><ele>99.0</ele><time>2026-04-19T10:54:19.834Z</time></trkpt><trkpt lat="46.0601355" lon="13.2880572"><ele>99.0</ele><time>2026-04-19T10:54:20.833Z</time></trkpt><trkpt lat="46.0602128" lon="13.2880617"><ele>99.0</ele><time>2026-04-19T10:54:21.833Z</time></trkpt><trkpt lat="46.0602858" lon="13.2880579"><ele>99.0</ele><time>2026-04-19T10:54:22.834Z</time></trkpt><trkpt lat="46.0603932" lon="13.2880336"><ele>99.0</ele><time>2026-04-19T10:54:24.834Z</time></trkpt><trkpt lat="46.0604637" lon="13.2880259"><ele>99.0</ele><time>2026-04-19T10:54:27.834Z</time></trkpt><trkpt lat="46.0605295" lon="13.2880249"><ele>99.0</ele><time>2026-04-19T10:54:29.834Z</time></trkpt><trkpt lat="46.0605926" lon="13.2880358"><ele>99.0</ele><time>2026-04-19T10:54:30.834Z</time></trkpt><trkpt lat="46.0606764" lon="13.2880528"><ele>99.0</ele><time>2026-04-19T10:54:31.834Z</time></trkpt><trkpt lat="46.0607733" lon="13.288065"><ele>99.0</ele><time>2026-04-19T10:54:32.834Z</time></trkpt><trkpt lat="46.0608703" lon="13.2880706"><ele>99.0</ele><time>2026-04-19T10:54:33.833Z</time></trkpt><trkpt lat="46.060967" lon="13.2880789"><ele>99.0</ele><time>2026-04-19T10:54:34.833Z</time></trkpt><trkpt lat="46.061046" lon="13.2880665"><ele>99.0</ele><time>2026-04-19T10:54:35.834Z</time></trkpt><trkpt lat="46.0611146" lon="13.2880471"><ele>99.0</ele><time>2026-04-19T10:54:36.834Z</time></trkpt><trkpt lat="46.0611746" lon="13.2880022"><ele>99.0</ele><time>2026-04-19T10:54:37.834Z</time></trkpt><trkpt lat="46.0612397" lon="13.2879484"><ele>99.0</ele><time>2026-04-19T10:54:38.834Z</time></trkpt><trkpt lat="46.0613096" lon="13.2878666"><ele>99.0</ele><time>2026-04-19T10:54:39.833Z</time></trkpt><trkpt lat="46.0613823" lon="13.2877639"><ele>99.0</ele><time>2026-04-19T10:54:40.834Z</time></trkpt><trkpt lat="46.0614573" lon="13.2876612"><ele>99.0</ele><time>2026-04-19T10:54:41.834Z</time></trkpt><trkpt lat="46.0615374" lon="13.2875695"><ele>99.0</ele><time>2026-04-19T10:54:42.834Z</time></trkpt><trkpt lat="46.0616152" lon="13.2874975"><ele>99.0</ele><time>2026-04-19T10:54:43.834Z</time></trkpt><trkpt lat="46.0616928" lon="13.2874513"><ele>99.0</ele><time>2026-04-19T10:54:44.834Z</time></trkpt><trkpt lat="46.0617812" lon="13.2874246"><ele>99.0</ele><time>2026-04-19T10:54:45.834Z</time></trkpt><trkpt lat="46.0618691" lon="13.2874251"><ele>99.0</ele><time>2026-04-19T10:54:46.834Z</time></trkpt><trkpt lat="46.0619726" lon="13.2874482"><ele>99.0</ele><time>2026-04-19T10:54:47.834Z</time></trkpt><trkpt lat="46.0620865" lon="13.2874653"><ele>99.0</ele><time>2026-04-19T10:54:48.834Z</time></trkpt><trkpt lat="46.0622138" lon="13.287493"><ele>99.0</ele><time>2026-04-19T10:54:49.834Z</time></trkpt><trkpt lat="46.0623386" lon="13.2875247"><ele>99.0</ele><time>2026-04-19T10:54:50.833Z</time></trkpt><trkpt lat="46.0624546" lon="13.2875548"><ele>99.0</ele><time>2026-04-19T10:54:51.833Z</time></trkpt><trkpt lat="46.0625531" lon="13.2875808"><ele>99.0</ele><time>2026-04-19T10:54:52.834Z</time></trkpt><trkpt lat="46.0626485" lon="13.2875923"><ele>99.0</ele><time>2026-04-19T10:54:53.834Z</time></trkpt><trkpt lat="46.0627392" lon="13.2875876"><ele>99.0</ele><time>2026-04-19T10:54:54.833Z</time></trkpt><trkpt lat="46.0628342" lon="13.2875708"><ele>99.0</ele><time>2026-04-19T10:54:55.834Z</time></trkpt><trkpt lat="46.0629278" lon="13.2875423"><ele>99.0</ele><time>2026-04-19T10:54:56.834Z</time></trkpt><trkpt lat="46.0630142" lon="13.2875206"><ele>99.0</ele><time>2026-04-19T10:54:57.833Z</time></trkpt><trkpt lat="46.0631068" lon="13.2875002"><ele>99.0</ele><time>2026-04-19T10:54:58.834Z</time></trkpt><trkpt lat="46.0631913" lon="13.2874833"><ele>99.0</ele><time>2026-04-19T10:54:59.834Z</time></trkpt><trkpt lat="46.0632626" lon="13.2874745"><ele>99.0</ele><time>2026-04-19T10:55:00.834Z</time></trkpt><trkpt lat="46.0633264" lon="13.2874659"><ele>99.0</ele><time>2026-04-19T10:55:01.834Z</time></trkpt><trkpt lat="46.0634484" lon="13.2874604"><ele>99.16666666666667</ele><time>2026-04-19T10:55:03.834Z</time></trkpt><trkpt lat="46.0635286" lon="13.2874711"><ele>99.33333333333334</ele><time>2026-04-19T10:55:05.834Z</time></trkpt><trkpt lat="46.0636107" lon="13.2874414"><ele>99.5</ele><time>2026-04-19T10:55:08.834Z</time></trkpt><trkpt lat="46.0636913" lon="13.287448"><ele>99.66666666666667</ele><time>2026-04-19T10:55:12.834Z</time></trkpt><trkpt lat="46.0637751" lon="13.287462"><ele>99.83333333333334</ele><time>2026-04-19T10:55:15.833Z</time></trkpt><trkpt lat="46.0638635" lon="13.2874509"><ele>100.0</ele><time>2026-04-19T10:55:17.833Z</time></trkpt><trkpt lat="46.0639504" lon="13.2874502"><ele>100.00000000000001</ele><time>2026-04-19T10:55:19.833Z</time></trkpt><trkpt lat="46.0640294" lon="13.2874284"><ele>100.0</ele><time>2026-04-19T10:55:21.834Z</time></trkpt><trkpt lat="46.0641109" lon="13.2874104"><ele>100.0</ele><time>2026-04-19T10:55:23.834Z</time></trkpt><trkpt lat="46.064194" lon="13.2873935"><ele>100.0</ele><time>2026-04-19T10:55:25.834Z</time></trkpt><trkpt lat="46.0642938" lon="13.2873742"><ele>100.00000000000001</ele><time>2026-04-19T10:55:27.834Z</time></trkpt><trkpt lat="46.0643912" lon="13.2873532"><ele>100.0</ele><time>2026-04-19T10:55:29.833Z</time></trkpt><trkpt lat="46.0644986" lon="13.2873378"><ele>100.16666666666667</ele><time>2026-04-19T10:55:31.834Z</time></trkpt><trkpt lat="46.0645617" lon="13.2873239"><ele>100.33333333333334</ele><time>2026-04-19T10:55:32.834Z</time></trkpt><trkpt lat="46.0646876" lon="13.2873006"><ele>100.5</ele><time>2026-04-19T10:55:34.833Z</time></trkpt><trkpt lat="46.0647535" lon="13.2872891"><ele>100.66666666666666</ele><time>2026-04-19T10:55:35.834Z</time></trkpt><trkpt lat="46.0648727" lon="13.2872714"><ele>100.83333333333333</ele><time>2026-04-19T10:55:37.834Z</time></trkpt><trkpt lat="46.0649383" lon="13.2872635"><ele>101.0</ele><time>2026-04-19T10:55:38.834Z</time></trkpt><trkpt lat="46.0650036" lon="13.2872584"><ele>100.99999999999999</ele><time>2026-04-19T10:55:39.834Z</time></trkpt><trkpt lat="46.0650675" lon="13.2872614"><ele>101.0</ele><time>2026-04-19T10:55:40.834Z</time></trkpt><trkpt lat="46.0651874" lon="13.2872694"><ele>101.0</ele><time>2026-04-19T10:55:42.834Z</time></trkpt><trkpt lat="46.0652724" lon="13.2872491"><ele>101.0</ele><time>2026-04-19T10:55:44.834Z</time></trkpt><trkpt lat="46.0653733" lon="13.2872165"><ele>100.99999999999999</ele><time>2026-04-19T10:55:46.834Z</time></trkpt><trkpt lat="46.0654403" lon="13.2871794"><ele>101.0</ele><time>2026-04-19T10:55:47.834Z</time></trkpt><trkpt lat="46.0655186" lon="13.2871236"><ele>101.0</ele><time>2026-04-19T10:55:48.834Z</time></trkpt><trkpt lat="46.0656098" lon="13.287055"><ele>101.0</ele><time>2026-04-19T10:55:49.834Z</time></trkpt><trkpt lat="46.0657223" lon="13.2870067"><ele>101.0</ele><time>2026-04-19T10:55:50.834Z</time></trkpt><trkpt lat="46.0658409" lon="13.2869749"><ele>101.0</ele><time>2026-04-19T10:55:51.834Z</time></trkpt><trkpt lat="46.0659689" lon="13.2869575"><ele>101.5</ele><time>2026-04-19T10:55:52.834Z</time></trkpt><trkpt lat="46.0661022" lon="13.2869561"><ele>102.0</ele><time>2026-04-19T10:55:53.834Z</time></trkpt><trkpt lat="46.0662371" lon="13.286975"><ele>102.5</ele><time>2026-04-19T10:55:54.833Z</time></trkpt><trkpt lat="46.0663705" lon="13.287001"><ele>103.0</ele><time>2026-04-19T10:55:55.833Z</time></trkpt><trkpt lat="46.0664967" lon="13.2870144"><ele>103.5</ele><time>2026-04-19T10:55:56.834Z</time></trkpt><trkpt lat="46.066623" lon="13.2870055"><ele>104.0</ele><time>2026-04-19T10:55:57.834Z</time></trkpt><trkpt lat="46.0667512" lon="13.2869833"><ele>104.5</ele><time>2026-04-19T10:55:58.834Z</time></trkpt><trkpt lat="46.0668798" lon="13.2869649"><ele>105.0</ele><time>2026-04-19T10:55:59.834Z</time></trkpt><trkpt lat="46.0670054" lon="13.2869592"><ele>105.0</ele><time>2026-04-19T10:56:00.834Z</time></trkpt><trkpt lat="46.0671287" lon="13.2869608"><ele>105.0</ele><time>2026-04-19T10:56:01.834Z</time></trkpt><trkpt lat="46.0672444" lon="13.2869695"><ele>105.0</ele><time>2026-04-19T10:56:02.834Z</time></trkpt><trkpt lat="46.0673613" lon="13.2869714"><ele>105.0</ele><time>2026-04-19T10:56:03.834Z</time></trkpt><trkpt lat="46.067475" lon="13.2869716"><ele>104.75</ele><time>2026-04-19T10:56:04.833Z</time></trkpt><trkpt lat="46.0675895" lon="13.2869419"><ele>104.5</ele><time>2026-04-19T10:56:05.833Z</time></trkpt><trkpt lat="46.0677028" lon="13.2868915"><ele>104.25</ele><time>2026-04-19T10:56:06.833Z</time></trkpt><trkpt lat="46.0678133" lon="13.2868258"><ele>104.0</ele><time>2026-04-19T10:56:07.834Z</time></trkpt><trkpt lat="46.0679309" lon="13.28676"><ele>104.0</ele><time>2026-04-19T10:56:08.834Z</time></trkpt><trkpt lat="46.0680461" lon="13.286703"><ele>104.0</ele><time>2026-04-19T10:56:09.833Z</time></trkpt><trkpt lat="46.0681619" lon="13.2866545"><ele>104.0</ele><time>2026-04-19T10:56:10.834Z</time></trkpt><trkpt lat="46.0682818" lon="13.2866205"><ele>104.0</ele><time>2026-04-19T10:56:11.834Z</time></trkpt><trkpt lat="46.0684079" lon="13.2865955"><ele>104.0</ele><time>2026-04-19T10:56:12.834Z</time></trkpt><trkpt lat="46.0685395" lon="13.2865741"><ele>104.0</ele><time>2026-04-19T10:56:13.834Z</time></trkpt><trkpt lat="46.0686606" lon="13.2865513"><ele>104.0</ele><time>2026-04-19T10:56:14.833Z</time></trkpt><trkpt lat="46.0687654" lon="13.2865324"><ele>104.0</ele><time>2026-04-19T10:56:15.834Z</time></trkpt><trkpt lat="46.0688616" lon="13.2865093"><ele>103.99999999999999</ele><time>2026-04-19T10:56:16.833Z</time></trkpt><trkpt lat="46.0689436" lon="13.2864879"><ele>104.0</ele><time>2026-04-19T10:56:17.833Z</time></trkpt><trkpt lat="46.0690148" lon="13.2864654"><ele>104.0</ele><time>2026-04-19T10:56:18.834Z</time></trkpt><trkpt lat="46.0690853" lon="13.2864391"><ele>104.0</ele><time>2026-04-19T10:56:19.834Z</time></trkpt><trkpt lat="46.0691487" lon="13.2863965"><ele>103.99999999999999</ele><time>2026-04-19T10:56:20.833Z</time></trkpt><trkpt lat="46.0692165" lon="13.2862964"><ele>104.0</ele><time>2026-04-19T10:56:22.834Z</time></trkpt><trkpt lat="46.069222" lon="13.2861901"><ele>104.2</ele><time>2026-04-19T10:56:24.834Z</time></trkpt><trkpt lat="46.0691849" lon="13.2860264"><ele>104.4</ele><time>2026-04-19T10:56:32.833Z</time></trkpt><trkpt lat="46.0691563" lon="13.2859067"><ele>104.6</ele><time>2026-04-19T10:56:34.834Z</time></trkpt><trkpt lat="46.0691454" lon="13.2857822"><ele>104.8</ele><time>2026-04-19T10:56:45.834Z</time></trkpt><trkpt lat="46.0691522" lon="13.2858886"><ele>105.0</ele><time>2026-04-19T10:56:56.834Z</time></trkpt><trkpt lat="46.0691884" lon="13.2860571"><ele>105.0</ele><time>2026-04-19T10:56:58.833Z</time></trkpt><trkpt lat="46.0692081" lon="13.2861456"><ele>105.0</ele><time>2026-04-19T10:56:59.833Z</time></trkpt><trkpt lat="46.0692329" lon="13.2863343"><ele>105.0</ele><time>2026-04-19T10:57:01.834Z</time></trkpt><trkpt lat="46.0692537" lon="13.2864509"><ele>105.0</ele><time>2026-04-19T10:57:02.833Z</time></trkpt><trkpt lat="46.0692717" lon="13.2865817"><ele>105.0</ele><time>2026-04-19T10:57:03.833Z</time></trkpt><trkpt lat="46.0692944" lon="13.2867202"><ele>105.0</ele><time>2026-04-19T10:57:04.833Z</time></trkpt><trkpt lat="46.0693232" lon="13.2868788"><ele>105.0</ele><time>2026-04-19T10:57:05.834Z</time></trkpt><trkpt lat="46.0693547" lon="13.2870524"><ele>105.0</ele><time>2026-04-19T10:57:06.834Z</time></trkpt><trkpt lat="46.0693823" lon="13.2872442"><ele>105.0</ele><time>2026-04-19T10:57:07.834Z</time></trkpt><trkpt lat="46.069402" lon="13.287449"><ele>104.5</ele><time>2026-04-19T10:57:08.833Z</time></trkpt><trkpt lat="46.069425" lon="13.2876511"><ele>104.0</ele><time>2026-04-19T10:57:09.834Z</time></trkpt><trkpt lat="46.0694487" lon="13.287849"><ele>103.5</ele><time>2026-04-19T10:57:10.834Z</time></trkpt><trkpt lat="46.0694702" lon="13.2880477"><ele>103.0</ele><time>2026-04-19T10:57:11.834Z</time></trkpt><trkpt lat="46.0694961" lon="13.2882376"><ele>102.80000000000001</ele><time>2026-04-19T10:57:12.833Z</time></trkpt><trkpt lat="46.0695225" lon="13.2884114"><ele>102.6</ele><time>2026-04-19T10:57:13.833Z</time></trkpt><trkpt lat="46.0695432" lon="13.2885724"><ele>102.4</ele><time>2026-04-19T10:57:14.834Z</time></trkpt><trkpt lat="46.0695428" lon="13.2887161"><ele>102.19999999999999</ele><time>2026-04-19T10:57:15.833Z</time></trkpt><trkpt lat="46.0695365" lon="13.2888662"><ele>102.0</ele><time>2026-04-19T10:57:16.834Z</time></trkpt><trkpt lat="46.06952" lon="13.289026"><ele>102.39999999999999</ele><time>2026-04-19T10:57:17.834Z</time></trkpt><trkpt lat="46.0695012" lon="13.2891807"><ele>102.8</ele><time>2026-04-19T10:57:18.834Z</time></trkpt><trkpt lat="46.0695005" lon="13.2893281"><ele>103.2</ele><time>2026-04-19T10:57:19.834Z</time></trkpt><trkpt lat="46.0695161" lon="13.2894866"><ele>103.6</ele><time>2026-04-19T10:57:20.834Z</time></trkpt><trkpt lat="46.0695386" lon="13.2896458"><ele>104.0</ele><time>2026-04-19T10:57:21.834Z</time></trkpt><trkpt lat="46.0695573" lon="13.2898125"><ele>104.0</ele><time>2026-04-19T10:57:22.834Z</time></trkpt><trkpt lat="46.069573" lon="13.2899739"><ele>104.0</ele><time>2026-04-19T10:57:23.834Z</time></trkpt><trkpt lat="46.0695793" lon="13.2901176"><ele>104.0</ele><time>2026-04-19T10:57:24.834Z</time></trkpt><trkpt lat="46.0695896" lon="13.290241"><ele>104.0</ele><time>2026-04-19T10:57:25.834Z</time></trkpt><trkpt lat="46.069591" lon="13.2903409"><ele>104.0</ele><time>2026-04-19T10:57:26.834Z</time></trkpt><trkpt lat="46.0696176" lon="13.2904597"><ele>104.0</ele><time>2026-04-19T10:57:28.834Z</time></trkpt><trkpt lat="46.0697134" lon="13.2904818"><ele>104.0</ele><time>2026-04-19T10:57:30.834Z</time></trkpt><trkpt lat="46.0697901" lon="13.2904829"><ele>104.0</ele><time>2026-04-19T10:57:31.833Z</time></trkpt><trkpt lat="46.0698879" lon="13.2904884"><ele>104.0</ele><time>2026-04-19T10:57:32.833Z</time></trkpt><trkpt lat="46.0700047" lon="13.2904855"><ele>104.0</ele><time>2026-04-19T10:57:33.834Z</time></trkpt><trkpt lat="46.0701376" lon="13.290471"><ele>103.66666666666666</ele><time>2026-04-19T10:57:34.834Z</time></trkpt><trkpt lat="46.0702742" lon="13.2904535"><ele>103.33333333333334</ele><time>2026-04-19T10:57:35.834Z</time></trkpt><trkpt lat="46.0704268" lon="13.290426"><ele>103.0</ele><time>2026-04-19T10:57:36.834Z</time></trkpt><trkpt lat="46.0705886" lon="13.29039"><ele>103.0</ele><time>2026-04-19T10:57:37.834Z</time></trkpt><trkpt lat="46.0707631" lon="13.2903504"><ele>103.0</ele><time>2026-04-19T10:57:38.833Z</time></trkpt><trkpt lat="46.0709419" lon="13.2903074"><ele>103.0</ele><time>2026-04-19T10:57:39.834Z</time></trkpt><trkpt lat="46.0711251" lon="13.2902577"><ele>103.33333333333334</ele><time>2026-04-19T10:57:40.834Z</time></trkpt><trkpt lat="46.0713065" lon="13.2902159"><ele>103.66666666666666</ele><time>2026-04-19T10:57:41.833Z</time></trkpt><trkpt lat="46.0714943" lon="13.2901755"><ele>104.0</ele><time>2026-04-19T10:57:42.834Z</time></trkpt><trkpt lat="46.0716817" lon="13.2901353"><ele>104.33333333333333</ele><time>2026-04-19T10:57:43.834Z</time></trkpt><trkpt lat="46.0718742" lon="13.2900868"><ele>104.66666666666666</ele><time>2026-04-19T10:57:44.834Z</time></trkpt><trkpt lat="46.0720693" lon="13.2900439"><ele>105.0</ele><time>2026-04-19T10:57:45.833Z</time></trkpt><trkpt lat="46.0722612" lon="13.2899966"><ele>105.0</ele><time>2026-04-19T10:57:46.834Z</time></trkpt><trkpt lat="46.0724447" lon="13.2899524"><ele>105.0</ele><time>2026-04-19T10:57:47.833Z</time></trkpt><trkpt lat="46.0726287" lon="13.2899028"><ele>105.0</ele><time>2026-04-19T10:57:48.833Z</time></trkpt><trkpt lat="46.0728134" lon="13.2898565"><ele>105.0</ele><time>2026-04-19T10:57:49.834Z</time></trkpt><trkpt lat="46.0729902" lon="13.2898208"><ele>105.0</ele><time>2026-04-19T10:57:50.834Z</time></trkpt><trkpt lat="46.0731555" lon="13.2897874"><ele>105.0</ele><time>2026-04-19T10:57:51.834Z</time></trkpt><trkpt lat="46.0733089" lon="13.2897454"><ele>105.75</ele><time>2026-04-19T10:57:52.834Z</time></trkpt><trkpt lat="46.0734497" lon="13.2897034"><ele>106.5</ele><time>2026-04-19T10:57:53.834Z</time></trkpt><trkpt lat="46.0735908" lon="13.2896694"><ele>107.25</ele><time>2026-04-19T10:57:54.833Z</time></trkpt><trkpt lat="46.0737287" lon="13.2896382"><ele>108.0</ele><time>2026-04-19T10:57:55.834Z</time></trkpt><trkpt lat="46.0738712" lon="13.2896046"><ele>108.0</ele><time>2026-04-19T10:57:56.833Z</time></trkpt><trkpt lat="46.0740148" lon="13.2895712"><ele>108.0</ele><time>2026-04-19T10:57:57.833Z</time></trkpt><trkpt lat="46.0741643" lon="13.2895411"><ele>108.0</ele><time>2026-04-19T10:57:58.833Z</time></trkpt><trkpt lat="46.0743149" lon="13.2894996"><ele>108.33333333333334</ele><time>2026-04-19T10:57:59.833Z</time></trkpt><trkpt lat="46.0744667" lon="13.289463"><ele>108.66666666666667</ele><time>2026-04-19T10:58:00.834Z</time></trkpt><trkpt lat="46.0746216" lon="13.2894262"><ele>109.0</ele><time>2026-04-19T10:58:01.834Z</time></trkpt><trkpt lat="46.0747752" lon="13.289384"><ele>109.0</ele><time>2026-04-19T10:58:02.834Z</time></trkpt><trkpt lat="46.0749318" lon="13.2893428"><ele>109.0</ele><time>2026-04-19T10:58:03.834Z</time></trkpt><trkpt lat="46.075084" lon="13.2893104"><ele>109.0</ele><time>2026-04-19T10:58:04.834Z</time></trkpt><trkpt lat="46.0752505" lon="13.2892679"><ele>109.33333333333334</ele><time>2026-04-19T10:58:05.834Z</time></trkpt><trkpt lat="46.075413" lon="13.289224"><ele>109.66666666666666</ele><time>2026-04-19T10:58:06.833Z</time></trkpt><trkpt lat="46.0755672" lon="13.2891808"><ele>110.0</ele><time>2026-04-19T10:58:07.833Z</time></trkpt><trkpt lat="46.0757111" lon="13.2891468"><ele>110.0</ele><time>2026-04-19T10:58:08.833Z</time></trkpt><trkpt lat="46.0758424" lon="13.2891155"><ele>110.0</ele><time>2026-04-19T10:58:09.834Z</time></trkpt><trkpt lat="46.0759654" lon="13.2890862"><ele>110.0</ele><time>2026-04-19T10:58:10.834Z</time></trkpt><trkpt lat="46.0760634" lon="13.2890637"><ele>110.0</ele><time>2026-04-19T10:58:11.833Z</time></trkpt><trkpt lat="46.0761337" lon="13.2890458"><ele>110.0</ele><time>2026-04-19T10:58:12.834Z</time></trkpt><trkpt lat="46.0762182" lon="13.2889615"><ele>109.66666666666666</ele><time>2026-04-19T10:58:14.833Z</time></trkpt><trkpt lat="46.0762395" lon="13.2888198"><ele>109.33333333333333</ele><time>2026-04-19T10:58:16.834Z</time></trkpt><trkpt lat="46.076237" lon="13.2887284"><ele>109.0</ele><time>2026-04-19T10:58:17.834Z</time></trkpt><trkpt lat="46.0762337" lon="13.2886136"><ele>108.66666666666666</ele><time>2026-04-19T10:58:18.834Z</time></trkpt><trkpt lat="46.0762231" lon="13.2884716"><ele>108.33333333333333</ele><time>2026-04-19T10:58:19.834Z</time></trkpt><trkpt lat="46.0762111" lon="13.2883301"><ele>108.0</ele><time>2026-04-19T10:58:20.834Z</time></trkpt><trkpt lat="46.0761984" lon="13.288176"><ele>108.4</ele><time>2026-04-19T10:58:21.834Z</time></trkpt><trkpt lat="46.0761787" lon="13.2880092"><ele>108.80000000000001</ele><time>2026-04-19T10:58:22.833Z</time></trkpt><trkpt lat="46.0761628" lon="13.2878718"><ele>109.2</ele><time>2026-04-19T10:58:23.834Z</time></trkpt><trkpt lat="46.0761494" lon="13.2877499"><ele>109.6</ele><time>2026-04-19T10:58:24.833Z</time></trkpt><trkpt lat="46.0761489" lon="13.2876354"><ele>110.0</ele><time>2026-04-19T10:58:25.833Z</time></trkpt><trkpt lat="46.0761551" lon="13.2875086"><ele>109.99999999999999</ele><time>2026-04-19T10:58:26.834Z</time></trkpt><trkpt lat="46.0761536" lon="13.2873766"><ele>110.0</ele><time>2026-04-19T10:58:27.833Z</time></trkpt><trkpt lat="46.0761426" lon="13.2872389"><ele>110.0</ele><time>2026-04-19T10:58:28.834Z</time></trkpt><trkpt lat="46.0761238" lon="13.2871077"><ele>110.0</ele><time>2026-04-19T10:58:29.834Z</time></trkpt><trkpt lat="46.0761" lon="13.2869913"><ele>109.99999999999999</ele><time>2026-04-19T10:58:30.833Z</time></trkpt><trkpt lat="46.0760732" lon="13.2868962"><ele>110.0</ele><time>2026-04-19T10:58:31.833Z</time></trkpt><trkpt lat="46.0759959" lon="13.2867566"><ele>109.99999999999999</ele><time>2026-04-19T10:58:33.833Z</time></trkpt><trkpt lat="46.0759406" lon="13.2866896"><ele>110.0</ele><time>2026-04-19T10:58:34.833Z</time></trkpt><trkpt lat="46.0758981" lon="13.2866153"><ele>110.0</ele><time>2026-04-19T10:58:35.834Z</time></trkpt><trkpt lat="46.075866" lon="13.2865339"><ele>110.0</ele><time>2026-04-19T10:58:36.834Z</time></trkpt><trkpt lat="46.0758494" lon="13.2864308"><ele>110.0</ele><time>2026-04-19T10:58:37.834Z</time></trkpt><trkpt lat="46.0758418" lon="13.2863075"><ele>109.99999999999999</ele><time>2026-04-19T10:58:38.834Z</time></trkpt><trkpt lat="46.0758331" lon="13.2861895"><ele>110.0</ele><time>2026-04-19T10:58:39.833Z</time></trkpt><trkpt lat="46.0758252" lon="13.2860691"><ele>109.99999999999999</ele><time>2026-04-19T10:58:40.834Z</time></trkpt><trkpt lat="46.0758022" lon="13.2859627"><ele>110.0</ele><time>2026-04-19T10:58:41.834Z</time></trkpt><trkpt lat="46.0757729" lon="13.2858552"><ele>110.0</ele><time>2026-04-19T10:58:42.834Z</time></trkpt><trkpt lat="46.0757365" lon="13.2857387"><ele>110.0</ele><time>2026-04-19T10:58:43.833Z</time></trkpt><trkpt lat="46.0757117" lon="13.2856185"><ele>109.99999999999999</ele><time>2026-04-19T10:58:44.834Z</time></trkpt><trkpt lat="46.0756806" lon="13.2855014"><ele>110.0</ele><time>2026-04-19T10:58:45.834Z</time></trkpt><trkpt lat="46.0756411" lon="13.2853952"><ele>109.66666666666666</ele><time>2026-04-19T10:58:46.833Z</time></trkpt><trkpt lat="46.0756123" lon="13.2852926"><ele>109.33333333333333</ele><time>2026-04-19T10:58:47.834Z</time></trkpt><trkpt lat="46.0755951" lon="13.2851802"><ele>109.0</ele><time>2026-04-19T10:58:48.834Z</time></trkpt><trkpt lat="46.075587" lon="13.2850658"><ele>108.66666666666666</ele><time>2026-04-19T10:58:49.834Z</time></trkpt><trkpt lat="46.0755771" lon="13.2849588"><ele>108.33333333333333</ele><time>2026-04-19T10:58:50.834Z</time></trkpt><trkpt lat="46.075558" lon="13.2848571"><ele>108.0</ele><time>2026-04-19T10:58:51.834Z</time></trkpt><trkpt lat="46.0755266" lon="13.2847453"><ele>108.0</ele><time>2026-04-19T10:58:52.834Z</time></trkpt><trkpt lat="46.0754975" lon="13.284629"><ele>108.0</ele><time>2026-04-19T10:58:53.833Z</time></trkpt><trkpt lat="46.0754808" lon="13.2845079"><ele>108.0</ele><time>2026-04-19T10:58:54.834Z</time></trkpt><trkpt lat="46.0754615" lon="13.2843982"><ele>108.0</ele><time>2026-04-19T10:58:55.833Z</time></trkpt><trkpt lat="46.0754073" lon="13.2842484"><ele>108.0</ele><time>2026-04-19T10:58:57.834Z</time></trkpt><trkpt lat="46.0753958" lon="13.2841462"><ele>108.0</ele><time>2026-04-19T10:58:59.834Z</time></trkpt><trkpt lat="46.0754618" lon="13.2840326"><ele>108.0</ele><time>2026-04-19T10:59:01.834Z</time></trkpt><trkpt lat="46.0755472" lon="13.2840279"><ele>108.0</ele><time>2026-04-19T10:59:03.833Z</time></trkpt><trkpt lat="46.0756285" lon="13.2841849"><ele>108.0</ele><time>2026-04-19T10:59:05.834Z</time></trkpt><trkpt lat="46.0756683" lon="13.2843403"><ele>108.0</ele><time>2026-04-19T10:59:06.834Z</time></trkpt><trkpt lat="46.0757262" lon="13.2845068"><ele>108.2</ele><time>2026-04-19T10:59:07.833Z</time></trkpt><trkpt lat="46.0757811" lon="13.2846647"><ele>108.4</ele><time>2026-04-19T10:59:08.834Z</time></trkpt><trkpt lat="46.0758228" lon="13.2847855"><ele>108.60000000000001</ele><time>2026-04-19T10:59:09.833Z</time></trkpt><trkpt lat="46.0758705" lon="13.2848605"><ele>108.80000000000001</ele><time>2026-04-19T10:59:10.833Z</time></trkpt><trkpt lat="46.0759537" lon="13.2849113"><ele>109.0</ele><time>2026-04-19T10:59:12.834Z</time></trkpt><trkpt lat="46.0760086" lon="13.2850374"><ele>109.0</ele><time>2026-04-19T10:59:19.834Z</time></trkpt><trkpt lat="46.0760393" lon="13.2851827"><ele>109.0</ele><time>2026-04-19T10:59:20.833Z</time></trkpt><trkpt lat="46.0760718" lon="13.2853831"><ele>109.0</ele><time>2026-04-19T10:59:21.834Z</time></trkpt><trkpt lat="46.0761101" lon="13.2856452"><ele>109.0</ele><time>2026-04-19T10:59:22.834Z</time></trkpt><trkpt lat="46.0761649" lon="13.2859337"><ele>109.33333333333334</ele><time>2026-04-19T10:59:23.833Z</time></trkpt><trkpt lat="46.0762224" lon="13.2862278"><ele>109.66666666666666</ele><time>2026-04-19T10:59:24.834Z</time></trkpt><trkpt lat="46.0762677" lon="13.2865342"><ele>110.0</ele><time>2026-04-19T10:59:25.834Z</time></trkpt><trkpt lat="46.0763162" lon="13.286827"><ele>110.0</ele><time>2026-04-19T10:59:26.834Z</time></trkpt><trkpt lat="46.0763685" lon="13.2871149"><ele>110.0</ele><time>2026-04-19T10:59:27.834Z</time></trkpt><trkpt lat="46.0764214" lon="13.2873801"><ele>110.0</ele><time>2026-04-19T10:59:28.834Z</time></trkpt><trkpt lat="46.0764667" lon="13.287636"><ele>110.0</ele><time>2026-04-19T10:59:29.834Z</time></trkpt><trkpt lat="46.0765134" lon="13.2878789"><ele>110.0</ele><time>2026-04-19T10:59:30.834Z</time></trkpt><trkpt lat="46.0765494" lon="13.2881072"><ele>110.0</ele><time>2026-04-19T10:59:31.833Z</time></trkpt><trkpt lat="46.0765867" lon="13.288315"><ele>110.6</ele><time>2026-04-19T10:59:32.834Z</time></trkpt><trkpt lat="46.076619" lon="13.2884956"><ele>111.2</ele><time>2026-04-19T10:59:33.833Z</time></trkpt><trkpt lat="46.0766527" lon="13.2886615"><ele>111.80000000000001</ele><time>2026-04-19T10:59:34.834Z</time></trkpt><trkpt lat="46.0766914" lon="13.2887704"><ele>112.4</ele><time>2026-04-19T10:59:35.834Z</time></trkpt><trkpt lat="46.0767443" lon="13.2888284"><ele>113.0</ele><time>2026-04-19T10:59:36.834Z</time></trkpt><trkpt lat="46.0768435" lon="13.2888318"><ele>112.99999999999999</ele><time>2026-04-19T10:59:38.834Z</time></trkpt><trkpt lat="46.0769182" lon="13.2888213"><ele>113.0</ele><time>2026-04-19T10:59:40.834Z</time></trkpt><trkpt lat="46.076988" lon="13.2888319"><ele>113.0</ele><time>2026-04-19T10:59:42.834Z</time></trkpt><trkpt lat="46.0770718" lon="13.2888334"><ele>113.0</ele><time>2026-04-19T10:59:44.834Z</time></trkpt><trkpt lat="46.0771799" lon="13.2887892"><ele>112.99999999999999</ele><time>2026-04-19T10:59:46.834Z</time></trkpt><trkpt lat="46.0772603" lon="13.2887416"><ele>113.0</ele><time>2026-04-19T10:59:48.834Z</time></trkpt><trkpt lat="46.0772972" lon="13.2886623"><ele>112.99999999999999</ele><time>2026-04-19T10:59:50.834Z</time></trkpt><trkpt lat="46.0773585" lon="13.2886199"><ele>113.0</ele><time>2026-04-19T10:59:54.834Z</time></trkpt><trkpt lat="46.0774047" lon="13.2887123"><ele>113.0</ele><time>2026-04-19T10:59:57.834Z</time></trkpt><trkpt lat="46.077455" lon="13.2888365"><ele>113.0</ele><time>2026-04-19T11:00:00.834Z</time></trkpt><trkpt lat="46.0774738" lon="13.2889309"><ele>112.99999999999999</ele><time>2026-04-19T11:00:02.833Z</time></trkpt><trkpt lat="46.0775072" lon="13.2890364"><ele>113.0</ele><time>2026-04-19T11:00:04.834Z</time></trkpt><trkpt lat="46.0775323" lon="13.2891483"><ele>112.33333333333333</ele><time>2026-04-19T11:00:06.834Z</time></trkpt><trkpt lat="46.0775534" lon="13.2892494"><ele>111.66666666666666</ele><time>2026-04-19T11:00:09.834Z</time></trkpt><trkpt lat="46.0775965" lon="13.2893297"><ele>111.0</ele><time>2026-04-19T11:00:13.833Z</time></trkpt><trkpt lat="46.077654" lon="13.2893702"><ele>110.33333333333334</ele><time>2026-04-19T11:00:15.834Z</time></trkpt><trkpt lat="46.0777337" lon="13.289398"><ele>109.66666666666667</ele><time>2026-04-19T11:00:18.833Z</time></trkpt><trkpt lat="46.0778281" lon="13.2893518"><ele>109.0</ele><time>2026-04-19T11:00:21.833Z</time></trkpt><trkpt lat="46.0779034" lon="13.2893078"><ele>109.00000000000001</ele><time>2026-04-19T11:00:24.834Z</time></trkpt><trkpt lat="46.0779608" lon="13.2892693"><ele>109.0</ele><time>2026-04-19T11:00:26.833Z</time></trkpt><trkpt lat="46.078031" lon="13.2892337"><ele>109.0</ele><time>2026-04-19T11:00:28.834Z</time></trkpt><trkpt lat="46.0780959" lon="13.2891905"><ele>109.0</ele><time>2026-04-19T11:00:30.834Z</time></trkpt><trkpt lat="46.0781672" lon="13.2891182"><ele>109.00000000000001</ele><time>2026-04-19T11:00:32.834Z</time></trkpt><trkpt lat="46.0782389" lon="13.2890401"><ele>109.0</ele><time>2026-04-19T11:00:34.834Z</time></trkpt><trkpt lat="46.0783071" lon="13.2889951"><ele>109.00000000000001</ele><time>2026-04-19T11:00:36.833Z</time></trkpt><trkpt lat="46.0783931" lon="13.2889934"><ele>109.0</ele><time>2026-04-19T11:00:38.834Z</time></trkpt><trkpt lat="46.0784574" lon="13.2889354"><ele>109.0</ele><time>2026-04-19T11:00:40.833Z</time></trkpt><trkpt lat="46.078498" lon="13.2888592"><ele>109.0</ele><time>2026-04-19T11:00:43.833Z</time></trkpt><trkpt lat="46.0785733" lon="13.2888137"><ele>109.00000000000001</ele><time>2026-04-19T11:00:47.834Z</time></trkpt><trkpt lat="46.0786377" lon="13.2887707"><ele>109.0</ele><time>2026-04-19T11:00:49.834Z</time></trkpt><trkpt lat="46.0787288" lon="13.2887683"><ele>109.00000000000001</ele><time>2026-04-19T11:00:52.834Z</time></trkpt><trkpt lat="46.0787879" lon="13.2888155"><ele>109.0</ele><time>2026-04-19T11:00:54.834Z</time></trkpt><trkpt lat="46.0788407" lon="13.2889112"><ele>109.0</ele><time>2026-04-19T11:00:57.834Z</time></trkpt><trkpt lat="46.0789306" lon="13.2889656"><ele>109.0</ele><time>2026-04-19T11:01:00.833Z</time></trkpt><trkpt lat="46.0790023" lon="13.2889905"><ele>109.00000000000001</ele><time>2026-04-19T11:01:03.834Z</time></trkpt><trkpt lat="46.0790829" lon="13.2889686"><ele>109.0</ele><time>2026-04-19T11:01:06.834Z</time></trkpt><trkpt lat="46.0791677" lon="13.2889768"><ele>108.85714285714286</ele><time>2026-04-19T11:01:10.833Z</time></trkpt><trkpt lat="46.0792452" lon="13.2889664"><ele>108.71428571428572</ele><time>2026-04-19T11:01:13.834Z</time></trkpt><trkpt lat="46.079316" lon="13.2889694"><ele>108.57142857142857</ele><time>2026-04-19T11:01:16.834Z</time></trkpt><trkpt lat="46.0793758" lon="13.2889978"><ele>108.42857142857143</ele><time>2026-04-19T11:01:19.834Z</time></trkpt><trkpt lat="46.0794378" lon="13.2890525"><ele>108.28571428571428</ele><time>2026-04-19T11:01:22.834Z</time></trkpt><trkpt lat="46.0794915" lon="13.2891399"><ele>108.14285714285714</ele><time>2026-04-19T11:01:25.834Z</time></trkpt><trkpt lat="46.0795519" lon="13.2892226"><ele>108.0</ele><time>2026-04-19T11:01:29.834Z</time></trkpt><trkpt lat="46.0796399" lon="13.2892383"><ele>108.0</ele><time>2026-04-19T11:01:32.834Z</time></trkpt><trkpt lat="46.0797151" lon="13.2891802"><ele>108.0</ele><time>2026-04-19T11:01:36.833Z</time></trkpt><trkpt lat="46.0797916" lon="13.2891777"><ele>108.0</ele><time>2026-04-19T11:01:39.834Z</time></trkpt><trkpt lat="46.0798587" lon="13.2891989"><ele>108.0</ele><time>2026-04-19T11:01:42.833Z</time></trkpt><trkpt lat="46.0799243" lon="13.2892685"><ele>108.0</ele><time>2026-04-19T11:01:50.834Z</time></trkpt><trkpt lat="46.0799826" lon="13.2893187"><ele>108.0</ele><time>2026-04-19T11:01:52.834Z</time></trkpt><trkpt lat="46.0800485" lon="13.2893911"><ele>108.16666666666667</ele><time>2026-04-19T11:01:55.834Z</time></trkpt><trkpt lat="46.0801233" lon="13.2894385"><ele>108.33333333333334</ele><time>2026-04-19T11:01:58.834Z</time></trkpt><trkpt lat="46.0802026" lon="13.2893333"><ele>108.5</ele><time>2026-04-19T11:02:27.833Z</time></trkpt><trkpt lat="46.0802551" lon="13.2892683"><ele>108.66666666666667</ele><time>2026-04-19T11:02:30.834Z</time></trkpt><trkpt lat="46.0803405" lon="13.2892138"><ele>108.83333333333334</ele><time>2026-04-19T11:02:33.834Z</time></trkpt><trkpt lat="46.0804055" lon="13.2891419"><ele>109.0</ele><time>2026-04-19T11:02:36.834Z</time></trkpt><trkpt lat="46.0804467" lon="13.2890262"><ele>109.00000000000001</ele><time>2026-04-19T11:02:41.834Z</time></trkpt><trkpt lat="46.0805158" lon="13.2890237"><ele>109.0</ele><time>2026-04-19T11:02:45.834Z</time></trkpt><trkpt lat="46.0805874" lon="13.2889594"><ele>109.0</ele><time>2026-04-19T11:02:49.834Z</time></trkpt><trkpt lat="46.0806329" lon="13.288893"><ele>109.0</ele><time>2026-04-19T11:02:52.833Z</time></trkpt><trkpt lat="46.0806845" lon="13.2888094"><ele>109.00000000000001</ele><time>2026-04-19T11:02:56.834Z</time></trkpt><trkpt lat="46.0807962" lon="13.2888661"><ele>109.0</ele><time>2026-04-19T11:03:05.834Z</time></trkpt><trkpt lat="46.0808738" lon="13.2888591"><ele>109.28571428571429</ele><time>2026-04-19T11:03:09.833Z</time></trkpt><trkpt lat="46.0809418" lon="13.2888123"><ele>109.57142857142858</ele><time>2026-04-19T11:03:13.833Z</time></trkpt><trkpt lat="46.081012" lon="13.2888342"><ele>109.85714285714286</ele><time>2026-04-19T11:03:17.834Z</time></trkpt><trkpt lat="46.0810828" lon="13.2888742"><ele>110.14285714285714</ele><time>2026-04-19T11:03:20.833Z</time></trkpt><trkpt lat="46.0811458" lon="13.2889057"><ele>110.42857142857143</ele><time>2026-04-19T11:03:23.834Z</time></trkpt><trkpt lat="46.0812134" lon="13.2889617"><ele>110.71428571428571</ele><time>2026-04-19T11:03:27.833Z</time></trkpt><trkpt lat="46.0812755" lon="13.2890069"><ele>111.0</ele><time>2026-04-19T11:03:34.834Z</time></trkpt><trkpt lat="46.0813275" lon="13.2890739"><ele>111.0</ele><time>2026-04-19T11:03:37.834Z</time></trkpt><trkpt lat="46.0814173" lon="13.2891015"><ele>111.0</ele><time>2026-04-19T11:03:41.833Z</time></trkpt><trkpt lat="46.0815044" lon="13.2891083"><ele>111.0</ele><time>2026-04-19T11:03:44.834Z</time></trkpt><trkpt lat="46.0815822" lon="13.2892178"><ele>111.0</ele><time>2026-04-19T11:03:53.834Z</time></trkpt><trkpt lat="46.0816231" lon="13.2893018"><ele>111.0</ele><time>2026-04-19T11:03:56.834Z</time></trkpt><trkpt lat="46.0816538" lon="13.2893877"><ele>111.0</ele><time>2026-04-19T11:04:05.834Z</time></trkpt><trkpt lat="46.081691" lon="13.2894736"><ele>111.25</ele><time>2026-04-19T11:04:18.834Z</time></trkpt><trkpt lat="46.0817709" lon="13.2895742"><ele>111.5</ele><time>2026-04-19T11:04:21.833Z</time></trkpt><trkpt lat="46.0818715" lon="13.2896285"><ele>111.75</ele><time>2026-04-19T11:04:23.833Z</time></trkpt><trkpt lat="46.0819834" lon="13.2896724"><ele>112.0</ele><time>2026-04-19T11:04:25.834Z</time></trkpt><trkpt lat="46.0821098" lon="13.2896948"><ele>112.00000000000001</ele><time>2026-04-19T11:04:27.833Z</time></trkpt><trkpt lat="46.0821745" lon="13.2896969"><ele>112.0</ele><time>2026-04-19T11:04:28.834Z</time></trkpt><trkpt lat="46.0822384" lon="13.2896993"><ele>112.0</ele><time>2026-04-19T11:04:29.834Z</time></trkpt><trkpt lat="46.0823457" lon="13.2896904"><ele>112.0</ele><time>2026-04-19T11:04:31.834Z</time></trkpt><trkpt lat="46.0824161" lon="13.2896901"><ele>112.00000000000001</ele><time>2026-04-19T11:04:33.834Z</time></trkpt><trkpt lat="46.0824542" lon="13.2897641"><ele>112.0</ele><time>2026-04-19T11:04:36.833Z</time></trkpt><trkpt lat="46.0824723" lon="13.2898894"><ele>112.16666666666667</ele><time>2026-04-19T11:04:38.834Z</time></trkpt><trkpt lat="46.0825049" lon="13.29"><ele>112.33333333333334</ele><time>2026-04-19T11:04:40.834Z</time></trkpt><trkpt lat="46.0825692" lon="13.2900648"><ele>112.5</ele><time>2026-04-19T11:04:43.834Z</time></trkpt><trkpt lat="46.0826632" lon="13.2901136"><ele>112.66666666666666</ele><time>2026-04-19T11:04:45.833Z</time></trkpt><trkpt lat="46.0827283" lon="13.2901385"><ele>112.83333333333333</ele><time>2026-04-19T11:04:46.834Z</time></trkpt><trkpt lat="46.0828105" lon="13.2901539"><ele>113.0</ele><time>2026-04-19T11:04:47.834Z</time></trkpt><trkpt lat="46.0829146" lon="13.2901547"><ele>113.0</ele><time>2026-04-19T11:04:48.834Z</time></trkpt><trkpt lat="46.0830459" lon="13.2901352"><ele>113.0</ele><time>2026-04-19T11:04:49.834Z</time></trkpt><trkpt lat="46.0831913" lon="13.2900964"><ele>113.0</ele><time>2026-04-19T11:04:50.834Z</time></trkpt><trkpt lat="46.0833507" lon="13.2900452"><ele>113.0</ele><time>2026-04-19T11:04:51.834Z</time></trkpt><trkpt lat="46.0835211" lon="13.2899856"><ele>112.33333333333333</ele><time>2026-04-19T11:04:52.833Z</time></trkpt><trkpt lat="46.083703" lon="13.2899122"><ele>111.66666666666666</ele><time>2026-04-19T11:04:53.834Z</time></trkpt><trkpt lat="46.083899" lon="13.289827"><ele>111.0</ele><time>2026-04-19T11:04:54.834Z</time></trkpt><trkpt lat="46.0841101" lon="13.2897326"><ele>111.0</ele><time>2026-04-19T11:04:55.834Z</time></trkpt><trkpt lat="46.0843144" lon="13.2896313"><ele>111.0</ele><time>2026-04-19T11:04:56.834Z</time></trkpt><trkpt lat="46.0845131" lon="13.2895163"><ele>111.0</ele><time>2026-04-19T11:04:57.834Z</time></trkpt><trkpt lat="46.0846941" lon="13.2893935"><ele>111.0</ele><time>2026-04-19T11:04:58.833Z</time></trkpt><trkpt lat="46.0848646" lon="13.2892679"><ele>111.0</ele><time>2026-04-19T11:04:59.833Z</time></trkpt><trkpt lat="46.0850308" lon="13.2891483"><ele>111.0</ele><time>2026-04-19T11:05:00.834Z</time></trkpt><trkpt lat="46.0851954" lon="13.2890472"><ele>111.33333333333334</ele><time>2026-04-19T11:05:01.833Z</time></trkpt><trkpt lat="46.0853532" lon="13.2889613"><ele>111.66666666666667</ele><time>2026-04-19T11:05:02.834Z</time></trkpt><trkpt lat="46.085521" lon="13.2888813"><ele>112.0</ele><time>2026-04-19T11:05:03.833Z</time></trkpt><trkpt lat="46.0856979" lon="13.2887956"><ele>111.66666666666667</ele><time>2026-04-19T11:05:04.833Z</time></trkpt><trkpt lat="46.0858677" lon="13.2887203"><ele>111.33333333333334</ele><time>2026-04-19T11:05:05.834Z</time></trkpt><trkpt lat="46.0860351" lon="13.2886501"><ele>111.0</ele><time>2026-04-19T11:05:06.834Z</time></trkpt><trkpt lat="46.0862033" lon="13.2885645"><ele>111.0</ele><time>2026-04-19T11:05:07.833Z</time></trkpt><trkpt lat="46.0863768" lon="13.2884691"><ele>111.0</ele><time>2026-04-19T11:05:08.833Z</time></trkpt><trkpt lat="46.0865516" lon="13.2883698"><ele>111.0</ele><time>2026-04-19T11:05:09.834Z</time></trkpt><trkpt lat="46.0867158" lon="13.28829"><ele>111.25</ele><time>2026-04-19T11:05:10.833Z</time></trkpt><trkpt lat="46.0868685" lon="13.2882064"><ele>111.5</ele><time>2026-04-19T11:05:11.834Z</time></trkpt><trkpt lat="46.0870008" lon="13.2881287"><ele>111.75</ele><time>2026-04-19T11:05:12.833Z</time></trkpt><trkpt lat="46.0871164" lon="13.2880798"><ele>112.0</ele><time>2026-04-19T11:05:13.834Z</time></trkpt><trkpt lat="46.0872123" lon="13.2880555"><ele>112.0</ele><time>2026-04-19T11:05:14.834Z</time></trkpt><trkpt lat="46.0872961" lon="13.2880682"><ele>111.99999999999999</ele><time>2026-04-19T11:05:15.834Z</time></trkpt><trkpt lat="46.0873722" lon="13.288122"><ele>111.99999999999999</ele><time>2026-04-19T11:05:16.833Z</time></trkpt><trkpt lat="46.0874544" lon="13.288212"><ele>112.0</ele><time>2026-04-19T11:05:17.834Z</time></trkpt><trkpt lat="46.0875473" lon="13.2883158"><ele>112.0</ele><time>2026-04-19T11:05:18.834Z</time></trkpt><trkpt lat="46.087641" lon="13.288444"><ele>112.0</ele><time>2026-04-19T11:05:19.833Z</time></trkpt><trkpt lat="46.0877234" lon="13.2885921"><ele>112.0</ele><time>2026-04-19T11:05:20.834Z</time></trkpt><trkpt lat="46.0878014" lon="13.2887524"><ele>112.0</ele><time>2026-04-19T11:05:21.834Z</time></trkpt><trkpt lat="46.0878764" lon="13.2889077"><ele>112.0</ele><time>2026-04-19T11:05:22.834Z</time></trkpt><trkpt lat="46.0879464" lon="13.2890338"><ele>112.0</ele><time>2026-04-19T11:05:23.833Z</time></trkpt><trkpt lat="46.0880274" lon="13.2891438"><ele>112.0</ele><time>2026-04-19T11:05:24.834Z</time></trkpt><trkpt lat="46.0881217" lon="13.2892254"><ele>112.0</ele><time>2026-04-19T11:05:25.833Z</time></trkpt><trkpt lat="46.0882274" lon="13.2892774"><ele>112.0</ele><time>2026-04-19T11:05:26.833Z</time></trkpt><trkpt lat="46.0883513" lon="13.2893051"><ele>113.33333333333334</ele><time>2026-04-19T11:05:27.833Z</time></trkpt><trkpt lat="46.0884953" lon="13.2893014"><ele>114.66666666666666</ele><time>2026-04-19T11:05:28.833Z</time></trkpt><trkpt lat="46.0886544" lon="13.2892831"><ele>116.0</ele><time>2026-04-19T11:05:29.834Z</time></trkpt><trkpt lat="46.0888266" lon="13.2892716"><ele>116.0</ele><time>2026-04-19T11:05:30.834Z</time></trkpt><trkpt lat="46.0890044" lon="13.2892681"><ele>116.0</ele><time>2026-04-19T11:05:31.834Z</time></trkpt><trkpt lat="46.0891966" lon="13.2892662"><ele>116.0</ele><time>2026-04-19T11:05:32.834Z</time></trkpt><trkpt lat="46.0893928" lon="13.2892659"><ele>116.0</ele><time>2026-04-19T11:05:33.833Z</time></trkpt><trkpt lat="46.0895784" lon="13.2892736"><ele>116.0</ele><time>2026-04-19T11:05:34.834Z</time></trkpt><trkpt lat="46.0897681" lon="13.2892903"><ele>116.0</ele><time>2026-04-19T11:05:35.834Z</time></trkpt><trkpt lat="46.0899703" lon="13.289305"><ele>116.0</ele><time>2026-04-19T11:05:36.834Z</time></trkpt><trkpt lat="46.0901802" lon="13.2893094"><ele>116.0</ele><time>2026-04-19T11:05:37.833Z</time></trkpt><trkpt lat="46.0904041" lon="13.2893248"><ele>116.0</ele><time>2026-04-19T11:05:38.833Z</time></trkpt><trkpt lat="46.0906273" lon="13.2893458"><ele>115.33333333333333</ele><time>2026-04-19T11:05:39.833Z</time></trkpt><trkpt lat="46.0908385" lon="13.2893668"><ele>114.66666666666666</ele><time>2026-04-19T11:05:40.833Z</time></trkpt><trkpt lat="46.0910244" lon="13.2894002"><ele>114.0</ele><time>2026-04-19T11:05:41.832Z</time></trkpt><trkpt lat="46.0911968" lon="13.2894324"><ele>114.0</ele><time>2026-04-19T11:05:42.833Z</time></trkpt><trkpt lat="46.0913548" lon="13.2894673"><ele>114.0</ele><time>2026-04-19T11:05:43.832Z</time></trkpt><trkpt lat="46.09149" lon="13.2894977"><ele>114.0</ele><time>2026-04-19T11:05:44.833Z</time></trkpt><trkpt lat="46.0915881" lon="13.2895303"><ele>114.0</ele><time>2026-04-19T11:05:45.832Z</time></trkpt><trkpt lat="46.0916692" lon="13.2895687"><ele>114.2</ele><time>2026-04-19T11:05:46.833Z</time></trkpt><trkpt lat="46.091731" lon="13.2896217"><ele>114.4</ele><time>2026-04-19T11:05:47.832Z</time></trkpt><trkpt lat="46.0917928" lon="13.2897491"><ele>114.6</ele><time>2026-04-19T11:05:49.832Z</time></trkpt><trkpt lat="46.0917909" lon="13.2899427"><ele>114.8</ele><time>2026-04-19T11:05:51.833Z</time></trkpt><trkpt lat="46.0917714" lon="13.2900736"><ele>115.0</ele><time>2026-04-19T11:05:52.832Z</time></trkpt><trkpt lat="46.0917541" lon="13.2901978"><ele>115.2</ele><time>2026-04-19T11:05:53.833Z</time></trkpt><trkpt lat="46.0917416" lon="13.2902966"><ele>115.4</ele><time>2026-04-19T11:05:54.832Z</time></trkpt><trkpt lat="46.0917668" lon="13.2904305"><ele>115.6</ele><time>2026-04-19T11:05:56.832Z</time></trkpt><trkpt lat="46.0918732" lon="13.2905036"><ele>115.8</ele><time>2026-04-19T11:05:58.832Z</time></trkpt><trkpt lat="46.09195" lon="13.2905109"><ele>116.0</ele><time>2026-04-19T11:05:59.833Z</time></trkpt><trkpt lat="46.0920388" lon="13.2905"><ele>116.0</ele><time>2026-04-19T11:06:00.832Z</time></trkpt><trkpt lat="46.0921428" lon="13.2904666"><ele>116.0</ele><time>2026-04-19T11:06:01.833Z</time></trkpt><trkpt lat="46.0922578" lon="13.2903876"><ele>116.0</ele><time>2026-04-19T11:06:02.833Z</time></trkpt><trkpt lat="46.0923825" lon="13.2902834"><ele>116.0</ele><time>2026-04-19T11:06:03.833Z</time></trkpt><trkpt lat="46.092521" lon="13.290158"><ele>115.25</ele><time>2026-04-19T11:06:04.833Z</time></trkpt><trkpt lat="46.0926639" lon="13.290042"><ele>114.5</ele><time>2026-04-19T11:06:05.833Z</time></trkpt><trkpt lat="46.0927912" lon="13.2899448"><ele>113.75</ele><time>2026-04-19T11:06:06.833Z</time></trkpt><trkpt lat="46.0928986" lon="13.2898758"><ele>113.0</ele><time>2026-04-19T11:06:07.833Z</time></trkpt><trkpt lat="46.0930002" lon="13.2898306"><ele>113.0</ele><time>2026-04-19T11:06:08.833Z</time></trkpt><trkpt lat="46.0931095" lon="13.289818"><ele>113.0</ele><time>2026-04-19T11:06:09.833Z</time></trkpt><trkpt lat="46.0932214" lon="13.2898039"><ele>113.0</ele><time>2026-04-19T11:06:10.832Z</time></trkpt><trkpt lat="46.0933439" lon="13.2897566"><ele>113.0</ele><time>2026-04-19T11:06:11.833Z</time></trkpt><trkpt lat="46.0934857" lon="13.2896725"><ele>112.0</ele><time>2026-04-19T11:06:12.833Z</time></trkpt><trkpt lat="46.0936441" lon="13.2895554"><ele>111.0</ele><time>2026-04-19T11:06:13.832Z</time></trkpt><trkpt lat="46.0938173" lon="13.289423"><ele>110.0</ele><time>2026-04-19T11:06:14.833Z</time></trkpt><trkpt lat="46.0940015" lon="13.2892958"><ele>112.0</ele><time>2026-04-19T11:06:15.833Z</time></trkpt><trkpt lat="46.0941724" lon="13.289176"><ele>114.0</ele><time>2026-04-19T11:06:16.833Z</time></trkpt><trkpt lat="46.0943187" lon="13.289072"><ele>116.0</ele><time>2026-04-19T11:06:17.832Z</time></trkpt><trkpt lat="46.0944504" lon="13.2889843"><ele>115.99999999999999</ele><time>2026-04-19T11:06:18.832Z</time></trkpt><trkpt lat="46.0945551" lon="13.2889213"><ele>116.0</ele><time>2026-04-19T11:06:19.832Z</time></trkpt><trkpt lat="46.0946404" lon="13.2888829"><ele>116.0</ele><time>2026-04-19T11:06:20.833Z</time></trkpt><trkpt lat="46.0947144" lon="13.28887"><ele>116.0</ele><time>2026-04-19T11:06:21.833Z</time></trkpt><trkpt lat="46.0947853" lon="13.2888939"><ele>115.99999999999999</ele><time>2026-04-19T11:06:22.833Z</time></trkpt><trkpt lat="46.0948573" lon="13.2889488"><ele>116.0</ele><time>2026-04-19T11:06:23.833Z</time></trkpt><trkpt lat="46.0949388" lon="13.289011"><ele>116.8</ele><time>2026-04-19T11:06:24.832Z</time></trkpt><trkpt lat="46.0950229" lon="13.289067"><ele>117.6</ele><time>2026-04-19T11:06:25.832Z</time></trkpt><trkpt lat="46.0951215" lon="13.2891024"><ele>118.4</ele><time>2026-04-19T11:06:26.833Z</time></trkpt><trkpt lat="46.0952199" lon="13.2891172"><ele>119.2</ele><time>2026-04-19T11:06:27.833Z</time></trkpt><trkpt lat="46.0953124" lon="13.2891264"><ele>120.0</ele><time>2026-04-19T11:06:28.832Z</time></trkpt><trkpt lat="46.0953856" lon="13.2891574"><ele>120.0</ele><time>2026-04-19T11:06:29.833Z</time></trkpt><trkpt lat="46.09545" lon="13.2892106"><ele>120.0</ele><time>2026-04-19T11:06:30.832Z</time></trkpt><trkpt lat="46.0954961" lon="13.2892832"><ele>120.0</ele><time>2026-04-19T11:06:31.833Z</time></trkpt><trkpt lat="46.095517" lon="13.2893877"><ele>120.0</ele><time>2026-04-19T11:06:32.833Z</time></trkpt><trkpt lat="46.0955119" lon="13.2895178"><ele>120.0</ele><time>2026-04-19T11:06:33.833Z</time></trkpt><trkpt lat="46.0955008" lon="13.289651"><ele>120.0</ele><time>2026-04-19T11:06:34.833Z</time></trkpt><trkpt lat="46.0955182" lon="13.2897625"><ele>120.16666666666667</ele><time>2026-04-19T11:06:35.832Z</time></trkpt><trkpt lat="46.0955673" lon="13.2898444"><ele>120.33333333333334</ele><time>2026-04-19T11:06:36.832Z</time></trkpt><trkpt lat="46.0956425" lon="13.2898872"><ele>120.5</ele><time>2026-04-19T11:06:37.832Z</time></trkpt><trkpt lat="46.0957288" lon="13.2898919"><ele>120.66666666666667</ele><time>2026-04-19T11:06:38.832Z</time></trkpt><trkpt lat="46.0958107" lon="13.2898403"><ele>120.83333333333334</ele><time>2026-04-19T11:06:39.833Z</time></trkpt><trkpt lat="46.0958946" lon="13.2897329"><ele>121.0</ele><time>2026-04-19T11:06:40.833Z</time></trkpt><trkpt lat="46.0959942" lon="13.2895756"><ele>121.0</ele><time>2026-04-19T11:06:41.832Z</time></trkpt><trkpt lat="46.0961274" lon="13.2894309"><ele>121.0</ele><time>2026-04-19T11:06:42.832Z</time></trkpt><trkpt lat="46.0962992" lon="13.2893163"><ele>121.0</ele><time>2026-04-19T11:06:43.832Z</time></trkpt><trkpt lat="46.0964856" lon="13.2892231"><ele>121.0</ele><time>2026-04-19T11:06:44.833Z</time></trkpt><trkpt lat="46.0966799" lon="13.2891195"><ele>121.0</ele><time>2026-04-19T11:06:45.833Z</time></trkpt><trkpt lat="46.0968777" lon="13.2890089"><ele>121.0</ele><time>2026-04-19T11:06:46.833Z</time></trkpt><trkpt lat="46.097086" lon="13.2888923"><ele>120.5</ele><time>2026-04-19T11:06:47.833Z</time></trkpt><trkpt lat="46.0972999" lon="13.2887777"><ele>120.0</ele><time>2026-04-19T11:06:48.833Z</time></trkpt><trkpt lat="46.0975198" lon="13.288658"><ele>120.0</ele><time>2026-04-19T11:06:49.833Z</time></trkpt><trkpt lat="46.0977386" lon="13.2885135"><ele>120.0</ele><time>2026-04-19T11:06:50.832Z</time></trkpt><trkpt lat="46.097952" lon="13.2883589"><ele>120.0</ele><time>2026-04-19T11:06:51.833Z</time></trkpt><trkpt lat="46.0981586" lon="13.2881823"><ele>120.0</ele><time>2026-04-19T11:06:52.832Z</time></trkpt><trkpt lat="46.0983589" lon="13.2879833"><ele>120.0</ele><time>2026-04-19T11:06:53.833Z</time></trkpt><trkpt lat="46.0985505" lon="13.2877662"><ele>120.0</ele><time>2026-04-19T11:06:54.833Z</time></trkpt><trkpt lat="46.0987398" lon="13.2875341"><ele>120.0</ele><time>2026-04-19T11:06:55.832Z</time></trkpt><trkpt lat="46.0989083" lon="13.2872728"><ele>120.0</ele><time>2026-04-19T11:06:56.832Z</time></trkpt><trkpt lat="46.0990768" lon="13.2870004"><ele>119.5</ele><time>2026-04-19T11:06:57.833Z</time></trkpt><trkpt lat="46.0992395" lon="13.2867194"><ele>119.0</ele><time>2026-04-19T11:06:58.832Z</time></trkpt><trkpt lat="46.0993939" lon="13.2864425"><ele>119.0</ele><time>2026-04-19T11:06:59.833Z</time></trkpt><trkpt lat="46.0995512" lon="13.286161"><ele>119.0</ele><time>2026-04-19T11:07:00.833Z</time></trkpt><trkpt lat="46.0997095" lon="13.2858776"><ele>119.0</ele><time>2026-04-19T11:07:01.833Z</time></trkpt><trkpt lat="46.0998749" lon="13.2855999"><ele>119.0</ele><time>2026-04-19T11:07:02.833Z</time></trkpt><trkpt lat="46.1000526" lon="13.2853294"><ele>119.5</ele><time>2026-04-19T11:07:03.833Z</time></trkpt><trkpt lat="46.1002397" lon="13.2850821"><ele>120.0</ele><time>2026-04-19T11:07:04.833Z</time></trkpt><trkpt lat="46.1004309" lon="13.2848498"><ele>120.5</ele><time>2026-04-19T11:07:05.833Z</time></trkpt><trkpt lat="46.1006313" lon="13.2846435"><ele>121.0</ele><time>2026-04-19T11:07:06.832Z</time></trkpt><trkpt lat="46.1008437" lon="13.2844508"><ele>121.0</ele><time>2026-04-19T11:07:07.833Z</time></trkpt><trkpt lat="46.1010584" lon="13.2842639"><ele>121.0</ele><time>2026-04-19T11:07:08.833Z</time></trkpt><trkpt lat="46.1012799" lon="13.2841036"><ele>121.0</ele><time>2026-04-19T11:07:09.833Z</time></trkpt><trkpt lat="46.1015112" lon="13.2839629"><ele>121.0</ele><time>2026-04-19T11:07:10.833Z</time></trkpt><trkpt lat="46.1017492" lon="13.2838354"><ele>121.5</ele><time>2026-04-19T11:07:11.833Z</time></trkpt><trkpt lat="46.1019955" lon="13.2837198"><ele>122.0</ele><time>2026-04-19T11:07:12.832Z</time></trkpt><trkpt lat="46.1022459" lon="13.2836313"><ele>122.5</ele><time>2026-04-19T11:07:13.832Z</time></trkpt><trkpt lat="46.102499" lon="13.2835558"><ele>123.0</ele><time>2026-04-19T11:07:14.833Z</time></trkpt><trkpt lat="46.1027556" lon="13.2834883"><ele>123.0</ele><time>2026-04-19T11:07:15.832Z</time></trkpt><trkpt lat="46.1030126" lon="13.2834305"><ele>123.0</ele><time>2026-04-19T11:07:16.832Z</time></trkpt><trkpt lat="46.1032666" lon="13.2833679"><ele>122.5</ele><time>2026-04-19T11:07:17.833Z</time></trkpt><trkpt lat="46.1035257" lon="13.2833023"><ele>122.0</ele><time>2026-04-19T11:07:18.833Z</time></trkpt><trkpt lat="46.1037831" lon="13.2832371"><ele>122.0</ele><time>2026-04-19T11:07:19.833Z</time></trkpt><trkpt lat="46.1040342" lon="13.283176"><ele>122.0</ele><time>2026-04-19T11:07:20.833Z</time></trkpt><trkpt lat="46.1042913" lon="13.2831116"><ele>122.0</ele><time>2026-04-19T11:07:21.833Z</time></trkpt><trkpt lat="46.1045447" lon="13.2830472"><ele>122.0</ele><time>2026-04-19T11:07:22.832Z</time></trkpt><trkpt lat="46.1047905" lon="13.2829824"><ele>122.0</ele><time>2026-04-19T11:07:23.832Z</time></trkpt><trkpt lat="46.1050371" lon="13.2829156"><ele>122.0</ele><time>2026-04-19T11:07:24.832Z</time></trkpt><trkpt lat="46.1052871" lon="13.2828517"><ele>122.0</ele><time>2026-04-19T11:07:25.832Z</time></trkpt><trkpt lat="46.1055427" lon="13.2827896"><ele>122.0</ele><time>2026-04-19T11:07:26.832Z</time></trkpt><trkpt lat="46.1057936" lon="13.282732"><ele>122.0</ele><time>2026-04-19T11:07:27.833Z</time></trkpt><trkpt lat="46.1060469" lon="13.2826615"><ele>122.0</ele><time>2026-04-19T11:07:28.833Z</time></trkpt><trkpt lat="46.1063018" lon="13.2825942"><ele>122.0</ele><time>2026-04-19T11:07:29.833Z</time></trkpt><trkpt lat="46.1065625" lon="13.2825246"><ele>122.0</ele><time>2026-04-19T11:07:30.832Z</time></trkpt><trkpt lat="46.10682" lon="13.2824602"><ele>122.5</ele><time>2026-04-19T11:07:31.833Z</time></trkpt><trkpt lat="46.1070797" lon="13.2823924"><ele>123.0</ele><time>2026-04-19T11:07:32.832Z</time></trkpt><trkpt lat="46.1073395" lon="13.2823246"><ele>125.0</ele><time>2026-04-19T11:07:33.832Z</time></trkpt><trkpt lat="46.1075938" lon="13.2822437"><ele>127.0</ele><time>2026-04-19T11:07:34.833Z</time></trkpt><trkpt lat="46.1078408" lon="13.2821572"><ele>127.0</ele><time>2026-04-19T11:07:35.833Z</time></trkpt><trkpt lat="46.1080774" lon="13.2820635"><ele>127.0</ele><time>2026-04-19T11:07:36.833Z</time></trkpt><trkpt lat="46.1083105" lon="13.2819543"><ele>128.0</ele><time>2026-04-19T11:07:37.833Z</time></trkpt><trkpt lat="46.1085334" lon="13.2818399"><ele>129.0</ele><time>2026-04-19T11:07:38.833Z</time></trkpt><trkpt lat="46.1087588" lon="13.2817158"><ele>129.0</ele><time>2026-04-19T11:07:39.832Z</time></trkpt><trkpt lat="46.1089849" lon="13.2815835"><ele>129.0</ele><time>2026-04-19T11:07:40.833Z</time></trkpt><trkpt lat="46.1092095" lon="13.2814521"><ele>126.5</ele><time>2026-04-19T11:07:41.832Z</time></trkpt><trkpt lat="46.1094349" lon="13.2813282"><ele>124.0</ele><time>2026-04-19T11:07:42.832Z</time></trkpt><trkpt lat="46.1096613" lon="13.2812091"><ele>124.0</ele><time>2026-04-19T11:07:43.833Z</time></trkpt><trkpt lat="46.1098883" lon="13.2810885"><ele>124.0</ele><time>2026-04-19T11:07:44.833Z</time></trkpt><trkpt lat="46.1101163" lon="13.280969"><ele>125.5</ele><time>2026-04-19T11:07:45.832Z</time></trkpt><trkpt lat="46.1103405" lon="13.2808443"><ele>127.0</ele><time>2026-04-19T11:07:46.833Z</time></trkpt><trkpt lat="46.1105686" lon="13.2807332"><ele>127.5</ele><time>2026-04-19T11:07:47.832Z</time></trkpt><trkpt lat="46.1108016" lon="13.2806281"><ele>128.0</ele><time>2026-04-19T11:07:48.832Z</time></trkpt><trkpt lat="46.1110367" lon="13.2805253"><ele>128.0</ele><time>2026-04-19T11:07:49.833Z</time></trkpt><trkpt lat="46.1112678" lon="13.2804271"><ele>128.0</ele><time>2026-04-19T11:07:50.832Z</time></trkpt><trkpt lat="46.1114904" lon="13.2803325"><ele>128.33333333333331</ele><time>2026-04-19T11:07:51.833Z</time></trkpt><trkpt lat="46.1116946" lon="13.2802483"><ele>128.66666666666666</ele><time>2026-04-19T11:07:52.833Z</time></trkpt><trkpt lat="46.1118891" lon="13.2801657"><ele>129.0</ele><time>2026-04-19T11:07:53.833Z</time></trkpt><trkpt lat="46.1120623" lon="13.2800826"><ele>129.0</ele><time>2026-04-19T11:07:54.832Z</time></trkpt><trkpt lat="46.1122246" lon="13.2800195"><ele>129.0</ele><time>2026-04-19T11:07:55.833Z</time></trkpt><trkpt lat="46.1123805" lon="13.2799527"><ele>129.0</ele><time>2026-04-19T11:07:56.833Z</time></trkpt><trkpt lat="46.11253" lon="13.2798853"><ele>128.75</ele><time>2026-04-19T11:07:57.833Z</time></trkpt><trkpt lat="46.1126727" lon="13.2798068"><ele>128.5</ele><time>2026-04-19T11:07:58.833Z</time></trkpt><trkpt lat="46.1128013" lon="13.2797004"><ele>128.25</ele><time>2026-04-19T11:07:59.833Z</time></trkpt><trkpt lat="46.1129064" lon="13.279588"><ele>128.0</ele><time>2026-04-19T11:08:00.832Z</time></trkpt><trkpt lat="46.1129928" lon="13.279483"><ele>128.20000000000002</ele><time>2026-04-19T11:08:01.833Z</time></trkpt><trkpt lat="46.1130788" lon="13.2793917"><ele>128.4</ele><time>2026-04-19T11:08:02.833Z</time></trkpt><trkpt lat="46.1131667" lon="13.2793287"><ele>128.60000000000002</ele><time>2026-04-19T11:08:03.833Z</time></trkpt><trkpt lat="46.113252" lon="13.2792905"><ele>128.8</ele><time>2026-04-19T11:08:04.833Z</time></trkpt><trkpt lat="46.1133354" lon="13.2792979"><ele>129.0</ele><time>2026-04-19T11:08:05.833Z</time></trkpt><trkpt lat="46.1134358" lon="13.2793557"><ele>129.0</ele><time>2026-04-19T11:08:06.833Z</time></trkpt><trkpt lat="46.1135456" lon="13.2794463"><ele>129.0</ele><time>2026-04-19T11:08:07.833Z</time></trkpt><trkpt lat="46.1136686" lon="13.2795231"><ele>129.0</ele><time>2026-04-19T11:08:08.832Z</time></trkpt><trkpt lat="46.1138061" lon="13.2795409"><ele>129.0</ele><time>2026-04-19T11:08:09.833Z</time></trkpt><trkpt lat="46.1139512" lon="13.2795156"><ele>129.5</ele><time>2026-04-19T11:08:10.833Z</time></trkpt><trkpt lat="46.1140912" lon="13.2794801"><ele>130.0</ele><time>2026-04-19T11:08:11.833Z</time></trkpt><trkpt lat="46.1142151" lon="13.2794709"><ele>130.5</ele><time>2026-04-19T11:08:12.832Z</time></trkpt><trkpt lat="46.1143219" lon="13.2794847"><ele>131.0</ele><time>2026-04-19T11:08:13.833Z</time></trkpt><trkpt lat="46.1144055" lon="13.2795214"><ele>131.0</ele><time>2026-04-19T11:08:14.833Z</time></trkpt><trkpt lat="46.1144758" lon="13.279545"><ele>131.0</ele><time>2026-04-19T11:08:15.833Z</time></trkpt><trkpt lat="46.11455" lon="13.2795178"><ele>131.0</ele><time>2026-04-19T11:08:16.833Z</time></trkpt><trkpt lat="46.114632" lon="13.2794594"><ele>131.0</ele><time>2026-04-19T11:08:17.833Z</time></trkpt><trkpt lat="46.1147036" lon="13.2793465"><ele>131.0</ele><time>2026-04-19T11:08:18.833Z</time></trkpt><trkpt lat="46.1147881" lon="13.2791722"><ele>131.0</ele><time>2026-04-19T11:08:19.832Z</time></trkpt><trkpt lat="46.1149004" lon="13.2789675"><ele>131.0</ele><time>2026-04-19T11:08:20.833Z</time></trkpt><trkpt lat="46.1150308" lon="13.2787805"><ele>131.0</ele><time>2026-04-19T11:08:21.832Z</time></trkpt><trkpt lat="46.1151643" lon="13.2786056"><ele>131.0</ele><time>2026-04-19T11:08:22.833Z</time></trkpt><trkpt lat="46.1152855" lon="13.2784168"><ele>131.0</ele><time>2026-04-19T11:08:23.833Z</time></trkpt><trkpt lat="46.1153787" lon="13.278226"><ele>131.0</ele><time>2026-04-19T11:08:24.832Z</time></trkpt><trkpt lat="46.1154482" lon="13.2780261"><ele>131.0</ele><time>2026-04-19T11:08:25.833Z</time></trkpt><trkpt lat="46.1154939" lon="13.2778245"><ele>131.0</ele><time>2026-04-19T11:08:26.832Z</time></trkpt><trkpt lat="46.1155249" lon="13.277628"><ele>131.0</ele><time>2026-04-19T11:08:27.833Z</time></trkpt><trkpt lat="46.1155665" lon="13.2774423"><ele>131.0</ele><time>2026-04-19T11:08:28.832Z</time></trkpt><trkpt lat="46.115625" lon="13.2772696"><ele>130.75</ele><time>2026-04-19T11:08:29.833Z</time></trkpt><trkpt lat="46.1157044" lon="13.2771167"><ele>130.5</ele><time>2026-04-19T11:08:30.833Z</time></trkpt><trkpt lat="46.1158066" lon="13.2769774"><ele>130.25</ele><time>2026-04-19T11:08:31.833Z</time></trkpt><trkpt lat="46.1159341" lon="13.2768484"><ele>130.0</ele><time>2026-04-19T11:08:32.833Z</time></trkpt><trkpt lat="46.1160868" lon="13.2767272"><ele>131.0</ele><time>2026-04-19T11:08:33.833Z</time></trkpt><trkpt lat="46.1162496" lon="13.2765895"><ele>132.0</ele><time>2026-04-19T11:08:34.833Z</time></trkpt><trkpt lat="46.1164137" lon="13.2764347"><ele>133.0</ele><time>2026-04-19T11:08:35.832Z</time></trkpt><trkpt lat="46.1165779" lon="13.2762618"><ele>133.0</ele><time>2026-04-19T11:08:36.832Z</time></trkpt><trkpt lat="46.1167451" lon="13.2760908"><ele>133.0</ele><time>2026-04-19T11:08:37.832Z</time></trkpt><trkpt lat="46.1169132" lon="13.2759395"><ele>133.0</ele><time>2026-04-19T11:08:38.833Z</time></trkpt><trkpt lat="46.1170744" lon="13.2757879"><ele>133.0</ele><time>2026-04-19T11:08:39.832Z</time></trkpt><trkpt lat="46.1172347" lon="13.2756282"><ele>133.0</ele><time>2026-04-19T11:08:40.833Z</time></trkpt><trkpt lat="46.1173904" lon="13.275474"><ele>133.0</ele><time>2026-04-19T11:08:41.833Z</time></trkpt><trkpt lat="46.1175328" lon="13.2753403"><ele>132.75</ele><time>2026-04-19T11:08:42.832Z</time></trkpt><trkpt lat="46.1176646" lon="13.2752177"><ele>132.5</ele><time>2026-04-19T11:08:43.832Z</time></trkpt><trkpt lat="46.1177889" lon="13.2751096"><ele>132.25</ele><time>2026-04-19T11:08:44.833Z</time></trkpt><trkpt lat="46.1178964" lon="13.2750157"><ele>132.0</ele><time>2026-04-19T11:08:45.833Z</time></trkpt><trkpt lat="46.1179832" lon="13.2749331"><ele>132.0</ele><time>2026-04-19T11:08:46.833Z</time></trkpt><trkpt lat="46.1180596" lon="13.2748723"><ele>132.0</ele><time>2026-04-19T11:08:47.832Z</time></trkpt><trkpt lat="46.1181204" lon="13.2748375"><ele>132.0</ele><time>2026-04-19T11:08:48.832Z</time></trkpt><trkpt lat="46.1181856" lon="13.2747823"><ele>132.0</ele><time>2026-04-19T11:08:50.832Z</time></trkpt><trkpt lat="46.1182485" lon="13.2747493"><ele>132.0</ele><time>2026-04-19T11:08:52.832Z</time></trkpt><trkpt lat="46.1183852" lon="13.2747509"><ele>132.0</ele><time>2026-04-19T11:08:54.833Z</time></trkpt><trkpt lat="46.1184929" lon="13.274771"><ele>132.0</ele><time>2026-04-19T11:08:55.833Z</time></trkpt><trkpt lat="46.1186323" lon="13.2747783"><ele>132.0</ele><time>2026-04-19T11:08:56.833Z</time></trkpt><trkpt lat="46.1187674" lon="13.2747609"><ele>132.0</ele><time>2026-04-19T11:08:57.832Z</time></trkpt><trkpt lat="46.1188931" lon="13.2747045"><ele>132.0</ele><time>2026-04-19T11:08:58.833Z</time></trkpt><trkpt lat="46.1190126" lon="13.2745966"><ele>132.0</ele><time>2026-04-19T11:08:59.833Z</time></trkpt><trkpt lat="46.1191239" lon="13.2744513"><ele>132.0</ele><time>2026-04-19T11:09:00.833Z</time></trkpt><trkpt lat="46.1192382" lon="13.2742727"><ele>132.0</ele><time>2026-04-19T11:09:01.833Z</time></trkpt><trkpt lat="46.1193616" lon="13.2740748"><ele>132.0</ele><time>2026-04-19T11:09:02.833Z</time></trkpt><trkpt lat="46.1194951" lon="13.2738849"><ele>132.0</ele><time>2026-04-19T11:09:03.833Z</time></trkpt><trkpt lat="46.1196396" lon="13.2737149"><ele>132.0</ele><time>2026-04-19T11:09:04.832Z</time></trkpt><trkpt lat="46.1197993" lon="13.2735583"><ele>132.66666666666666</ele><time>2026-04-19T11:09:05.833Z</time></trkpt><trkpt lat="46.1199709" lon="13.2734152"><ele>133.33333333333331</ele><time>2026-04-19T11:09:06.833Z</time></trkpt><trkpt lat="46.1201616" lon="13.2732953"><ele>134.0</ele><time>2026-04-19T11:09:07.832Z</time></trkpt><trkpt lat="46.1203628" lon="13.2731962"><ele>133.66666666666666</ele><time>2026-04-19T11:09:08.833Z</time></trkpt><trkpt lat="46.1205706" lon="13.2730915"><ele>133.33333333333334</ele><time>2026-04-19T11:09:09.833Z</time></trkpt><trkpt lat="46.1207815" lon="13.272983"><ele>133.0</ele><time>2026-04-19T11:09:10.832Z</time></trkpt><trkpt lat="46.1209989" lon="13.2728731"><ele>132.5</ele><time>2026-04-19T11:09:11.832Z</time></trkpt><trkpt lat="46.1212127" lon="13.2727473"><ele>132.0</ele><time>2026-04-19T11:09:12.832Z</time></trkpt><trkpt lat="46.1214204" lon="13.272617"><ele>133.0</ele><time>2026-04-19T11:09:13.833Z</time></trkpt><trkpt lat="46.1216393" lon="13.2724921"><ele>134.0</ele><time>2026-04-19T11:09:14.833Z</time></trkpt><trkpt lat="46.1218597" lon="13.2723719"><ele>133.5</ele><time>2026-04-19T11:09:15.833Z</time></trkpt><trkpt lat="46.1220844" lon="13.2722513"><ele>133.0</ele><time>2026-04-19T11:09:16.833Z</time></trkpt><trkpt lat="46.1223041" lon="13.2721362"><ele>133.5</ele><time>2026-04-19T11:09:17.832Z</time></trkpt><trkpt lat="46.1225238" lon="13.2720189"><ele>134.0</ele><time>2026-04-19T11:09:18.832Z</time></trkpt><trkpt lat="46.1227363" lon="13.2718986"><ele>134.0</ele><time>2026-04-19T11:09:19.832Z</time></trkpt><trkpt lat="46.1229566" lon="13.2717686"><ele>134.0</ele><time>2026-04-19T11:09:20.833Z</time></trkpt><trkpt lat="46.1231765" lon="13.27165"><ele>134.0</ele><time>2026-04-19T11:09:21.833Z</time></trkpt><trkpt lat="46.1234025" lon="13.2715296"><ele>134.0</ele><time>2026-04-19T11:09:22.833Z</time></trkpt><trkpt lat="46.1236279" lon="13.2714037"><ele>134.0</ele><time>2026-04-19T11:09:23.833Z</time></trkpt><trkpt lat="46.1238486" lon="13.2712843"><ele>134.0</ele><time>2026-04-19T11:09:24.833Z</time></trkpt><trkpt lat="46.1240757" lon="13.2711578"><ele>135.5</ele><time>2026-04-19T11:09:25.833Z</time></trkpt><trkpt lat="46.1243052" lon="13.2710326"><ele>137.0</ele><time>2026-04-19T11:09:26.833Z</time></trkpt><trkpt lat="46.1245237" lon="13.2709048"><ele>137.0</ele><time>2026-04-19T11:09:27.833Z</time></trkpt><trkpt lat="46.1247435" lon="13.2707752"><ele>137.0</ele><time>2026-04-19T11:09:28.833Z</time></trkpt><trkpt lat="46.1249663" lon="13.270648"><ele>137.5</ele><time>2026-04-19T11:09:29.833Z</time></trkpt><trkpt lat="46.1251852" lon="13.270528"><ele>138.0</ele><time>2026-04-19T11:09:30.832Z</time></trkpt><trkpt lat="46.1254008" lon="13.2704066"><ele>138.0</ele><time>2026-04-19T11:09:31.832Z</time></trkpt><trkpt lat="46.1256183" lon="13.27028"><ele>138.0</ele><time>2026-04-19T11:09:32.833Z</time></trkpt><trkpt lat="46.1258363" lon="13.2701524"><ele>137.5</ele><time>2026-04-19T11:09:33.833Z</time></trkpt><trkpt lat="46.1260544" lon="13.2700271"><ele>137.0</ele><time>2026-04-19T11:09:34.833Z</time></trkpt><trkpt lat="46.1262712" lon="13.269892"><ele>137.0</ele><time>2026-04-19T11:09:35.832Z</time></trkpt><trkpt lat="46.1264805" lon="13.2697851"><ele>137.0</ele><time>2026-04-19T11:09:36.832Z</time></trkpt><trkpt lat="46.1266699" lon="13.2696868"><ele>137.0</ele><time>2026-04-19T11:09:37.833Z</time></trkpt><trkpt lat="46.1268245" lon="13.2696023"><ele>137.79999999999998</ele><time>2026-04-19T11:09:38.832Z</time></trkpt><trkpt lat="46.1269431" lon="13.2695302"><ele>138.6</ele><time>2026-04-19T11:09:39.833Z</time></trkpt><trkpt lat="46.1270379" lon="13.2694716"><ele>139.39999999999998</ele><time>2026-04-19T11:09:40.833Z</time></trkpt><trkpt lat="46.127123" lon="13.2694263"><ele>140.2</ele><time>2026-04-19T11:09:41.833Z</time></trkpt><trkpt lat="46.1272086" lon="13.2693811"><ele>141.0</ele><time>2026-04-19T11:09:42.833Z</time></trkpt><trkpt lat="46.1272886" lon="13.2693379"><ele>141.0</ele><time>2026-04-19T11:09:43.832Z</time></trkpt><trkpt lat="46.1273792" lon="13.2692942"><ele>141.0</ele><time>2026-04-19T11:09:44.833Z</time></trkpt><trkpt lat="46.127479" lon="13.2692389"><ele>141.0</ele><time>2026-04-19T11:09:45.833Z</time></trkpt><trkpt lat="46.1275922" lon="13.2691743"><ele>141.0</ele><time>2026-04-19T11:09:46.833Z</time></trkpt><trkpt lat="46.1277234" lon="13.2691052"><ele>140.33333333333334</ele><time>2026-04-19T11:09:47.833Z</time></trkpt><trkpt lat="46.1278757" lon="13.2690276"><ele>139.66666666666669</ele><time>2026-04-19T11:09:48.833Z</time></trkpt><trkpt lat="46.128041" lon="13.2689377"><ele>139.0</ele><time>2026-04-19T11:09:49.832Z</time></trkpt><trkpt lat="46.1282165" lon="13.2688409"><ele>140.66666666666669</ele><time>2026-04-19T11:09:50.833Z</time></trkpt><trkpt lat="46.1283973" lon="13.2687392"><ele>142.33333333333334</ele><time>2026-04-19T11:09:51.832Z</time></trkpt><trkpt lat="46.1285809" lon="13.2686436"><ele>144.0</ele><time>2026-04-19T11:09:52.833Z</time></trkpt><trkpt lat="46.128762" lon="13.2685566"><ele>144.0</ele><time>2026-04-19T11:09:53.833Z</time></trkpt><trkpt lat="46.1289466" lon="13.2684657"><ele>144.0</ele><time>2026-04-19T11:09:54.832Z</time></trkpt><trkpt lat="46.1291302" lon="13.2683662"><ele>144.0</ele><time>2026-04-19T11:09:55.833Z</time></trkpt><trkpt lat="46.1293206" lon="13.2682519"><ele>144.0</ele><time>2026-04-19T11:09:56.832Z</time></trkpt><trkpt lat="46.1295117" lon="13.268142"><ele>144.0</ele><time>2026-04-19T11:09:57.833Z</time></trkpt><trkpt lat="46.1297018" lon="13.2680422"><ele>144.0</ele><time>2026-04-19T11:09:58.833Z</time></trkpt><trkpt lat="46.1298948" lon="13.2679324"><ele>144.0</ele><time>2026-04-19T11:09:59.833Z</time></trkpt><trkpt lat="46.1300757" lon="13.2678235"><ele>144.0</ele><time>2026-04-19T11:10:00.833Z</time></trkpt><trkpt lat="46.1302503" lon="13.2677128"><ele>144.0</ele><time>2026-04-19T11:10:01.832Z</time></trkpt><trkpt lat="46.1304097" lon="13.2676057"><ele>144.0</ele><time>2026-04-19T11:10:02.833Z</time></trkpt><trkpt lat="46.1305633" lon="13.2674969"><ele>144.0</ele><time>2026-04-19T11:10:03.833Z</time></trkpt><trkpt lat="46.1306947" lon="13.2673767"><ele>144.0</ele><time>2026-04-19T11:10:04.833Z</time></trkpt><trkpt lat="46.1308132" lon="13.2672349"><ele>143.75</ele><time>2026-04-19T11:10:05.833Z</time></trkpt><trkpt lat="46.1309173" lon="13.2670842"><ele>143.5</ele><time>2026-04-19T11:10:06.833Z</time></trkpt><trkpt lat="46.130991" lon="13.2669395"><ele>143.25</ele><time>2026-04-19T11:10:07.833Z</time></trkpt><trkpt lat="46.1310514" lon="13.266786"><ele>143.0</ele><time>2026-04-19T11:10:08.832Z</time></trkpt><trkpt lat="46.1311035" lon="13.2666369"><ele>143.0</ele><time>2026-04-19T11:10:09.833Z</time></trkpt><trkpt lat="46.1311488" lon="13.2664984"><ele>143.0</ele><time>2026-04-19T11:10:10.833Z</time></trkpt><trkpt lat="46.1311877" lon="13.266405"><ele>143.0</ele><time>2026-04-19T11:10:11.832Z</time></trkpt><trkpt lat="46.1312522" lon="13.2663135"><ele>143.0</ele><time>2026-04-19T11:10:13.832Z</time></trkpt><trkpt lat="46.1313373" lon="13.2663006"><ele>143.0</ele><time>2026-04-19T11:10:15.832Z</time></trkpt><trkpt lat="46.1314672" lon="13.2662758"><ele>142.8</ele><time>2026-04-19T11:10:17.833Z</time></trkpt><trkpt lat="46.1315388" lon="13.2662411"><ele>142.60000000000002</ele><time>2026-04-19T11:10:18.832Z</time></trkpt><trkpt lat="46.131621" lon="13.2661835"><ele>142.39999999999998</ele><time>2026-04-19T11:10:19.832Z</time></trkpt><trkpt lat="46.1317287" lon="13.2661041"><ele>142.2</ele><time>2026-04-19T11:10:20.832Z</time></trkpt><trkpt lat="46.1318575" lon="13.2660215"><ele>142.0</ele><time>2026-04-19T11:10:21.833Z</time></trkpt><trkpt lat="46.1319954" lon="13.2659554"><ele>142.0</ele><time>2026-04-19T11:10:22.832Z</time></trkpt><trkpt lat="46.1321225" lon="13.265897"><ele>142.0</ele><time>2026-04-19T11:10:23.833Z</time></trkpt><trkpt lat="46.1322433" lon="13.2658258"><ele>142.0</ele><time>2026-04-19T11:10:24.833Z</time></trkpt><trkpt lat="46.1323549" lon="13.2657464"><ele>142.0</ele><time>2026-04-19T11:10:25.833Z</time></trkpt><trkpt lat="46.1324659" lon="13.2656422"><ele>142.0</ele><time>2026-04-19T11:10:26.833Z</time></trkpt><trkpt lat="46.1325772" lon="13.2655338"><ele>142.0</ele><time>2026-04-19T11:10:27.833Z</time></trkpt><trkpt lat="46.1326973" lon="13.2654391"><ele>142.0</ele><time>2026-04-19T11:10:28.833Z</time></trkpt><trkpt lat="46.1328303" lon="13.2653543"><ele>142.0</ele><time>2026-04-19T11:10:29.833Z</time></trkpt><trkpt lat="46.1329675" lon="13.2652545"><ele>142.0</ele><time>2026-04-19T11:10:30.833Z</time></trkpt><trkpt lat="46.133111" lon="13.2651433"><ele>142.0</ele><time>2026-04-19T11:10:31.833Z</time></trkpt><trkpt lat="46.1332459" lon="13.2650492"><ele>142.0</ele><time>2026-04-19T11:10:32.833Z</time></trkpt><trkpt lat="46.133371" lon="13.2649652"><ele>142.0</ele><time>2026-04-19T11:10:33.832Z</time></trkpt><trkpt lat="46.1335054" lon="13.2648938"><ele>142.0</ele><time>2026-04-19T11:10:34.833Z</time></trkpt><trkpt lat="46.133643" lon="13.2648342"><ele>142.0</ele><time>2026-04-19T11:10:35.833Z</time></trkpt><trkpt lat="46.1337789" lon="13.2647947"><ele>142.0</ele><time>2026-04-19T11:10:36.833Z</time></trkpt><trkpt lat="46.1339079" lon="13.2647767"><ele>142.25</ele><time>2026-04-19T11:10:37.833Z</time></trkpt><trkpt lat="46.1340293" lon="13.2647732"><ele>142.5</ele><time>2026-04-19T11:10:38.833Z</time></trkpt><trkpt lat="46.1341459" lon="13.264792"><ele>142.75</ele><time>2026-04-19T11:10:39.832Z</time></trkpt><trkpt lat="46.1342667" lon="13.2648222"><ele>143.0</ele><time>2026-04-19T11:10:40.832Z</time></trkpt><trkpt lat="46.134384" lon="13.2648401"><ele>143.25</ele><time>2026-04-19T11:10:41.833Z</time></trkpt><trkpt lat="46.1345045" lon="13.2648241"><ele>143.5</ele><time>2026-04-19T11:10:42.833Z</time></trkpt><trkpt lat="46.1346294" lon="13.2647821"><ele>143.75</ele><time>2026-04-19T11:10:43.833Z</time></trkpt><trkpt lat="46.1347565" lon="13.2647409"><ele>144.0</ele><time>2026-04-19T11:10:44.833Z</time></trkpt><trkpt lat="46.134883" lon="13.2647094"><ele>144.2</ele><time>2026-04-19T11:10:45.832Z</time></trkpt><trkpt lat="46.1350008" lon="13.2647098"><ele>144.4</ele><time>2026-04-19T11:10:46.833Z</time></trkpt><trkpt lat="46.1351003" lon="13.2647356"><ele>144.6</ele><time>2026-04-19T11:10:47.833Z</time></trkpt><trkpt lat="46.1351795" lon="13.2647878"><ele>144.8</ele><time>2026-04-19T11:10:48.833Z</time></trkpt><trkpt lat="46.1352425" lon="13.2648416"><ele>145.0</ele><time>2026-04-19T11:10:49.833Z</time></trkpt><trkpt lat="46.1353012" lon="13.2649"><ele>145.0</ele><time>2026-04-19T11:10:51.833Z</time></trkpt><trkpt lat="46.1353527" lon="13.2650019"><ele>145.0</ele><time>2026-04-19T11:10:56.833Z</time></trkpt><trkpt lat="46.1353928" lon="13.2651559"><ele>145.0</ele><time>2026-04-19T11:10:58.832Z</time></trkpt><trkpt lat="46.1354581" lon="13.2653049"><ele>145.0</ele><time>2026-04-19T11:11:00.833Z</time></trkpt><trkpt lat="46.1354862" lon="13.2653888"><ele>145.0</ele><time>2026-04-19T11:11:01.833Z</time></trkpt><trkpt lat="46.135514" lon="13.2654865"><ele>145.0</ele><time>2026-04-19T11:11:02.832Z</time></trkpt><trkpt lat="46.1355521" lon="13.2655921"><ele>145.0</ele><time>2026-04-19T11:11:03.833Z</time></trkpt><trkpt lat="46.1355869" lon="13.2656914"><ele>145.0</ele><time>2026-04-19T11:11:04.833Z</time></trkpt><trkpt lat="46.1356201" lon="13.2657825"><ele>145.0</ele><time>2026-04-19T11:11:05.832Z</time></trkpt><trkpt lat="46.1356595" lon="13.2658562"><ele>145.0</ele><time>2026-04-19T11:11:06.833Z</time></trkpt><trkpt lat="46.1357079" lon="13.2659343"><ele>145.0</ele><time>2026-04-19T11:11:07.832Z</time></trkpt><trkpt lat="46.1357536" lon="13.2660049"><ele>145.0</ele><time>2026-04-19T11:11:08.833Z</time></trkpt><trkpt lat="46.1357914" lon="13.2660782"><ele>145.0</ele><time>2026-04-19T11:11:09.833Z</time></trkpt><trkpt lat="46.1358392" lon="13.2661593"><ele>145.0</ele><time>2026-04-19T11:11:10.832Z</time></trkpt><trkpt lat="46.1358912" lon="13.2662305"><ele>145.0</ele><time>2026-04-19T11:11:11.832Z</time></trkpt><trkpt lat="46.135987" lon="13.2663061"><ele>145.0</ele><time>2026-04-19T11:11:13.833Z</time></trkpt><trkpt lat="46.1360991" lon="13.2662608"><ele>145.0</ele><time>2026-04-19T11:11:15.832Z</time></trkpt><trkpt lat="46.1361671" lon="13.2661972"><ele>145.0</ele><time>2026-04-19T11:11:16.833Z</time></trkpt><trkpt lat="46.1362478" lon="13.2661158"><ele>145.0</ele><time>2026-04-19T11:11:17.833Z</time></trkpt><trkpt lat="46.1363471" lon="13.266027"><ele>145.0</ele><time>2026-04-19T11:11:18.832Z</time></trkpt><trkpt lat="46.1364594" lon="13.265923"><ele>145.0</ele><time>2026-04-19T11:11:19.833Z</time></trkpt><trkpt lat="46.1365873" lon="13.2658096"><ele>145.0</ele><time>2026-04-19T11:11:20.833Z</time></trkpt><trkpt lat="46.136719" lon="13.2656958"><ele>145.0</ele><time>2026-04-19T11:11:21.833Z</time></trkpt><trkpt lat="46.1368606" lon="13.2655735"><ele>145.0</ele><time>2026-04-19T11:11:22.833Z</time></trkpt><trkpt lat="46.1370034" lon="13.2654471"><ele>145.0</ele><time>2026-04-19T11:11:23.832Z</time></trkpt><trkpt lat="46.1371542" lon="13.2653184"><ele>145.0</ele><time>2026-04-19T11:11:24.833Z</time></trkpt><trkpt lat="46.137311" lon="13.2651857"><ele>145.0</ele><time>2026-04-19T11:11:25.832Z</time></trkpt><trkpt lat="46.1374645" lon="13.2650662"><ele>145.0</ele><time>2026-04-19T11:11:26.832Z</time></trkpt><trkpt lat="46.1376025" lon="13.2649511"><ele>145.0</ele><time>2026-04-19T11:11:27.833Z</time></trkpt><trkpt lat="46.1377329" lon="13.2648459"><ele>145.0</ele><time>2026-04-19T11:11:28.833Z</time></trkpt><trkpt lat="46.1378726" lon="13.2647494"><ele>145.0</ele><time>2026-04-19T11:11:29.833Z</time></trkpt><trkpt lat="46.1380053" lon="13.2646557"><ele>145.0</ele><time>2026-04-19T11:11:30.832Z</time></trkpt><trkpt lat="46.1381264" lon="13.2645775"><ele>145.0</ele><time>2026-04-19T11:11:31.833Z</time></trkpt><trkpt lat="46.1382532" lon="13.2645153"><ele>145.0</ele><time>2026-04-19T11:11:32.833Z</time></trkpt><trkpt lat="46.1383873" lon="13.2644558"><ele>145.75</ele><time>2026-04-19T11:11:33.833Z</time></trkpt><trkpt lat="46.1385263" lon="13.2644117"><ele>146.5</ele><time>2026-04-19T11:11:34.832Z</time></trkpt><trkpt lat="46.1386582" lon="13.2643839"><ele>147.25</ele><time>2026-04-19T11:11:35.833Z</time></trkpt><trkpt lat="46.1387837" lon="13.2643583"><ele>148.0</ele><time>2026-04-19T11:11:36.832Z</time></trkpt><trkpt lat="46.138901" lon="13.2643323"><ele>148.0</ele><time>2026-04-19T11:11:37.833Z</time></trkpt><trkpt lat="46.1390031" lon="13.2643106"><ele>148.0</ele><time>2026-04-19T11:11:38.832Z</time></trkpt><trkpt lat="46.1390942" lon="13.2642958"><ele>148.0</ele><time>2026-04-19T11:11:39.832Z</time></trkpt><trkpt lat="46.1391757" lon="13.2642829"><ele>148.0</ele><time>2026-04-19T11:11:40.833Z</time></trkpt><trkpt lat="46.1392473" lon="13.2642759"><ele>148.0</ele><time>2026-04-19T11:11:41.833Z</time></trkpt><trkpt lat="46.1393613" lon="13.2642682"><ele>148.20000000000002</ele><time>2026-04-19T11:11:43.833Z</time></trkpt><trkpt lat="46.1394549" lon="13.2642666"><ele>148.4</ele><time>2026-04-19T11:11:45.833Z</time></trkpt><trkpt lat="46.1395355" lon="13.2642565"><ele>148.60000000000002</ele><time>2026-04-19T11:11:47.833Z</time></trkpt><trkpt lat="46.1396048" lon="13.2642483"><ele>148.8</ele><time>2026-04-19T11:11:49.833Z</time></trkpt><trkpt lat="46.1397008" lon="13.2642414"><ele>149.0</ele><time>2026-04-19T11:11:51.833Z</time></trkpt><trkpt lat="46.13984" lon="13.2642415"><ele>148.8</ele><time>2026-04-19T11:11:53.832Z</time></trkpt><trkpt lat="46.1399319" lon="13.2642308"><ele>148.60000000000002</ele><time>2026-04-19T11:11:54.832Z</time></trkpt><trkpt lat="46.1400367" lon="13.2642276"><ele>148.4</ele><time>2026-04-19T11:11:55.833Z</time></trkpt><trkpt lat="46.1401537" lon="13.264225"><ele>148.20000000000002</ele><time>2026-04-19T11:11:56.833Z</time></trkpt><trkpt lat="46.1402878" lon="13.2642226"><ele>148.0</ele><time>2026-04-19T11:11:57.832Z</time></trkpt><trkpt lat="46.1404331" lon="13.2642179"><ele>148.0</ele><time>2026-04-19T11:11:58.833Z</time></trkpt><trkpt lat="46.140579" lon="13.2642129"><ele>148.0</ele><time>2026-04-19T11:11:59.832Z</time></trkpt><trkpt lat="46.140731" lon="13.2642189"><ele>148.0</ele><time>2026-04-19T11:12:00.833Z</time></trkpt><trkpt lat="46.140895" lon="13.2642524"><ele>148.66666666666669</ele><time>2026-04-19T11:12:01.833Z</time></trkpt><trkpt lat="46.141081" lon="13.2643015"><ele>149.33333333333334</ele><time>2026-04-19T11:12:02.833Z</time></trkpt><trkpt lat="46.1412752" lon="13.2643441"><ele>150.0</ele><time>2026-04-19T11:12:03.833Z</time></trkpt><trkpt lat="46.1414821" lon="13.2643919"><ele>149.66666666666666</ele><time>2026-04-19T11:12:04.832Z</time></trkpt><trkpt lat="46.1417007" lon="13.2644458"><ele>149.33333333333331</ele><time>2026-04-19T11:12:05.832Z</time></trkpt><trkpt lat="46.1419181" lon="13.2644965"><ele>149.0</ele><time>2026-04-19T11:12:06.832Z</time></trkpt><trkpt lat="46.1421156" lon="13.2645418"><ele>149.0</ele><time>2026-04-19T11:12:07.833Z</time></trkpt><trkpt lat="46.1422942" lon="13.264582"><ele>149.0</ele><time>2026-04-19T11:12:08.832Z</time></trkpt><trkpt lat="46.1424628" lon="13.2646238"><ele>149.0</ele><time>2026-04-19T11:12:09.832Z</time></trkpt><trkpt lat="46.1426179" lon="13.264665"><ele>149.5</ele><time>2026-04-19T11:12:10.832Z</time></trkpt><trkpt lat="46.1427553" lon="13.2646984"><ele>150.0</ele><time>2026-04-19T11:12:11.833Z</time></trkpt><trkpt lat="46.1428818" lon="13.2647356"><ele>150.5</ele><time>2026-04-19T11:12:12.833Z</time></trkpt><trkpt lat="46.1429906" lon="13.26476"><ele>151.0</ele><time>2026-04-19T11:12:13.832Z</time></trkpt><trkpt lat="46.1430853" lon="13.2647891"><ele>151.0</ele><time>2026-04-19T11:12:14.833Z</time></trkpt><trkpt lat="46.1431732" lon="13.2648102"><ele>151.0</ele><time>2026-04-19T11:12:15.833Z</time></trkpt><trkpt lat="46.1432573" lon="13.264824"><ele>151.0</ele><time>2026-04-19T11:12:16.832Z</time></trkpt><trkpt lat="46.143328" lon="13.2648451"><ele>151.0</ele><time>2026-04-19T11:12:17.833Z</time></trkpt><trkpt lat="46.1434484" lon="13.2648786"><ele>151.0</ele><time>2026-04-19T11:12:19.833Z</time></trkpt><trkpt lat="46.1435423" lon="13.264857"><ele>151.0</ele><time>2026-04-19T11:12:21.833Z</time></trkpt><trkpt lat="46.1436031" lon="13.2647318"><ele>151.0</ele><time>2026-04-19T11:12:23.833Z</time></trkpt><trkpt lat="46.1436125" lon="13.2646377"><ele>151.0</ele><time>2026-04-19T11:12:24.832Z</time></trkpt><trkpt lat="46.1436147" lon="13.2645359"><ele>151.0</ele><time>2026-04-19T11:12:25.833Z</time></trkpt><trkpt lat="46.1436342" lon="13.2644471"><ele>151.0</ele><time>2026-04-19T11:12:26.832Z</time></trkpt><trkpt lat="46.1436778" lon="13.2643739"><ele>151.0</ele><time>2026-04-19T11:12:27.833Z</time></trkpt><trkpt lat="46.1437478" lon="13.2643164"><ele>151.0</ele><time>2026-04-19T11:12:28.833Z</time></trkpt><trkpt lat="46.1438352" lon="13.2642959"><ele>151.0</ele><time>2026-04-19T11:12:29.833Z</time></trkpt><trkpt lat="46.1439449" lon="13.2642876"><ele>151.0</ele><time>2026-04-19T11:12:30.832Z</time></trkpt><trkpt lat="46.1440721" lon="13.2642672"><ele>151.0</ele><time>2026-04-19T11:12:31.832Z</time></trkpt><trkpt lat="46.1442125" lon="13.2642098"><ele>151.0</ele><time>2026-04-19T11:12:32.832Z</time></trkpt><trkpt lat="46.1443625" lon="13.2641403"><ele>151.0</ele><time>2026-04-19T11:12:33.833Z</time></trkpt><trkpt lat="46.1445258" lon="13.2640742"><ele>151.0</ele><time>2026-04-19T11:12:34.833Z</time></trkpt><trkpt lat="46.1446799" lon="13.2640255"><ele>151.0</ele><time>2026-04-19T11:12:35.833Z</time></trkpt><trkpt lat="46.1448202" lon="13.2639992"><ele>151.0</ele><time>2026-04-19T11:12:36.833Z</time></trkpt><trkpt lat="46.1449503" lon="13.2639997"><ele>151.0</ele><time>2026-04-19T11:12:37.832Z</time></trkpt><trkpt lat="46.1450802" lon="13.2640514"><ele>151.0</ele><time>2026-04-19T11:12:38.832Z</time></trkpt><trkpt lat="46.1452266" lon="13.2641144"><ele>152.0</ele><time>2026-04-19T11:12:39.833Z</time></trkpt><trkpt lat="46.1453841" lon="13.2641533"><ele>153.0</ele><time>2026-04-19T11:12:40.832Z</time></trkpt><trkpt lat="46.1455424" lon="13.2641825"><ele>154.0</ele><time>2026-04-19T11:12:41.833Z</time></trkpt><trkpt lat="46.1456955" lon="13.264215"><ele>154.5</ele><time>2026-04-19T11:12:42.833Z</time></trkpt><trkpt lat="46.14584" lon="13.2642509"><ele>155.0</ele><time>2026-04-19T11:12:43.833Z</time></trkpt><trkpt lat="46.1459766" lon="13.2642856"><ele>155.5</ele><time>2026-04-19T11:12:44.832Z</time></trkpt><trkpt lat="46.1461127" lon="13.2643048"><ele>156.0</ele><time>2026-04-19T11:12:45.833Z</time></trkpt><trkpt lat="46.1462444" lon="13.2642999"><ele>156.0</ele><time>2026-04-19T11:12:46.833Z</time></trkpt><trkpt lat="46.146375" lon="13.2642888"><ele>156.0</ele><time>2026-04-19T11:12:47.832Z</time></trkpt><trkpt lat="46.1464809" lon="13.2642715"><ele>156.0</ele><time>2026-04-19T11:12:48.833Z</time></trkpt><trkpt lat="46.1465562" lon="13.2642646"><ele>156.0</ele><time>2026-04-19T11:12:49.833Z</time></trkpt><trkpt lat="46.1466206" lon="13.2642789"><ele>156.0</ele><time>2026-04-19T11:12:50.833Z</time></trkpt><trkpt lat="46.1466873" lon="13.2643915"><ele>155.6</ele><time>2026-04-19T11:12:52.832Z</time></trkpt><trkpt lat="46.1466976" lon="13.2644914"><ele>155.2</ele><time>2026-04-19T11:12:53.833Z</time></trkpt><trkpt lat="46.1466974" lon="13.2646146"><ele>154.8</ele><time>2026-04-19T11:12:54.833Z</time></trkpt><trkpt lat="46.1467118" lon="13.2647417"><ele>154.4</ele><time>2026-04-19T11:12:55.833Z</time></trkpt><trkpt lat="46.1467559" lon="13.2648764"><ele>154.0</ele><time>2026-04-19T11:12:56.833Z</time></trkpt><trkpt lat="46.1468174" lon="13.2650671"><ele>154.0</ele><time>2026-04-19T11:12:57.832Z</time></trkpt><trkpt lat="46.1469048" lon="13.265245"><ele>154.0</ele><time>2026-04-19T11:12:58.833Z</time></trkpt><trkpt lat="46.1469914" lon="13.2654131"><ele>154.0</ele><time>2026-04-19T11:12:59.833Z</time></trkpt><trkpt lat="46.1470701" lon="13.2655574"><ele>154.0</ele><time>2026-04-19T11:13:00.833Z</time></trkpt><trkpt lat="46.1471483" lon="13.2656875"><ele>153.75</ele><time>2026-04-19T11:13:01.833Z</time></trkpt><trkpt lat="46.1472124" lon="13.2658046"><ele>153.5</ele><time>2026-04-19T11:13:02.833Z</time></trkpt><trkpt lat="46.1472673" lon="13.2659403"><ele>153.25</ele><time>2026-04-19T11:13:03.832Z</time></trkpt><trkpt lat="46.147311" lon="13.26609"><ele>153.0</ele><time>2026-04-19T11:13:04.832Z</time></trkpt><trkpt lat="46.1473539" lon="13.2662637"><ele>153.20000000000002</ele><time>2026-04-19T11:13:05.832Z</time></trkpt><trkpt lat="46.1473869" lon="13.2664464"><ele>153.4</ele><time>2026-04-19T11:13:06.833Z</time></trkpt><trkpt lat="46.1474093" lon="13.2666158"><ele>153.60000000000002</ele><time>2026-04-19T11:13:07.833Z</time></trkpt><trkpt lat="46.1474276" lon="13.266762"><ele>153.8</ele><time>2026-04-19T11:13:08.833Z</time></trkpt><trkpt lat="46.147438" lon="13.2668675"><ele>154.0</ele><time>2026-04-19T11:13:09.832Z</time></trkpt><trkpt lat="46.1474714" lon="13.2669715"><ele>154.0</ele><time>2026-04-19T11:13:11.832Z</time></trkpt><trkpt lat="46.1475676" lon="13.2669787"><ele>154.0</ele><time>2026-04-19T11:13:13.833Z</time></trkpt><trkpt lat="46.147646" lon="13.2669503"><ele>154.0</ele><time>2026-04-19T11:13:14.832Z</time></trkpt><trkpt lat="46.1477476" lon="13.2669231"><ele>154.0</ele><time>2026-04-19T11:13:15.833Z</time></trkpt><trkpt lat="46.1478662" lon="13.2669063"><ele>154.0</ele><time>2026-04-19T11:13:16.832Z</time></trkpt><trkpt lat="46.1480015" lon="13.2669075"><ele>154.0</ele><time>2026-04-19T11:13:17.833Z</time></trkpt><trkpt lat="46.14815" lon="13.2669026"><ele>154.0</ele><time>2026-04-19T11:13:18.833Z</time></trkpt><trkpt lat="46.1483134" lon="13.2668964"><ele>154.0</ele><time>2026-04-19T11:13:19.833Z</time></trkpt><trkpt lat="46.1484979" lon="13.2668869"><ele>154.33333333333334</ele><time>2026-04-19T11:13:20.832Z</time></trkpt><trkpt lat="46.1486885" lon="13.2668705"><ele>154.66666666666666</ele><time>2026-04-19T11:13:21.832Z</time></trkpt><trkpt lat="46.1488888" lon="13.2668579"><ele>155.0</ele><time>2026-04-19T11:13:22.832Z</time></trkpt><trkpt lat="46.1490872" lon="13.2668616"><ele>155.33333333333331</ele><time>2026-04-19T11:13:23.832Z</time></trkpt><trkpt lat="46.1492728" lon="13.2668736"><ele>155.66666666666666</ele><time>2026-04-19T11:13:24.832Z</time></trkpt><trkpt lat="46.1494356" lon="13.2668838"><ele>156.0</ele><time>2026-04-19T11:13:25.833Z</time></trkpt><trkpt lat="46.1495861" lon="13.2668675"><ele>156.0</ele><time>2026-04-19T11:13:26.833Z</time></trkpt><trkpt lat="46.1497336" lon="13.2668137"><ele>156.0</ele><time>2026-04-19T11:13:27.833Z</time></trkpt><trkpt lat="46.1498724" lon="13.2667004"><ele>156.0</ele><time>2026-04-19T11:13:28.832Z</time></trkpt><trkpt lat="46.150009" lon="13.266546"><ele>156.0</ele><time>2026-04-19T11:13:29.833Z</time></trkpt><trkpt lat="46.1501437" lon="13.2663581"><ele>156.0</ele><time>2026-04-19T11:13:30.833Z</time></trkpt><trkpt lat="46.1502804" lon="13.266165"><ele>156.0</ele><time>2026-04-19T11:13:31.833Z</time></trkpt><trkpt lat="46.1504337" lon="13.2659692"><ele>156.0</ele><time>2026-04-19T11:13:32.833Z</time></trkpt><trkpt lat="46.1505682" lon="13.2657753"><ele>156.0</ele><time>2026-04-19T11:13:33.833Z</time></trkpt><trkpt lat="46.1506841" lon="13.2656145"><ele>156.0</ele><time>2026-04-19T11:13:34.832Z</time></trkpt><trkpt lat="46.1507943" lon="13.2655094"><ele>156.0</ele><time>2026-04-19T11:13:35.833Z</time></trkpt><trkpt lat="46.1509034" lon="13.2654461"><ele>156.0</ele><time>2026-04-19T11:13:36.833Z</time></trkpt><trkpt lat="46.1510054" lon="13.2654248"><ele>156.0</ele><time>2026-04-19T11:13:37.833Z</time></trkpt><trkpt lat="46.1511195" lon="13.2654219"><ele>156.0</ele><time>2026-04-19T11:13:38.833Z</time></trkpt><trkpt lat="46.15126" lon="13.2654208"><ele>156.0</ele><time>2026-04-19T11:13:39.832Z</time></trkpt><trkpt lat="46.1514138" lon="13.2654159"><ele>156.0</ele><time>2026-04-19T11:13:40.833Z</time></trkpt><trkpt lat="46.1515732" lon="13.2653843"><ele>156.0</ele><time>2026-04-19T11:13:41.833Z</time></trkpt><trkpt lat="46.1517388" lon="13.2653462"><ele>156.33333333333334</ele><time>2026-04-19T11:13:42.832Z</time></trkpt><trkpt lat="46.151918" lon="13.2653181"><ele>156.66666666666669</ele><time>2026-04-19T11:13:43.832Z</time></trkpt><trkpt lat="46.1521069" lon="13.2652978"><ele>157.0</ele><time>2026-04-19T11:13:44.833Z</time></trkpt><trkpt lat="46.1522999" lon="13.2652812"><ele>157.0</ele><time>2026-04-19T11:13:45.832Z</time></trkpt><trkpt lat="46.1525043" lon="13.2652524"><ele>157.0</ele><time>2026-04-19T11:13:46.833Z</time></trkpt><trkpt lat="46.152717" lon="13.2652256"><ele>157.0</ele><time>2026-04-19T11:13:47.833Z</time></trkpt><trkpt lat="46.1529129" lon="13.2652056"><ele>157.0</ele><time>2026-04-19T11:13:48.832Z</time></trkpt><trkpt lat="46.1530888" lon="13.2651923"><ele>157.0</ele><time>2026-04-19T11:13:49.832Z</time></trkpt><trkpt lat="46.1532601" lon="13.2651645"><ele>157.0</ele><time>2026-04-19T11:13:50.832Z</time></trkpt><trkpt lat="46.1534295" lon="13.265107"><ele>156.33333333333334</ele><time>2026-04-19T11:13:51.832Z</time></trkpt><trkpt lat="46.1536045" lon="13.2650225"><ele>155.66666666666666</ele><time>2026-04-19T11:13:52.833Z</time></trkpt><trkpt lat="46.1537703" lon="13.2649194"><ele>155.0</ele><time>2026-04-19T11:13:53.833Z</time></trkpt><trkpt lat="46.1539256" lon="13.2648253"><ele>156.25</ele><time>2026-04-19T11:13:54.833Z</time></trkpt><trkpt lat="46.1540749" lon="13.2647587"><ele>157.5</ele><time>2026-04-19T11:13:55.833Z</time></trkpt><trkpt lat="46.154205" lon="13.264728"><ele>158.75</ele><time>2026-04-19T11:13:56.832Z</time></trkpt><trkpt lat="46.1543193" lon="13.2647043"><ele>160.0</ele><time>2026-04-19T11:13:57.833Z</time></trkpt><trkpt lat="46.1544232" lon="13.2646751"><ele>160.0</ele><time>2026-04-19T11:13:58.832Z</time></trkpt><trkpt lat="46.1545205" lon="13.264625"><ele>160.0</ele><time>2026-04-19T11:13:59.833Z</time></trkpt><trkpt lat="46.1546279" lon="13.264562"><ele>160.0</ele><time>2026-04-19T11:14:00.833Z</time></trkpt><trkpt lat="46.1547539" lon="13.2644847"><ele>160.0</ele><time>2026-04-19T11:14:01.833Z</time></trkpt><trkpt lat="46.1548837" lon="13.2644274"><ele>159.25</ele><time>2026-04-19T11:14:02.833Z</time></trkpt><trkpt lat="46.1550165" lon="13.2643884"><ele>158.5</ele><time>2026-04-19T11:14:03.833Z</time></trkpt><trkpt lat="46.1551319" lon="13.2643542"><ele>157.75</ele><time>2026-04-19T11:14:04.833Z</time></trkpt><trkpt lat="46.1552321" lon="13.2643195"><ele>157.0</ele><time>2026-04-19T11:14:05.832Z</time></trkpt><trkpt lat="46.1553348" lon="13.2642912"><ele>156.99999999999997</ele><time>2026-04-19T11:14:06.833Z</time></trkpt><trkpt lat="46.1554158" lon="13.2642557"><ele>157.0</ele><time>2026-04-19T11:14:07.832Z</time></trkpt><trkpt lat="46.1554809" lon="13.264224"><ele>157.0</ele><time>2026-04-19T11:14:08.833Z</time></trkpt><trkpt lat="46.1555413" lon="13.2641954"><ele>157.0</ele><time>2026-04-19T11:14:09.832Z</time></trkpt><trkpt lat="46.1556129" lon="13.2641569"><ele>157.0</ele><time>2026-04-19T11:14:11.833Z</time></trkpt><trkpt lat="46.1556832" lon="13.2641338"><ele>156.99999999999997</ele><time>2026-04-19T11:14:14.833Z</time></trkpt><trkpt lat="46.1557495" lon="13.2641032"><ele>157.0</ele><time>2026-04-19T11:14:16.833Z</time></trkpt><trkpt lat="46.1558548" lon="13.2640602"><ele>157.4</ele><time>2026-04-19T11:14:18.833Z</time></trkpt><trkpt lat="46.1559763" lon="13.2639982"><ele>157.79999999999998</ele><time>2026-04-19T11:14:20.833Z</time></trkpt><trkpt lat="46.1560523" lon="13.2639631"><ele>158.2</ele><time>2026-04-19T11:14:21.833Z</time></trkpt><trkpt lat="46.1561415" lon="13.2639076"><ele>158.6</ele><time>2026-04-19T11:14:22.833Z</time></trkpt><trkpt lat="46.1562496" lon="13.2638394"><ele>159.0</ele><time>2026-04-19T11:14:23.833Z</time></trkpt><trkpt lat="46.1563713" lon="13.2637805"><ele>159.0</ele><time>2026-04-19T11:14:24.833Z</time></trkpt><trkpt lat="46.1565003" lon="13.2637316"><ele>159.0</ele><time>2026-04-19T11:14:25.832Z</time></trkpt><trkpt lat="46.1566358" lon="13.2636926"><ele>159.0</ele><time>2026-04-19T11:14:26.832Z</time></trkpt><trkpt lat="46.1567663" lon="13.2636689"><ele>159.0</ele><time>2026-04-19T11:14:27.833Z</time></trkpt><trkpt lat="46.1568961" lon="13.263657"><ele>158.8</ele><time>2026-04-19T11:14:28.833Z</time></trkpt><trkpt lat="46.1570152" lon="13.2636511"><ele>158.60000000000002</ele><time>2026-04-19T11:14:29.833Z</time></trkpt><trkpt lat="46.1571303" lon="13.2636586"><ele>158.4</ele><time>2026-04-19T11:14:30.833Z</time></trkpt><trkpt lat="46.1572344" lon="13.263678"><ele>158.20000000000002</ele><time>2026-04-19T11:14:31.833Z</time></trkpt><trkpt lat="46.1573343" lon="13.2637166"><ele>158.0</ele><time>2026-04-19T11:14:32.833Z</time></trkpt><trkpt lat="46.1574413" lon="13.263758"><ele>158.5</ele><time>2026-04-19T11:14:33.832Z</time></trkpt><trkpt lat="46.1575382" lon="13.2638024"><ele>159.0</ele><time>2026-04-19T11:14:34.832Z</time></trkpt><trkpt lat="46.1576558" lon="13.2638381"><ele>159.5</ele><time>2026-04-19T11:14:35.833Z</time></trkpt><trkpt lat="46.1577951" lon="13.2638699"><ele>160.0</ele><time>2026-04-19T11:14:36.833Z</time></trkpt><trkpt lat="46.1579313" lon="13.2638939"><ele>160.0</ele><time>2026-04-19T11:14:37.833Z</time></trkpt><trkpt lat="46.1580681" lon="13.2639505"><ele>160.0</ele><time>2026-04-19T11:14:38.833Z</time></trkpt><trkpt lat="46.1581997" lon="13.2640192"><ele>160.0</ele><time>2026-04-19T11:14:39.832Z</time></trkpt><trkpt lat="46.1583295" lon="13.2640699"><ele>160.0</ele><time>2026-04-19T11:14:40.833Z</time></trkpt><trkpt lat="46.1584641" lon="13.264101"><ele>160.75</ele><time>2026-04-19T11:14:41.832Z</time></trkpt><trkpt lat="46.1585948" lon="13.2641075"><ele>161.5</ele><time>2026-04-19T11:14:42.833Z</time></trkpt><trkpt lat="46.1587269" lon="13.2640959"><ele>162.25</ele><time>2026-04-19T11:14:43.833Z</time></trkpt><trkpt lat="46.15886" lon="13.264112"><ele>163.0</ele><time>2026-04-19T11:14:44.833Z</time></trkpt><trkpt lat="46.1589952" lon="13.2641663"><ele>162.66666666666669</ele><time>2026-04-19T11:14:45.832Z</time></trkpt><trkpt lat="46.1591454" lon="13.2642501"><ele>162.33333333333334</ele><time>2026-04-19T11:14:46.833Z</time></trkpt><trkpt lat="46.1592969" lon="13.264316"><ele>162.0</ele><time>2026-04-19T11:14:47.833Z</time></trkpt><trkpt lat="46.1594352" lon="13.2643751"><ele>162.0</ele><time>2026-04-19T11:14:48.832Z</time></trkpt><trkpt lat="46.1595542" lon="13.264433"><ele>162.0</ele><time>2026-04-19T11:14:49.833Z</time></trkpt><trkpt lat="46.1596621" lon="13.2644775"><ele>162.0</ele><time>2026-04-19T11:14:50.833Z</time></trkpt><trkpt lat="46.1597621" lon="13.2645069"><ele>162.0</ele><time>2026-04-19T11:14:51.833Z</time></trkpt><trkpt lat="46.1598586" lon="13.2645045"><ele>162.0</ele><time>2026-04-19T11:14:52.833Z</time></trkpt><trkpt lat="46.1599566" lon="13.2644733"><ele>162.2</ele><time>2026-04-19T11:14:53.833Z</time></trkpt><trkpt lat="46.1600428" lon="13.2644231"><ele>162.39999999999998</ele><time>2026-04-19T11:14:54.832Z</time></trkpt><trkpt lat="46.1601096" lon="13.2643762"><ele>162.60000000000002</ele><time>2026-04-19T11:14:55.833Z</time></trkpt><trkpt lat="46.160168" lon="13.2642651"><ele>162.8</ele><time>2026-04-19T11:14:57.833Z</time></trkpt><trkpt lat="46.1601789" lon="13.2640977"><ele>163.0</ele><time>2026-04-19T11:14:59.832Z</time></trkpt><trkpt lat="46.1602235" lon="13.2639714"><ele>163.0</ele><time>2026-04-19T11:15:01.833Z</time></trkpt><trkpt lat="46.1603345" lon="13.2639094"><ele>163.0</ele><time>2026-04-19T11:15:03.832Z</time></trkpt><trkpt lat="46.1604175" lon="13.2638871"><ele>163.0</ele><time>2026-04-19T11:15:04.832Z</time></trkpt><trkpt lat="46.16052" lon="13.2638813"><ele>163.0</ele><time>2026-04-19T11:15:05.833Z</time></trkpt><trkpt lat="46.160612" lon="13.2638787"><ele>163.0</ele><time>2026-04-19T11:15:06.832Z</time></trkpt><trkpt lat="46.1606824" lon="13.2638668"><ele>162.85714285714286</ele><time>2026-04-19T11:15:07.832Z</time></trkpt><trkpt lat="46.1607514" lon="13.2638421"><ele>162.7142857142857</ele><time>2026-04-19T11:15:08.833Z</time></trkpt><trkpt lat="46.1608248" lon="13.263788"><ele>162.57142857142856</ele><time>2026-04-19T11:15:09.833Z</time></trkpt><trkpt lat="46.1608824" lon="13.2637293"><ele>162.42857142857144</ele><time>2026-04-19T11:15:10.833Z</time></trkpt><trkpt lat="46.1609568" lon="13.2636831"><ele>162.28571428571428</ele><time>2026-04-19T11:15:12.833Z</time></trkpt><trkpt lat="46.160983" lon="13.2637721"><ele>162.14285714285714</ele><time>2026-04-19T11:15:15.832Z</time></trkpt><trkpt lat="46.1609702" lon="13.2638662"><ele>162.0</ele><time>2026-04-19T11:15:17.833Z</time></trkpt><trkpt lat="46.1610135" lon="13.2639476"><ele>162.0</ele><time>2026-04-19T11:15:20.832Z</time></trkpt><trkpt lat="46.1611107" lon="13.2639314"><ele>162.0</ele><time>2026-04-19T11:15:22.833Z</time></trkpt><trkpt lat="46.1611914" lon="13.2639152"><ele>162.0</ele><time>2026-04-19T11:15:23.832Z</time></trkpt><trkpt lat="46.1612974" lon="13.2638952"><ele>162.0</ele><time>2026-04-19T11:15:24.833Z</time></trkpt><trkpt lat="46.1614136" lon="13.263879"><ele>162.0</ele><time>2026-04-19T11:15:25.833Z</time></trkpt><trkpt lat="46.1615217" lon="13.263856"><ele>162.5</ele><time>2026-04-19T11:15:26.832Z</time></trkpt><trkpt lat="46.1616257" lon="13.2638195"><ele>163.0</ele><time>2026-04-19T11:15:27.833Z</time></trkpt><trkpt lat="46.1617277" lon="13.2637612"><ele>163.5</ele><time>2026-04-19T11:15:28.833Z</time></trkpt><trkpt lat="46.1618373" lon="13.2636817"><ele>164.0</ele><time>2026-04-19T11:15:29.833Z</time></trkpt><trkpt lat="46.1619653" lon="13.2635926"><ele>164.0</ele><time>2026-04-19T11:15:30.833Z</time></trkpt><trkpt lat="46.1621064" lon="13.2634966"><ele>164.0</ele><time>2026-04-19T11:15:31.832Z</time></trkpt><trkpt lat="46.1622508" lon="13.2633997"><ele>164.0</ele><time>2026-04-19T11:15:32.832Z</time></trkpt><trkpt lat="46.1623902" lon="13.2633099"><ele>164.25</ele><time>2026-04-19T11:15:33.833Z</time></trkpt><trkpt lat="46.1625204" lon="13.2632298"><ele>164.5</ele><time>2026-04-19T11:15:34.833Z</time></trkpt><trkpt lat="46.1626619" lon="13.2631551"><ele>164.75</ele><time>2026-04-19T11:15:35.833Z</time></trkpt><trkpt lat="46.1628076" lon="13.263087"><ele>165.0</ele><time>2026-04-19T11:15:36.833Z</time></trkpt><trkpt lat="46.1629624" lon="13.2630167"><ele>165.0</ele><time>2026-04-19T11:15:37.833Z</time></trkpt><trkpt lat="46.1631271" lon="13.2629495"><ele>165.0</ele><time>2026-04-19T11:15:38.833Z</time></trkpt><trkpt lat="46.1632946" lon="13.2628851"><ele>165.0</ele><time>2026-04-19T11:15:39.833Z</time></trkpt><trkpt lat="46.1634663" lon="13.2628086"><ele>165.33333333333334</ele><time>2026-04-19T11:15:40.832Z</time></trkpt><trkpt lat="46.163641" lon="13.2627312"><ele>165.66666666666669</ele><time>2026-04-19T11:15:41.832Z</time></trkpt><trkpt lat="46.1638061" lon="13.2626657"><ele>166.0</ele><time>2026-04-19T11:15:42.832Z</time></trkpt><trkpt lat="46.1639582" lon="13.2625978"><ele>166.0</ele><time>2026-04-19T11:15:43.832Z</time></trkpt><trkpt lat="46.1640997" lon="13.2625422"><ele>166.0</ele><time>2026-04-19T11:15:44.832Z</time></trkpt><trkpt lat="46.164225" lon="13.2624894"><ele>166.0</ele><time>2026-04-19T11:15:45.833Z</time></trkpt><trkpt lat="46.164323" lon="13.2624535"><ele>166.0</ele><time>2026-04-19T11:15:46.833Z</time></trkpt><trkpt lat="46.1644039" lon="13.2624277"><ele>166.0</ele><time>2026-04-19T11:15:47.833Z</time></trkpt><trkpt lat="46.1645032" lon="13.2623778"><ele>166.0</ele><time>2026-04-19T11:15:49.832Z</time></trkpt><trkpt lat="46.1645245" lon="13.2622162"><ele>166.0</ele><time>2026-04-19T11:15:52.833Z</time></trkpt><trkpt lat="46.1645206" lon="13.262099"><ele>166.0</ele><time>2026-04-19T11:15:53.832Z</time></trkpt><trkpt lat="46.164506" lon="13.2619486"><ele>166.0</ele><time>2026-04-19T11:15:54.833Z</time></trkpt><trkpt lat="46.1644752" lon="13.2617565"><ele>165.66666666666669</ele><time>2026-04-19T11:15:55.833Z</time></trkpt><trkpt lat="46.1644336" lon="13.2615197"><ele>165.33333333333334</ele><time>2026-04-19T11:15:56.833Z</time></trkpt><trkpt lat="46.164398" lon="13.2612768"><ele>165.0</ele><time>2026-04-19T11:15:57.832Z</time></trkpt><trkpt lat="46.1643638" lon="13.2610305"><ele>165.0</ele><time>2026-04-19T11:15:58.832Z</time></trkpt><trkpt lat="46.1643316" lon="13.2607811"><ele>165.0</ele><time>2026-04-19T11:15:59.833Z</time></trkpt><trkpt lat="46.1642997" lon="13.2605275"><ele>165.0</ele><time>2026-04-19T11:16:00.832Z</time></trkpt><trkpt lat="46.1642678" lon="13.2602686"><ele>165.66666666666666</ele><time>2026-04-19T11:16:01.832Z</time></trkpt><trkpt lat="46.1642362" lon="13.2600233"><ele>166.33333333333331</ele><time>2026-04-19T11:16:02.833Z</time></trkpt><trkpt lat="46.1642039" lon="13.2597992"><ele>167.0</ele><time>2026-04-19T11:16:03.833Z</time></trkpt><trkpt lat="46.1641734" lon="13.2595824"><ele>166.75</ele><time>2026-04-19T11:16:04.832Z</time></trkpt><trkpt lat="46.1641422" lon="13.2593812"><ele>166.5</ele><time>2026-04-19T11:16:05.832Z</time></trkpt><trkpt lat="46.1641145" lon="13.2591777"><ele>166.25</ele><time>2026-04-19T11:16:06.832Z</time></trkpt><trkpt lat="46.1640803" lon="13.2589776"><ele>166.0</ele><time>2026-04-19T11:16:07.832Z</time></trkpt><trkpt lat="46.1640544" lon="13.2587872"><ele>165.75</ele><time>2026-04-19T11:16:08.833Z</time></trkpt><trkpt lat="46.1640283" lon="13.2585909"><ele>165.5</ele><time>2026-04-19T11:16:09.832Z</time></trkpt><trkpt lat="46.1639973" lon="13.2584074"><ele>165.25</ele><time>2026-04-19T11:16:10.833Z</time></trkpt><trkpt lat="46.1639685" lon="13.2582285"><ele>165.0</ele><time>2026-04-19T11:16:11.833Z</time></trkpt><trkpt lat="46.1639471" lon="13.2580401"><ele>165.0</ele><time>2026-04-19T11:16:12.832Z</time></trkpt><trkpt lat="46.1639201" lon="13.2578451"><ele>165.0</ele><time>2026-04-19T11:16:13.833Z</time></trkpt><trkpt lat="46.163886" lon="13.2576597"><ele>165.0</ele><time>2026-04-19T11:16:14.832Z</time></trkpt><trkpt lat="46.1638535" lon="13.2574631"><ele>165.0</ele><time>2026-04-19T11:16:15.833Z</time></trkpt><trkpt lat="46.1638265" lon="13.257279"><ele>165.2</ele><time>2026-04-19T11:16:16.833Z</time></trkpt><trkpt lat="46.1637986" lon="13.2571143"><ele>165.4</ele><time>2026-04-19T11:16:17.833Z</time></trkpt><trkpt lat="46.1637797" lon="13.2569564"><ele>165.60000000000002</ele><time>2026-04-19T11:16:18.833Z</time></trkpt><trkpt lat="46.1637725" lon="13.2568104"><ele>165.8</ele><time>2026-04-19T11:16:19.833Z</time></trkpt><trkpt lat="46.1637746" lon="13.2566999"><ele>166.0</ele><time>2026-04-19T11:16:20.833Z</time></trkpt><trkpt lat="46.1637937" lon="13.2565991"><ele>166.0</ele><time>2026-04-19T11:16:21.833Z</time></trkpt><trkpt lat="46.1638416" lon="13.2565274"><ele>166.0</ele><time>2026-04-19T11:16:22.832Z</time></trkpt><trkpt lat="46.1639236" lon="13.2564867"><ele>166.0</ele><time>2026-04-19T11:16:23.833Z</time></trkpt><trkpt lat="46.1640246" lon="13.2564479"><ele>166.0</ele><time>2026-04-19T11:16:24.833Z</time></trkpt><trkpt lat="46.1641503" lon="13.256387"><ele>166.0</ele><time>2026-04-19T11:16:25.833Z</time></trkpt><trkpt lat="46.1642916" lon="13.2562902"><ele>166.66666666666669</ele><time>2026-04-19T11:16:26.833Z</time></trkpt><trkpt lat="46.1644141" lon="13.2561639"><ele>167.33333333333334</ele><time>2026-04-19T11:16:27.832Z</time></trkpt><trkpt lat="46.1645134" lon="13.2560059"><ele>168.0</ele><time>2026-04-19T11:16:28.832Z</time></trkpt><trkpt lat="46.1646028" lon="13.2558237"><ele>168.0</ele><time>2026-04-19T11:16:29.833Z</time></trkpt><trkpt lat="46.1646503" lon="13.2556528"><ele>168.0</ele><time>2026-04-19T11:16:30.833Z</time></trkpt><trkpt lat="46.1647048" lon="13.2555106"><ele>168.0</ele><time>2026-04-19T11:16:31.832Z</time></trkpt><trkpt lat="46.1647601" lon="13.255377"><ele>168.0</ele><time>2026-04-19T11:16:32.833Z</time></trkpt><trkpt lat="46.1648003" lon="13.2552359"><ele>168.0</ele><time>2026-04-19T11:16:33.833Z</time></trkpt><trkpt lat="46.1648141" lon="13.2550802"><ele>168.0</ele><time>2026-04-19T11:16:34.832Z</time></trkpt><trkpt lat="46.1648122" lon="13.2549063"><ele>168.0</ele><time>2026-04-19T11:16:35.833Z</time></trkpt><trkpt lat="46.1647911" lon="13.2547304"><ele>168.0</ele><time>2026-04-19T11:16:36.833Z</time></trkpt><trkpt lat="46.1647721" lon="13.254552"><ele>168.0</ele><time>2026-04-19T11:16:37.832Z</time></trkpt><trkpt lat="46.164746" lon="13.2543915"><ele>168.0</ele><time>2026-04-19T11:16:38.832Z</time></trkpt><trkpt lat="46.1647347" lon="13.2542243"><ele>168.0</ele><time>2026-04-19T11:16:39.833Z</time></trkpt><trkpt lat="46.1647473" lon="13.2540436"><ele>168.0</ele><time>2026-04-19T11:16:40.833Z</time></trkpt><trkpt lat="46.164775" lon="13.2538357"><ele>168.0</ele><time>2026-04-19T11:16:41.833Z</time></trkpt><trkpt lat="46.1648166" lon="13.2535982"><ele>168.0</ele><time>2026-04-19T11:16:42.833Z</time></trkpt><trkpt lat="46.1648436" lon="13.2533994"><ele>168.0</ele><time>2026-04-19T11:16:43.833Z</time></trkpt><trkpt lat="46.1648539" lon="13.2532218"><ele>168.0</ele><time>2026-04-19T11:16:44.833Z</time></trkpt><trkpt lat="46.1648538" lon="13.2530926"><ele>168.0</ele><time>2026-04-19T11:16:45.833Z</time></trkpt><trkpt lat="46.164864" lon="13.2529756"><ele>168.0</ele><time>2026-04-19T11:16:47.833Z</time></trkpt><trkpt lat="46.1648586" lon="13.2528295"><ele>168.0</ele><time>2026-04-19T11:16:50.833Z</time></trkpt><trkpt lat="46.1648493" lon="13.2527204"><ele>168.0</ele><time>2026-04-19T11:16:51.833Z</time></trkpt><trkpt lat="46.1648507" lon="13.2525893"><ele>168.0</ele><time>2026-04-19T11:16:52.833Z</time></trkpt><trkpt lat="46.164856" lon="13.2524051"><ele>167.33333333333334</ele><time>2026-04-19T11:16:53.833Z</time></trkpt><trkpt lat="46.1648547" lon="13.2522007"><ele>166.66666666666669</ele><time>2026-04-19T11:16:54.833Z</time></trkpt><trkpt lat="46.1648489" lon="13.2519765"><ele>166.0</ele><time>2026-04-19T11:16:55.832Z</time></trkpt><trkpt lat="46.1648374" lon="13.2517421"><ele>166.0</ele><time>2026-04-19T11:16:56.833Z</time></trkpt><trkpt lat="46.1648202" lon="13.2515001"><ele>166.0</ele><time>2026-04-19T11:16:57.832Z</time></trkpt><trkpt lat="46.1647944" lon="13.2512616"><ele>166.0</ele><time>2026-04-19T11:16:58.833Z</time></trkpt><trkpt lat="46.1647786" lon="13.2510087"><ele>165.66666666666669</ele><time>2026-04-19T11:16:59.833Z</time></trkpt><trkpt lat="46.1647592" lon="13.2507594"><ele>165.33333333333334</ele><time>2026-04-19T11:17:00.833Z</time></trkpt><trkpt lat="46.1647051" lon="13.2505136"><ele>165.0</ele><time>2026-04-19T11:17:01.832Z</time></trkpt><trkpt lat="46.1646441" lon="13.2502723"><ele>165.66666666666666</ele><time>2026-04-19T11:17:02.833Z</time></trkpt><trkpt lat="46.1645611" lon="13.2500491"><ele>166.33333333333331</ele><time>2026-04-19T11:17:03.833Z</time></trkpt><trkpt lat="46.164467" lon="13.2498247"><ele>167.0</ele><time>2026-04-19T11:17:04.833Z</time></trkpt><trkpt lat="46.164374" lon="13.2496002"><ele>167.66666666666666</ele><time>2026-04-19T11:17:05.832Z</time></trkpt><trkpt lat="46.1642831" lon="13.2493884"><ele>168.33333333333334</ele><time>2026-04-19T11:17:06.833Z</time></trkpt><trkpt lat="46.1641958" lon="13.2491583"><ele>169.0</ele><time>2026-04-19T11:17:07.833Z</time></trkpt><trkpt lat="46.1641096" lon="13.2489198"><ele>168.33333333333334</ele><time>2026-04-19T11:17:08.832Z</time></trkpt><trkpt lat="46.1640091" lon="13.2486875"><ele>167.66666666666666</ele><time>2026-04-19T11:17:09.832Z</time></trkpt><trkpt lat="46.163911" lon="13.2484509"><ele>167.0</ele><time>2026-04-19T11:17:10.833Z</time></trkpt><trkpt lat="46.163813" lon="13.2482144"><ele>168.0</ele><time>2026-04-19T11:17:11.833Z</time></trkpt><trkpt lat="46.1637061" lon="13.2479589"><ele>169.0</ele><time>2026-04-19T11:17:12.832Z</time></trkpt><trkpt lat="46.1636114" lon="13.2477013"><ele>170.0</ele><time>2026-04-19T11:17:13.833Z</time></trkpt><trkpt lat="46.1635139" lon="13.247455"><ele>170.66666666666666</ele><time>2026-04-19T11:17:14.832Z</time></trkpt><trkpt lat="46.1634226" lon="13.247221"><ele>171.33333333333334</ele><time>2026-04-19T11:17:15.832Z</time></trkpt><trkpt lat="46.163341" lon="13.2470071"><ele>172.0</ele><time>2026-04-19T11:17:16.833Z</time></trkpt><trkpt lat="46.1632772" lon="13.2467903"><ele>172.0</ele><time>2026-04-19T11:17:17.833Z</time></trkpt><trkpt lat="46.1632461" lon="13.2465504"><ele>172.0</ele><time>2026-04-19T11:17:18.833Z</time></trkpt><trkpt lat="46.1632383" lon="13.2462918"><ele>172.0</ele><time>2026-04-19T11:17:19.833Z</time></trkpt><trkpt lat="46.163242" lon="13.2460414"><ele>172.0</ele><time>2026-04-19T11:17:20.833Z</time></trkpt><trkpt lat="46.1632535" lon="13.2457764"><ele>172.0</ele><time>2026-04-19T11:17:21.833Z</time></trkpt><trkpt lat="46.1632679" lon="13.245521"><ele>172.0</ele><time>2026-04-19T11:17:22.832Z</time></trkpt><trkpt lat="46.1632782" lon="13.2452637"><ele>172.0</ele><time>2026-04-19T11:17:23.832Z</time></trkpt><trkpt lat="46.1632937" lon="13.2450328"><ele>172.0</ele><time>2026-04-19T11:17:24.833Z</time></trkpt><trkpt lat="46.1633041" lon="13.2448207"><ele>172.0</ele><time>2026-04-19T11:17:25.833Z</time></trkpt><trkpt lat="46.1633025" lon="13.2446254"><ele>172.0</ele><time>2026-04-19T11:17:26.833Z</time></trkpt><trkpt lat="46.1632923" lon="13.244449"><ele>171.83333333333334</ele><time>2026-04-19T11:17:27.833Z</time></trkpt><trkpt lat="46.1632835" lon="13.2443016"><ele>171.66666666666669</ele><time>2026-04-19T11:17:28.833Z</time></trkpt><trkpt lat="46.1632713" lon="13.2441926"><ele>171.5</ele><time>2026-04-19T11:17:29.833Z</time></trkpt><trkpt lat="46.1632834" lon="13.2440484"><ele>171.33333333333334</ele><time>2026-04-19T11:17:31.833Z</time></trkpt><trkpt lat="46.1633614" lon="13.2440146"><ele>171.16666666666666</ele><time>2026-04-19T11:17:33.832Z</time></trkpt><trkpt lat="46.163439" lon="13.244019"><ele>171.0</ele><time>2026-04-19T11:17:34.832Z</time></trkpt><trkpt lat="46.1635531" lon="13.2440313"><ele>171.0</ele><time>2026-04-19T11:17:35.833Z</time></trkpt><trkpt lat="46.1637065" lon="13.2440446"><ele>171.0</ele><time>2026-04-19T11:17:36.833Z</time></trkpt><trkpt lat="46.1638749" lon="13.2440374"><ele>171.0</ele><time>2026-04-19T11:17:37.833Z</time></trkpt><trkpt lat="46.1640648" lon="13.2440314"><ele>171.0</ele><time>2026-04-19T11:17:38.832Z</time></trkpt><trkpt lat="46.1642665" lon="13.2440097"><ele>171.0</ele><time>2026-04-19T11:17:39.833Z</time></trkpt><trkpt lat="46.1644744" lon="13.2439842"><ele>171.0</ele><time>2026-04-19T11:17:40.833Z</time></trkpt><trkpt lat="46.1646993" lon="13.2439518"><ele>172.0</ele><time>2026-04-19T11:17:41.833Z</time></trkpt><trkpt lat="46.1649301" lon="13.2439197"><ele>173.0</ele><time>2026-04-19T11:17:42.832Z</time></trkpt><trkpt lat="46.1651684" lon="13.2438896"><ele>173.0</ele><time>2026-04-19T11:17:43.833Z</time></trkpt><trkpt lat="46.1654042" lon="13.2438493"><ele>173.0</ele><time>2026-04-19T11:17:44.832Z</time></trkpt><trkpt lat="46.1656406" lon="13.2438186"><ele>173.5</ele><time>2026-04-19T11:17:45.832Z</time></trkpt><trkpt lat="46.1658682" lon="13.2438003"><ele>174.0</ele><time>2026-04-19T11:17:46.832Z</time></trkpt><trkpt lat="46.1660905" lon="13.2437787"><ele>174.0</ele><time>2026-04-19T11:17:47.832Z</time></trkpt><trkpt lat="46.1663065" lon="13.2437528"><ele>174.0</ele><time>2026-04-19T11:17:48.832Z</time></trkpt><trkpt lat="46.1665224" lon="13.2437311"><ele>174.0</ele><time>2026-04-19T11:17:49.833Z</time></trkpt><trkpt lat="46.1667404" lon="13.2437131"><ele>173.66666666666666</ele><time>2026-04-19T11:17:50.833Z</time></trkpt><trkpt lat="46.1669625" lon="13.2436837"><ele>173.33333333333331</ele><time>2026-04-19T11:17:51.832Z</time></trkpt><trkpt lat="46.1671846" lon="13.2436566"><ele>173.0</ele><time>2026-04-19T11:17:52.832Z</time></trkpt><trkpt lat="46.1674038" lon="13.2436228"><ele>173.0</ele><time>2026-04-19T11:17:53.832Z</time></trkpt><trkpt lat="46.1676265" lon="13.2435977"><ele>173.0</ele><time>2026-04-19T11:17:54.832Z</time></trkpt><trkpt lat="46.1678509" lon="13.2435663"><ele>173.0</ele><time>2026-04-19T11:17:55.832Z</time></trkpt><trkpt lat="46.1680701" lon="13.2435398"><ele>173.0</ele><time>2026-04-19T11:17:56.832Z</time></trkpt><trkpt lat="46.16829" lon="13.2435173"><ele>173.0</ele><time>2026-04-19T11:17:57.832Z</time></trkpt><trkpt lat="46.1685086" lon="13.2434941"><ele>173.0</ele><time>2026-04-19T11:17:58.832Z</time></trkpt><trkpt lat="46.1687197" lon="13.2434671"><ele>173.0</ele><time>2026-04-19T11:17:59.833Z</time></trkpt><trkpt lat="46.1689438" lon="13.2434372"><ele>173.0</ele><time>2026-04-19T11:18:00.833Z</time></trkpt><trkpt lat="46.169166" lon="13.2434085"><ele>173.0</ele><time>2026-04-19T11:18:01.833Z</time></trkpt><trkpt lat="46.1693835" lon="13.2433829"><ele>173.33333333333331</ele><time>2026-04-19T11:18:02.833Z</time></trkpt><trkpt lat="46.169606" lon="13.243355"><ele>173.66666666666666</ele><time>2026-04-19T11:18:03.833Z</time></trkpt><trkpt lat="46.1698242" lon="13.2433295"><ele>174.0</ele><time>2026-04-19T11:18:04.832Z</time></trkpt><trkpt lat="46.1700482" lon="13.2433021"><ele>173.0</ele><time>2026-04-19T11:18:05.833Z</time></trkpt><trkpt lat="46.1702763" lon="13.2432733"><ele>172.0</ele><time>2026-04-19T11:18:06.832Z</time></trkpt><trkpt lat="46.1705021" lon="13.2432519"><ele>173.0</ele><time>2026-04-19T11:18:07.833Z</time></trkpt><trkpt lat="46.1707349" lon="13.243226"><ele>174.0</ele><time>2026-04-19T11:18:08.833Z</time></trkpt><trkpt lat="46.1709691" lon="13.2431914"><ele>174.0</ele><time>2026-04-19T11:18:09.833Z</time></trkpt><trkpt lat="46.1711958" lon="13.2431594"><ele>174.0</ele><time>2026-04-19T11:18:10.833Z</time></trkpt><trkpt lat="46.1714034" lon="13.2431309"><ele>174.0</ele><time>2026-04-19T11:18:11.833Z</time></trkpt><trkpt lat="46.1716009" lon="13.2431015"><ele>175.0</ele><time>2026-04-19T11:18:12.833Z</time></trkpt><trkpt lat="46.1717836" lon="13.2430773"><ele>176.0</ele><time>2026-04-19T11:18:13.833Z</time></trkpt><trkpt lat="46.1719404" lon="13.2430496"><ele>177.0</ele><time>2026-04-19T11:18:14.833Z</time></trkpt><trkpt lat="46.172066" lon="13.2430258"><ele>177.0</ele><time>2026-04-19T11:18:15.832Z</time></trkpt><trkpt lat="46.1721629" lon="13.2429972"><ele>177.0</ele><time>2026-04-19T11:18:16.832Z</time></trkpt><trkpt lat="46.1722421" lon="13.2429558"><ele>177.0</ele><time>2026-04-19T11:18:17.833Z</time></trkpt><trkpt lat="46.1723022" lon="13.2428674"><ele>177.0</ele><time>2026-04-19T11:18:18.833Z</time></trkpt><trkpt lat="46.1723347" lon="13.2427439"><ele>177.0</ele><time>2026-04-19T11:18:19.833Z</time></trkpt><trkpt lat="46.1723399" lon="13.2425937"><ele>177.0</ele><time>2026-04-19T11:18:20.833Z</time></trkpt><trkpt lat="46.1723325" lon="13.2424469"><ele>177.0</ele><time>2026-04-19T11:18:21.833Z</time></trkpt><trkpt lat="46.1723307" lon="13.2423127"><ele>177.0</ele><time>2026-04-19T11:18:22.833Z</time></trkpt><trkpt lat="46.1723308" lon="13.242187"><ele>177.0</ele><time>2026-04-19T11:18:23.832Z</time></trkpt><trkpt lat="46.1723415" lon="13.2420823"><ele>177.0</ele><time>2026-04-19T11:18:24.833Z</time></trkpt><trkpt lat="46.1723592" lon="13.2419898"><ele>177.0</ele><time>2026-04-19T11:18:25.833Z</time></trkpt><trkpt lat="46.1723567" lon="13.2418608"><ele>182.0</ele><time>2026-04-19T11:18:27.833Z</time></trkpt><trkpt lat="46.1723014" lon="13.2417978"><ele>179.0</ele><time>2026-04-19T11:18:29.832Z</time></trkpt><trkpt lat="46.17223" lon="13.2417724"><ele>179.0</ele><time>2026-04-19T11:18:31.833Z</time></trkpt></trkseg></trk></gpx>